# Wetter Temperatur Luftdruck Luftfeuchtigkeit Sichtweite Windgeschwindigkeit Windrichtung Zeit
1 Clouds 14 998 15 10000 9.82 214 12:56 22.04.2021
2 Clouds 14 998 15 10000 9.82 214 12:38 22.04.2021
3 Clouds 15 998 13 10000 9.85 216 12:19 22.04.2021
4 Clouds 15 998 13 10000 9.85 216 11:45 22.04.2021
5 Clouds 16 998 13 10000 8.34 201 11:22 22.04.2021
6 Clouds 16 998 13 10000 8.34 201 10:44 22.04.2021
7 Clouds 15 1000 17 10000 5.18 173 10:21 22.04.2021
8 Clouds 15 1000 17 10000 5.18 173 09:42 22.04.2021
9 Clouds 14 1003 20 10000 5.04 161 09:19 22.04.2021
10 Clouds 14 1003 20 10000 5.04 161 08:38 22.04.2021
11 Clouds 13 1005 23 10000 4.24 182 08:18 22.04.2021
12 Clouds 13 1005 23 10000 4.24 182 07:38 22.04.2021
13 Clouds 12 1007 24 10000 3.91 192 07:19 22.04.2021
14 Clouds 12 1009 27 10000 4.03 181 06:23 22.04.2021
15 Clouds 10 1011 35 10000 3.21 182 05:25 22.04.2021
16 Clouds 9 1012 41 10000 3.01 181 03:31 22.04.2021
17 Clouds 5 1013 56 10000 2.41 169 00:52 22.04.2021
18 Clouds 6 1012 55 10000 2.37 167 23:47 21.04.2021
19 Clear 6 1011 53 10000 2.74 172 23:25 21.04.2021
20 Clear 6 1011 53 10000 2.74 172 22:42 21.04.2021
21 Clear 7 1011 50 10000 3.08 172 22:23 21.04.2021
22 Clear 7 1011 50 10000 3.08 172 21:42 21.04.2021
23 Clouds 7 1011 47 10000 3.44 175 21:23 21.04.2021
24 Clouds 7 1011 47 10000 3.44 175 20:42 21.04.2021
25 Clouds 8 1011 44 10000 3.76 179 20:19 21.04.2021
26 Clouds 8 1011 45 10000 4 179 19:42 21.04.2021
27 Clouds 9 1009 41 10000 4.16 174 19:23 21.04.2021
28 Clouds 9 1009 41 10000 4.16 174 18:45 21.04.2021
29 Clouds 10 1008 38 10000 3.68 182 18:26 21.04.2021
30 Clouds 10 1008 38 10000 3.68 182 17:47 21.04.2021
31 Clouds 11 1007 35 10000 2.54 199 17:24 21.04.2021
32 Clouds 11 1007 35 10000 2.54 199 16:48 21.04.2021
33 Clouds 12 1004 29 10000 2.24 202 15:57 21.04.2021
34 Clouds 12 1004 29 10000 2.24 202 15:39 21.04.2021
35 Clouds 13 1002 26 10000 3.11 195 14:54 21.04.2021
36 Clouds 13 1002 26 10000 3.11 195 14:36 21.04.2021
37 Clouds 14 1000 20 10000 3.41 191 14:18 21.04.2021
38 Clouds 14 1000 20 10000 3.45 194 13:40 21.04.2021
39 Clouds 15 1000 19 10000 4.53 192 13:19 21.04.2021
40 Clouds 16 999 16 10000 6.04 190 12:29 21.04.2021
41 Clouds 16 999 16 10000 6.04 190 11:49 21.04.2021
42 Clouds 16 999 14 10000 5.12 186 11:29 21.04.2021
43 Clouds 16 999 14 10000 5.12 186 10:48 21.04.2021
44 Clouds 16 1001 14 10000 4.19 179 10:20 21.04.2021
45 Clouds 16 1001 14 10000 4.19 179 09:42 21.04.2021
46 Clouds 16 1003 15 10000 4.29 178 08:56 21.04.2021
47 Clouds 16 1003 15 10000 4.29 178 08:37 21.04.2021
48 Clear 15 1006 17 10000 3.48 187 08:19 21.04.2021
49 Clear 15 1006 17 10000 3.4 187 07:31 21.04.2021
50 Clear 13 1008 22 10000 2.59 184 06:42 21.04.2021
51 Clear 10 1012 33 10000 1.93 182 04:54 21.04.2021
52 Clouds 4 1013 49 10000 1.86 155 00:53 21.04.2021
53 Clouds 5 1011 44 10000 1.55 156 23:50 20.04.2021
54 Clouds 6 1011 38 10000 1.34 125 23:24 20.04.2021
55 Clouds 6 1011 38 10000 1.34 125 22:41 20.04.2021
56 Clouds 7 1010 33 10000 1.31 95 22:19 20.04.2021
57 Clouds 7 1010 33 10000 1.31 95 21:47 20.04.2021
58 Clouds 7 1010 32 10000 0.98 66 21:25 20.04.2021
59 Clouds 7 1010 32 10000 0.98 66 20:43 20.04.2021
60 Clouds 7 1010 32 10000 1.58 49 20:23 20.04.2021
61 Clouds 7 1010 22 10000 1.58 46 19:55 20.04.2021
62 Clouds 7 1010 22 10000 1.58 46 19:36 20.04.2021
63 Clouds 7 1010 24 10000 1.61 37 19:18 20.04.2021
64 Clouds 7 1010 24 10000 1.61 37 18:35 20.04.2021
65 Clouds 8 1009 24 10000 2.03 33 17:46 20.04.2021
66 Clouds 8 1009 24 10000 1.78 44 17:25 20.04.2021
67 Clouds 8 1009 24 10000 1.78 44 16:44 20.04.2021
68 Clouds 9 1007 23 10000 2.09 40 15:53 20.04.2021
69 Clouds 10 1005 19 10000 2.37 34 15:29 20.04.2021
70 Clouds 10 1005 19 10000 2.37 34 14:57 20.04.2021
71 Clouds 10 1005 19 10000 2.37 34 14:33 20.04.2021
72 Clouds 12 1003 15 10000 4.3 358 13:44 20.04.2021
73 Clouds 13 1001 13 10000 3.18 346 13:18 20.04.2021
74 Clouds 13 1001 13 10000 3.18 346 12:41 20.04.2021
75 Clouds 13 1001 15 10000 0.41 285 12:20 20.04.2021
76 Clouds 13 1001 15 10000 0.41 285 12:20 20.04.2021
77 Clouds 13 1001 15 10000 0.41 285 11:42 20.04.2021
78 Clouds 12 1002 19 10000 1.63 304 11:21 20.04.2021
79 Clouds 12 1002 19 10000 1.63 304 10:43 20.04.2021
80 Clouds 13 1002 15 10000 4.01 286 10:23 20.04.2021
81 Clouds 13 1003 16 10000 3.07 276 09:23 20.04.2021
82 Clouds 13 1003 16 10000 3.07 276 08:55 20.04.2021
83 Clouds 12 1005 20 10000 2.41 264 08:20 20.04.2021
84 Clouds 10 1006 31 10000 2.41 296 07:40 20.04.2021
85 Clouds 10 1006 31 10000 2.41 296 07:40 20.04.2021
86 Clouds 10 1006 31 10000 2.41 296 07:40 20.04.2021
87 Clouds 10 1007 29 10000 1.91 227 06:37 20.04.2021
88 Clouds 10 1008 29 10000 2.15 194 05:38 20.04.2021
89 Clouds 9 1009 35 10000 1.77 188 04:41 20.04.2021
90 Clouds 4 1009 55 10000 1.94 185 01:26 20.04.2021
91 Clouds 4 1009 55 10000 1.94 185 00:34 20.04.2021
92 Clouds 4 1007 49 10000 1.69 182 23:36 19.04.2021
93 Clouds 5 1006 41 10000 1.89 168 22:56 19.04.2021
94 Clouds 5 1006 41 10000 1.89 168 22:32 19.04.2021
95 Clouds 6 1005 36 10000 1.64 186 21:48 19.04.2021
96 Clouds 6 1005 31 10000 1.63 186 21:28 19.04.2021
97 Clouds 6 1005 31 10000 1.63 186 20:46 19.04.2021
98 Clouds 7 1005 26 10000 1.64 195 20:24 19.04.2021
99 Clouds 7 1004 29 10000 1.85 186 20:00 19.04.2021
100 Clouds 7 1004 29 10000 1.85 186 19:40 19.04.2021
101 Clouds 7 1004 25 10000 1.22 204 19:21 19.04.2021
102 Clouds 7 1004 25 10000 1.22 204 18:45 19.04.2021
103 Clouds 9 1003 20 10000 1.66 260 18:21 19.04.2021
104 Clouds 9 1003 20 10000 1.66 260 18:21 19.04.2021
105 Clouds 9 1003 20 10000 1.66 260 17:50 19.04.2021
106 Clouds 9 1002 14 10000 2.48 277 17:27 19.04.2021
107 Clouds 9 1002 14 10000 2.48 277 16:49 19.04.2021
108 Clouds 9 1002 14 10000 2.48 277 16:31 19.04.2021
109 Clouds 10 1000 13 10000 2.65 273 15:44 19.04.2021
110 Clouds 11 998 12 10000 4.03 254 15:25 19.04.2021
111 Clouds 11 998 12 10000 4.03 254 14:52 19.04.2021
112 Clouds 11 998 12 10000 4.03 254 14:34 19.04.2021
113 Clouds 13 996 10 10000 5.3 256 13:53 19.04.2021
114 Clouds 12 996 12 10000 5.65 262 13:30 19.04.2021
115 Clouds 14 995 9 10000 6.72 255 12:55 19.04.2021
116 Clouds 14 995 9 10000 6.72 255 12:36 19.04.2021
117 Clouds 14 995 10 10000 6.48 254 12:18 19.04.2021
118 Clouds 14 995 10 10000 6.48 254 11:43 19.04.2021
119 Clouds 14 996 11 10000 7.17 265 11:20 19.04.2021
120 Clouds 14 996 11 10000 7.17 265 10:44 19.04.2021
121 Clouds 13 997 12 10000 8.04 257 10:19 19.04.2021
122 Clouds 13 997 12 10000 8.04 257 09:43 19.04.2021
123 Clouds 12 999 19 10000 3.4 259 09:24 19.04.2021
124 Clouds 12 999 19 10000 3.4 259 08:37 19.04.2021
125 Clouds 11 1001 24 10000 2.49 205 07:50 19.04.2021
126 Clouds 11 1003 26 10000 3.7 198 07:24 19.04.2021
127 Clouds 11 1003 26 10000 3.7 198 06:52 19.04.2021
128 Clouds 10 1005 32 10000 3.45 185 05:30 19.04.2021
129 Clouds 5 1008 65 5502 3.02 182 01:49 19.04.2021
130 Clouds 5 1006 62 6066 2.54 172 00:42 19.04.2021
131 Clouds 5 1005 60 10000 2.16 171 23:21 18.04.2021
132 Clouds 5 1005 60 10000 2.16 171 22:58 18.04.2021
133 Clouds 5 1005 60 10000 2.16 171 22:34 18.04.2021
134 Clouds 6 1005 62 10000 2 156 21:57 18.04.2021
135 Clouds 6 1006 63 10000 1.85 142 21:28 18.04.2021
136 Clouds 6 1006 63 10000 1.85 142 20:55 18.04.2021
137 Clouds 6 1006 59 9816 3.2 156 20:37 18.04.2021
138 Clouds 7 1006 57 10000 1.71 168 20:18 18.04.2021
139 Clouds 7 1006 57 10000 1.71 168 19:39 18.04.2021
140 Clouds 7 1006 58 10000 0.43 141 19:19 18.04.2021
141 Clouds 7 1006 58 10000 0.43 141 18:45 18.04.2021
142 Clouds 7 1007 62 10000 0.89 111 18:25 18.04.2021
143 Clouds 7 1007 62 10000 0.89 111 17:46 18.04.2021
144 Clouds 7 1008 63 10000 0.41 323 17:27 18.04.2021
145 Clouds 7 1008 63 10000 0.41 323 16:47 18.04.2021
146 Clouds 8 1005 49 10000 1.07 223 16:29 18.04.2021
147 Clouds 8 1005 49 10000 1.07 223 15:46 18.04.2021
148 Clouds 10 1002 39 10000 1.99 221 15:27 18.04.2021
149 Clouds 10 1002 39 10000 1.99 221 14:52 18.04.2021
150 Clouds 11 1000 33 10000 1.78 192 14:23 18.04.2021
151 Clouds 11 1000 33 10000 1.78 192 13:56 18.04.2021
152 Clouds 11 1000 33 10000 1.78 192 13:38 18.04.2021
153 Clouds 11 1000 35 10000 3.64 154 13:18 18.04.2021
154 Clouds 11 1000 35 10000 3.64 154 12:32 18.04.2021
155 Clouds 11 1000 33 10000 3.27 176 11:45 18.04.2021
156 Clouds 12 1000 30 10000 2.85 203 11:22 18.04.2021
157 Clouds 12 1000 30 10000 2.85 203 10:48 18.04.2021
158 Clouds 12 1001 27 10000 2.41 216 10:23 18.04.2021
159 Clouds 12 1001 27 10000 2.41 216 09:53 18.04.2021
160 Clouds 12 1001 27 10000 2.41 216 09:53 18.04.2021
161 Clouds 12 1001 27 10000 2.41 216 09:35 18.04.2021
162 Clouds 13 1002 23 10000 3.04 190 08:58 18.04.2021
163 Clouds 13 1002 25 10000 3.15 177 08:37 18.04.2021
164 Clouds 12 1005 30 10000 3.41 186 08:18 18.04.2021
165 Clouds 12 1005 30 10000 3.41 186 07:38 18.04.2021
166 Clouds 9 1010 42 10000 3.2 188 05:43 18.04.2021
167 Clouds 8 1012 50 10000 2.78 181 05:24 18.04.2021
168 Clouds 5 1014 72 10000 1.9 175 03:26 18.04.2021
169 Clouds 4 1014 81 10000 1.64 184 02:22 18.04.2021
170 Clouds 3 1013 82 10000 1.54 179 00:40 18.04.2021
171 Clouds 4 1013 80 10000 1.44 168 23:39 17.04.2021
172 Clouds 4 1013 79 10000 1.4 173 22:52 17.04.2021
173 Clouds 4 1013 79 10000 1.4 173 22:31 17.04.2021
174 Clouds 5 1013 77 10000 1.41 176 21:50 17.04.2021
175 Clouds 5 1013 77 10000 1.41 176 21:31 17.04.2021
176 Clouds 5 1013 75 10000 1.45 169 20:51 17.04.2021
177 Clouds 5 1013 75 10000 1.85 168 20:28 17.04.2021
178 Clouds 6 1013 69 10000 1.65 169 19:46 17.04.2021
179 Clouds 6 1013 69 10000 1.65 169 19:46 17.04.2021
180 Clouds 6 1013 68 10000 1.79 163 19:22 17.04.2021
181 Clouds 6 1013 68 10000 1.79 163 18:56 17.04.2021
182 Clouds 6 1013 68 10000 1.79 163 18:36 17.04.2021
183 Clouds 6 1013 68 10000 1.79 163 18:36 17.04.2021
184 Clouds 6 1013 65 10000 1.61 168 17:57 17.04.2021
185 Clouds 6 1013 65 10000 1.61 168 17:39 17.04.2021
186 Clouds 7 1013 61 10000 1.67 173 16:53 17.04.2021
187 Clouds 7 1012 56 10000 1.53 197 16:28 17.04.2021
188 Clouds 7 1012 56 10000 1.53 197 16:28 17.04.2021
189 Clouds 7 1012 56 10000 1.53 197 15:50 17.04.2021
190 Clouds 8 1010 52 10000 0.54 314 14:50 17.04.2021
191 Clouds 7 1011 62 10000 0.79 56 14:31 17.04.2021
192 Clouds 7 1010 62 10000 1.42 18 13:48 17.04.2021
193 Clouds 7 1010 61 10000 2.51 338 13:22 17.04.2021
194 Clouds 7 1010 61 10000 2.51 338 12:41 17.04.2021
195 Clouds 8 1009 55 10000 3.59 296 12:18 17.04.2021
196 Clouds 8 1009 55 10000 3.59 296 11:39 17.04.2021
197 Clouds 9 1008 52 10000 1.68 264 11:21 17.04.2021
198 Clouds 9 1008 52 10000 1.68 264 10:42 17.04.2021
199 Clouds 9 1009 52 10000 0.12 220 10:23 17.04.2021
200 Clouds 10 1009 39 10000 0.62 309 09:22 17.04.2021
201 Clouds 10 1009 39 10000 0.62 309 08:38 17.04.2021
202 Clouds 11 1009 31 10000 1.19 142 08:19 17.04.2021
203 Clouds 10 1011 36 10000 1.37 162 06:43 17.04.2021
204 Clouds 7 1015 52 10000 1.89 155 03:51 17.04.2021
205 Clouds 6 1015 59 10000 2.13 154 02:40 17.04.2021
206 Clouds 4 1013 67 10000 1.92 153 00:44 17.04.2021
207 Clouds 5 1012 65 10000 2.03 155 00:23 17.04.2021
208 Clouds 5 1012 65 10000 2.03 155 23:46 16.04.2021
209 Clouds 5 1012 65 10000 1.86 149 23:23 16.04.2021
210 Clouds 5 1012 65 10000 1.86 149 22:43 16.04.2021
211 Clouds 5 1012 63 10000 1.9 145 22:20 16.04.2021
212 Clouds 5 1012 63 10000 1.9 145 21:50 16.04.2021
213 Clouds 6 1012 62 10000 1.87 148 21:29 16.04.2021
214 Clouds 6 1012 62 10000 1.87 148 20:50 16.04.2021
215 Clouds 5 1013 70 6786 1.69 138 20:24 16.04.2021
216 Clouds 5 1013 70 6786 1.69 138 19:50 16.04.2021
217 Clouds 5 1014 75 9533 2.61 141 19:28 16.04.2021
218 Clouds 5 1014 73 9436 2.99 153 18:28 16.04.2021
219 Clouds 5 1014 73 9436 2.99 153 17:55 16.04.2021
220 Clouds 5 1014 73 9436 2.99 153 17:36 16.04.2021
221 Clouds 6 1012 62 6477 3.52 160 17:18 16.04.2021
222 Clouds 6 1012 62 6477 3.52 160 16:41 16.04.2021
223 Clouds 9 1009 42 10000 2.54 161 16:22 16.04.2021
224 Clouds 9 1009 42 10000 2.54 161 15:43 16.04.2021
225 Clouds 10 1006 34 10000 0.22 301 15:18 16.04.2021
226 Clouds 10 1006 34 10000 0.22 301 14:41 16.04.2021
227 Clouds 11 1004 27 10000 1.78 336 14:18 16.04.2021
228 Clouds 11 1005 27 10000 1.76 18 13:42 16.04.2021
229 Clouds 11 1004 25 10000 2.05 356 13:20 16.04.2021
230 Clouds 11 1004 25 10000 2.05 356 12:47 16.04.2021
231 Clouds 12 1003 24 10000 0.97 82 12:27 16.04.2021
232 Clouds 12 1003 24 10000 0.97 82 11:49 16.04.2021
233 Clouds 12 1003 24 10000 1.98 126 11:25 16.04.2021
234 Clouds 12 1003 24 10000 1.98 126 10:46 16.04.2021
235 Clouds 12 1005 25 10000 1.63 153 10:26 16.04.2021
236 Clouds 12 1005 25 10000 1.63 153 09:52 16.04.2021
237 Clouds 11 1007 26 10000 0.42 192 09:24 16.04.2021
238 Clouds 11 1007 26 10000 0.42 192 08:46 16.04.2021
239 Clouds 12 1008 23 10000 2.06 189 08:28 16.04.2021
240 Clouds 12 1008 23 10000 2.06 189 07:52 16.04.2021
241 Clouds 12 1008 23 10000 2.06 189 07:33 16.04.2021
242 Clouds 11 1010 26 10000 1.63 193 06:56 16.04.2021
243 Clouds 10 1012 30 10000 1.25 190 05:33 16.04.2021
244 Clouds 7 1014 41 10000 0.43 142 04:18 16.04.2021
245 Clouds 5 1013 52 10000 0.68 108 00:49 16.04.2021
246 Clouds 5 1012 51 10000 0.63 82 00:23 16.04.2021
247 Clouds 5 1012 51 10000 0.63 82 23:59 15.04.2021
248 Clouds 5 1012 51 10000 0.63 82 23:35 15.04.2021
249 Clouds 5 1012 50 10000 0.91 35 22:53 15.04.2021
250 Clouds 6 1012 50 10000 1.07 7 22:26 15.04.2021
251 Clouds 6 1012 50 10000 1.07 7 21:56 15.04.2021
252 Clouds 6 1012 50 10000 1.07 7 21:37 15.04.2021
253 Clouds 6 1012 48 10000 1.11 350 21:19 15.04.2021
254 Clouds 6 1013 47 10000 0.29 332 20:40 15.04.2021
255 Clouds 6 1013 46 10000 0.9 344 20:20 15.04.2021
256 Clouds 6 1013 46 10000 0.9 344 19:42 15.04.2021
257 Clouds 6 1013 46 10000 0.82 34 19:23 15.04.2021
258 Clouds 6 1013 46 10000 0.82 34 18:41 15.04.2021
259 Clouds 7 1013 45 10000 1.13 19 18:20 15.04.2021
260 Clouds 7 1013 45 10000 1.13 19 17:54 15.04.2021
261 Clouds 7 1013 45 10000 1.13 19 17:36 15.04.2021
262 Clouds 7 1013 45 10000 1.13 19 17:36 15.04.2021
263 Clouds 7 1013 45 10000 2.94 13 16:47 15.04.2021
264 Clouds 7 1012 44 10000 3.39 31 16:26 15.04.2021
265 Clouds 7 1012 44 10000 3.39 31 15:59 15.04.2021
266 Clouds 7 1012 44 10000 3.39 31 15:40 15.04.2021
267 Clouds 8 1009 37 10000 3.35 35 15:22 15.04.2021
268 Clouds 8 1009 37 10000 3.35 35 14:38 15.04.2021
269 Clouds 10 1007 28 10000 2.78 20 14:20 15.04.2021
270 Clouds 10 1006 27 10000 1.43 14 13:41 15.04.2021
271 Clouds 10 1006 26 10000 0.89 70 13:18 15.04.2021
272 Clouds 10 1006 26 10000 0.89 70 12:39 15.04.2021
273 Clouds 10 1006 25 10000 0.76 35 12:20 15.04.2021
274 Clouds 10 1006 25 10000 0.76 35 11:44 15.04.2021
275 Clouds 11 1005 22 10000 1.36 344 11:22 15.04.2021
276 Clouds 11 1005 22 10000 1.36 344 10:49 15.04.2021
277 Clouds 11 1005 22 10000 1.36 344 10:49 15.04.2021
278 Clouds 11 1006 23 10000 0.33 8 10:27 15.04.2021
279 Clouds 11 1006 23 10000 0.33 8 09:45 15.04.2021
280 Clouds 10 1008 30 10000 0.22 24 09:18 15.04.2021
281 Clouds 9 1009 40 10000 0.91 356 08:41 15.04.2021
282 Clouds 9 1011 37 10000 2.92 285 07:52 15.04.2021
283 Clouds 10 1010 26 10000 2.31 232 07:22 15.04.2021
284 Clouds 10 1010 26 10000 2.31 232 07:22 15.04.2021
285 Clouds 10 1010 26 10000 2.31 232 06:38 15.04.2021
286 Clouds 9 1013 28 10000 1.99 218 06:20 15.04.2021
287 Clouds 8 1014 33 10000 1.86 210 04:51 15.04.2021
288 Clouds 3 1015 55 10000 2.32 172 00:54 15.04.2021
289 Clouds 4 1013 50 10000 1.52 182 23:41 14.04.2021
290 Clouds 4 1013 47 10000 2.63 185 23:19 14.04.2021
291 Clouds 4 1013 47 10000 2.63 185 22:43 14.04.2021
292 Clouds 5 1013 44 10000 2.7 182 22:25 14.04.2021
293 Clouds 5 1013 44 10000 2.7 182 22:25 14.04.2021
294 Clouds 5 1013 44 10000 2.7 182 21:47 14.04.2021
295 Clouds 6 1013 39 10000 2.82 187 21:28 14.04.2021
296 Clouds 6 1013 39 10000 2.82 187 20:56 14.04.2021
297 Clouds 6 1013 39 10000 2.82 187 20:34 14.04.2021
298 Clouds 6 1013 46 10000 2.62 182 19:53 14.04.2021
299 Clouds 7 1012 40 10000 2.68 174 19:20 14.04.2021
300 Clouds 7 1012 40 10000 2.68 174 18:57 14.04.2021
301 Clouds 7 1012 33 10000 2.6 179 18:22 14.04.2021
302 Clouds 7 1012 33 10000 2.6 179 17:58 14.04.2021
303 Clouds 9 1011 25 10000 2.98 170 17:28 14.04.2021
304 Clouds 9 1011 25 10000 2.98 170 16:54 14.04.2021
305 Clouds 9 1010 23 10000 2.8 169 16:27 14.04.2021
306 Clouds 9 1010 23 10000 2.8 169 15:44 14.04.2021
307 Clouds 10 1008 19 10000 2.73 158 15:26 14.04.2021
308 Clouds 10 1008 19 10000 2.73 158 14:53 14.04.2021
309 Clouds 11 1007 16 10000 2.56 149 14:27 14.04.2021
310 Clouds 10 1007 17 10000 3 167 13:59 14.04.2021
311 Clouds 10 1007 17 10000 3 167 13:37 14.04.2021
312 Clouds 11 1007 17 10000 2.79 155 12:40 14.04.2021
313 Clouds 11 1007 17 10000 2.48 120 11:57 14.04.2021
314 Clouds 11 1007 17 10000 2.48 120 11:39 14.04.2021
315 Clouds 11 1008 17 10000 2.02 131 11:19 14.04.2021
316 Clouds 11 1008 17 10000 2.02 131 10:33 14.04.2021
317 Clouds 11 1010 18 10000 1.07 168 09:43 14.04.2021
318 Clouds 11 1011 15 10000 0.79 83 09:23 14.04.2021
319 Clouds 11 1011 15 10000 0.79 83 08:48 14.04.2021
320 Clouds 11 1012 14 10000 0.59 123 08:23 14.04.2021
321 Clouds 10 1014 18 10000 0.42 147 07:27 14.04.2021
322 Clouds 9 1016 24 10000 0.31 172 06:27 14.04.2021
323 Clouds 7 1018 34 10000 0.09 59 05:23 14.04.2021
324 Clouds 2 1019 66 10000 1.14 11 02:24 14.04.2021
325 Clouds 2 1017 65 10000 1.28 20 00:49 14.04.2021
326 Clouds 3 1016 58 10000 1.44 23 00:27 14.04.2021
327 Clouds 3 1016 58 10000 1.44 23 23:31 13.04.2021
328 Clouds 4 1016 55 10000 1.79 16 22:44 13.04.2021
329 Clouds 5 1014 45 10000 2.01 326 22:20 13.04.2021
330 Clouds 5 1014 45 10000 2.01 326 21:48 13.04.2021
331 Clouds 5 1014 45 10000 2.01 326 21:30 13.04.2021
332 Clouds 5 1014 44 10000 1.51 304 20:48 13.04.2021
333 Clouds 6 1013 38 10000 2.02 273 20:24 13.04.2021
334 Clouds 6 1013 38 10000 2.02 273 19:57 13.04.2021
335 Clouds 7 1012 33 10000 1.77 232 19:25 13.04.2021
336 Clouds 7 1012 33 10000 1.77 232 18:48 13.04.2021
337 Clouds 7 1012 33 10000 1.77 232 18:30 13.04.2021
338 Clouds 7 1012 33 10000 1.77 232 18:30 13.04.2021
339 Clouds 7 1012 35 10000 2.02 219 17:40 13.04.2021
340 Clouds 7 1012 35 10000 1.59 153 17:19 13.04.2021
341 Clouds 7 1012 35 10000 1.59 153 16:45 13.04.2021
342 Clouds 7 1010 34 10000 0.73 155 16:26 13.04.2021
343 Clouds 7 1010 34 10000 0.73 155 15:55 13.04.2021
344 Clouds 7 1010 34 10000 0.73 155 15:36 13.04.2021
345 Clouds 8 1007 29 10000 1.79 122 14:54 13.04.2021
346 Clouds 10 1006 19 10000 0.92 142 14:24 13.04.2021
347 Clouds 10 1006 19 10000 0.92 142 13:53 13.04.2021
348 Clouds 11 1005 16 10000 0.28 241 13:27 13.04.2021
349 Clouds 11 1005 16 10000 0.28 241 12:58 13.04.2021
350 Clouds 11 1005 16 10000 0.28 241 12:37 13.04.2021
351 Clouds 11 1005 15 10000 0.65 281 12:18 13.04.2021
352 Clouds 11 1005 15 10000 0.65 281 11:34 13.04.2021
353 Clouds 11 1006 17 10000 0.67 211 10:56 13.04.2021
354 Clouds 11 1006 17 10000 0.67 211 10:56 13.04.2021
355 Clouds 11 1006 17 10000 0.67 211 10:37 13.04.2021
356 Clouds 10 1008 19 10000 0.63 231 10:18 13.04.2021
357 Clouds 10 1008 19 10000 0.63 231 09:40 13.04.2021
358 Clouds 10 1010 21 7881 2.44 257 09:18 13.04.2021
359 Clouds 10 1009 21 8045 2.32 250 09:18 13.04.2021
360 Clouds 10 1010 21 7881 2.44 257 08:42 13.04.2021
361 Clouds 10 1010 17 10000 3.15 209 08:21 13.04.2021
362 Clouds 10 1010 17 10000 3.15 209 08:21 13.04.2021
363 Clouds 10 1010 17 10000 3.15 209 07:36 13.04.2021
364 Clouds 10 1011 18 10000 3.12 196 06:59 13.04.2021
365 Clouds 9 1013 22 10000 2.82 198 05:53 13.04.2021
366 Clouds 5 1015 35 10000 2.1 207 02:47 13.04.2021
367 Clouds 4 1014 39 10000 2.19 219 01:27 13.04.2021
368 Clouds 5 1013 36 10000 2.25 217 23:49 12.04.2021
369 Clouds 5 1012 34 10000 2.04 218 23:27 12.04.2021
370 Clouds 5 1012 34 10000 2.04 218 22:43 12.04.2021
371 Clouds 5 1012 33 10000 2.26 212 22:23 12.04.2021
372 Clouds 5 1012 33 10000 2.26 212 21:46 12.04.2021
373 Clouds 6 1012 31 10000 2.27 227 21:23 12.04.2021
374 Clouds 5 1013 31 10000 2.62 215 20:45 12.04.2021
375 Clouds 6 1013 29 10000 2.62 222 20:26 12.04.2021
376 Clouds 6 1013 29 10000 2.62 222 19:58 12.04.2021
377 Clouds 6 1013 29 10000 2.62 222 19:38 12.04.2021
378 Clouds 7 1012 26 10000 3.01 220 19:19 12.04.2021
379 Clouds 7 1012 26 10000 3.01 220 18:46 12.04.2021
380 Clouds 8 1011 24 10000 3.23 223 18:27 12.04.2021
381 Clouds 8 1011 24 10000 3.23 223 17:45 12.04.2021
382 Clouds 8 1011 21 10000 3.63 222 17:24 12.04.2021
383 Clouds 8 1011 21 10000 3.63 222 16:47 12.04.2021
384 Clouds 9 1009 18 10000 3.68 229 16:28 12.04.2021
385 Clouds 9 1009 18 10000 3.68 229 15:54 12.04.2021
386 Clouds 9 1009 18 10000 3.68 229 15:33 12.04.2021
387 Clouds 10 1008 17 10000 4.49 237 14:53 12.04.2021
388 Clouds 10 1008 17 10000 4.49 237 14:35 12.04.2021
389 Clouds 11 1005 9 10000 5.04 236 13:49 12.04.2021
390 Clouds 11 1005 9 10000 5.04 236 13:30 12.04.2021
391 Clouds 12 1005 8 10000 4.45 239 12:51 12.04.2021
392 Clouds 13 1004 7 10000 5.26 254 12:27 12.04.2021
393 Clouds 13 1004 7 10000 5.26 254 11:59 12.04.2021
394 Clouds 13 1005 7 10000 6.3 251 11:24 12.04.2021
395 Clouds 13 1005 7 10000 6.3 251 10:47 12.04.2021
396 Clouds 13 1006 7 10000 5.2 234 10:27 12.04.2021
397 Clouds 13 1006 7 10000 5.2 234 09:50 12.04.2021
398 Clouds 12 1008 7 10000 4.89 215 09:21 12.04.2021
399 Clouds 12 1008 7 10000 5.17 231 08:39 12.04.2021
400 Clouds 12 1010 8 10000 4.83 223 07:42 12.04.2021
401 Clouds 11 1012 8 10000 4.1 220 07:21 12.04.2021
402 Clouds 10 1014 12 10000 3.26 212 06:27 12.04.2021
403 Clouds 10 1014 12 10000 3.26 212 05:42 12.04.2021
404 Clouds 3 1017 42 10000 1.73 198 01:40 12.04.2021
405 Clouds 3 1017 42 10000 1.73 198 01:40 12.04.2021
406 Clouds 4 1015 37 10000 2.05 206 00:26 12.04.2021
407 Clouds 4 1015 37 10000 2.05 206 23:49 11.04.2021
408 Clouds 4 1015 37 10000 2.05 206 23:31 11.04.2021
409 Clouds 4 1014 33 10000 2.33 212 22:48 11.04.2021
410 Clouds 5 1014 29 10000 2.59 212 22:26 11.04.2021
411 Clouds 5 1014 29 10000 2.59 212 21:52 11.04.2021
412 Clouds 5 1014 29 10000 2.59 212 21:31 11.04.2021
413 Clouds 5 1014 27 10000 2.88 226 20:59 11.04.2021
414 Clouds 5 1014 27 10000 2.88 226 20:37 11.04.2021
415 Clouds 6 1013 26 10000 3.03 228 20:18 11.04.2021
416 Clouds 6 1013 26 10000 3.03 228 19:39 11.04.2021
417 Clouds 7 1013 24 10000 3.33 227 19:19 11.04.2021
418 Clouds 7 1013 24 10000 3.33 227 18:46 11.04.2021
419 Clouds 8 1012 21 10000 3.48 224 18:26 11.04.2021
420 Clouds 8 1012 21 10000 3.48 224 17:50 11.04.2021
421 Clouds 9 1010 17 10000 3.95 220 17:29 11.04.2021
422 Clouds 9 1010 17 10000 3.95 220 16:53 11.04.2021
423 Clouds 10 1009 15 10000 3.98 215 16:28 11.04.2021
424 Clouds 10 1009 15 10000 3.98 215 16:28 11.04.2021
425 Clouds 10 1009 15 10000 3.98 215 15:59 11.04.2021
426 Clouds 10 1009 15 10000 3.98 215 15:40 11.04.2021
427 Clouds 10 1007 11 10000 4.49 224 15:22 11.04.2021
428 Clouds 10 1007 11 10000 4.49 224 14:48 11.04.2021
429 Clouds 12 1005 6 10000 5.12 263 14:19 11.04.2021
430 Clouds 12 1005 6 10000 5.12 263 13:39 11.04.2021
431 Clouds 13 1004 5 10000 7.44 275 13:21 11.04.2021
432 Clouds 14 1004 5 10000 7.37 271 12:26 11.04.2021
433 Clouds 14 1004 5 10000 7.37 271 11:53 11.04.2021
434 Clouds 14 1004 5 10000 7.37 271 11:33 11.04.2021
435 Clouds 14 1004 5 10000 6.91 258 10:58 11.04.2021
436 Clouds 14 1004 5 10000 6.91 258 10:39 11.04.2021
437 Clouds 14 1005 5 10000 6.47 251 10:20 11.04.2021
438 Clouds 14 1005 5 10000 6.47 251 09:40 11.04.2021
439 Clouds 13 1007 7 10000 5.2 241 09:22 11.04.2021
440 Clouds 13 1007 7 10000 5.2 241 08:39 11.04.2021
441 Clouds 12 1009 12 10000 2.94 234 07:38 11.04.2021
442 Clouds 11 1011 15 10000 3.14 217 07:19 11.04.2021
443 Clouds 10 1013 19 10000 2.76 198 05:47 11.04.2021
444 Clouds 9 1014 25 10000 1.78 213 05:22 11.04.2021
445 Clouds 9 1014 25 10000 1.78 213 04:35 11.04.2021
446 Clouds 7 1015 31 10000 1.55 227 03:35 11.04.2021
447 Clouds 3 1014 45 10000 1.55 235 00:51 11.04.2021
448 Clouds 4 1013 42 10000 1.78 216 00:25 11.04.2021
449 Clouds 4 1013 42 10000 1.78 216 23:44 10.04.2021
450 Clouds 4 1012 38 10000 1.9 215 22:55 10.04.2021
451 Clouds 5 1012 35 10000 2.24 205 22:28 10.04.2021
452 Clouds 5 1012 35 10000 2.24 205 21:53 10.04.2021
453 Clouds 5 1012 32 10000 2.26 207 21:25 10.04.2021
454 Clouds 5 1012 32 10000 2.26 207 20:56 10.04.2021
455 Clouds 5 1011 32 10000 2.1 217 20:34 10.04.2021
456 Clouds 6 1011 30 10000 2.22 225 19:59 10.04.2021
457 Clouds 6 1011 30 10000 2.22 225 19:41 10.04.2021
458 Clouds 6 1011 27 10000 2.69 213 19:23 10.04.2021
459 Clouds 6 1011 27 10000 2.69 213 18:41 10.04.2021
460 Clouds 7 1010 25 10000 2.92 208 18:23 10.04.2021
461 Clouds 7 1010 25 10000 2.92 208 17:35 10.04.2021
462 Clouds 8 1009 23 10000 2.65 208 16:43 10.04.2021
463 Clouds 10 1007 20 10000 3.14 221 16:24 10.04.2021
464 Clouds 10 1007 20 10000 3.14 221 15:48 10.04.2021
465 Clouds 10 1005 19 10000 4.12 242 14:55 10.04.2021
466 Clouds 10 1005 19 10000 4.12 242 14:34 10.04.2021
467 Clouds 11 1004 19 10000 3.76 237 13:56 10.04.2021
468 Clouds 11 1004 19 10000 3.76 237 13:36 10.04.2021
469 Clouds 12 1003 17 10000 2.14 210 12:43 10.04.2021
470 Clouds 12 1003 17 10000 2.14 210 12:43 10.04.2021
471 Clouds 12 1002 16 10000 2.65 200 12:20 10.04.2021
472 Clouds 12 1002 16 10000 2.65 200 11:45 10.04.2021
473 Clouds 13 1002 15 10000 3.95 209 11:23 10.04.2021
474 Clouds 13 1002 15 10000 3.95 209 10:51 10.04.2021
475 Clouds 13 1002 15 10000 3.95 209 10:31 10.04.2021
476 Clouds 13 1002 14 10000 4.27 201 09:44 10.04.2021
477 Clouds 13 1004 14 10000 4.19 210 09:19 10.04.2021
478 Clouds 13 1004 13 10000 4.67 215 08:36 10.04.2021
479 Clouds 12 1006 15 10000 4.15 211 08:18 10.04.2021
480 Clouds 11 1008 20 10000 3.91 187 07:26 10.04.2021
481 Clouds 11 1008 20 10000 3.91 187 06:42 10.04.2021
482 Clear 10 1011 28 10000 2.58 183 05:36 10.04.2021
483 Clear 7 1013 44 10000 1.76 176 03:42 10.04.2021
484 Clear 5 1014 50 10000 1.36 174 02:48 10.04.2021
485 Clear 3 1013 60 10000 1.58 187 01:28 10.04.2021
486 Clear 3 1013 60 10000 1.58 187 00:37 10.04.2021
487 Clear 3 1012 55 10000 1.82 183 23:58 09.04.2021
488 Clear 3 1012 55 10000 1.82 183 23:34 09.04.2021
489 Clear 4 1011 50 10000 2.14 182 22:56 09.04.2021
490 Clear 4 1011 50 10000 2.14 182 22:36 09.04.2021
491 Clear 5 1010 46 10000 2.06 190 21:41 09.04.2021
492 Clear 5 1010 46 10000 2.06 190 21:41 09.04.2021
493 Clear 5 1010 45 10000 1.8 193 21:22 09.04.2021
494 Clear 5 1010 45 10000 1.8 193 20:57 09.04.2021
495 Clear 5 1010 45 10000 1.8 193 20:39 09.04.2021
496 Clouds 6 1010 39 10000 1.75 199 20:20 09.04.2021
497 Clouds 6 1010 39 10000 1.75 199 19:43 09.04.2021
498 Clouds 7 1009 36 10000 1.88 192 19:22 09.04.2021
499 Clouds 7 1009 36 10000 1.88 192 18:44 09.04.2021
500 Clouds 8 1008 28 10000 2.23 197 18:25 09.04.2021
501 Clouds 8 1008 28 10000 2.23 197 17:49 09.04.2021
502 Clouds 8 1008 28 10000 2.23 197 17:31 09.04.2021
503 Clouds 9 1007 21 10000 2.83 212 16:55 09.04.2021
504 Clouds 9 1007 21 10000 2.83 212 16:30 09.04.2021
505 Clouds 10 1005 17 10000 3.45 210 15:47 09.04.2021
506 Clouds 11 1003 16 10000 3.53 240 15:24 09.04.2021
507 Clouds 11 1003 16 10000 3.53 240 14:47 09.04.2021
508 Clouds 12 1002 14 10000 4.06 245 14:29 09.04.2021
509 Clouds 11 1003 24 10000 3.86 190 13:49 09.04.2021
510 Clouds 12 1002 18 10000 4.09 202 13:23 09.04.2021
511 Clouds 12 1002 18 10000 4.09 202 12:48 09.04.2021
512 Clouds 12 1001 16 10000 3.91 197 12:27 09.04.2021
513 Clouds 12 1001 16 10000 3.91 197 11:44 09.04.2021
514 Clouds 13 1001 13 10000 3.09 226 11:21 09.04.2021
515 Clouds 13 1001 13 10000 3.09 226 10:40 09.04.2021
516 Clouds 13 1002 12 10000 3.35 246 10:18 09.04.2021
517 Clouds 13 1003 10 10000 5.2 254 09:29 09.04.2021
518 Clouds 13 1003 10 10000 5.2 254 08:56 09.04.2021
519 Clouds 13 1003 10 10000 5.2 254 08:34 09.04.2021
520 Clouds 13 1005 10 10000 6.44 248 07:34 09.04.2021
521 Clouds 12 1007 13 10000 3.92 233 06:30 09.04.2021
522 Clear 10 1010 23 10000 2.42 203 05:45 09.04.2021
523 Clear 7 1013 47 10000 1.07 174 03:43 09.04.2021
524 Clear 3 1013 62 10000 1.25 143 00:40 09.04.2021
525 Clouds 4 1011 58 10000 1.42 147 00:21 09.04.2021
526 Clouds 4 1011 58 10000 1.42 147 23:57 08.04.2021
527 Clouds 4 1011 53 10000 1.51 144 22:58 08.04.2021
528 Clouds 4 1011 53 10000 1.51 144 22:38 08.04.2021
529 Clouds 5 1010 49 10000 1.43 147 22:20 08.04.2021
530 Clouds 5 1010 49 10000 1.43 147 21:54 08.04.2021
531 Clouds 5 1010 49 10000 1.43 147 21:54 08.04.2021
532 Clouds 5 1010 49 10000 1.43 147 21:36 08.04.2021
533 Clouds 6 1009 45 10000 1.08 163 21:18 08.04.2021
534 Clouds 6 1009 45 10000 1.08 163 20:42 08.04.2021
535 Clouds 7 1008 44 10000 1.09 178 20:20 08.04.2021
536 Clouds 7 1008 44 10000 1.09 178 19:41 08.04.2021
537 Clouds 7 1008 41 10000 1.22 190 19:19 08.04.2021
538 Clouds 7 1008 41 10000 1.22 190 18:44 08.04.2021
539 Clouds 8 1007 35 10000 1.37 205 18:20 08.04.2021
540 Clouds 8 1007 35 10000 1.37 205 17:47 08.04.2021
541 Clouds 9 1005 31 10000 1.22 185 17:21 08.04.2021
542 Clouds 9 1005 31 10000 1.22 185 16:45 08.04.2021
543 Clouds 10 1003 27 10000 0.93 201 16:25 08.04.2021
544 Clouds 10 1003 27 10000 0.93 201 15:47 08.04.2021
545 Clouds 11 1002 24 10000 1.05 189 15:28 08.04.2021
546 Clouds 11 1002 24 10000 1.05 189 14:44 08.04.2021
547 Clouds 11 1002 26 10000 0.81 176 14:23 08.04.2021
548 Clouds 11 1002 26 10000 0.81 176 13:54 08.04.2021
549 Clouds 11 1002 26 10000 0.81 176 13:36 08.04.2021
550 Clouds 12 1000 23 10000 0.55 176 13:18 08.04.2021
551 Clouds 12 1000 23 10000 0.55 176 12:38 08.04.2021
552 Clouds 13 1000 20 10000 1.25 197 11:59 08.04.2021
553 Clouds 13 1000 20 10000 1.25 197 11:37 08.04.2021
554 Clouds 13 1000 20 10000 2.21 211 10:56 08.04.2021
555 Clouds 13 1002 22 10000 2.27 197 10:28 08.04.2021
556 Clouds 13 1002 22 10000 2.27 197 09:51 08.04.2021
557 Clouds 13 1002 22 10000 2.27 197 09:33 08.04.2021
558 Clouds 12 1004 22 10000 2.65 213 08:45 08.04.2021
559 Clouds 12 1004 22 10000 2.65 213 08:45 08.04.2021
560 Clouds 12 1004 22 10000 2.65 213 08:45 08.04.2021
561 Clouds 11 1007 33 10000 1.99 166 08:24 08.04.2021
562 Clouds 11 1007 33 10000 1.99 166 07:53 08.04.2021
563 Clouds 9 1010 41 10000 1.57 154 06:48 08.04.2021
564 Clouds 4 1014 69 7313 0.82 137 02:34 08.04.2021
565 Clouds 3 1013 80 10000 1.18 120 00:34 08.04.2021
566 Clouds 4 1012 77 10000 1.78 116 23:56 07.04.2021
567 Clouds 4 1012 77 10000 1.78 116 23:37 07.04.2021
568 Clouds 5 1012 69 10000 1.14 110 23:18 07.04.2021
569 Clouds 5 1012 69 10000 1.14 110 22:43 07.04.2021
570 Clouds 5 1011 67 10000 1.18 116 22:22 07.04.2021
571 Clouds 5 1011 67 10000 1.18 116 22:22 07.04.2021
572 Clouds 5 1011 67 10000 1.18 116 21:42 07.04.2021
573 Clouds 5 1011 65 10000 1.51 116 21:21 07.04.2021
574 Clouds 5 1011 64 10000 2.09 123 20:42 07.04.2021
575 Clouds 6 1010 60 9887 2.76 143 20:20 07.04.2021
576 Clouds 6 1010 60 9887 2.76 143 19:42 07.04.2021
577 Clouds 6 1010 59 8580 2.7 148 19:24 07.04.2021
578 Clouds 6 1010 59 8580 2.7 148 18:47 07.04.2021
579 Clouds 8 1008 48 10000 2.32 140 18:19 07.04.2021
580 Clouds 8 1008 48 10000 2.32 140 17:53 07.04.2021
581 Clouds 8 1008 48 10000 2.32 140 17:35 07.04.2021
582 Clouds 9 1007 39 10000 2.75 149 16:48 07.04.2021
583 Clouds 10 1005 35 10000 3.3 147 16:22 07.04.2021
584 Clouds 10 1005 35 10000 3.3 147 15:57 07.04.2021
585 Clouds 10 1005 35 10000 3.3 147 15:38 07.04.2021
586 Clouds 10 1004 31 10000 2.66 133 14:52 07.04.2021
587 Clouds 11 1002 24 10000 2.09 128 14:25 07.04.2021
588 Clouds 11 1002 24 10000 2.09 128 13:47 07.04.2021
589 Clouds 13 1001 18 10000 0.4 243 13:23 07.04.2021
590 Clouds 13 1001 18 10000 0.4 243 12:49 07.04.2021
591 Clouds 13 1000 17 10000 2.2 262 12:22 07.04.2021
592 Clouds 13 1000 17 10000 2.2 262 11:48 07.04.2021
593 Clouds 13 1001 19 10000 2.15 222 11:25 07.04.2021
594 Clouds 13 1001 19 10000 2.15 222 10:51 07.04.2021
595 Clouds 13 1003 21 10000 1.76 203 09:57 07.04.2021
596 Clouds 13 1003 21 10000 1.76 203 09:38 07.04.2021
597 Clouds 13 1004 21 10000 2.51 210 09:19 07.04.2021
598 Clouds 13 1005 22 10000 3.27 189 08:33 07.04.2021
599 Clouds 13 1005 22 10000 3.27 189 08:33 07.04.2021
600 Clouds 12 1007 27 10000 3.44 164 07:58 07.04.2021
601 Clouds 12 1007 27 10000 3.44 164 07:30 07.04.2021
602 Clouds 11 1011 34 10000 2.64 169 06:59 07.04.2021
603 Clouds 9 1013 43 10000 2.31 159 06:21 07.04.2021
604 Clouds 6 1017 61 10000 1.54 152 04:22 07.04.2021
605 Clouds 2 1017 86 10000 0.99 57 00:19 07.04.2021
606 Clouds 2 1017 86 10000 0.99 57 23:42 06.04.2021
607 Clouds 3 1016 82 10000 1 66 23:18 06.04.2021
608 Clouds 3 1016 82 10000 1 66 22:38 06.04.2021
609 Clouds 4 1016 78 10000 0.81 88 22:18 06.04.2021
610 Clouds 4 1016 78 10000 0.81 88 21:40 06.04.2021
611 Clouds 4 1017 81 10000 1.63 99 21:21 06.04.2021
612 Clouds 4 1017 81 10000 1.63 99 20:52 06.04.2021
613 Clouds 4 1017 83 7410 1.63 65 20:22 06.04.2021
614 Clouds 4 1017 83 7410 1.63 65 19:52 06.04.2021
615 Clouds 4 1017 83 7410 1.63 65 19:33 06.04.2021
616 Clouds 5 1016 71 2469 2.39 358 18:51 06.04.2021
617 Clouds 5 1016 71 2469 2.39 358 18:32 06.04.2021
618 Clouds 6 1014 55 9164 1.72 24 17:54 06.04.2021
619 Clouds 6 1014 55 9164 1.72 24 17:36 06.04.2021
620 Clouds 7 1012 51 6242 2.06 55 17:18 06.04.2021
621 Clouds 7 1012 51 6242 2.06 55 16:40 06.04.2021
622 Clouds 8 1010 41 8952 1.75 55 15:46 06.04.2021
623 Clouds 9 1007 32 10000 1.61 82 15:22 06.04.2021
624 Clouds 9 1007 32 10000 1.61 82 14:40 06.04.2021
625 Clouds 12 1003 16 10000 2.92 170 14:20 06.04.2021
626 Clouds 12 1003 16 10000 2.92 170 13:46 06.04.2021
627 Clouds 13 1002 13 10000 2.98 200 13:25 06.04.2021
628 Clouds 13 1002 13 10000 2.98 200 12:42 06.04.2021
629 Clouds 13 1001 13 10000 3.56 216 12:22 06.04.2021
630 Clouds 13 1001 13 10000 3.56 216 11:52 06.04.2021
631 Clouds 14 1001 12 10000 3.92 205 11:22 06.04.2021
632 Clouds 14 1001 12 10000 3.92 205 10:51 06.04.2021
633 Clouds 14 1001 12 10000 3.92 205 10:32 06.04.2021
634 Clouds 13 1003 12 10000 4.11 191 09:58 06.04.2021
635 Clouds 13 1003 12 10000 4.11 191 09:38 06.04.2021
636 Clouds 13 1005 15 10000 3.47 183 08:45 06.04.2021
637 Clouds 12 1008 18 10000 2.77 183 08:19 06.04.2021
638 Clouds 11 1010 20 10000 2.1 185 06:56 06.04.2021
639 Clouds 9 1013 24 10000 2.05 180 06:20 06.04.2021
640 Clouds 4 1016 34 10000 1.76 150 02:59 06.04.2021
641 Clouds 2 1015 38 10000 1.92 154 00:46 06.04.2021
642 Clouds 3 1014 34 10000 1.66 138 00:21 06.04.2021
643 Clouds 3 1014 34 10000 1.66 138 23:44 05.04.2021
644 Clouds 3 1014 30 10000 1.87 141 23:22 05.04.2021
645 Clouds 3 1014 30 10000 1.87 141 22:48 05.04.2021
646 Clouds 4 1013 27 10000 1.86 140 22:27 05.04.2021
647 Clouds 4 1013 27 10000 1.86 140 21:45 05.04.2021
648 Clouds 5 1013 23 10000 1.98 133 21:22 05.04.2021
649 Clouds 5 1013 23 10000 1.98 133 20:45 05.04.2021
650 Clouds 5 1013 23 10000 1.98 133 20:27 05.04.2021
651 Clouds 5 1013 23 10000 1.98 133 19:44 05.04.2021
652 Clouds 7 1012 17 10000 2.4 157 19:24 05.04.2021
653 Clouds 7 1012 17 10000 2.4 157 18:55 05.04.2021
654 Clouds 7 1012 17 10000 2.4 157 18:37 05.04.2021
655 Clouds 7 1012 15 10000 2.47 167 18:18 05.04.2021
656 Clouds 7 1012 15 10000 2.47 167 17:45 05.04.2021
657 Clouds 7 1012 13 10000 2.22 152 17:21 05.04.2021
658 Clouds 7 1012 13 10000 2.22 152 16:44 05.04.2021
659 Clouds 8 1010 12 10000 2.33 134 16:21 05.04.2021
660 Clouds 8 1010 12 10000 2.33 134 15:54 05.04.2021
661 Clouds 8 1010 12 10000 2.33 134 15:30 05.04.2021
662 Clouds 9 1009 11 10000 2.32 133 14:54 05.04.2021
663 Clouds 9 1009 11 10000 2.32 133 14:35 05.04.2021
664 Clouds 9 1008 11 10000 2.72 139 13:32 05.04.2021
665 Clouds 10 1007 10 10000 3.09 141 12:57 05.04.2021
666 Clouds 10 1007 10 10000 3.09 141 12:37 05.04.2021
667 Clouds 10 1008 9 10000 1.74 140 12:19 05.04.2021
668 Clouds 10 1008 9 10000 1.74 140 11:42 05.04.2021
669 Clear 10 1009 10 10000 0.8 134 11:22 05.04.2021
670 Clear 10 1009 10 10000 0.8 134 10:45 05.04.2021
671 Clear 10 1011 11 10000 0.37 121 10:27 05.04.2021
672 Clear 10 1011 11 10000 0.37 121 09:48 05.04.2021
673 Clear 9 1013 12 10000 0.31 165 09:24 05.04.2021
674 Clear 9 1013 12 10000 0.31 165 08:45 05.04.2021
675 Clear 8 1016 17 10000 0.88 178 08:26 05.04.2021
676 Clear 8 1016 17 10000 0.88 178 07:37 05.04.2021
677 Clear 7 1019 19 10000 0.75 187 06:32 05.04.2021
678 Clear -2 1024 53 10000 1.18 35 01:57 05.04.2021
679 Clear -2 1022 55 10000 1.4 20 00:50 05.04.2021
680 Clear -2 1021 55 10000 1.5 19 23:52 04.04.2021
681 Clear -1 1021 54 10000 1.33 6 23:28 04.04.2021
682 Clear -1 1021 54 10000 1.33 6 22:52 04.04.2021
683 Clear -1 1021 54 10000 1.33 6 22:30 04.04.2021
684 Clear -1 1020 52 10000 0.31 60 21:29 04.04.2021
685 Clear -1 1020 52 10000 0.31 60 20:58 04.04.2021
686 Clear 0 1020 66 10000 0.53 234 20:30 04.04.2021
687 Clouds 0 1019 63 10000 0.51 210 19:58 04.04.2021
688 Clouds 0 1019 63 10000 0.51 210 19:37 04.04.2021
689 Clouds 1 1019 60 10000 0.74 160 19:18 04.04.2021
690 Clouds 1 1019 60 10000 0.74 160 18:44 04.04.2021
691 Clouds 2 1019 55 10000 0.42 55 18:24 04.04.2021
692 Clouds 2 1019 55 10000 0.42 55 17:44 04.04.2021
693 Clouds 2 1018 54 10000 1.43 29 17:24 04.04.2021
694 Clouds 2 1018 54 10000 1.43 29 16:47 04.04.2021
695 Clouds 2 1017 56 10000 1.21 38 16:20 04.04.2021
696 Clouds 2 1017 56 10000 1.21 38 15:36 04.04.2021
697 Clouds 2 1015 56 10000 1.27 90 14:46 04.04.2021
698 Clouds 4 1012 46 10000 1.82 50 14:27 04.04.2021
699 Clouds 4 1012 46 10000 1.82 50 13:52 04.04.2021
700 Clouds 6 1009 31 10000 2.55 8 13:25 04.04.2021
701 Clouds 6 1009 31 10000 2.55 8 12:44 04.04.2021
702 Clouds 7 1008 25 10000 1.59 342 12:25 04.04.2021
703 Clouds 7 1008 25 10000 1.59 342 11:42 04.04.2021
704 Clouds 7 1009 28 10000 0.75 315 11:24 04.04.2021
705 Clouds 7 1009 28 10000 0.75 315 10:46 04.04.2021
706 Clouds 6 1010 32 10000 0.83 306 09:59 04.04.2021
707 Clouds 5 1012 35 10000 0.68 265 09:26 04.04.2021
708 Clouds 5 1012 35 10000 0.68 265 08:55 04.04.2021
709 Clouds 5 1012 35 10000 0.68 265 08:37 04.04.2021
710 Clouds 4 1013 41 4460 0.28 170 08:19 04.04.2021
711 Clouds 2 1016 56 10000 1.86 133 06:39 04.04.2021
712 Clouds 2 1017 60 5137 2.45 151 05:33 04.04.2021
713 Snow 0 1015 70 6313 2.72 148 01:33 04.04.2021
714 Snow 1 1013 69 7192 2.34 155 00:25 04.04.2021
715 Snow 1 1013 69 7192 2.34 155 23:52 03.04.2021
716 Snow 1 1013 69 7192 2.34 155 23:33 03.04.2021
717 Snow 2 1011 57 4239 2.02 179 22:53 03.04.2021
718 Clouds 3 1010 51 2263 2.64 172 22:23 03.04.2021
719 Clouds 3 1010 51 2263 2.64 172 21:56 03.04.2021
720 Clouds 3 1010 51 2263 2.64 172 21:38 03.04.2021
721 Clouds 4 1010 43 6071 3.43 168 21:18 03.04.2021
722 Clouds 4 1010 43 6071 3.43 168 20:30 03.04.2021
723 Clouds 5 1009 35 10000 3.07 174 19:52 03.04.2021
724 Clouds 5 1009 35 10000 3.07 174 19:34 03.04.2021
725 Clouds 5 1008 28 10000 3.26 180 18:57 03.04.2021
726 Clouds 5 1008 28 10000 3.26 180 18:36 03.04.2021
727 Clouds 6 1008 24 10000 3.73 185 17:58 03.04.2021
728 Clouds 7 1007 22 10000 3.86 187 17:28 03.04.2021
729 Clouds 7 1007 22 10000 3.86 187 16:58 03.04.2021
730 Clouds 7 1007 22 10000 3.86 187 16:31 03.04.2021
731 Clouds 7 1005 19 10000 4.62 182 15:53 03.04.2021
732 Clouds 7 1005 19 10000 4.62 182 15:32 03.04.2021
733 Clouds 8 1003 16 10000 4.01 186 14:59 03.04.2021
734 Clouds 7 1004 18 10000 2.99 175 14:37 03.04.2021
735 Clouds 8 1002 14 10000 2.81 189 14:18 03.04.2021
736 Clouds 8 1002 14 10000 2.81 189 13:40 03.04.2021
737 Clouds 9 1001 13 10000 2.86 197 13:20 03.04.2021
738 Clouds 9 1001 13 10000 2.86 197 12:41 03.04.2021
739 Clouds 9 1001 13 8436 3.31 201 12:19 03.04.2021
740 Clouds 9 1001 13 8436 3.31 201 11:32 03.04.2021
741 Clouds 10 1001 12 10000 4.38 212 10:49 03.04.2021
742 Clouds 10 1001 12 10000 4.38 212 10:30 03.04.2021
743 Clouds 10 1002 10 10000 4.15 207 09:50 03.04.2021
744 Clouds 10 1003 11 10000 3.97 204 09:27 03.04.2021
745 Clouds 10 1003 11 10000 3.97 204 08:40 03.04.2021
746 Clouds 9 1006 14 10000 3.73 205 08:21 03.04.2021
747 Clouds 7 1009 19 10000 3.96 197 07:27 03.04.2021
748 Clouds 6 1011 28 10000 3.33 195 05:33 03.04.2021
749 Clouds 3 1012 47 10000 3.2 175 03:35 03.04.2021
750 Clouds 1 1012 51 10000 3.02 169 02:38 03.04.2021
751 Clear -1 1013 55 10000 2.57 169 01:56 03.04.2021
752 Clear 0 1010 52 10000 2.86 167 00:20 03.04.2021
753 Clear 0 1010 52 10000 2.86 167 23:46 02.04.2021
754 Clear 0 1010 48 10000 2.94 169 23:24 02.04.2021
755 Clear 0 1010 48 10000 2.94 169 22:50 02.04.2021
756 Clear 0 1010 48 10000 2.94 169 22:32 02.04.2021
757 Clear 1 1009 45 10000 3.1 167 21:42 02.04.2021
758 Clear 2 1009 41 10000 3.47 165 21:23 02.04.2021
759 Clear 2 1009 41 10000 3.47 165 20:48 02.04.2021
760 Clouds 3 1008 37 10000 3.38 170 20:27 02.04.2021
761 Clouds 3 1008 37 10000 3.38 170 19:56 02.04.2021
762 Clouds 3 1008 37 10000 3.38 170 19:37 02.04.2021
763 Clouds 4 1007 34 10000 3.51 176 19:19 02.04.2021
764 Clouds 4 1007 34 10000 3.51 176 18:38 02.04.2021
765 Clouds 5 1006 30 10000 3.45 184 18:19 02.04.2021
766 Clouds 5 1006 30 10000 3.45 184 17:37 02.04.2021
767 Clouds 5 1005 27 10000 3.72 192 16:48 02.04.2021
768 Clouds 6 1003 25 10000 4.01 187 15:54 02.04.2021
769 Clouds 6 1003 25 10000 4.01 187 15:32 02.04.2021
770 Clouds 7 1001 22 10000 4.11 187 14:48 02.04.2021
771 Clouds 8 999 18 10000 5.28 192 14:27 02.04.2021
772 Clouds 8 999 18 10000 5.28 192 13:42 02.04.2021
773 Clouds 10 997 14 10000 6.7 209 13:19 02.04.2021
774 Clouds 10 997 14 10000 6.7 209 12:41 02.04.2021
775 Clouds 10 997 14 10000 6.7 209 12:41 02.04.2021
776 Clouds 11 995 10 10000 5.08 216 12:20 02.04.2021
777 Clouds 11 995 10 10000 5.08 216 11:54 02.04.2021
778 Clouds 12 995 9 10000 4.09 238 11:20 02.04.2021
779 Clouds 12 995 9 10000 4.09 238 10:46 02.04.2021
780 Clouds 12 996 10 10000 5.05 251 10:28 02.04.2021
781 Clouds 12 996 10 10000 5.05 251 09:52 02.04.2021
782 Clouds 10 999 15 10000 2.43 237 09:27 02.04.2021
783 Clouds 10 999 15 10000 2.43 237 08:51 02.04.2021
784 Clouds 8 1002 22 10000 2.38 201 08:29 02.04.2021
785 Clouds 8 1002 22 10000 2.28 197 07:30 02.04.2021
786 Clouds 7 1004 27 10000 3.04 189 06:47 02.04.2021
787 Clouds 7 1004 27 10000 3.04 189 06:47 02.04.2021
788 Clouds 5 1007 37 10000 3.84 180 04:49 02.04.2021
789 Clouds 1 1007 75 7889 3.09 176 02:27 02.04.2021
790 Clouds 2 1005 65 10000 3.34 180 00:50 02.04.2021
791 Clouds 3 1003 52 10000 3.5 176 00:18 02.04.2021
792 Clouds 3 1003 52 10000 3.5 176 23:35 01.04.2021
793 Clouds 4 1002 46 10000 3.25 173 22:55 01.04.2021
794 Clouds 4 1001 44 10000 3.34 172 22:19 01.04.2021
795 Clouds 4 1001 44 10000 3.34 172 21:49 01.04.2021
796 Clouds 5 1000 41 10000 3.4 174 21:26 01.04.2021
797 Clouds 5 1000 41 10000 3.4 174 20:45 01.04.2021
798 Clouds 6 1000 38 10000 3.54 176 20:24 01.04.2021
799 Clouds 6 1000 38 10000 3.54 176 19:54 01.04.2021
800 Clouds 6 1000 38 10000 3.54 176 19:35 01.04.2021
801 Clouds 6 1000 38 10000 3.54 176 19:35 01.04.2021
802 Clouds 6 999 36 10000 4.04 176 18:45 01.04.2021
803 Clouds 7 998 34 10000 4.35 177 18:18 01.04.2021
804 Clouds 7 998 34 10000 4.35 177 17:51 01.04.2021
805 Clouds 7 998 34 10000 4.35 177 17:32 01.04.2021
806 Clouds 8 997 32 10000 4.52 171 16:51 01.04.2021
807 Clouds 9 995 31 10000 4.49 168 16:28 01.04.2021
808 Clouds 9 995 31 10000 4.49 168 15:47 01.04.2021
809 Clouds 10 993 30 10000 4.9 170 15:20 01.04.2021
810 Clouds 10 993 30 10000 4.9 170 14:45 01.04.2021
811 Clouds 11 991 26 10000 5.13 178 14:26 01.04.2021
812 Clouds 11 991 26 10000 5.31 182 13:55 01.04.2021
813 Clouds 11 991 26 10000 5.31 182 13:30 01.04.2021
814 Clouds 12 989 22 10000 5.43 186 12:51 01.04.2021
815 Clouds 12 989 22 10000 5.43 186 12:32 01.04.2021
816 Clouds 13 987 19 10000 5.01 189 11:49 01.04.2021
817 Clouds 13 988 20 10000 4.9 196 11:24 01.04.2021
818 Clouds 13 988 20 10000 4.9 196 10:56 01.04.2021
819 Clouds 13 988 20 10000 4.9 196 10:37 01.04.2021
820 Clouds 13 989 23 10000 4.09 191 09:56 01.04.2021
821 Clouds 12 992 27 10000 3.88 185 09:27 01.04.2021
822 Clouds 12 993 25 10000 4 189 08:33 01.04.2021
823 Clouds 11 995 28 10000 4.02 185 07:59 01.04.2021
824 Clouds 10 998 31 10000 4.04 180 07:20 01.04.2021
825 Clouds 10 998 31 10000 4.04 180 06:49 01.04.2021
826 Clouds 6 1002 45 10000 3.23 174 03:52 01.04.2021
827 Clouds 3 1002 59 10000 2.81 163 01:52 01.04.2021
828 Clouds 3 1000 57 10000 2.97 162 23:51 31.03.2021
829 Clouds 3 1000 57 10000 2.97 162 23:32 31.03.2021
830 Clear 4 1000 54 10000 3.13 162 22:42 31.03.2021
831 Clear 5 999 51 10000 3.43 165 22:21 31.03.2021
832 Clear 5 999 51 10000 3.43 165 21:47 31.03.2021
833 Clear 6 999 49 10000 3.63 168 21:24 31.03.2021
834 Clear 6 999 49 10000 3.63 168 20:58 31.03.2021
835 Clear 6 999 49 10000 3.63 168 20:40 31.03.2021
836 Clear 7 998 46 10000 3.99 174 20:18 31.03.2021
837 Clear 7 998 46 10000 3.99 174 19:41 31.03.2021
838 Clear 8 997 42 10000 4.28 178 19:19 31.03.2021
839 Clear 8 997 42 10000 4.28 178 18:51 31.03.2021
840 Clear 9 996 38 10000 4.5 182 18:22 31.03.2021
841 Clear 9 996 38 10000 4.5 182 17:37 31.03.2021
842 Clouds 10 994 33 10000 4.65 182 17:18 31.03.2021
843 Clouds 10 994 33 10000 4.65 182 16:49 31.03.2021
844 Clouds 10 994 33 10000 4.65 182 16:49 31.03.2021
845 Clouds 11 992 28 10000 4.88 182 16:29 31.03.2021
846 Clouds 11 992 28 10000 4.88 182 15:51 31.03.2021
847 Clouds 12 989 22 10000 4.58 183 15:20 31.03.2021
848 Clouds 12 989 22 10000 4.58 183 14:49 31.03.2021
849 Clouds 14 987 17 10000 4.4 213 14:24 31.03.2021
850 Clouds 14 986 16 10000 4.46 209 14:24 31.03.2021
851 Clouds 14 987 17 10000 4.4 213 13:53 31.03.2021
852 Clouds 15 985 13 10000 5.75 230 13:19 31.03.2021
853 Clouds 15 985 13 10000 5.75 230 12:37 31.03.2021
854 Clouds 16 985 12 10000 4.32 227 12:18 31.03.2021
855 Clouds 16 986 13 10000 3.18 223 11:22 31.03.2021
856 Clouds 16 986 13 10000 3.18 223 10:48 31.03.2021
857 Clouds 15 988 15 10000 2.99 207 10:27 31.03.2021
858 Clouds 15 988 15 10000 2.99 207 09:45 31.03.2021
859 Clouds 13 991 19 10000 3.26 201 09:27 31.03.2021
860 Clouds 13 991 19 10000 3.26 201 08:43 31.03.2021
861 Clouds 12 994 24 10000 3.73 195 08:21 31.03.2021
862 Clear 11 997 28 10000 2.97 187 07:19 31.03.2021
863 Clear 7 1001 39 10000 2.39 182 04:34 31.03.2021
864 Clear 4 1002 50 10000 2.4 167 02:37 31.03.2021
865 Clouds 3 1001 56 10000 2.52 165 00:54 31.03.2021
866 Clouds 4 1000 53 10000 2.71 168 00:22 31.03.2021
867 Clouds 4 1000 53 10000 2.71 168 23:54 30.03.2021
868 Clouds 4 999 50 10000 2.98 167 23:22 30.03.2021
869 Clouds 4 999 50 10000 2.98 167 22:49 30.03.2021
870 Clouds 4 999 50 10000 2.98 167 22:49 30.03.2021
871 Clouds 4 999 50 10000 2.98 167 22:30 30.03.2021
872 Clouds 5 999 49 10000 3.03 170 21:56 30.03.2021
873 Clouds 6 998 47 10000 2.92 173 21:29 30.03.2021
874 Clouds 6 998 47 10000 2.92 173 20:58 30.03.2021
875 Clouds 5 999 49 10000 2.36 171 20:30 30.03.2021
876 Clouds 6 999 48 10000 2.72 168 19:56 30.03.2021
877 Clouds 6 999 48 10000 2.75 167 19:37 30.03.2021
878 Clouds 7 999 45 10000 3.59 170 18:55 30.03.2021
879 Clouds 7 998 43 10000 4.08 168 18:26 30.03.2021
880 Clouds 7 998 43 10000 4.08 168 17:45 30.03.2021
881 Clouds 8 997 41 10000 4.39 164 17:26 30.03.2021
882 Clouds 8 997 41 10000 4.39 164 16:47 30.03.2021
883 Clouds 9 994 34 10000 4.85 162 16:27 30.03.2021
884 Clouds 9 994 34 10000 4.85 162 15:37 30.03.2021
885 Clouds 11 991 25 10000 3.68 161 15:18 30.03.2021
886 Clouds 11 991 24 10000 4.05 156 14:45 30.03.2021
887 Clouds 12 989 19 10000 3.57 170 14:20 30.03.2021
888 Clouds 12 989 19 10000 3.57 170 13:47 30.03.2021
889 Clouds 13 987 14 10000 3.87 192 13:24 30.03.2021
890 Clouds 13 987 14 10000 3.87 192 12:41 30.03.2021
891 Clouds 14 988 13 10000 4.37 196 12:21 30.03.2021
892 Clouds 14 988 13 10000 4.37 196 11:43 30.03.2021
893 Clouds 13 989 15 10000 4.61 188 11:19 30.03.2021
894 Clouds 13 989 15 10000 4.61 188 10:41 30.03.2021
895 Clouds 12 992 17 10000 3.2 191 10:19 30.03.2021
896 Clouds 12 992 17 10000 3.2 191 09:41 30.03.2021
897 Clouds 12 992 17 10000 3.2 191 09:41 30.03.2021
898 Clouds 11 995 20 10000 3.43 184 09:21 30.03.2021
899 Clouds 11 995 20 10000 3.43 184 08:42 30.03.2021
900 Clouds 10 998 24 10000 4.38 186 07:56 30.03.2021
901 Clouds 10 998 24 10000 4.38 186 07:31 30.03.2021
902 Clouds 7 1003 30 10000 3.43 183 06:29 30.03.2021
903 Clouds 6 1005 35 10000 3.12 176 05:25 30.03.2021
904 Clouds 1 1007 53 10000 2.91 168 01:47 30.03.2021
905 Clouds 2 1006 50 10000 3.32 174 23:54 29.03.2021
906 Clouds 3 1005 45 10000 3.45 165 23:21 29.03.2021
907 Clouds 3 1005 45 10000 3.45 165 22:43 29.03.2021
908 Clouds 4 1005 43 10000 3.43 168 21:55 29.03.2021
909 Clouds 4 1005 43 10000 3.43 168 21:34 29.03.2021
910 Clouds 5 1005 41 10000 3.24 174 20:51 29.03.2021
911 Clouds 5 1005 41 10000 3.24 174 20:30 29.03.2021
912 Clouds 5 1005 40 10000 3 176 19:56 29.03.2021
913 Clouds 6 1005 41 10000 2.38 185 19:28 29.03.2021
914 Clouds 6 1005 41 10000 2.38 185 18:56 29.03.2021
915 Clouds 6 1005 41 10000 2.38 185 18:37 29.03.2021
916 Clouds 6 1005 41 10000 3.11 180 18:18 29.03.2021
917 Clouds 6 1005 41 10000 3.11 180 17:36 29.03.2021
918 Clouds 6 1005 41 10000 3.43 179 16:53 29.03.2021
919 Clouds 6 1005 41 10000 3.43 179 16:30 29.03.2021
920 Clouds 7 1004 39 10000 3.75 181 15:43 29.03.2021
921 Clouds 7 1002 36 10000 4.03 173 15:24 29.03.2021
922 Clouds 7 1002 36 10000 4.03 173 14:48 29.03.2021
923 Clouds 8 1000 32 10000 4.64 177 14:23 29.03.2021
924 Clouds 8 1000 32 10000 4.64 177 13:45 29.03.2021
925 Clouds 10 999 26 10000 5.28 195 13:19 29.03.2021
926 Clouds 10 999 26 10000 5.28 195 12:49 29.03.2021
927 Clouds 11 998 19 10000 4.97 214 11:49 29.03.2021
928 Clouds 12 997 14 10000 3.57 204 11:29 29.03.2021
929 Clouds 12 997 14 10000 3.57 204 10:51 29.03.2021
930 Clouds 12 997 14 10000 3.57 204 10:31 29.03.2021
931 Clouds 12 1000 16 10000 3.38 189 09:33 29.03.2021
932 Clouds 11 1002 19 10000 3.15 188 08:43 29.03.2021
933 Clouds 10 1005 21 10000 3.01 185 08:25 29.03.2021
934 Clouds 9 1008 25 10000 2.91 188 07:21 29.03.2021
935 Clouds 8 1010 29 10000 2.64 182 06:26 29.03.2021
936 Clouds 3 1014 45 10000 2.23 170 03:25 29.03.2021
937 Clouds 1 1014 53 10000 2.49 173 00:55 29.03.2021
938 Clear 2 1013 51 10000 2.55 172 00:20 29.03.2021
939 Clear 2 1013 51 10000 2.55 172 23:30 28.03.2021
940 Clear 2 1012 49 10000 2.49 169 22:54 28.03.2021
941 Clear 2 1012 49 10000 2.49 169 22:35 28.03.2021
942 Clear 3 1012 47 10000 2.58 171 21:59 28.03.2021
943 Clear 3 1012 47 10000 2.58 171 21:40 28.03.2021
944 Clear 4 1011 43 10000 2.93 177 21:22 28.03.2021
945 Clear 4 1011 43 10000 2.93 177 20:47 28.03.2021
946 Clouds 4 1010 38 10000 3.29 178 20:29 28.03.2021
947 Clouds 4 1010 38 10000 3.29 178 19:43 28.03.2021
948 Clouds 5 1010 32 10000 3.58 179 19:22 28.03.2021
949 Clouds 5 1010 32 10000 3.58 179 18:58 28.03.2021
950 Clouds 6 1009 24 10000 3.52 177 18:25 28.03.2021
951 Clouds 6 1009 24 10000 3.52 177 17:46 28.03.2021
952 Clouds 7 1008 17 10000 3.23 185 17:23 28.03.2021
953 Clouds 7 1008 17 10000 3.23 185 16:45 28.03.2021
954 Clouds 8 1006 14 10000 3.18 198 16:23 28.03.2021
955 Clouds 9 1004 11 10000 2.97 196 15:25 28.03.2021
956 Clouds 9 1004 11 10000 2.97 196 14:50 28.03.2021
957 Clouds 9 1004 12 10000 3.36 197 14:30 28.03.2021
958 Clouds 10 1002 8 10000 4.2 189 13:39 28.03.2021
959 Clouds 11 1001 6 10000 3.96 196 13:20 28.03.2021
960 Clouds 11 1001 6 10000 3.96 196 12:49 28.03.2021
961 Clouds 12 1001 6 10000 3.15 207 12:29 28.03.2021
962 Clouds 12 1001 6 10000 3.15 207 11:40 28.03.2021
963 Clouds 12 1003 6 10000 2.82 219 11:21 28.03.2021
964 Clouds 12 1003 6 10000 2.82 219 10:43 28.03.2021
965 Clouds 12 1004 8 10000 2.9 219 10:23 28.03.2021
966 Clouds 12 1004 8 10000 2.9 219 09:44 28.03.2021
967 Clouds 11 1006 11 10000 3.07 204 09:24 28.03.2021
968 Clouds 11 1006 11 10000 3.07 204 08:45 28.03.2021
969 Clear 11 1008 14 10000 2.6 196 07:46 28.03.2021
970 Clear 8 1013 23 10000 2.21 183 06:23 28.03.2021
971 Clear 5 1015 31 10000 1.49 162 03:51 28.03.2021
972 Clear 1 1015 39 10000 1.19 131 00:52 28.03.2021
973 Clear 1 1015 37 10000 1.06 127 00:19 28.03.2021
974 Clear 1 1015 37 10000 1.06 127 23:40 27.03.2021
975 Clear 2 1014 32 10000 1.5 135 22:54 27.03.2021
976 Clear 2 1014 32 10000 1.5 135 22:36 27.03.2021
977 Clear 3 1013 28 10000 1.48 134 21:46 27.03.2021
978 Clear 3 1013 24 10000 1.59 126 21:22 27.03.2021
979 Clear 3 1013 24 10000 1.59 126 20:59 27.03.2021
980 Clear 3 1013 24 10000 1.59 126 20:38 27.03.2021
981 Clear 4 1013 23 10000 1.05 122 20:19 27.03.2021
982 Clear 3 1014 20 10000 1.36 85 19:42 27.03.2021
983 Clear 4 1014 19 10000 1.41 107 19:23 27.03.2021
984 Clear 4 1014 19 10000 1.41 107 18:48 27.03.2021
985 Clear 4 1015 17 10000 1.68 90 18:26 27.03.2021
986 Clear 4 1015 17 10000 1.68 90 17:40 27.03.2021
987 Clear 5 1015 16 10000 2.02 103 17:20 27.03.2021
988 Clear 5 1015 16 10000 2.02 103 16:48 27.03.2021
989 Clear 6 1014 16 10000 1.91 99 16:27 27.03.2021
990 Clear 6 1014 16 10000 1.91 99 15:46 27.03.2021
991 Clear 7 1013 14 10000 2.16 92 15:20 27.03.2021
992 Clear 7 1013 14 10000 2.16 92 14:44 27.03.2021
993 Clear 8 1012 12 10000 2.63 90 13:42 27.03.2021
994 Clear 9 1010 8 10000 3.81 99 13:21 27.03.2021
995 Clear 9 1011 10 10000 3.2 95 12:50 27.03.2021
996 Clear 10 1010 8 10000 3.38 100 11:55 27.03.2021
997 Clear 10 1010 8 10000 3.38 100 11:37 27.03.2021
998 Clear 11 1009 7 10000 2.87 101 11:19 27.03.2021
999 Clear 11 1009 7 10000 2.87 101 10:40 27.03.2021
1000 Clear 11 1010 7 10000 2.4 100 10:22 27.03.2021
1001 Clear 11 1011 7 10000 1.98 98 09:22 27.03.2021
1002 Clear 11 1011 7 10000 1.98 98 08:42 27.03.2021
1003 Clear 10 1013 7 10000 1.64 91 08:18 27.03.2021
1004 Clear 10 1013 8 10000 1.35 83 07:31 27.03.2021
1005 Clear 9 1015 9 10000 1.43 60 06:43 27.03.2021
1006 Clear 7 1019 11 10000 1.1 34 04:42 27.03.2021
1007 Clear 3 1022 15 10000 1.75 22 03:29 27.03.2021
1008 Clear -2 1022 24 10000 2.01 6 00:45 27.03.2021
1009 Clear -1 1021 24 10000 2.13 0 00:26 27.03.2021
1010 Clear -1 1021 24 10000 2.13 0 23:43 26.03.2021
1011 Clear -1 1020 24 10000 1.92 352 22:45 26.03.2021
1012 Clear -1 1020 24 10000 2.01 356 22:25 26.03.2021
1013 Clear 0 1020 24 10000 2.08 1 21:25 26.03.2021
1014 Clear 0 1020 24 10000 2.08 1 20:58 26.03.2021
1015 Clear 0 1020 24 10000 2.08 1 20:32 26.03.2021
1016 Clear 1 1019 23 10000 2.59 354 19:53 26.03.2021
1017 Clear 1 1019 24 10000 2.3 356 19:35 26.03.2021
1018 Clouds 1 1018 21 10000 2.68 350 18:59 26.03.2021
1019 Clouds 1 1018 21 10000 2.68 350 18:41 26.03.2021
1020 Clouds 2 1017 18 10000 2.68 339 18:18 26.03.2021
1021 Clouds 2 1017 18 10000 2.68 339 17:44 26.03.2021
1022 Clouds 3 1015 17 10000 1.9 309 16:54 26.03.2021
1023 Clouds 3 1015 17 10000 1.9 309 16:30 26.03.2021
1024 Clouds 4 1015 16 10000 1.76 264 15:43 26.03.2021
1025 Clouds 5 1013 16 10000 2.17 263 14:57 26.03.2021
1026 Clouds 6 1012 14 10000 2.76 287 14:21 26.03.2021
1027 Clouds 6 1012 13 10000 3.31 305 13:34 26.03.2021
1028 Clouds 8 1009 11 10000 5.43 306 12:49 26.03.2021
1029 Clouds 9 1007 9 10000 6.54 284 11:50 26.03.2021
1030 Clouds 9 1007 9 10000 6.54 284 11:31 26.03.2021
1031 Clouds 10 1006 8 10000 6.28 257 10:46 26.03.2021
1032 Clouds 10 1006 9 7322 6.47 253 10:27 26.03.2021
1033 Clouds 10 1006 9 7322 6.47 253 09:42 26.03.2021
1034 Clouds 10 1007 10 6853 6.02 252 09:00 26.03.2021
1035 Clouds 10 1007 10 6853 6.02 252 08:35 26.03.2021
1036 Clouds 9 1009 11 9876 4.49 253 07:59 26.03.2021
1037 Clouds 9 1010 12 10000 3.17 241 07:23 26.03.2021
1038 Clouds 9 1010 12 10000 3.17 241 06:57 26.03.2021
1039 Clouds 8 1012 14 10000 2.73 233 06:27 26.03.2021
1040 Clouds 7 1014 17 10000 2.93 224 05:26 26.03.2021
1041 Clouds 3 1016 48 10000 1.27 213 01:57 26.03.2021
1042 Clouds 1 1014 55 10000 1.42 203 00:27 26.03.2021
1043 Clouds 1 1014 55 10000 1.42 203 23:44 25.03.2021
1044 Clouds 2 1013 53 10000 1.02 213 22:51 25.03.2021
1045 Clouds 2 1012 49 10000 1.61 203 22:28 25.03.2021
1046 Clouds 2 1012 49 10000 1.61 203 21:50 25.03.2021
1047 Clouds 2 1012 49 10000 1.61 203 21:31 25.03.2021
1048 Clouds 3 1012 45 10000 2.4 189 20:43 25.03.2021
1049 Clouds 3 1012 45 10000 2.4 189 20:43 25.03.2021
1050 Clouds 3 1012 43 10000 2.51 194 20:25 25.03.2021
1051 Clouds 3 1012 43 10000 2.51 194 19:45 25.03.2021
1052 Clouds 3 1012 43 10000 2.51 194 19:45 25.03.2021
1053 Clouds 4 1011 39 10000 2.76 189 19:27 25.03.2021
1054 Clouds 4 1011 38 10000 2.87 188 18:47 25.03.2021
1055 Clouds 5 1010 34 10000 3.05 190 18:26 25.03.2021
1056 Clouds 5 1010 34 10000 3.05 190 17:51 25.03.2021
1057 Clouds 5 1010 34 10000 3.05 190 17:33 25.03.2021
1058 Clouds 5 1009 30 10000 3.14 193 16:51 25.03.2021
1059 Clouds 5 1009 30 10000 3.14 193 16:51 25.03.2021
1060 Clouds 5 1009 30 10000 3.14 193 16:30 25.03.2021
1061 Clouds 6 1008 25 10000 3.14 200 15:45 25.03.2021
1062 Clouds 8 1006 20 10000 4.54 206 15:21 25.03.2021
1063 Clouds 8 1006 20 10000 4.54 206 14:46 25.03.2021
1064 Clouds 9 1004 16 10000 7.15 212 13:52 25.03.2021
1065 Clouds 10 1002 14 10000 7.56 219 13:24 25.03.2021
1066 Clouds 9 1003 15 10000 7.05 216 12:45 25.03.2021
1067 Clouds 10 1002 14 10000 8.09 228 12:21 25.03.2021
1068 Clouds 10 1002 14 10000 8.09 228 11:52 25.03.2021
1069 Clouds 10 1002 14 10000 8.09 228 11:30 25.03.2021
1070 Clouds 11 1002 13 10000 7.71 235 10:55 25.03.2021
1071 Clouds 11 1001 12 10000 5.55 235 10:26 25.03.2021
1072 Clouds 11 1001 12 10000 5.55 235 09:57 25.03.2021
1073 Clouds 11 1001 12 10000 5.55 235 09:38 25.03.2021
1074 Clouds 11 1003 12 10000 4.55 207 08:57 25.03.2021
1075 Clouds 11 1004 12 10000 4.98 207 08:29 25.03.2021
1076 Clouds 9 1007 15 10000 4.71 198 07:24 25.03.2021
1077 Clouds 8 1009 20 10000 4.17 193 06:27 25.03.2021
1078 Clouds 8 1009 20 10000 4.17 193 05:49 25.03.2021
1079 Clouds 8 1009 20 10000 4.17 193 05:49 25.03.2021
1080 Clouds 6 1012 37 10000 3.84 181 03:59 25.03.2021
1081 Clouds 2 1012 63 10000 3.04 171 00:44 25.03.2021
1082 Clouds 2 1010 63 10000 3.19 171 23:55 24.03.2021
1083 Clouds 2 1010 63 10000 3.19 171 23:33 24.03.2021
1084 Clouds 3 1009 62 10000 3.33 173 22:51 24.03.2021
1085 Clouds 3 1009 62 10000 3.33 173 22:32 24.03.2021
1086 Clouds 4 1009 60 10000 3.36 174 21:47 24.03.2021
1087 Clouds 5 1008 55 10000 3.43 171 21:25 24.03.2021
1088 Clouds 5 1008 55 10000 3.43 171 20:46 24.03.2021
1089 Clouds 6 1007 51 10000 3.11 169 20:21 24.03.2021
1090 Clouds 6 1007 51 10000 3.11 169 19:59 24.03.2021
1091 Clouds 5 1008 52 10000 2.93 164 19:31 24.03.2021
1092 Clouds 6 1008 49 10000 2.44 168 18:52 24.03.2021
1093 Clouds 7 1008 47 10000 1.79 177 18:24 24.03.2021
1094 Clouds 7 1008 47 10000 1.79 177 17:53 24.03.2021
1095 Clouds 7 1008 47 10000 1.79 177 17:32 24.03.2021
1096 Clouds 7 1008 45 10000 1.74 171 16:54 24.03.2021
1097 Clouds 7 1008 45 10000 1.74 171 16:31 24.03.2021
1098 Clouds 8 1008 41 10000 2.21 146 15:57 24.03.2021
1099 Clouds 8 1008 41 10000 2.21 146 15:33 24.03.2021
1100 Clouds 8 1007 39 10000 2.04 142 14:55 24.03.2021
1101 Clouds 9 1005 33 10000 1.91 155 14:28 24.03.2021
1102 Clouds 9 1005 33 10000 1.91 155 13:57 24.03.2021
1103 Clouds 10 1003 26 10000 2.18 172 13:28 24.03.2021
1104 Clouds 10 1003 27 10000 1.9 186 12:48 24.03.2021
1105 Clouds 11 1002 23 10000 2.38 183 12:27 24.03.2021
1106 Clouds 11 1002 23 10000 2.38 183 11:49 24.03.2021
1107 Clouds 12 1002 23 10000 2.46 194 11:20 24.03.2021
1108 Clouds 12 1002 23 10000 2.46 194 10:44 24.03.2021
1109 Clouds 12 1003 22 10000 2.63 201 10:25 24.03.2021
1110 Clouds 12 1003 22 10000 2.63 201 09:54 24.03.2021
1111 Clouds 11 1004 22 10000 2.9 197 09:25 24.03.2021
1112 Clouds 11 1004 21 10000 2.89 199 08:57 24.03.2021
1113 Clouds 11 1006 22 10000 3.23 196 08:29 24.03.2021
1114 Clouds 11 1006 22 10000 3.23 196 07:42 24.03.2021
1115 Clouds 11 1008 21 10000 3.61 195 06:55 24.03.2021
1116 Clouds 11 1008 21 10000 3.61 195 06:34 24.03.2021
1117 Clear 1 1016 67 10000 1.56 135 01:21 24.03.2021
1118 Clear 1 1016 67 10000 1.66 142 00:33 24.03.2021
1119 Clear 2 1015 64 10000 1.41 131 23:43 23.03.2021
1120 Clear 2 1014 59 10000 1.72 125 23:18 23.03.2021
1121 Clear 2 1014 59 10000 1.72 125 22:40 23.03.2021
1122 Clear 3 1014 54 10000 1.61 133 21:59 23.03.2021
1123 Clear 3 1014 54 10000 1.61 133 21:41 23.03.2021
1124 Clear 3 1014 54 10000 1.61 133 21:41 23.03.2021
1125 Clear 3 1013 50 10000 1.47 126 21:20 23.03.2021
1126 Clear 3 1013 50 10000 1.47 126 20:43 23.03.2021
1127 Clear 4 1013 46 10000 1.42 144 20:25 23.03.2021
1128 Clear 4 1013 46 10000 1.42 144 19:45 23.03.2021
1129 Clouds 5 1014 43 10000 1.5 154 19:25 23.03.2021
1130 Clouds 5 1013 44 10000 1.43 157 18:43 23.03.2021
1131 Clouds 5 1014 41 10000 1.82 169 18:21 23.03.2021
1132 Clouds 5 1014 41 10000 1.82 169 17:45 23.03.2021
1133 Clouds 6 1013 38 10000 2.04 172 17:21 23.03.2021
1134 Clouds 6 1012 34 10000 2.01 166 16:26 23.03.2021
1135 Clouds 6 1012 34 10000 1.96 166 15:59 23.03.2021
1136 Clouds 6 1012 34 10000 2.01 166 15:38 23.03.2021
1137 Clouds 7 1011 30 10000 1.37 182 14:51 23.03.2021
1138 Clouds 8 1009 25 10000 1.39 195 14:21 23.03.2021
1139 Clouds 8 1009 25 10000 1.39 195 13:50 23.03.2021
1140 Clouds 10 1008 21 10000 1.13 263 13:26 23.03.2021
1141 Clouds 10 1008 21 10000 1.13 263 12:47 23.03.2021
1142 Clouds 11 1007 17 10000 1.67 268 12:27 23.03.2021
1143 Clouds 11 1007 17 10000 1.58 267 11:56 23.03.2021
1144 Clouds 11 1007 17 10000 1.67 268 11:36 23.03.2021
1145 Clouds 11 1008 20 10000 1.54 248 10:44 23.03.2021
1146 Clouds 11 1008 24 10000 1.37 240 10:22 23.03.2021
1147 Clouds 11 1008 24 10000 1.37 240 09:57 23.03.2021
1148 Clouds 11 1008 24 10000 1.37 240 09:36 23.03.2021
1149 Clouds 10 1010 26 10000 1.79 259 09:18 23.03.2021
1150 Clouds 10 1010 26 10000 1.79 259 08:39 23.03.2021
1151 Clouds 10 1011 27 10000 2.18 215 08:20 23.03.2021
1152 Clouds 9 1013 32 10000 2.38 194 07:28 23.03.2021
1153 Clouds 9 1013 34 10000 2.33 192 06:59 23.03.2021
1154 Clouds 8 1016 39 10000 2.03 189 06:23 23.03.2021
1155 Clouds 4 1019 52 10000 1.04 131 03:21 23.03.2021
1156 Clouds 2 1018 64 10000 0.51 95 00:56 23.03.2021
1157 Clouds 3 1018 68 10000 0.41 213 23:33 22.03.2021
1158 Clouds 3 1017 61 10000 0.7 210 22:46 22.03.2021
1159 Clouds 3 1017 60 10000 0.44 174 22:23 22.03.2021
1160 Clouds 3 1017 60 10000 0.44 174 21:52 22.03.2021
1161 Clouds 3 1017 60 10000 0.36 95 21:29 22.03.2021
1162 Clouds 3 1017 61 10000 0.36 85 20:57 22.03.2021
1163 Clouds 3 1017 60 10000 0.36 95 20:37 22.03.2021
1164 Clouds 3 1017 59 10000 0.63 60 20:18 22.03.2021
1165 Clouds 3 1017 59 10000 0.63 60 19:40 22.03.2021
1166 Clouds 3 1017 59 10000 0.5 43 19:21 22.03.2021
1167 Clouds 4 1023 57 10000 0.87 160 18:45 22.03.2021
1168 Clouds 4 1023 55 10000 0.55 37 18:27 22.03.2021
1169 Clouds 4 1023 55 10000 0.55 37 17:51 22.03.2021
1170 Clouds 5 1023 55 10000 1.01 33 17:24 22.03.2021
1171 Clouds 5 1023 55 10000 1.01 33 16:59 22.03.2021
1172 Clouds 5 1023 55 10000 1.01 33 16:40 22.03.2021
1173 Clouds 5 1023 54 10000 1.44 31 15:58 22.03.2021
1174 Clouds 5 1023 54 10000 1.44 31 15:37 22.03.2021
1175 Clouds 6 1021 53 10000 2.05 30 15:18 22.03.2021
1176 Clouds 6 1021 53 10000 2.05 30 14:49 22.03.2021
1177 Clouds 6 1019 47 10000 2.65 26 14:29 22.03.2021
1178 Clouds 6 1019 47 10000 2.65 26 13:39 22.03.2021
1179 Clouds 7 1017 44 10000 2.12 329 13:19 22.03.2021
1180 Clouds 7 1017 47 10000 2.79 341 12:45 22.03.2021
1181 Clouds 8 1015 41 10000 1.65 358 12:22 22.03.2021
1182 Clouds 8 1015 41 10000 1.65 358 11:46 22.03.2021
1183 Clouds 9 1015 38 10000 1.45 136 11:22 22.03.2021
1184 Clouds 9 1015 38 10000 1.45 136 10:43 22.03.2021
1185 Clouds 10 1015 29 10000 2.42 137 10:24 22.03.2021
1186 Clouds 10 1015 29 10000 2.42 137 09:40 22.03.2021
1187 Clouds 10 1016 27 10000 1.2 147 09:21 22.03.2021
1188 Clouds 10 1016 27 10000 1.2 147 08:43 22.03.2021
1189 Clouds 10 1017 30 10000 1.08 176 08:24 22.03.2021
1190 Clouds 10 1017 30 10000 1.08 176 07:44 22.03.2021
1191 Clouds 9 1019 35 10000 1.4 187 06:53 22.03.2021
1192 Clouds 7 1020 46 10000 2.25 189 06:27 22.03.2021
1193 Clouds 2 1024 73 10000 1.05 142 02:33 22.03.2021
1194 Clouds 0 1023 89 10000 0.38 117 00:33 22.03.2021
1195 Clouds 0 1022 86 10000 0.65 99 23:54 21.03.2021
1196 Clouds 0 1021 83 10000 0.4 101 23:19 21.03.2021
1197 Clouds 0 1021 83 10000 0.4 101 23:19 21.03.2021
1198 Clouds 0 1021 83 10000 0.4 101 23:19 21.03.2021
1199 Clouds 0 1021 83 10000 0.4 101 22:56 21.03.2021
1200 Clouds 1 1021 82 10000 0.37 178 22:18 21.03.2021
1201 Clouds 1 1021 82 10000 0.37 178 21:40 21.03.2021
1202 Clouds 1 1021 77 10000 0.97 187 21:22 21.03.2021
1203 Clouds 1 1021 77 10000 0.97 187 20:43 21.03.2021
1204 Clouds 2 1021 73 10000 1.63 173 20:25 21.03.2021
1205 Clouds 2 1021 73 10000 1.63 173 19:53 21.03.2021
1206 Clouds 2 1021 69 10000 1.46 171 19:21 21.03.2021
1207 Clouds 2 1021 69 10000 1.46 171 18:50 21.03.2021
1208 Clouds 3 1022 58 10000 0.37 148 18:27 21.03.2021
1209 Clouds 3 1022 58 10000 0.37 148 17:48 21.03.2021
1210 Clouds 4 1021 54 10000 0.04 327 17:21 21.03.2021
1211 Clouds 4 1021 54 10000 0.04 327 16:59 21.03.2021
1212 Clouds 4 1021 54 10000 0.04 327 16:40 21.03.2021
1213 Clouds 4 1021 50 10000 0.32 114 16:21 21.03.2021
1214 Clouds 4 1021 50 10000 0.32 114 15:41 21.03.2021
1215 Clouds 5 1019 47 10000 1.1 83 15:20 21.03.2021
1216 Clouds 5 1019 47 10000 1.1 83 14:46 21.03.2021
1217 Clouds 5 1017 49 10000 2.02 70 14:26 21.03.2021
1218 Clouds 5 1017 49 10000 2.02 70 13:54 21.03.2021
1219 Clouds 5 1015 45 10000 2.25 100 13:25 21.03.2021
1220 Clouds 5 1015 42 10000 2.41 82 12:42 21.03.2021
1221 Clouds 7 1013 32 10000 1.86 107 12:23 21.03.2021
1222 Clouds 7 1013 32 10000 1.86 107 12:23 21.03.2021
1223 Clouds 7 1013 32 10000 1.86 107 11:37 21.03.2021
1224 Clouds 8 1013 26 10000 1.42 156 11:19 21.03.2021
1225 Clouds 8 1013 26 10000 1.42 156 11:19 21.03.2021
1226 Clouds 8 1013 26 10000 1.42 156 10:42 21.03.2021
1227 Clouds 9 1013 23 10000 0.67 176 10:23 21.03.2021
1228 Clouds 9 1013 23 10000 0.67 176 09:46 21.03.2021
1229 Clouds 9 1014 23 10000 1.28 212 09:27 21.03.2021
1230 Clouds 9 1014 23 10000 1.28 212 08:40 21.03.2021
1231 Clouds 8 1015 25 10000 2.01 194 08:21 21.03.2021
1232 Clouds 8 1015 25 10000 2.01 194 08:21 21.03.2021
1233 Clouds 8 1015 25 10000 2.01 194 07:38 21.03.2021
1234 Clouds 7 1017 28 10000 2.17 191 06:56 21.03.2021
1235 Clouds 5 1018 41 10000 1.74 212 05:54 21.03.2021
1236 Clouds 0 1020 81 10000 1.33 213 02:25 21.03.2021
1237 Clouds 0 1019 83 10000 1.5 185 00:42 21.03.2021
1238 Clouds 0 1017 82 10000 1.2 212 00:22 21.03.2021
1239 Clouds 0 1017 82 10000 1.2 212 23:49 20.03.2021
1240 Snow 0 1016 81 10000 0.45 264 23:22 20.03.2021
1241 Snow 0 1016 81 10000 0.45 264 22:56 20.03.2021
1242 Snow 0 1016 84 7416 0.28 315 22:23 20.03.2021
1243 Snow 0 1016 84 7416 0.28 315 21:47 20.03.2021
1244 Snow 1 1015 82 6596 1.26 359 21:25 20.03.2021
1245 Snow 1 1015 82 6596 1.26 359 20:48 20.03.2021
1246 Clouds 2 1015 82 2309 2.12 349 20:23 20.03.2021
1247 Clouds 2 1015 82 2309 2.12 349 19:51 20.03.2021
1248 Clouds 3 1014 80 887 2.28 354 19:28 20.03.2021
1249 Clouds 2 1015 86 627 1.93 359 18:50 20.03.2021
1250 Clouds 3 1015 73 3835 1.74 315 18:27 20.03.2021
1251 Clouds 3 1015 73 3835 1.74 315 17:58 20.03.2021
1252 Clouds 3 1015 73 3835 1.74 315 17:39 20.03.2021
1253 Clouds 5 1015 56 9893 1.41 259 17:19 20.03.2021
1254 Clouds 5 1015 56 9893 1.41 259 16:38 20.03.2021
1255 Clouds 6 1014 47 6441 2.02 228 16:18 20.03.2021
1256 Clouds 6 1014 47 6441 2.02 228 15:40 20.03.2021
1257 Clouds 6 1014 47 6441 2.02 228 15:40 20.03.2021
1258 Clouds 6 1014 47 6441 2.02 228 15:40 20.03.2021
1259 Clouds 7 1013 39 8240 1.28 232 14:55 20.03.2021
1260 Clouds 7 1013 39 8240 1.28 232 14:31 20.03.2021
1261 Clouds 7 1011 37 10000 1.09 260 13:56 20.03.2021
1262 Clouds 9 1008 30 10000 0.9 197 13:29 20.03.2021
1263 Clouds 8 1008 31 10000 0.63 180 12:30 20.03.2021
1264 Clouds 10 1007 23 8792 1.75 261 11:58 20.03.2021
1265 Clouds 10 1007 23 8792 1.75 261 11:38 20.03.2021
1266 Clouds 11 1006 17 8838 1.56 273 11:20 20.03.2021
1267 Clouds 11 1006 17 8838 1.56 273 10:38 20.03.2021
1268 Clouds 11 1006 16 10000 1.98 213 10:19 20.03.2021
1269 Clouds 11 1006 16 10000 1.98 213 09:43 20.03.2021
1270 Clouds 12 1007 15 10000 3.57 212 09:21 20.03.2021
1271 Clouds 12 1007 15 10000 3.57 212 08:49 20.03.2021
1272 Clouds 11 1008 14 10000 4.25 222 07:58 20.03.2021
1273 Clouds 11 1008 14 10000 4.25 222 07:39 20.03.2021
1274 Clouds 11 1010 15 10000 4.3 227 07:20 20.03.2021
1275 Clouds 11 1011 16 10000 3.84 228 06:38 20.03.2021
1276 Clear 9 1014 23 10000 2.56 209 05:27 20.03.2021
1277 Clear 7 1015 32 10000 2.09 200 03:43 20.03.2021
1278 Clouds 1 1016 61 10000 2.02 177 00:48 20.03.2021
1279 Clouds 2 1015 58 10000 1.9 181 23:45 19.03.2021
1280 Clouds 2 1015 56 10000 1.95 179 23:18 19.03.2021
1281 Clouds 2 1015 56 10000 1.95 179 22:42 19.03.2021
1282 Clouds 3 1015 53 10000 2.1 179 22:22 19.03.2021
1283 Clouds 3 1015 53 10000 2.1 179 21:39 19.03.2021
1284 Clouds 4 1015 48 10000 2.11 186 21:20 19.03.2021
1285 Clouds 4 1015 48 10000 2.11 186 20:45 19.03.2021
1286 Clouds 4 1015 45 10000 2.18 185 20:26 19.03.2021
1287 Clouds 4 1015 45 10000 2.18 185 19:48 19.03.2021
1288 Clouds 5 1015 42 10000 2.5 188 19:22 19.03.2021
1289 Clouds 5 1015 40 10000 2.59 186 18:49 19.03.2021
1290 Clouds 6 1015 36 10000 2.72 189 18:27 19.03.2021
1291 Clouds 6 1015 36 10000 2.72 189 17:58 19.03.2021
1292 Clouds 6 1015 36 10000 2.72 189 17:38 19.03.2021
1293 Clouds 6 1015 32 10000 2.34 197 17:18 19.03.2021
1294 Clouds 6 1015 32 10000 2.34 197 16:43 19.03.2021
1295 Clouds 7 1014 26 10000 2.46 220 16:23 19.03.2021
1296 Clouds 7 1014 26 10000 2.46 220 15:33 19.03.2021
1297 Clouds 9 1014 18 10000 3.52 222 14:51 19.03.2021
1298 Clouds 9 1014 18 10000 3.52 222 14:33 19.03.2021
1299 Clouds 9 1012 15 10000 2.1 218 13:50 19.03.2021
1300 Clouds 10 1010 13 10000 2.53 248 13:19 19.03.2021
1301 Clouds 10 1010 14 10000 2.99 239 12:42 19.03.2021
1302 Clouds 12 1008 10 10000 6.23 250 12:18 19.03.2021
1303 Clouds 12 1008 10 10000 6.23 250 11:33 19.03.2021
1304 Clouds 13 1008 9 10000 7.34 256 10:47 19.03.2021
1305 Clouds 13 1008 9 10000 6.34 252 10:22 19.03.2021
1306 Clouds 13 1008 9 10000 6.34 252 09:44 19.03.2021
1307 Clouds 12 1010 10 10000 5.08 248 09:25 19.03.2021
1308 Clouds 12 1010 10 10000 5.08 248 08:52 19.03.2021
1309 Clouds 12 1011 13 10000 4.36 238 08:28 19.03.2021
1310 Clouds 12 1011 13 10000 4.36 238 07:50 19.03.2021
1311 Clouds 12 1011 13 10000 4.36 238 07:31 19.03.2021
1312 Clear 8 1017 25 10000 2.06 212 05:29 19.03.2021
1313 Clear 3 1020 43 10000 0.89 193 02:20 19.03.2021
1314 Clouds 1 1019 56 10000 1.11 179 23:57 18.03.2021
1315 Clouds 2 1018 55 10000 1.31 184 23:29 18.03.2021
1316 Clouds 2 1018 55 10000 1.31 184 22:54 18.03.2021
1317 Clouds 2 1018 52 10000 1.96 184 22:27 18.03.2021
1318 Clouds 2 1018 52 10000 1.96 184 21:55 18.03.2021
1319 Clouds 2 1018 52 10000 1.96 184 21:36 18.03.2021
1320 Clouds 3 1018 48 10000 2.04 190 20:43 18.03.2021
1321 Clouds 3 1018 48 10000 2.04 190 20:43 18.03.2021
1322 Clouds 4 1018 43 10000 2.03 193 20:23 18.03.2021
1323 Clouds 4 1018 43 10000 2.03 193 19:43 18.03.2021
1324 Clouds 4 1018 39 10000 2.43 184 19:24 18.03.2021
1325 Clouds 4 1018 39 10000 2.43 184 18:53 18.03.2021
1326 Clouds 6 1018 33 10000 2.36 187 18:26 18.03.2021
1327 Clouds 6 1018 33 10000 2.36 187 18:26 18.03.2021
1328 Clouds 6 1018 33 10000 2.36 187 17:44 18.03.2021
1329 Clouds 6 1018 30 10000 2.05 195 17:20 18.03.2021
1330 Clouds 6 1018 30 10000 2.05 195 16:42 18.03.2021
1331 Clouds 7 1017 27 10000 2.35 201 16:23 18.03.2021
1332 Clouds 7 1017 27 10000 2.35 201 15:43 18.03.2021
1333 Clouds 7 1015 24 10000 3.12 196 15:23 18.03.2021
1334 Clouds 7 1015 24 10000 3.12 196 15:23 18.03.2021
1335 Clouds 7 1015 24 10000 3.12 196 14:52 18.03.2021
1336 Clouds 8 1013 18 10000 3.7 219 14:29 18.03.2021
1337 Clouds 8 1013 18 10000 3.7 219 13:49 18.03.2021
1338 Clouds 10 1010 14 10000 4.35 239 13:25 18.03.2021
1339 Clouds 10 1010 14 10000 4.43 237 12:42 18.03.2021
1340 Clouds 11 1008 12 10000 5.63 238 12:24 18.03.2021
1341 Clouds 11 1008 12 10000 5.63 238 11:51 18.03.2021
1342 Clouds 11 1008 12 10000 5.63 238 11:31 18.03.2021
1343 Clouds 12 1007 12 10000 6.74 257 10:44 18.03.2021
1344 Clouds 12 1007 12 10000 4.78 248 10:25 18.03.2021
1345 Clouds 12 1007 12 10000 4.78 248 09:54 18.03.2021
1346 Clouds 12 1008 14 10000 3.32 215 09:28 18.03.2021
1347 Clouds 12 1008 14 10000 3.32 215 08:47 18.03.2021
1348 Clouds 11 1010 17 10000 3.67 207 08:29 18.03.2021
1349 Clouds 11 1010 17 10000 3.67 207 07:51 18.03.2021
1350 Clear 10 1011 21 10000 4.29 199 07:24 18.03.2021
1351 Clear 9 1013 25 10000 3.26 192 06:27 18.03.2021
1352 Clear 9 1013 25 10000 3.26 192 05:42 18.03.2021
1353 Clouds 0 1020 67 10000 1.72 162 01:24 18.03.2021
1354 Clouds 1 1019 63 10000 1.79 155 23:59 17.03.2021
1355 Clouds 2 1018 58 10000 1.92 151 22:47 17.03.2021
1356 Clouds 2 1018 55 10000 1.31 161 22:26 17.03.2021
1357 Clouds 2 1018 55 10000 1.31 161 21:56 17.03.2021
1358 Clouds 2 1018 55 10000 1.31 161 21:34 17.03.2021
1359 Clouds 2 1018 52 10000 1.83 175 20:59 17.03.2021
1360 Clouds 2 1018 52 10000 1.83 175 20:40 17.03.2021
1361 Clouds 2 1018 52 10000 1.83 175 20:40 17.03.2021
1362 Clouds 2 1018 52 10000 1.83 175 20:40 17.03.2021
1363 Clouds 2 1018 52 10000 1.83 175 20:40 17.03.2021
1364 Clear 3 1018 48 10000 2.47 174 20:22 17.03.2021
1365 Clear 3 1018 48 10000 2.47 174 19:46 17.03.2021
1366 Clouds 4 1018 42 10000 2.83 175 19:21 17.03.2021
1367 Clouds 4 1018 42 10000 2.83 175 18:55 17.03.2021
1368 Clouds 4 1018 41 10000 2.7 177 18:37 17.03.2021
1369 Clouds 5 1017 35 10000 2.59 180 17:49 17.03.2021
1370 Clouds 6 1017 29 10000 2.78 183 17:27 17.03.2021
1371 Clouds 6 1017 29 10000 2.78 183 16:47 17.03.2021
1372 Clouds 7 1016 26 10000 2.32 182 16:25 17.03.2021
1373 Clouds 7 1016 26 10000 2.32 182 15:56 17.03.2021
1374 Clouds 7 1016 26 10000 2.32 182 15:36 17.03.2021
1375 Clouds 7 1014 24 10000 1.93 179 14:45 17.03.2021
1376 Clouds 7 1012 23 10000 1.66 182 14:27 17.03.2021
1377 Clouds 7 1012 23 10000 1.66 182 13:55 17.03.2021
1378 Clouds 7 1012 23 10000 1.66 182 13:31 17.03.2021
1379 Clouds 9 1010 18 10000 1.81 196 12:54 17.03.2021
1380 Clouds 9 1010 18 10000 1.81 196 12:34 17.03.2021
1381 Clouds 10 1009 15 10000 2.58 211 11:51 17.03.2021
1382 Clouds 11 1008 15 10000 3.24 214 11:23 17.03.2021
1383 Clouds 11 1008 15 10000 3.24 214 10:55 17.03.2021
1384 Clouds 11 1008 15 10000 3.24 214 10:31 17.03.2021
1385 Clouds 11 1008 14 10000 3.65 223 09:49 17.03.2021
1386 Clouds 11 1009 16 10000 3.65 218 09:28 17.03.2021
1387 Clouds 11 1009 16 10000 3.65 218 08:59 17.03.2021
1388 Clouds 11 1009 16 10000 3.65 218 08:39 17.03.2021
1389 Clouds 10 1011 17 10000 3.74 234 07:55 17.03.2021
1390 Clouds 10 1011 17 10000 3.74 234 07:35 17.03.2021
1391 Clouds 9 1013 36 10000 3.59 214 06:47 17.03.2021
1392 Clear 6 1017 39 10000 2.07 188 04:26 17.03.2021
1393 Clear 4 1019 45 10000 1.83 186 03:25 17.03.2021
1394 Clouds 0 1019 64 10000 1.75 184 00:41 17.03.2021
1395 Clouds 1 1018 61 10000 2.15 176 23:40 16.03.2021
1396 Clouds 2 1017 59 10000 2.19 178 23:18 16.03.2021
1397 Clouds 2 1017 59 10000 2.19 178 22:43 16.03.2021
1398 Clouds 2 1017 57 10000 2.04 183 22:24 16.03.2021
1399 Clouds 2 1017 57 10000 2.04 183 21:40 16.03.2021
1400 Clouds 3 1017 54 10000 2.56 171 21:21 16.03.2021
1401 Clouds 3 1017 54 10000 2.56 171 20:46 16.03.2021
1402 Clouds 3 1017 52 10000 2.41 176 20:19 16.03.2021
1403 Clouds 3 1017 52 10000 2.41 176 19:43 16.03.2021
1404 Clouds 3 1017 50 10000 1.79 176 19:24 16.03.2021
1405 Clouds 4 1017 43 10000 2.42 184 18:50 16.03.2021
1406 Clouds 4 1017 40 10000 2.26 180 18:29 16.03.2021
1407 Clouds 4 1017 40 10000 2.26 180 17:51 16.03.2021
1408 Clouds 4 1017 40 10000 2.26 180 17:33 16.03.2021
1409 Clouds 6 1016 35 10000 2.4 166 16:54 16.03.2021
1410 Clouds 6 1016 35 10000 2.4 166 16:53 16.03.2021
1411 Clouds 6 1016 35 10000 2.4 166 16:31 16.03.2021
1412 Clouds 7 1015 34 10000 1.25 209 15:57 16.03.2021
1413 Clouds 7 1015 34 10000 1.25 209 15:36 16.03.2021
1414 Clouds 8 1014 30 10000 1.3 217 15:18 16.03.2021
1415 Clouds 8 1014 30 10000 1.3 217 14:41 16.03.2021
1416 Clouds 8 1013 27 10000 1.41 224 14:22 16.03.2021
1417 Clouds 8 1013 27 10000 1.41 224 13:57 16.03.2021
1418 Clouds 9 1011 22 10000 1.03 240 13:29 16.03.2021
1419 Clouds 9 1011 22 10000 1.03 240 12:56 16.03.2021
1420 Clouds 9 1011 22 10000 1.03 240 12:56 16.03.2021
1421 Clouds 9 1010 21 10000 1.38 233 12:36 16.03.2021
1422 Clouds 10 1008 18 10000 2.5 246 11:56 16.03.2021
1423 Clouds 10 1008 18 10000 2.5 246 11:34 16.03.2021
1424 Clouds 10 1008 16 10000 2.47 231 10:49 16.03.2021
1425 Clouds 11 1008 17 10000 2.59 202 10:21 16.03.2021
1426 Clouds 11 1008 17 10000 2.59 202 09:40 16.03.2021
1427 Clouds 11 1009 16 10000 3.39 227 09:20 16.03.2021
1428 Clouds 11 1009 16 10000 3.39 227 08:55 16.03.2021
1429 Clouds 11 1009 16 10000 3.39 227 08:36 16.03.2021
1430 Clouds 11 1010 15 10000 3.83 233 07:53 16.03.2021
1431 Clouds 10 1012 18 10000 3.31 216 07:24 16.03.2021
1432 Clouds 10 1012 18 10000 3.29 212 06:38 16.03.2021
1433 Clouds 9 1014 27 10000 2.38 191 05:37 16.03.2021
1434 Clouds 6 1016 43 10000 1.3 188 04:26 16.03.2021
1435 Clouds 2 1019 52 10000 0.86 127 02:26 16.03.2021
1436 Clouds -1 1018 64 10000 1 112 00:40 16.03.2021
1437 Clouds 0 1017 63 10000 0.69 107 23:54 15.03.2021
1438 Clouds 0 1017 60 10000 0.87 105 23:19 15.03.2021
1439 Clouds 0 1017 60 10000 0.87 105 22:43 15.03.2021
1440 Clouds 1 1017 58 10000 0.78 93 22:25 15.03.2021
1441 Clouds 1 1017 58 10000 0.78 93 21:51 15.03.2021
1442 Clouds 1 1017 57 10000 0.75 106 21:29 15.03.2021
1443 Clouds 1 1017 56 10000 0.71 103 20:55 15.03.2021
1444 Clouds 1 1017 57 10000 0.75 106 20:37 15.03.2021
1445 Clear 1 1017 55 10000 0.84 108 20:19 15.03.2021
1446 Clear 1 1017 55 10000 0.84 108 19:43 15.03.2021
1447 Clouds 2 1017 51 10000 0.35 73 19:24 15.03.2021
1448 Clouds 2 1017 51 10000 0.35 73 18:47 15.03.2021
1449 Clouds 3 1018 49 10000 0.39 47 18:23 15.03.2021
1450 Clouds 3 1018 49 10000 0.39 47 17:55 15.03.2021
1451 Clouds 3 1017 46 10000 0.46 12 17:28 15.03.2021
1452 Clouds 3 1017 46 10000 0.46 12 16:50 15.03.2021
1453 Clouds 4 1017 44 10000 0.32 75 16:25 15.03.2021
1454 Clouds 4 1017 44 10000 0.32 75 15:44 15.03.2021
1455 Clouds 5 1016 46 10000 0.61 121 15:25 15.03.2021
1456 Clouds 5 1016 46 10000 0.61 121 14:42 15.03.2021
1457 Clouds 6 1014 44 10000 0.22 201 14:21 15.03.2021
1458 Clouds 6 1014 44 10000 0.22 201 13:46 15.03.2021
1459 Clouds 7 1013 36 10000 1.25 320 13:24 15.03.2021
1460 Clouds 8 1013 29 10000 1.51 317 12:47 15.03.2021
1461 Clouds 9 1011 23 10000 2.13 303 12:18 15.03.2021
1462 Clouds 9 1011 23 10000 2.13 303 11:48 15.03.2021
1463 Clouds 9 1011 23 10000 2.13 303 11:30 15.03.2021
1464 Clouds 10 1010 22 10000 2.68 301 10:49 15.03.2021
1465 Clouds 10 1010 22 10000 2.68 301 10:30 15.03.2021
1466 Clouds 10 1010 22 10000 3.45 295 09:51 15.03.2021
1467 Clouds 10 1010 22 10000 3.45 295 09:31 15.03.2021
1468 Clouds 10 1010 23 10000 3.29 285 08:49 15.03.2021
1469 Clouds 10 1010 23 10000 3.29 285 08:30 15.03.2021
1470 Clouds 10 1010 23 10000 3.29 285 08:30 15.03.2021
1471 Clouds 10 1012 23 10000 2.73 250 07:51 15.03.2021
1472 Clouds 10 1012 23 10000 2.73 250 07:31 15.03.2021
1473 Clouds 9 1013 26 10000 1.42 202 06:39 15.03.2021
1474 Clear 8 1014 36 10000 1.63 191 05:31 15.03.2021
1475 Clouds -1 1018 79 10000 0.53 99 01:26 15.03.2021
1476 Clouds -1 1017 78 10000 0.76 106 23:54 14.03.2021
1477 Clouds -1 1017 78 10000 0.8 53 23:19 14.03.2021
1478 Clouds -1 1017 78 10000 0.8 53 22:46 14.03.2021
1479 Clouds 0 1017 76 10000 0.52 63 22:19 14.03.2021
1480 Clouds 0 1017 76 10000 0.52 63 21:45 14.03.2021
1481 Clouds 1 1017 74 10000 0.35 58 21:18 14.03.2021
1482 Clouds 1 1017 74 10000 0.35 58 20:43 14.03.2021
1483 Clear 1 1018 72 10000 0.4 62 20:24 14.03.2021
1484 Clear 1 1018 72 10000 0.4 62 19:43 14.03.2021
1485 Clouds 2 1018 71 10000 0.55 83 19:23 14.03.2021
1486 Clouds 1 1018 80 10000 1.22 52 18:47 14.03.2021
1487 Clouds 2 1018 69 10000 1.33 32 18:22 14.03.2021
1488 Clouds 2 1018 69 10000 1.33 32 17:40 14.03.2021
1489 Clouds 3 1017 65 10000 1.71 30 17:22 14.03.2021
1490 Clouds 3 1017 65 10000 1.71 30 16:46 14.03.2021
1491 Clouds 3 1017 64 10000 1.75 40 16:26 14.03.2021
1492 Clouds 3 1017 64 10000 1.75 40 15:52 14.03.2021
1493 Clouds 3 1017 64 10000 1.75 40 15:33 14.03.2021
1494 Clouds 4 1016 60 10000 2.1 48 14:41 14.03.2021
1495 Clouds 4 1014 57 10000 1.79 46 14:20 14.03.2021
1496 Clouds 4 1014 57 10000 1.79 46 13:49 14.03.2021
1497 Clouds 6 1013 49 10000 2.08 38 13:28 14.03.2021
1498 Clouds 6 1013 49 10000 2.08 38 13:28 14.03.2021
1499 Clouds 6 1013 49 10000 2.08 38 12:46 14.03.2021
1500 Clouds 8 1011 43 10000 1.63 8 12:28 14.03.2021
1501 Clouds 8 1011 43 10000 1.63 8 11:51 14.03.2021
1502 Clouds 8 1011 43 10000 1.63 8 11:33 14.03.2021
1503 Clouds 8 1010 44 10000 1.54 353 10:56 14.03.2021
1504 Clouds 8 1010 44 10000 1.54 353 10:36 14.03.2021
1505 Clouds 7 1010 48 10000 1.26 78 10:18 14.03.2021
1506 Clouds 7 1010 48 10000 1.26 78 09:43 14.03.2021
1507 Clouds 6 1010 52 10000 0.72 106 09:22 14.03.2021
1508 Clouds 6 1010 52 10000 0.72 106 09:22 14.03.2021
1509 Clouds 6 1010 52 10000 0.72 106 08:41 14.03.2021
1510 Clouds 6 1012 57 8560 0.41 46 08:18 14.03.2021
1511 Clouds 6 1012 57 8560 0.41 46 07:37 14.03.2021
1512 Clouds 5 1013 67 10000 0.11 323 06:47 14.03.2021
1513 Clouds 4 1016 77 10000 0.55 8 04:51 14.03.2021
1514 Snow 2 1017 88 3259 1.16 331 00:51 14.03.2021
1515 Clouds 2 1015 69 10000 0.82 319 00:19 14.03.2021
1516 Clouds 2 1015 69 10000 0.82 319 23:47 13.03.2021
1517 Clouds 3 1014 63 10000 0.76 332 23:25 13.03.2021
1518 Clouds 3 1014 63 10000 0.76 332 22:52 13.03.2021
1519 Clouds 4 1014 57 10000 0.6 228 22:27 13.03.2021
1520 Clouds 4 1014 57 10000 0.6 228 21:44 13.03.2021
1521 Clouds 4 1015 56 10000 1.47 182 21:25 13.03.2021
1522 Clouds 4 1015 56 10000 1.47 182 20:52 13.03.2021
1523 Clouds 4 1015 56 10000 1.47 182 20:31 13.03.2021
1524 Clouds 4 1015 54 10000 1.78 180 19:53 13.03.2021
1525 Clouds 4 1015 54 10000 1.78 180 19:30 13.03.2021
1526 Clouds 4 1015 55 10000 1.76 178 18:44 13.03.2021
1527 Clouds 5 1016 52 10000 1.74 168 18:23 13.03.2021
1528 Clouds 5 1016 52 10000 1.74 168 17:59 13.03.2021
1529 Clouds 5 1016 52 10000 1.74 168 17:40 13.03.2021
1530 Clouds 5 1016 51 10000 1.2 175 17:21 13.03.2021
1531 Clouds 5 1016 51 10000 1.2 175 16:43 13.03.2021
1532 Clouds 5 1015 49 10000 0.94 196 16:19 13.03.2021
1533 Clouds 7 1014 43 10000 1.08 200 15:26 13.03.2021
1534 Clouds 7 1014 43 10000 1.08 200 14:47 13.03.2021
1535 Clouds 7 1013 44 9513 1.11 252 14:25 13.03.2021
1536 Clouds 7 1013 44 9513 1.11 252 14:25 13.03.2021
1537 Clouds 7 1013 44 9513 1.11 252 13:47 13.03.2021
1538 Clouds 8 1011 34 10000 1.97 268 13:24 13.03.2021
1539 Clouds 8 1011 34 10000 1.97 268 13:24 13.03.2021
1540 Clouds 8 1011 34 10000 1.97 268 12:43 13.03.2021
1541 Clouds 10 1009 25 10000 1.49 265 12:20 13.03.2021
1542 Clouds 10 1009 25 10000 1.49 265 11:46 13.03.2021
1543 Clouds 10 1009 25 10000 2.65 275 11:28 13.03.2021
1544 Clouds 10 1009 25 10000 2.65 275 10:50 13.03.2021
1545 Clouds 12 1010 20 10000 3.39 241 10:29 13.03.2021
1546 Clouds 12 1010 20 10000 3.39 241 09:47 13.03.2021
1547 Clouds 12 1011 17 10000 2.87 212 08:58 13.03.2021
1548 Clouds 12 1011 17 10000 2.87 212 08:39 13.03.2021
1549 Clouds 12 1012 17 10000 3.41 199 08:19 13.03.2021
1550 Clouds 12 1012 17 10000 3.41 199 07:46 13.03.2021
1551 Clear 10 1017 26 10000 2.37 191 06:18 13.03.2021
1552 Clear 5 1023 48 10000 1.74 174 02:54 13.03.2021
1553 Clouds 0 1023 68 10000 1.8 170 00:56 13.03.2021
1554 Clouds 1 1022 62 10000 1.89 168 23:57 12.03.2021
1555 Clouds 1 1022 63 10000 1.89 166 23:32 12.03.2021
1556 Clouds 1 1022 58 10000 2.01 164 22:43 12.03.2021
1557 Clouds 2 1022 52 10000 1.98 161 22:23 12.03.2021
1558 Clouds 2 1022 52 10000 1.98 161 21:45 12.03.2021
1559 Clouds 3 1022 46 10000 2.16 157 21:26 12.03.2021
1560 Clouds 3 1022 45 10000 2.14 158 20:56 12.03.2021
1561 Clouds 3 1022 46 10000 2.16 157 20:32 12.03.2021
1562 Clouds 4 1022 39 10000 2.23 152 19:59 12.03.2021
1563 Clouds 4 1022 39 10000 2.23 152 19:40 12.03.2021
1564 Clouds 4 1022 39 10000 2.23 152 19:40 12.03.2021
1565 Clouds 5 1022 33 10000 2.36 155 19:21 12.03.2021
1566 Clouds 6 1022 34 10000 2.05 139 18:36 12.03.2021
1567 Clouds 6 1022 27 10000 1.82 136 17:58 12.03.2021
1568 Clouds 6 1022 27 10000 1.82 136 17:38 12.03.2021
1569 Clouds 6 1022 22 10000 1.29 134 17:18 12.03.2021
1570 Clouds 6 1022 22 10000 1.29 134 16:40 12.03.2021
1571 Clouds 6 1021 20 10000 0.83 133 15:52 12.03.2021
1572 Clouds 6 1021 20 10000 0.83 133 15:32 12.03.2021
1573 Clouds 7 1020 19 10000 0.59 83 14:49 12.03.2021
1574 Clouds 8 1018 18 10000 1.03 50 14:21 12.03.2021
1575 Clouds 8 1018 18 10000 1.03 50 13:44 12.03.2021
1576 Clouds 9 1016 16 10000 0.59 47 13:24 12.03.2021
1577 Clouds 9 1016 16 10000 0.56 34 12:57 12.03.2021
1578 Clouds 9 1016 16 10000 0.59 47 12:38 12.03.2021
1579 Clouds 11 1015 12 10000 0.37 275 12:20 12.03.2021
1580 Clouds 11 1015 12 10000 0.37 275 11:50 12.03.2021
1581 Clouds 11 1015 11 10000 0.99 279 11:22 12.03.2021
1582 Clouds 11 1015 11 10000 0.99 279 10:53 12.03.2021
1583 Clouds 11 1016 11 10000 1.21 291 10:25 12.03.2021
1584 Clouds 11 1016 11 10000 1.21 291 09:54 12.03.2021
1585 Clouds 11 1016 11 10000 1.21 291 09:54 12.03.2021
1586 Clouds 11 1017 11 10000 1.13 305 09:24 12.03.2021
1587 Clouds 11 1017 11 10000 1.13 305 08:44 12.03.2021
1588 Clouds 11 1019 11 10000 0.58 319 07:57 12.03.2021
1589 Clouds 11 1019 11 10000 0.59 310 07:32 12.03.2021
1590 Clear 10 1021 12 10000 0.54 19 06:49 12.03.2021
1591 Clear 9 1023 13 10000 0.9 38 06:26 12.03.2021
1592 Clear 2 1026 31 10000 2.25 359 02:21 12.03.2021
1593 Clouds 0 1024 47 10000 2.01 8 00:19 12.03.2021
1594 Clouds 1 1023 48 10000 1.84 5 23:25 11.03.2021
1595 Clouds 1 1023 48 10000 1.84 5 22:43 11.03.2021
1596 Clouds 2 1023 49 10000 1.16 9 22:24 11.03.2021
1597 Clouds 2 1023 49 10000 1.16 9 21:47 11.03.2021
1598 Clouds 3 1023 50 10000 0.42 10 21:27 11.03.2021
1599 Clouds 3 1023 50 10000 0.42 10 20:53 11.03.2021
1600 Clouds 3 1023 50 10000 0.42 10 20:35 11.03.2021
1601 Clouds 3 1023 51 10000 0.03 39 19:58 11.03.2021
1602 Clouds 3 1023 51 10000 0.03 39 19:39 11.03.2021
1603 Clouds 3 1022 50 10000 0.67 175 19:19 11.03.2021
1604 Clouds 2 1021 43 10000 0.32 120 18:43 11.03.2021
1605 Clouds 3 1021 41 10000 0.33 188 18:24 11.03.2021
1606 Clouds 3 1021 41 10000 0.33 188 17:42 11.03.2021
1607 Clouds 3 1020 40 10000 0.54 196 16:43 11.03.2021
1608 Clouds 4 1019 39 10000 0.42 175 16:25 11.03.2021
1609 Clouds 4 1019 39 10000 0.42 175 15:45 11.03.2021
1610 Clouds 5 1017 37 10000 0.58 121 15:21 11.03.2021
1611 Clouds 5 1017 37 10000 0.58 121 14:46 11.03.2021
1612 Clouds 6 1015 30 10000 0.92 67 14:19 11.03.2021
1613 Clouds 6 1015 30 10000 0.92 67 13:46 11.03.2021
1614 Clouds 8 1013 25 10000 1.43 325 13:24 11.03.2021
1615 Clouds 8 1013 25 10000 1.43 325 12:57 11.03.2021
1616 Clouds 8 1013 24 10000 0.82 274 12:37 11.03.2021
1617 Clouds 9 1012 22 10000 1.49 274 12:19 11.03.2021
1618 Clouds 9 1012 22 10000 1.49 274 11:42 11.03.2021
1619 Clouds 10 1011 21 10000 1.96 280 11:20 11.03.2021
1620 Clouds 10 1011 37 10000 1.96 280 10:30 11.03.2021
1621 Clouds 10 1011 37 10000 2.02 243 09:57 11.03.2021
1622 Clouds 10 1011 37 10000 2.02 243 09:37 11.03.2021
1623 Clouds 9 1012 38 10000 1.92 260 09:18 11.03.2021
1624 Clouds 9 1012 38 10000 1.92 260 08:44 11.03.2021
1625 Clouds 9 1014 37 10000 3.16 244 08:18 11.03.2021
1626 Clouds 9 1016 39 10000 2.54 221 07:28 11.03.2021
1627 Clouds 9 1015 38 10000 2.49 219 06:49 11.03.2021
1628 Clouds 8 1017 43 10000 1.96 205 06:24 11.03.2021
1629 Clouds 4 1020 62 10000 1.83 201 02:49 11.03.2021
1630 -273 0 0 0 0 0 00:54 11.03.2021
1631 Clouds 1 1017 76 10000 1.71 170 23:27 10.03.2021
1632 Clouds 1 1017 76 10000 1.71 170 22:48 10.03.2021
1633 Clouds 1 1017 76 10000 1.9 170 22:28 10.03.2021
1634 Clouds 1 1017 76 10000 1.9 170 22:26 10.03.2021
1635 Clouds 1 1017 76 10000 1.9 170 21:45 10.03.2021
1636 Clouds 1 1017 74 10000 2.25 175 21:23 10.03.2021
1637 Clouds 1 1017 72 10000 2.33 177 20:46 10.03.2021
1638 Clouds 2 1016 66 10000 2.5 178 20:28 10.03.2021
1639 Clouds 2 1016 66 10000 2.5 178 19:49 10.03.2021
1640 Clouds 3 1016 59 10000 2.67 180 19:28 10.03.2021
1641 Clouds 3 1016 59 10000 2.67 180 18:46 10.03.2021
1642 Clouds 4 1016 53 10000 2.3 186 18:24 10.03.2021
1643 Clouds 4 1016 53 10000 2.3 186 17:56 10.03.2021
1644 Clouds 4 1016 53 10000 2.3 186 17:37 10.03.2021
1645 Clouds 4 1016 46 10000 2.14 193 17:19 10.03.2021
1646 Clouds 4 1016 46 10000 2.14 193 16:42 10.03.2021
1647 Clouds 5 1015 42 10000 1.68 190 16:23 10.03.2021
1648 Clouds 5 1015 42 10000 1.68 190 15:46 10.03.2021
1649 Clouds 5 1014 42 10000 0.69 187 15:23 10.03.2021
1650 Clouds 5 1014 42 10000 0.69 187 14:56 10.03.2021
1651 Clouds 6 1012 40 10000 0.13 291 14:20 10.03.2021
1652 Clouds 6 1012 40 10000 0.13 291 13:52 10.03.2021
1653 Clouds 6 1012 40 10000 0.13 291 13:31 10.03.2021
1654 Clouds 8 1011 34 10000 0.37 188 12:46 10.03.2021
1655 Clouds 10 1009 27 10000 1.02 267 12:23 10.03.2021
1656 Clouds 10 1009 27 10000 1.02 267 11:47 10.03.2021
1657 Clouds 10 1009 27 10000 1.91 281 11:21 10.03.2021
1658 Clouds 10 1009 27 10000 1.91 281 10:50 10.03.2021
1659 Clouds 10 1009 27 10000 1.91 281 10:31 10.03.2021
1660 Clouds 11 1009 27 10000 1.89 270 09:55 10.03.2021
1661 Clouds 11 1009 27 10000 2.08 266 09:37 10.03.2021
1662 Clouds 10 1011 28 10000 1.66 242 09:18 10.03.2021
1663 Clouds 10 1011 28 10000 1.66 242 08:42 10.03.2021
1664 Clouds 10 1012 31 10000 1.77 224 08:23 10.03.2021
1665 Clouds 10 1012 31 10000 1.77 224 07:42 10.03.2021
1666 Clouds 9 1014 33 10000 2.18 227 07:21 10.03.2021
1667 Clouds 9 1014 33 10000 2.18 227 06:49 10.03.2021
1668 Clear 4 1019 62 10000 1.92 200 02:42 10.03.2021
1669 Clouds -1 1018 77 10000 1.23 184 23:59 09.03.2021
1670 Clouds 0 1018 75 10000 1.31 169 23:27 09.03.2021
1671 Clouds 0 1018 75 10000 1.31 169 22:50 09.03.2021
1672 Clouds 0 1018 75 10000 1.31 169 22:31 09.03.2021
1673 Clouds 1 1017 68 10000 0.97 162 21:58 09.03.2021
1674 Clouds 1 1017 68 10000 0.97 162 21:37 09.03.2021
1675 Clouds 2 1018 63 10000 0.75 161 21:18 09.03.2021
1676 Clouds 2 1018 63 10000 0.75 161 20:43 09.03.2021
1677 Clouds 2 1017 60 10000 1.08 132 20:22 09.03.2021
1678 Clouds 2 1017 60 10000 1.08 132 19:57 09.03.2021
1679 Clouds 3 1017 55 10000 0.69 95 19:29 09.03.2021
1680 Clouds 2 1017 58 10000 0.91 163 18:54 09.03.2021
1681 Clouds 2 1017 58 10000 0.91 163 18:30 09.03.2021
1682 Clouds 3 1017 52 10000 0.42 68 17:58 09.03.2021
1683 Clouds 3 1017 53 10000 0.43 79 17:38 09.03.2021
1684 Clouds 4 1017 48 10000 0.39 246 17:19 09.03.2021
1685 Clouds 4 1017 48 10000 0.39 246 16:40 09.03.2021
1686 Clouds 4 1016 44 10000 1.36 209 16:20 09.03.2021
1687 Clouds 4 1016 44 10000 1.36 209 15:47 09.03.2021
1688 Clouds 5 1014 43 10000 1.16 225 15:24 09.03.2021
1689 Clouds 5 1014 43 10000 1.16 225 14:42 09.03.2021
1690 Clouds 6 1013 40 10000 1.03 269 14:22 09.03.2021
1691 Clouds 6 1013 40 10000 1.03 269 13:39 09.03.2021
1692 Clouds 8 1011 34 10000 1.31 269 13:21 09.03.2021
1693 Clouds 8 1011 37 10000 0.49 93 12:46 09.03.2021
1694 Clouds 10 1009 33 10000 0.59 277 12:27 09.03.2021
1695 Clouds 10 1009 33 10000 0.59 277 11:42 09.03.2021
1696 Clouds 10 1008 32 10000 0.93 287 11:21 09.03.2021
1697 Clouds 10 1008 32 10000 0.93 287 10:57 09.03.2021
1698 Clouds 10 1008 32 10000 0.93 287 10:39 09.03.2021
1699 Clouds 10 1009 32 10000 1.3 282 10:20 09.03.2021
1700 Clouds 10 1009 32 10000 1.3 282 09:45 09.03.2021
1701 Clouds 10 1010 32 10000 1.24 277 09:26 09.03.2021
1702 Clouds 10 1010 32 10000 1.24 277 08:48 09.03.2021
1703 Clouds 10 1012 33 10000 1.39 278 08:29 09.03.2021
1704 Clouds 10 1012 33 10000 1.39 278 07:41 09.03.2021
1705 Clouds 9 1014 35 10000 1.18 291 07:22 09.03.2021
1706 Clouds 9 1014 35 10000 1.18 291 06:44 09.03.2021
1707 Clouds 8 1015 38 10000 1.39 286 05:48 09.03.2021
1708 Clouds 0 1018 82 10000 0.92 172 00:43 09.03.2021
1709 Clouds 1 1017 76 10000 1.24 173 23:45 08.03.2021
1710 Clouds 2 1016 74 10000 1.38 159 23:27 08.03.2021
1711 Clouds 2 1016 74 10000 1.38 159 22:58 08.03.2021
1712 Clouds 2 1016 74 10000 1.38 159 22:40 08.03.2021
1713 Clouds 2 1016 71 10000 0.98 155 22:21 08.03.2021
1714 Clouds 2 1016 71 10000 0.98 155 21:43 08.03.2021
1715 Clouds 4 1016 63 10000 1.21 147 21:24 08.03.2021
1716 Clouds 4 1016 63 10000 1.21 147 20:39 08.03.2021
1717 Clouds 4 1015 59 10000 0.71 155 20:19 08.03.2021
1718 Clouds 4 1015 59 10000 0.71 155 19:40 08.03.2021
1719 Clouds 4 1015 59 10000 1.81 147 18:57 08.03.2021
1720 Clouds 4 1015 59 10000 1.81 147 18:37 08.03.2021
1721 Clouds 4 1015 60 10000 1.24 141 18:18 08.03.2021
1722 Clouds 4 1015 60 10000 1.24 141 17:43 08.03.2021
1723 Clouds 4 1014 59 10000 1.48 120 17:21 08.03.2021
1724 Clouds 4 1014 59 10000 1.48 120 16:41 08.03.2021
1725 Clouds 5 1014 55 10000 1.43 87 16:21 08.03.2021
1726 Clouds 5 1014 55 10000 1.43 87 15:38 08.03.2021
1727 Clouds 5 1012 53 10000 1.48 43 15:20 08.03.2021
1728 Clouds 6 1011 51 10000 1.24 27 14:21 08.03.2021
1729 Clouds 6 1011 51 10000 1.24 27 13:54 08.03.2021
1730 Clouds 7 1009 46 10000 0.59 24 13:23 08.03.2021
1731 Clouds 7 1009 45 10000 1.42 336 12:56 08.03.2021
1732 Clouds 9 1008 37 10000 1.08 307 12:29 08.03.2021
1733 Clouds 9 1008 37 10000 1.08 307 11:48 08.03.2021
1734 Clouds 9 1007 38 10000 1.16 290 11:29 08.03.2021
1735 Clouds 9 1007 38 10000 1.16 290 10:55 08.03.2021
1736 Clouds 9 1007 38 10000 1.16 290 10:37 08.03.2021
1737 Clouds 9 1007 39 10000 1.95 279 10:18 08.03.2021
1738 Clouds 9 1008 39 10000 2.23 262 09:26 08.03.2021
1739 Clouds 9 1008 39 10000 2.23 262 09:26 08.03.2021
1740 Clouds 9 1008 39 10000 2.23 262 08:50 08.03.2021
1741 Clouds 9 1010 41 10000 2.2 234 08:23 08.03.2021
1742 Clouds 9 1012 40 10000 2.23 217 07:21 08.03.2021
1743 Clouds 8 1014 45 10000 1.72 191 05:42 08.03.2021
1744 Clouds 1 1018 78 10000 1.56 139 02:24 08.03.2021
1745 Clouds -2 1017 84 10000 1.47 156 00:42 08.03.2021
1746 Clouds 0 1016 82 10000 2.28 144 23:53 07.03.2021
1747 Clouds 1 1016 74 10000 2.29 149 23:22 07.03.2021
1748 Clouds 1 1016 74 10000 2.29 149 22:48 07.03.2021
1749 Clouds 2 1015 71 10000 2.04 161 22:28 07.03.2021
1750 Clouds 2 1015 71 10000 2.04 161 21:53 07.03.2021
1751 Clouds 2 1015 71 10000 2.04 161 21:33 07.03.2021
1752 Clouds 2 1015 67 10000 2.45 169 20:59 07.03.2021
1753 Clouds 2 1015 67 10000 2.45 169 20:40 07.03.2021
1754 Clouds 3 1015 61 10000 2.33 157 20:19 07.03.2021
1755 Clouds 3 1015 61 10000 2.33 157 20:19 07.03.2021
1756 Clouds 3 1015 61 10000 2.33 157 19:41 07.03.2021
1757 Clouds 3 1015 57 10000 1.86 151 19:22 07.03.2021
1758 Clouds 3 1015 57 10000 1.9 148 18:56 07.03.2021
1759 Clouds 3 1015 57 10000 1.9 148 18:38 07.03.2021
1760 Clouds 3 1015 56 10000 1.56 148 18:18 07.03.2021
1761 Clouds 3 1015 56 10000 1.56 148 17:39 07.03.2021
1762 Clouds 3 1015 52 10000 1.33 105 17:19 07.03.2021
1763 Clouds 3 1015 52 10000 1.33 105 16:43 07.03.2021
1764 Clouds 3 1014 52 10000 0.89 39 16:21 07.03.2021
1765 Clouds 3 1014 52 10000 0.89 39 15:51 07.03.2021
1766 Clouds 3 1014 52 10000 0.89 39 15:31 07.03.2021
1767 Clouds 4 1013 47 10000 1.38 348 14:56 07.03.2021
1768 Clouds 5 1011 43 10000 1.67 316 14:29 07.03.2021
1769 Clouds 5 1011 43 10000 1.67 316 13:51 07.03.2021
1770 Clouds 5 1011 43 10000 1.67 316 13:30 07.03.2021
1771 Clouds 6 1009 38 10000 1.64 310 12:56 07.03.2021
1772 Clouds 6 1009 38 10000 1.68 310 12:37 07.03.2021
1773 Clouds 9 1007 28 10000 3.18 295 12:18 07.03.2021
1774 Clouds 10 1006 27 10000 3.55 290 11:24 07.03.2021
1775 Clouds 10 1006 27 10000 3.55 290 10:56 07.03.2021
1776 Clouds 10 1006 27 10000 3.55 290 10:38 07.03.2021
1777 Clouds 10 1006 27 10000 2.57 282 09:56 07.03.2021
1778 Clouds 10 1007 27 10000 2.77 279 09:30 07.03.2021
1779 Clouds 9 1008 28 10000 1.96 268 08:59 07.03.2021
1780 Clouds 9 1008 28 10000 1.96 268 08:40 07.03.2021
1781 Clouds 9 1009 29 10000 1.58 236 08:21 07.03.2021
1782 Clouds 7 1012 40 10000 0.45 55 06:51 07.03.2021
1783 Clouds 0 1018 68 10000 0.99 49 02:40 07.03.2021
1784 Clear -6 1018 71 10000 0.65 57 00:34 07.03.2021
1785 Clear -6 1017 70 10000 0.58 56 23:40 06.03.2021
1786 Clear -5 1017 68 10000 0.17 8 23:20 06.03.2021
1787 Clear -5 1017 68 10000 0.17 8 22:46 06.03.2021
1788 Clear -5 1017 68 10000 0.49 270 22:24 06.03.2021
1789 Clear -5 1017 68 10000 0.49 270 21:49 06.03.2021
1790 Clear -4 1017 67 10000 0.19 72 21:21 06.03.2021
1791 Clear -4 1017 67 10000 0.19 72 20:44 06.03.2021
1792 Clear -4 1017 68 10000 0.63 7 20:19 06.03.2021
1793 Clear -4 1017 68 10000 0.63 7 19:40 06.03.2021
1794 Clouds -3 1017 67 10000 1.41 3 19:18 06.03.2021
1795 Clouds -3 1018 63 10000 1.37 1 18:43 06.03.2021
1796 Clouds -2 1018 64 10000 1.74 0 18:22 06.03.2021
1797 Clouds -2 1018 64 10000 1.74 0 17:55 06.03.2021
1798 Clouds -2 1018 64 10000 1.74 0 17:33 06.03.2021
1799 Clouds -1 1017 68 10000 1.92 333 16:59 06.03.2021
1800 Clouds -1 1017 68 10000 1.93 335 16:37 06.03.2021
1801 Clouds 0 1016 72 10000 2.64 322 16:18 06.03.2021
1802 Clouds 0 1016 72 10000 2.64 322 15:41 06.03.2021
1803 Clouds 1 1014 73 10000 2.42 324 15:23 06.03.2021
1804 Clouds 1 1014 73 10000 2.42 324 14:33 06.03.2021
1805 Clouds 2 1011 70 10000 1.25 336 13:56 06.03.2021
1806 Clouds 2 1011 70 10000 1.25 336 13:37 06.03.2021
1807 Clouds 2 1009 68 10000 0.81 55 13:19 06.03.2021
1808 Clouds 3 1009 67 10000 1.24 353 12:43 06.03.2021
1809 Clouds 5 1007 58 10000 1.56 276 12:19 06.03.2021
1810 Clouds 5 1007 58 10000 1.56 276 11:44 06.03.2021
1811 Clouds 4 1006 61 10000 0.83 288 11:20 06.03.2021
1812 Clouds 4 1006 61 10000 0.83 288 10:44 06.03.2021
1813 Clouds 5 1006 58 7405 1.06 241 10:18 06.03.2021
1814 Clouds 5 1006 58 7405 1.06 241 09:40 06.03.2021
1815 Clouds 5 1006 56 10000 0.35 289 09:19 06.03.2021
1816 Clouds 5 1006 56 10000 0.35 289 09:19 06.03.2021
1817 Clouds 5 1006 56 10000 0.35 289 08:33 06.03.2021
1818 Clouds 5 1007 60 9940 1.29 244 07:56 06.03.2021
1819 Clouds 3 1010 71 5656 1.03 216 07:23 06.03.2021
1820 Clouds 3 1010 71 5656 1.03 216 06:48 06.03.2021
1821 Clouds 2 1011 74 3395 1.07 188 05:34 06.03.2021
1822 Snow -1 1013 89 9695 1.77 129 02:25 06.03.2021
1823 Snow -2 1012 90 9178 1.97 141 00:47 06.03.2021
1824 Snow -2 1011 89 7382 1.87 142 23:52 05.03.2021
1825 Snow -1 1010 89 8207 1.07 125 23:28 05.03.2021
1826 Snow -1 1010 89 8207 1.07 125 22:45 05.03.2021
1827 Snow -1 1010 89 6687 0.23 102 22:23 05.03.2021
1828 Snow -1 1010 89 6687 0.23 102 21:53 05.03.2021
1829 Snow -1 1010 89 6687 0.23 102 21:34 05.03.2021
1830 Snow -1 1010 89 6492 0.41 12 20:54 05.03.2021
1831 Clouds 0 1011 86 10000 0.29 75 20:27 05.03.2021
1832 Clouds 0 1011 86 10000 0.29 75 19:59 05.03.2021
1833 Snow 1 1011 80 10000 0.63 130 19:27 05.03.2021
1834 Snow 1 1011 80 10000 0.63 130 18:59 05.03.2021
1835 Snow 0 1011 87 4217 0.05 106 18:41 05.03.2021
1836 Snow 2 1010 79 10000 1.02 139 18:21 05.03.2021
1837 Snow 2 1010 79 10000 1.02 139 17:36 05.03.2021
1838 Clouds 2 1010 73 9377 1.59 141 16:51 05.03.2021
1839 Clouds 4 1009 60 7667 1.42 88 16:25 05.03.2021
1840 Clouds 4 1009 60 7667 1.42 88 15:59 05.03.2021
1841 Clouds 4 1009 60 7667 1.42 88 15:41 05.03.2021
1842 Clouds 5 1007 56 9602 1.05 136 15:22 05.03.2021
1843 Clouds 5 1007 31 10000 1.26 119 14:38 05.03.2021
1844 Clouds 6 1005 28 10000 1.62 86 13:59 05.03.2021
1845 Clouds 7 1003 24 10000 1.84 64 13:22 05.03.2021
1846 Clouds 7 1003 23 10000 1.88 62 12:56 05.03.2021
1847 Clouds 8 1002 19 10000 0.34 50 12:27 05.03.2021
1848 Clouds 8 1002 19 10000 0.34 50 11:37 05.03.2021
1849 Clouds 9 1001 19 10000 0.32 228 11:18 05.03.2021
1850 Clouds 9 1001 19 10000 0.32 228 10:42 05.03.2021
1851 Clouds 9 1001 18 10000 0.61 224 10:23 05.03.2021
1852 Clouds 9 1001 18 10000 0.61 224 09:50 05.03.2021
1853 Clouds 9 1002 19 10000 1.18 238 09:27 05.03.2021
1854 Clouds 9 1002 19 10000 1.18 238 08:46 05.03.2021
1855 Clouds 8 1003 20 10000 1.73 231 08:27 05.03.2021
1856 Clouds 8 1003 20 10000 1.73 231 07:58 05.03.2021
1857 Clouds 8 1005 21 10000 1.84 213 07:29 05.03.2021
1858 Clouds 8 1005 22 10000 1.75 217 06:33 05.03.2021
1859 Clouds 7 1007 28 10000 1.73 191 05:32 05.03.2021
1860 Clouds -2 1011 69 10000 1.85 178 00:49 05.03.2021
1861 Clouds -2 1010 83 10000 1.89 175 23:44 04.03.2021
1862 Clouds -1 1010 82 10000 2.37 174 23:19 04.03.2021
1863 Clouds 0 1010 82 10000 2.64 172 22:28 04.03.2021
1864 Clouds 0 1010 82 10000 2.64 172 21:52 04.03.2021
1865 Clouds 1 1010 77 10000 2.64 169 21:29 04.03.2021
1866 Clouds 1 1010 77 10000 2.64 169 20:43 04.03.2021
1867 Clouds 2 1010 70 10000 2.67 162 20:24 04.03.2021
1868 Clouds 2 1010 70 10000 2.67 162 19:59 04.03.2021
1869 Clouds 2 1010 70 10000 2.67 162 19:40 04.03.2021
1870 Clouds 3 1010 63 10000 2.46 158 19:21 04.03.2021
1871 Clouds 3 1010 63 10000 2.46 158 18:45 04.03.2021
1872 Clouds 4 1010 59 10000 2.11 154 18:25 04.03.2021
1873 Clouds 4 1010 59 10000 2.11 154 17:46 04.03.2021
1874 Clouds 4 1010 56 10000 1.68 146 17:28 04.03.2021
1875 Clouds 4 1010 56 10000 1.68 146 16:48 04.03.2021
1876 Clouds 5 1009 52 10000 1.6 174 16:29 04.03.2021
1877 Clouds 5 1009 52 10000 1.6 174 15:50 04.03.2021
1878 Clouds 5 1009 52 10000 1.6 174 15:32 04.03.2021
1879 Clouds 6 1007 48 10000 2.34 198 14:50 04.03.2021
1880 Clouds 7 1005 41 10000 3.29 211 14:26 04.03.2021
1881 Clouds 7 1005 41 10000 3.29 211 13:50 04.03.2021
1882 Clouds 7 1005 41 10000 3.29 211 13:32 04.03.2021
1883 Clouds 8 1002 32 10000 2.43 217 12:53 04.03.2021
1884 Clouds 8 1001 33 10000 2.6 209 12:35 04.03.2021
1885 Clouds 12 999 23 10000 5.6 262 11:47 04.03.2021
1886 Clouds 13 998 23 10000 8.17 264 11:25 04.03.2021
1887 Clouds 13 998 8 10000 8.17 264 10:52 04.03.2021
1888 Clouds 13 998 23 10000 8.17 264 10:31 04.03.2021
1889 Clouds 14 998 22 10000 8.03 260 09:42 04.03.2021
1890 Clouds 14 1000 22 10000 7.15 249 09:21 04.03.2021
1891 Clouds 14 1000 22 10000 7.15 249 08:35 04.03.2021
1892 Clouds 12 1001 26 10000 4.02 242 07:53 04.03.2021
1893 Clear 10 1004 34 10000 2.12 197 07:29 04.03.2021
1894 Clear 8 1006 43 10000 1.62 181 06:24 04.03.2021
1895 Clear 6 1009 50 10000 1.35 168 05:27 04.03.2021
1896 Clear -1 1013 80 10000 1.84 168 01:43 04.03.2021
1897 Clear -1 1013 80 10000 1.84 168 01:43 04.03.2021
1898 Clear -1 1013 80 10000 1.84 168 01:43 04.03.2021
1899 Clear -1 1013 80 10000 1.84 168 01:43 04.03.2021
1900 Clear -1 1013 80 10000 1.84 168 01:43 04.03.2021
1901 Clear -1 1012 82 10000 2.35 167 22:44 03.03.2021
1902 Clear -1 1012 81 10000 2.39 172 22:26 03.03.2021
1903 Clear -1 1012 81 10000 2.39 172 21:45 03.03.2021
1904 Clear 0 1012 81 10000 2.61 167 21:24 03.03.2021
1905 Clear 0 1012 81 10000 2.61 167 20:59 03.03.2021
1906 Clear 0 1012 81 10000 2.61 167 20:41 03.03.2021
1907 Clear 1 1012 76 10000 2.78 165 20:19 03.03.2021
1908 Clear 1 1012 76 10000 2.78 165 19:41 03.03.2021
1909 Clear 2 1011 70 10000 2.89 167 19:22 03.03.2021
1910 Clear 2 1011 71 10000 3.19 170 18:48 03.03.2021
1911 Clear 3 1011 65 10000 3.16 165 18:26 03.03.2021
1912 Clear 3 1011 65 10000 3.16 165 17:54 03.03.2021
1913 Clear 4 1011 60 10000 3.27 171 17:19 03.03.2021
1914 Clear 4 1011 60 10000 3.27 171 16:44 03.03.2021
1915 Clear 5 1010 53 10000 3.36 179 16:24 03.03.2021
1916 Clear 5 1010 53 10000 3.36 179 15:45 03.03.2021
1917 Clear 6 1008 45 10000 4.01 180 15:27 03.03.2021
1918 Clear 6 1008 45 10000 4.01 180 14:31 03.03.2021
1919 Clouds 8 1006 40 10000 3.4 180 13:59 03.03.2021
1920 Clouds 7 1006 41 10000 3.05 187 13:37 03.03.2021
1921 Clouds 9 1003 35 10000 2.55 208 13:18 03.03.2021
1922 Clouds 9 1003 36 10000 2.62 202 12:40 03.03.2021
1923 Clouds 12 1001 28 10000 3.38 202 12:22 03.03.2021
1924 Clouds 12 1001 28 10000 3.38 202 11:43 03.03.2021
1925 Clear 12 1001 27 10000 2 207 11:21 03.03.2021
1926 Clear 12 1001 27 10000 2 207 10:43 03.03.2021
1927 Clear 11 1002 26 10000 1.61 222 10:20 03.03.2021
1928 Clear 11 1002 26 10000 1.61 222 09:40 03.03.2021
1929 Clear 11 1003 26 10000 1.89 217 08:49 03.03.2021
1930 Clear 10 1006 27 10000 1.85 215 08:23 03.03.2021
1931 Clear 10 1006 27 10000 1.85 215 07:52 03.03.2021
1932 Clear 9 1008 32 10000 2.05 200 06:55 03.03.2021
1933 Clear 8 1011 34 10000 1.21 170 06:18 03.03.2021
1934 Clear 8 1011 34 10000 1.21 170 05:30 03.03.2021
1935 Clear 6 1014 37 10000 1.08 175 04:36 03.03.2021
1936 Clear 5 1015 42 10000 0.5 154 03:52 03.03.2021
1937 Clear -2 1017 62 10000 1.4 21 00:18 03.03.2021
1938 Clouds -1 1017 62 10000 1.71 14 23:32 02.03.2021
1939 Clouds -1 1017 62 10000 1.71 14 22:48 02.03.2021
1940 Clouds -1 1017 63 10000 1.8 13 22:21 02.03.2021
1941 Clouds -1 1017 63 10000 1.8 13 21:46 02.03.2021
1942 Clouds 0 1017 63 10000 2.02 11 21:28 02.03.2021
1943 Clouds 0 1017 63 10000 2.02 11 20:55 02.03.2021
1944 Clouds 0 1017 63 10000 2.02 11 20:36 02.03.2021
1945 Clouds 1 1017 60 10000 2.2 7 20:18 02.03.2021
1946 Clouds 1 1017 60 10000 2.2 7 19:43 02.03.2021
1947 Clouds 2 1016 57 10000 2.75 4 19:24 02.03.2021
1948 Clouds 2 1016 56 10000 2.77 7 18:41 02.03.2021
1949 Clouds 3 1016 54 10000 3.09 1 18:21 02.03.2021
1950 Clouds 3 1016 54 10000 3.09 1 17:56 02.03.2021
1951 Clouds 3 1016 54 10000 3.09 1 17:38 02.03.2021
1952 Clouds 4 1015 54 10000 2.43 1 17:18 02.03.2021
1953 Clouds 4 1015 54 10000 2.43 1 16:40 02.03.2021
1954 Clouds 5 1013 50 10000 1.34 340 15:54 02.03.2021
1955 Clouds 7 1011 46 10000 1.11 273 15:27 02.03.2021
1956 Clouds 7 1011 46 10000 1.11 273 14:44 02.03.2021
1957 Clear 8 1008 40 10000 2.08 225 14:18 02.03.2021
1958 Clear 8 1008 40 10000 2.08 225 14:18 02.03.2021
1959 Clear 8 1008 40 10000 2.08 225 13:44 02.03.2021
1960 Clear 9 1005 37 10000 2.03 228 13:23 02.03.2021
1961 Clear 9 1005 37 10000 2.03 228 12:45 02.03.2021
1962 Clear 13 1003 27 10000 3.85 240 12:25 02.03.2021
1963 Clear 13 1003 27 10000 3.85 240 11:45 02.03.2021
1964 Clear 13 1002 27 10000 3.27 235 11:22 02.03.2021
1965 Clear 13 1002 27 10000 3.27 235 10:49 02.03.2021
1966 Clear 12 1002 30 10000 2.48 222 10:25 02.03.2021
1967 Clear 12 1002 30 10000 2.48 222 09:41 02.03.2021
1968 Clouds 12 1004 33 10000 2.44 214 09:22 02.03.2021
1969 Clouds 12 1004 33 10000 2.44 214 08:43 02.03.2021
1970 Clear 11 1005 36 10000 2.73 208 08:25 02.03.2021
1971 Clear 11 1005 36 10000 2.73 208 07:43 02.03.2021
1972 Clear 9 1009 41 10000 2.23 204 06:37 02.03.2021
1973 Clear 8 1011 47 10000 2.11 198 05:48 02.03.2021
1974 Clear 8 1011 47 10000 2.11 198 05:30 02.03.2021
1975 Clear 2 1014 71 10000 1.66 174 03:29 02.03.2021
1976 Clear 0 1015 83 10000 2.03 167 01:42 02.03.2021
1977 Clear -2 1014 85 10000 1.99 170 01:19 02.03.2021
1978 Clear -1 1012 84 10000 2.48 169 23:29 01.03.2021
1979 Clear -1 1012 84 10000 2.48 169 22:43 01.03.2021
1980 Clear -1 1012 84 10000 2.48 169 22:43 01.03.2021
1981 Clear 0 1012 83 10000 2.65 171 22:25 01.03.2021
1982 Clear 0 1012 83 10000 2.65 171 21:52 01.03.2021
1983 Clear 1 1012 80 10000 3.15 171 21:24 01.03.2021
1984 Clear 1 1012 80 10000 3.15 171 21:24 01.03.2021
1985 Clear 1 1012 80 10000 3.15 171 20:59 01.03.2021
1986 Clear 1 1012 80 10000 3.15 171 20:41 01.03.2021
1987 Clear 1 1012 75 10000 3.35 172 20:19 01.03.2021
1988 Clear 1 1012 75 10000 3.41 173 19:43 01.03.2021
1989 Clear 2 1011 71 10000 3.79 175 19:20 01.03.2021
1990 Clear 2 1011 71 10000 3.79 175 18:42 01.03.2021
1991 Clear 3 1010 67 10000 3.97 176 18:22 01.03.2021
1992 Clear 3 1010 67 10000 3.97 176 17:46 01.03.2021
1993 Clear 4 1010 62 10000 4.26 177 17:21 01.03.2021
1994 Clear 4 1010 62 10000 4.26 177 16:46 01.03.2021
1995 Clear 6 1009 57 10000 4.26 179 16:26 01.03.2021
1996 Clear 6 1009 57 10000 4.26 179 15:47 01.03.2021
1997 Clear 7 1007 50 10000 4.25 182 15:22 01.03.2021
1998 Clear 7 1007 50 10000 4.25 182 14:57 01.03.2021
1999 Clear 7 1007 50 10000 4.25 182 14:38 01.03.2021
2000 Clear 9 1005 43 10000 4.12 191 13:47 01.03.2021
2001 Clear 10 1002 37 10000 3.02 207 13:28 01.03.2021
2002 Clear 10 1002 37 10000 2.81 203 12:59 01.03.2021
2003 Clear 10 1002 37 10000 2.81 203 12:40 01.03.2021
2004 Clear 14 1000 28 10000 3.23 203 12:20 01.03.2021
2005 Clear 14 1000 28 10000 3.23 203 11:46 01.03.2021
2006 Clear 15 999 27 10000 3.06 207 10:59 01.03.2021
2007 Clear 15 999 27 10000 3.06 207 10:36 01.03.2021
2008 Clear 14 999 28 10000 3.46 201 10:18 01.03.2021
2009 Clear 14 999 28 10000 3.46 201 09:46 01.03.2021
2010 Clear 14 1000 29 10000 3.38 198 09:25 01.03.2021
2011 Clear 14 1000 29 10000 3.38 198 08:55 01.03.2021
2012 Clear 13 1002 32 10000 3.04 200 08:22 01.03.2021
2013 Clear 11 1005 37 10000 2.76 201 06:55 01.03.2021
2014 Clear 9 1007 43 10000 2.61 191 06:24 01.03.2021
2015 Clear 4 1013 65 10000 2.01 181 02:38 01.03.2021
2016 Clear 0 1011 85 10000 1.92 178 23:41 28.02.2021
2017 Clear 1 1010 82 10000 2.13 177 22:56 28.02.2021
2018 Clear 1 1010 79 10000 2.27 171 22:26 28.02.2021
2019 Clear 1 1010 79 10000 2.27 171 22:26 28.02.2021
2020 Clear 1 1010 79 10000 2.27 171 21:55 28.02.2021
2021 Clear 1 1010 79 10000 2.27 171 21:33 28.02.2021
2022 Clear 2 1010 75 10000 2.58 179 20:58 28.02.2021
2023 Clear 2 1010 75 10000 2.58 179 20:38 28.02.2021
2024 Clear 2 1010 75 10000 2.58 179 20:38 28.02.2021
2025 Clear 3 1009 71 10000 3.11 183 20:18 28.02.2021
2026 Clear 3 1009 71 10000 3.11 183 19:45 28.02.2021
2027 Clear 4 1009 66 10000 3.11 182 19:24 28.02.2021
2028 Clear 4 1009 66 10000 3.11 182 18:43 28.02.2021
2029 Clear 5 1008 61 10000 3.23 185 18:25 28.02.2021
2030 Clear 5 1008 61 10000 3.23 185 18:25 28.02.2021
2031 Clear 5 1008 61 10000 3.23 185 17:50 28.02.2021
2032 Clear 6 1008 55 10000 3.4 184 17:28 28.02.2021
2033 Clear 6 1008 55 10000 3.4 184 16:56 28.02.2021
2034 Clear 6 1008 55 10000 3.4 184 16:38 28.02.2021
2035 Clear 7 1007 50 10000 3.4 186 16:18 28.02.2021
2036 Clear 7 1007 50 10000 3.4 186 15:40 28.02.2021
2037 Clear 9 1006 45 10000 3.34 190 15:22 28.02.2021
2038 Clear 9 1006 45 10000 3.34 190 14:52 28.02.2021
2039 Clear 10 1003 41 10000 2.99 196 14:28 28.02.2021
2040 Clear 9 1003 42 10000 2.65 199 13:52 28.02.2021
2041 Clear 11 1000 38 10000 2.58 202 13:21 28.02.2021
2042 Clear 11 1000 38 10000 2.58 202 12:56 28.02.2021
2043 Clear 11 1000 38 10000 2.58 202 12:38 28.02.2021
2044 Clear 15 997 29 10000 2.88 208 12:19 28.02.2021
2045 Clear 15 997 29 10000 2.88 208 11:46 28.02.2021
2046 Clear 15 996 28 10000 2.83 212 11:26 28.02.2021
2047 Clear 15 996 28 10000 2.83 212 10:57 28.02.2021
2048 Clear 15 996 29 10000 2.71 206 10:29 28.02.2021
2049 Clear 15 996 29 10000 2.71 206 09:56 28.02.2021
2050 Clear 15 996 29 10000 2.71 206 09:34 28.02.2021
2051 Clear 14 997 30 10000 2.84 207 08:52 28.02.2021
2052 Clear 14 997 30 10000 2.84 207 08:33 28.02.2021
2053 Clear 12 999 34 10000 2.4 213 07:57 28.02.2021
2054 Clear 12 999 34 10000 2.4 213 07:39 28.02.2021
2055 Clear 11 1001 39 10000 2.19 202 07:18 28.02.2021
2056 Clear 9 1004 45 10000 2.15 200 06:21 28.02.2021
2057 Clear 4 1008 61 10000 1.78 188 03:46 28.02.2021
2058 Clear 0 1011 85 10000 2.05 174 02:20 28.02.2021
2059 Clear -2 1010 86 10000 1.93 173 00:58 28.02.2021
2060 Clear -2 1010 86 10000 1.93 173 00:58 28.02.2021
2061 Clear -2 1010 86 10000 1.93 173 00:37 28.02.2021
2062 Clear -1 1009 86 10000 2.02 172 23:48 27.02.2021
2063 Clear -1 1008 86 10000 2.27 173 23:20 27.02.2021
2064 Clear -1 1008 86 10000 2.27 173 22:49 27.02.2021
2065 Clear 0 1007 84 10000 2.81 173 22:23 27.02.2021
2066 Clear 0 1007 84 10000 2.81 173 21:55 27.02.2021
2067 Clear 0 1007 84 10000 2.81 173 21:35 27.02.2021
2068 Clear 1 1007 79 10000 3.13 172 20:54 27.02.2021
2069 Clear 1 1007 79 10000 3.13 172 20:35 27.02.2021
2070 Clear 1 1007 79 10000 3.13 172 20:35 27.02.2021
2071 Clear 2 1007 73 10000 3.28 174 19:58 27.02.2021
2072 Clear 2 1007 73 10000 3.28 174 19:39 27.02.2021
2073 Clear 3 1007 69 10000 3.25 174 19:21 27.02.2021
2074 Clear 3 1007 69 10000 3.25 174 18:38 27.02.2021
2075 Clear 5 1007 63 10000 3.48 175 18:18 27.02.2021
2076 Clear 5 1007 63 10000 3.48 175 17:43 27.02.2021
2077 Clear 6 1006 56 10000 3.59 177 17:20 27.02.2021
2078 Clear 6 1006 56 10000 3.59 177 16:51 27.02.2021
2079 Clear 6 1006 56 10000 3.59 177 16:31 27.02.2021
2080 Clear 7 1005 49 10000 3.61 178 15:49 27.02.2021
2081 Clear 7 1005 49 10000 3.61 178 15:31 27.02.2021
2082 Clear 9 1003 43 10000 3.46 185 14:43 27.02.2021
2083 Clear 10 1000 40 10000 3.04 190 14:25 27.02.2021
2084 Clear 10 1000 40 10000 3.04 190 13:49 27.02.2021
2085 Clear 11 998 37 10000 2.39 200 13:27 27.02.2021
2086 Clear 11 998 37 10000 2.39 200 12:52 27.02.2021
2087 Clear 15 995 27 10000 2.9 205 12:28 27.02.2021
2088 Clear 15 995 27 10000 2.9 205 11:56 27.02.2021
2089 Clear 15 995 27 10000 2.9 205 11:38 27.02.2021
2090 Clear 16 993 26 10000 2.81 205 11:18 27.02.2021
2091 Clear 16 993 26 10000 2.81 205 10:41 27.02.2021
2092 Clear 15 994 26 10000 3.04 201 10:18 27.02.2021
2093 Clear 15 994 26 10000 3.04 201 10:18 27.02.2021
2094 Clear 15 994 26 10000 3.04 201 09:43 27.02.2021
2095 Clear 15 995 28 10000 3.04 204 09:21 27.02.2021
2096 Clear 15 995 28 10000 3.04 204 08:39 27.02.2021
2097 Clear 13 997 30 10000 2.79 198 08:19 27.02.2021
2098 Clear 13 997 30 10000 2.79 198 07:36 27.02.2021
2099 Clear 3 1009 67 10000 1.68 178 03:28 27.02.2021
2100 Clear -1 1009 86 10000 1.84 170 00:37 27.02.2021
2101 Clear -1 1008 86 10000 1.99 168 23:51 26.02.2021
2102 Clear 0 1007 85 10000 2.06 165 23:26 26.02.2021
2103 Clear 0 1007 85 10000 2.06 165 22:44 26.02.2021
2104 Clear 1 1007 80 10000 2.51 167 22:23 26.02.2021
2105 Clear 1 1007 80 10000 2.51 167 21:42 26.02.2021
2106 Clear 2 1007 75 10000 2.54 173 21:19 26.02.2021
2107 Clear 2 1007 75 10000 2.54 173 20:44 26.02.2021
2108 Clear 3 1007 69 10000 2.85 176 20:21 26.02.2021
2109 Clear 3 1007 69 10000 2.85 176 19:41 26.02.2021
2110 Clear 4 1007 60 10000 3.06 177 19:18 26.02.2021
2111 Clear 4 1008 61 10000 3.26 175 18:41 26.02.2021
2112 Clear 5 1008 53 10000 3.05 175 18:21 26.02.2021
2113 Clear 5 1008 53 10000 3.05 175 17:40 26.02.2021
2114 Clear 6 1007 47 10000 2.74 177 17:22 26.02.2021
2115 Clear 6 1007 47 10000 2.74 177 16:52 26.02.2021
2116 Clear 6 1007 47 10000 2.74 177 16:31 26.02.2021
2117 Clear 7 1006 41 10000 2.65 180 15:57 26.02.2021
2118 Clear 7 1006 41 10000 2.65 180 15:37 26.02.2021
2119 Clear 7 1005 41 10000 1.92 176 15:19 26.02.2021
2120 Clear 7 1005 41 10000 1.92 176 14:44 26.02.2021
2121 Clear 8 1003 40 10000 1.26 170 14:24 26.02.2021
2122 Clear 7 1003 40 10000 1.2 162 13:39 26.02.2021
2123 Clear 8 1001 38 10000 0.62 146 13:20 26.02.2021
2124 Clear 8 1001 38 10000 0.62 146 12:38 26.02.2021
2125 Clear 14 999 25 10000 0.77 177 11:51 26.02.2021
2126 Clear 14 999 25 10000 0.77 177 11:33 26.02.2021
2127 Clear 15 998 24 10000 1.14 204 10:46 26.02.2021
2128 Clear 15 998 24 10000 1.27 206 09:55 26.02.2021
2129 Clear 15 998 24 10000 1.27 206 09:31 26.02.2021
2130 Clear 14 1000 25 10000 1.04 213 08:56 26.02.2021
2131 Clear 13 1002 27 10000 0.84 213 08:25 26.02.2021
2132 Clear 13 1002 27 10000 0.84 213 07:49 26.02.2021
2133 Clear 13 1002 27 10000 0.84 213 07:49 26.02.2021
2134 Clear 12 1005 31 10000 0.74 200 06:36 26.02.2021
2135 Clear 10 1007 35 10000 0.35 80 05:31 26.02.2021
2136 Clear 6 1010 47 10000 0.4 90 03:47 26.02.2021
2137 Clear 4 1012 53 10000 0.33 91 02:35 26.02.2021
2138 Clouds -2 1010 73 10000 0.61 77 23:57 25.02.2021
2139 Clouds -1 1010 72 10000 0.64 91 23:28 25.02.2021
2140 Clouds -1 1010 72 10000 0.64 91 22:50 25.02.2021
2141 Clouds 0 1010 69 10000 0.71 103 22:19 25.02.2021
2142 Clouds 0 1010 69 10000 0.71 103 21:44 25.02.2021
2143 Clouds 0 1010 65 10000 0.78 119 21:26 25.02.2021
2144 Clouds 0 1010 65 10000 0.78 119 20:41 25.02.2021
2145 Clouds 1 1010 61 10000 0.44 131 20:22 25.02.2021
2146 Clouds 1 1010 61 10000 0.44 131 19:52 25.02.2021
2147 Clouds 2 1010 57 10000 0.57 162 19:22 25.02.2021
2148 Clouds 2 1011 58 10000 0.39 81 18:58 25.02.2021
2149 Clouds 2 1010 54 10000 0.37 80 18:27 25.02.2021
2150 Clouds 2 1010 54 10000 0.37 80 17:50 25.02.2021
2151 Clear 3 1009 51 10000 0.61 93 17:27 25.02.2021
2152 Clear 3 1009 51 10000 0.61 93 16:48 25.02.2021
2153 Clear 4 1009 48 10000 0.6 96 16:25 25.02.2021
2154 Clear 4 1009 48 10000 0.6 96 15:31 25.02.2021
2155 Clear 4 1008 45 10000 0.64 119 14:58 25.02.2021
2156 Clear 5 1007 43 10000 0.49 104 14:26 25.02.2021
2157 Clear 5 1007 43 10000 0.49 104 13:55 25.02.2021
2158 Clear 7 1004 38 10000 0.5 85 13:27 25.02.2021
2159 Clear 6 1004 39 10000 0.07 59 12:56 25.02.2021
2160 Clear 12 1002 25 10000 1.63 274 12:22 25.02.2021
2161 Clear 12 1002 25 10000 1.63 274 11:47 25.02.2021
2162 Clear 12 1002 24 10000 2.17 257 11:21 25.02.2021
2163 Clear 12 1002 24 10000 2.17 257 10:47 25.02.2021
2164 Clear 12 1003 25 10000 2.06 249 10:29 25.02.2021
2165 Clear 12 1003 25 10000 2.06 249 09:45 25.02.2021
2166 Clear 12 1005 27 10000 1.99 237 08:57 25.02.2021
2167 Clear 11 1007 30 10000 1.82 230 08:28 25.02.2021
2168 Clear 11 1007 30 10000 1.82 230 07:58 25.02.2021
2169 Clear 11 1007 30 10000 1.82 230 07:37 25.02.2021
2170 Clear 10 1008 34 10000 1.44 227 06:56 25.02.2021
2171 Clear 3 1015 60 10000 0.31 77 03:23 25.02.2021
2172 Clear -1 1016 75 10000 0.52 63 01:38 25.02.2021
2173 Clear -3 1014 77 10000 0.63 65 00:42 25.02.2021
2174 Clear -3 1013 75 10000 0.55 63 23:54 24.02.2021
2175 Clear -3 1013 75 10000 0.55 63 23:32 24.02.2021
2176 Clear -2 1013 74 10000 0.48 58 22:46 24.02.2021
2177 Clear -2 1013 72 10000 0.49 51 22:26 24.02.2021
2178 Clear -2 1013 72 10000 0.49 51 22:26 24.02.2021
2179 Clear -2 1013 72 10000 0.49 51 21:48 24.02.2021
2180 Clear -1 1013 70 10000 0.7 38 21:24 24.02.2021
2181 Clear -1 1013 70 10000 0.7 38 20:45 24.02.2021
2182 Clear 0 1013 69 10000 0.73 9 20:22 24.02.2021
2183 Clear 0 1013 69 10000 0.73 9 19:38 24.02.2021
2184 Clear 0 1013 63 10000 1.23 16 19:20 24.02.2021
2185 Clear 0 1013 63 10000 1.23 16 18:48 24.02.2021
2186 Clear 1 1013 59 10000 1.45 18 18:29 24.02.2021
2187 Clear 1 1013 59 10000 1.45 18 17:39 24.02.2021
2188 Clear 2 1012 53 10000 2.04 11 17:20 24.02.2021
2189 Clear 2 1012 53 10000 2.04 11 16:45 24.02.2021
2190 Clear 4 1011 48 10000 2.21 17 16:20 24.02.2021
2191 Clear 4 1011 48 10000 2.21 17 15:49 24.02.2021
2192 Clear 4 1010 44 10000 1.85 6 15:26 24.02.2021
2193 Clear 4 1010 44 10000 1.85 6 14:43 24.02.2021
2194 Clear 5 1008 42 10000 1.85 346 14:25 24.02.2021
2195 Clear 5 1008 42 10000 1.85 346 13:41 24.02.2021
2196 Clouds 7 1006 38 10000 1.8 333 13:22 24.02.2021
2197 Clouds 7 1006 39 10000 1.65 330 12:46 24.02.2021
2198 Clouds 7 1006 39 10000 1.65 330 12:46 24.02.2021
2199 Clouds 11 1004 27 10000 3.14 299 12:27 24.02.2021
2200 Clouds 11 1004 27 10000 3.14 299 11:51 24.02.2021
2201 Clouds 12 1002 27 10000 4.04 279 11:24 24.02.2021
2202 Clouds 12 1002 27 10000 4.04 279 10:38 24.02.2021
2203 Clouds 12 1003 29 10000 3.42 265 10:19 24.02.2021
2204 Clouds 11 1004 32 10000 2.57 239 09:22 24.02.2021
2205 Clouds 11 1004 32 10000 2.57 239 08:41 24.02.2021
2206 Clouds 10 1006 36 10000 2.29 229 08:22 24.02.2021
2207 Clear 9 1008 41 10000 1.68 211 07:21 24.02.2021
2208 Clear 9 1008 41 10000 1.68 211 06:56 24.02.2021
2209 Clear 6 1012 55 10000 1.17 193 04:40 24.02.2021
2210 Clear -2 1015 87 10000 1.41 160 00:44 24.02.2021
2211 Clear -2 1014 87 10000 1.65 160 23:32 23.02.2021
2212 Clear -1 1013 85 10000 1.71 163 22:43 23.02.2021
2213 Clear 0 1013 84 10000 2 164 22:21 23.02.2021
2214 Clear 0 1013 84 10000 2 164 21:47 23.02.2021
2215 Clear 0 1013 80 10000 2.27 170 21:24 23.02.2021
2216 Clear 0 1013 80 10000 2.27 170 20:50 23.02.2021
2217 Clear 0 1013 80 10000 2.27 170 20:30 23.02.2021
2218 Clear 1 1013 74 10000 2.48 168 19:57 23.02.2021
2219 Clear 1 1013 74 10000 2.48 168 19:38 23.02.2021
2220 Clear 2 1013 66 10000 2.8 168 19:19 23.02.2021
2221 Clear 2 1013 67 10000 2.88 170 18:43 23.02.2021
2222 Clear 3 1013 60 10000 2.74 170 18:21 23.02.2021
2223 Clear 3 1013 60 10000 2.74 170 17:48 23.02.2021
2224 Clear 4 1013 56 10000 2.05 186 17:25 23.02.2021
2225 Clear 4 1013 56 10000 2.05 186 16:43 23.02.2021
2226 Clear 4 1012 55 10000 1.11 198 16:21 23.02.2021
2227 Clear 4 1012 55 10000 1.11 198 15:45 23.02.2021
2228 Clear 4 1011 53 10000 0.46 238 15:27 23.02.2021
2229 Clear 4 1011 53 10000 0.46 238 14:46 23.02.2021
2230 Clear 5 1010 50 10000 0.22 247 14:28 23.02.2021
2231 Clear 5 1010 50 10000 0.22 247 13:59 23.02.2021
2232 Clear 5 1010 50 10000 0.22 247 13:34 23.02.2021
2233 Clouds 7 1008 43 10000 0.94 143 12:57 23.02.2021
2234 Clouds 11 1006 31 10000 1.4 192 12:23 23.02.2021
2235 Clouds 11 1006 31 10000 1.4 192 11:55 23.02.2021
2236 Clouds 12 1006 31 10000 1.69 205 11:26 23.02.2021
2237 Clouds 12 1006 31 10000 1.69 205 10:55 23.02.2021
2238 Clouds 12 1006 31 10000 1.69 205 10:37 23.02.2021
2239 Clouds 12 1007 31 10000 2.1 216 09:57 23.02.2021
2240 Clouds 12 1007 31 10000 2.1 216 09:36 23.02.2021
2241 Clouds 11 1008 32 10000 2.19 229 09:18 23.02.2021
2242 Clouds 11 1008 32 10000 2.19 229 08:43 23.02.2021
2243 Clear 11 1010 34 10000 2 221 08:20 23.02.2021
2244 Clear 10 1011 38 10000 1.9 205 06:52 23.02.2021
2245 Clear 7 1016 45 10000 1.34 185 05:22 23.02.2021
2246 Clear 3 1019 52 10000 1.61 161 02:37 23.02.2021
2247 Clear -1 1019 65 10000 1.17 141 01:55 23.02.2021
2248 Clear -2 1018 66 10000 0.79 137 00:19 23.02.2021
2249 Clear -2 1017 64 10000 0.69 111 23:28 22.02.2021
2250 Clear -2 1017 64 10000 0.69 111 22:42 22.02.2021
2251 Clear -2 1018 63 10000 0.55 71 22:21 22.02.2021
2252 Clear -2 1018 63 10000 0.55 71 21:56 22.02.2021
2253 Clear -2 1018 63 10000 0.55 71 21:37 22.02.2021
2254 Clear -1 1018 63 10000 0.52 45 21:19 22.02.2021
2255 Clear -1 1018 63 10000 0.52 45 20:42 22.02.2021
2256 Clear 0 1019 62 10000 0.8 23 20:23 22.02.2021
2257 Clear 0 1019 62 10000 0.8 23 19:39 22.02.2021
2258 Clear 1 1019 61 10000 1.23 17 19:21 22.02.2021
2259 Clear 1 1019 61 10000 1.23 17 18:46 22.02.2021
2260 Clear 2 1019 57 10000 1.78 19 18:28 22.02.2021
2261 Clear 2 1019 57 10000 1.78 19 17:48 22.02.2021
2262 Clear 2 1020 54 10000 2.21 18 17:19 22.02.2021
2263 Clear 2 1020 54 10000 2.21 18 16:48 22.02.2021
2264 Clear 3 1019 51 10000 2.53 14 16:25 22.02.2021
2265 Clear 3 1019 51 10000 2.53 14 15:31 22.02.2021
2266 Clear 4 1018 47 10000 2.63 13 14:50 22.02.2021
2267 Clear 4 1018 47 10000 2.63 13 14:32 22.02.2021
2268 Clear 5 1016 44 10000 2.7 19 13:51 22.02.2021
2269 Clouds 6 1014 40 10000 1.87 18 13:29 22.02.2021
2270 Clouds 6 1014 40 10000 1.87 18 12:45 22.02.2021
2271 Clouds 11 1012 28 10000 1.61 15 12:22 22.02.2021
2272 Clouds 11 1012 28 10000 1.61 15 11:51 22.02.2021
2273 Clouds 12 1012 27 10000 1.12 347 11:29 22.02.2021
2274 Clouds 12 1012 27 10000 1.12 347 10:50 22.02.2021
2275 Clouds 12 1012 27 10000 1.12 347 10:50 22.02.2021
2276 Clouds 12 1012 27 10000 1.12 347 10:32 22.02.2021
2277 Clouds 12 1012 26 10000 1.13 299 09:57 22.02.2021
2278 Clouds 12 1012 26 10000 1.13 299 09:36 22.02.2021
2279 Clouds 12 1012 27 10000 1.47 267 09:18 22.02.2021
2280 Clouds 12 1012 27 10000 1.47 267 08:40 22.02.2021
2281 Clouds 11 1014 28 10000 1.43 254 08:20 22.02.2021
2282 Clouds 11 1014 28 10000 1.43 254 07:39 22.02.2021
2283 Clear 10 1015 32 10000 0.97 234 07:18 22.02.2021
2284 Clear 9 1017 38 10000 1.1 212 06:24 22.02.2021
2285 Clear 5 1021 48 10000 0.64 194 03:49 22.02.2021
2286 Clear 3 1022 53 10000 0.42 179 03:20 22.02.2021
2287 Clouds -3 1021 71 10000 0.67 172 00:53 22.02.2021
2288 Clouds -3 1021 70 10000 0.5 172 00:28 22.02.2021
2289 Clouds -3 1021 70 10000 0.5 172 23:50 21.02.2021
2290 Clouds -2 1021 69 10000 0.32 163 22:59 21.02.2021
2291 Clouds -2 1021 68 10000 0.28 157 22:27 21.02.2021
2292 Clouds -2 1021 68 10000 0.28 157 21:51 21.02.2021
2293 Clouds -2 1021 68 10000 0.28 157 21:32 21.02.2021
2294 Clouds -1 1021 66 10000 0.34 164 20:57 21.02.2021
2295 Clouds 0 1020 65 10000 0.34 219 20:23 21.02.2021
2296 Clouds 0 1020 65 10000 0.34 219 19:59 21.02.2021
2297 Clear 0 1020 62 10000 0.41 190 19:40 21.02.2021
2298 Clouds 1 1020 57 10000 0.95 202 19:21 21.02.2021
2299 Clouds 1 1020 52 10000 1.01 206 18:29 21.02.2021
2300 Clouds 1 1020 52 10000 1.01 206 17:57 21.02.2021
2301 Clouds 2 1019 48 10000 0.5 224 17:25 21.02.2021
2302 Clouds 2 1019 48 10000 0.5 224 16:53 21.02.2021
2303 Clouds 2 1019 48 10000 0.5 224 16:31 21.02.2021
2304 Clouds 2 1018 46 10000 0.53 217 15:43 21.02.2021
2305 Clouds 3 1017 43 10000 0.83 277 15:19 21.02.2021
2306 Clouds 3 1017 43 10000 0.83 277 14:41 21.02.2021
2307 Clouds 4 1015 42 10000 0.85 288 14:20 21.02.2021
2308 Clouds 3 1015 44 10000 0.33 293 13:43 21.02.2021
2309 Clouds 4 1013 41 10000 0.08 92 13:22 21.02.2021
2310 Clouds 10 1011 26 10000 0.84 265 12:29 21.02.2021
2311 Clouds 10 1011 26 10000 0.84 265 11:43 21.02.2021
2312 Clouds 11 1010 25 10000 0.85 245 10:58 21.02.2021
2313 Clouds 10 1011 25 10000 1.19 235 10:23 21.02.2021
2314 Clouds 10 1011 25 10000 1.19 235 09:53 21.02.2021
2315 Clouds 10 1012 25 10000 1.56 215 09:28 21.02.2021
2316 Clouds 10 1012 25 10000 1.56 215 08:54 21.02.2021
2317 Clouds 9 1014 27 10000 1.56 205 08:20 21.02.2021
2318 Clouds 9 1014 27 10000 1.56 205 07:35 21.02.2021
2319 Clouds 7 1017 29 10000 1.55 201 06:53 21.02.2021
2320 Clear 2 1024 42 10000 0.57 208 03:36 21.02.2021
2321 Clear -5 1026 55 10000 0.38 111 02:29 21.02.2021
2322 Clear -7 1026 63 10000 0.35 20 00:43 21.02.2021
2323 Clear -7 1025 59 10000 0.73 351 00:19 21.02.2021
2324 Clear -6 1025 58 10000 0.7 10 23:20 20.02.2021
2325 Clear -6 1025 58 10000 0.7 10 22:44 20.02.2021
2326 Clear -6 1025 58 10000 0.78 14 22:25 20.02.2021
2327 Clear -6 1025 58 10000 0.78 14 21:45 20.02.2021
2328 Clear -5 1025 55 10000 0.83 14 21:24 20.02.2021
2329 Clear -5 1025 55 10000 0.84 12 20:46 20.02.2021
2330 Clear -4 1025 55 10000 0.85 4 20:22 20.02.2021
2331 Clear -4 1025 55 10000 0.85 4 19:52 20.02.2021
2332 Clear -4 1026 54 10000 0.73 17 19:29 20.02.2021
2333 Clear -4 1026 54 10000 0.73 17 18:41 20.02.2021
2334 Clear -3 1026 54 10000 0.9 11 18:21 20.02.2021
2335 Clear -3 1026 54 10000 0.9 11 17:38 20.02.2021
2336 Clear -2 1026 53 10000 1.26 4 16:57 20.02.2021
2337 Clear -2 1026 53 10000 1.26 4 16:32 20.02.2021
2338 Clear -1 1026 53 10000 1.59 10 15:55 20.02.2021
2339 Clear -1 1026 53 10000 1.59 10 15:36 20.02.2021
2340 Clear -1 1025 52 10000 1.95 5 14:48 20.02.2021
2341 Clear 0 1023 49 10000 2.35 352 14:24 20.02.2021
2342 Clear 0 1023 49 10000 2.35 352 13:48 20.02.2021
2343 Clouds 2 1021 43 10000 2.58 339 13:24 20.02.2021
2344 Clouds 2 1022 44 10000 2.52 329 12:50 20.02.2021
2345 Clouds 5 1020 31 10000 3.13 319 12:24 20.02.2021
2346 Clouds 5 1020 31 10000 3.13 319 11:44 20.02.2021
2347 Clouds 6 1020 30 10000 2.36 306 11:25 20.02.2021
2348 Clouds 6 1020 30 10000 2.36 306 10:50 20.02.2021
2349 Clouds 6 1020 32 10000 1.78 291 09:55 20.02.2021
2350 Clouds 6 1020 32 10000 1.78 291 09:30 20.02.2021
2351 Clouds 5 1021 35 10000 1.76 287 08:48 20.02.2021
2352 Clouds 5 1022 39 10000 1.42 294 08:18 20.02.2021
2353 Clouds 1 1027 68 10000 0.64 328 03:33 20.02.2021
2354 Clouds -4 1028 76 10000 0.54 0 02:28 20.02.2021
2355 Clouds -4 1028 76 10000 0.54 0 01:49 20.02.2021
2356 Clouds -5 1027 80 10000 0.6 76 00:45 20.02.2021
2357 Clouds -3 1026 77 10000 0.29 72 00:20 20.02.2021
2358 Clouds -3 1025 74 10000 0.43 65 23:19 19.02.2021
2359 Clouds -3 1025 74 10000 0.64 46 22:28 19.02.2021
2360 Clouds -3 1025 74 10000 0.64 46 21:58 19.02.2021
2361 Clouds -3 1025 74 10000 0.64 46 21:32 19.02.2021
2362 Clouds -3 1025 73 10000 0.82 32 20:57 19.02.2021
2363 Clouds -3 1025 73 10000 0.82 32 20:37 19.02.2021
2364 Clouds -3 1025 73 10000 0.99 29 20:18 19.02.2021
2365 Clouds -3 1025 73 10000 0.99 29 19:41 19.02.2021
2366 Clouds -2 1025 73 10000 0.98 26 19:19 19.02.2021
2367 Clouds -2 1025 73 10000 0.98 26 18:42 19.02.2021
2368 Clouds -2 1025 73 10000 0.76 27 18:23 19.02.2021
2369 Clouds -2 1025 72 10000 0.76 354 17:24 19.02.2021
2370 Clouds -2 1025 72 10000 0.76 354 16:39 19.02.2021
2371 Clouds -1 1024 70 10000 0.76 351 16:20 19.02.2021
2372 Clouds -1 1024 39 10000 0.76 351 15:47 19.02.2021
2373 Clouds -1 1022 37 10000 0.87 360 15:27 19.02.2021
2374 Clouds -1 1022 37 10000 0.87 360 14:44 19.02.2021
2375 Clear -1 1021 31 10000 1.21 17 14:26 19.02.2021
2376 Clear -1 1021 31 10000 1.21 17 13:53 19.02.2021
2377 Clouds 0 1019 33 10000 1.7 5 13:25 19.02.2021
2378 Clouds 0 1019 33 10000 1.7 5 12:52 19.02.2021
2379 Clouds 4 1018 19 10000 1.51 319 12:24 19.02.2021
2380 Clouds 4 1018 19 10000 1.51 319 11:53 19.02.2021
2381 Clouds 5 1017 15 10000 1.69 254 11:26 19.02.2021
2382 Clouds 5 1017 15 10000 1.69 254 10:54 19.02.2021
2383 Clouds 5 1017 15 10000 1.69 254 10:30 19.02.2021
2384 Clouds 5 1017 16 10000 2.66 228 09:51 19.02.2021
2385 Clouds 4 1017 18 10000 2.96 209 09:26 19.02.2021
2386 Clouds 4 1017 18 10000 2.96 209 08:54 19.02.2021
2387 Clouds 4 1019 20 10000 2.73 204 08:25 19.02.2021
2388 Clouds 4 1019 20 10000 2.73 204 07:49 19.02.2021
2389 Clouds 4 1019 20 10000 2.73 204 07:30 19.02.2021
2390 Clouds 4 1020 23 10000 2.29 197 06:54 19.02.2021
2391 Clouds 2 1023 34 10000 1.48 193 05:30 19.02.2021
2392 Clouds 1 1024 43 10000 1.25 180 04:41 19.02.2021
2393 Clouds -4 1026 67 10000 0.58 129 01:48 19.02.2021
2394 Clouds -4 1025 65 10000 1.46 160 00:37 19.02.2021
2395 Clouds -4 1024 63 10000 1.43 165 23:56 18.02.2021
2396 Clouds -4 1024 63 10000 1.43 165 23:56 18.02.2021
2397 Clouds -4 1024 63 10000 1.43 165 23:35 18.02.2021
2398 Clouds -4 1023 62 10000 1.44 170 22:50 18.02.2021
2399 Clouds -4 1023 62 10000 1.44 170 22:30 18.02.2021
2400 Clouds -4 1023 62 10000 1.44 170 22:30 18.02.2021
2401 Clouds -4 1023 61 10000 1.63 169 21:55 18.02.2021
2402 Clouds -4 1023 59 10000 1.84 164 21:27 18.02.2021
2403 Clouds -4 1023 59 10000 1.84 164 20:44 18.02.2021
2404 Clouds -3 1023 54 10000 2.13 163 20:24 18.02.2021
2405 Clouds -3 1023 54 10000 2.13 163 19:56 18.02.2021
2406 Clouds -3 1023 54 10000 2.13 163 19:37 18.02.2021
2407 Clouds -3 1022 49 10000 2.07 165 19:18 18.02.2021
2408 Clouds -3 1022 49 10000 2.07 165 18:42 18.02.2021
2409 Clouds -2 1021 42 10000 2.19 176 18:24 18.02.2021
2410 Clouds -2 1021 42 10000 2.19 176 17:42 18.02.2021
2411 Clouds -1 1021 37 10000 2.27 183 17:23 18.02.2021
2412 Clouds -1 1021 37 10000 2.27 183 16:41 18.02.2021
2413 Clouds 0 1020 31 10000 2.26 182 16:22 18.02.2021
2414 Clouds 0 1020 31 10000 2.26 182 15:41 18.02.2021
2415 Clouds 1 1019 27 10000 2.15 182 15:22 18.02.2021
2416 Clouds 1 1019 27 10000 2.15 182 14:50 18.02.2021
2417 Clouds 1 1018 23 10000 1.77 165 14:29 18.02.2021
2418 Clouds 1 1017 25 10000 1.4 172 13:46 18.02.2021
2419 Clouds 1 1016 23 10000 1.23 164 13:20 18.02.2021
2420 Clouds 1 1016 23 10000 1.23 164 12:53 18.02.2021
2421 Clouds 4 1014 15 10000 2.34 190 12:25 18.02.2021
2422 Clouds 4 1014 15 10000 2.34 190 11:47 18.02.2021
2423 Clouds 4 1014 15 10000 2.34 190 11:47 18.02.2021
2424 Clouds 5 1013 14 10000 2.91 203 11:27 18.02.2021
2425 Clouds 5 1013 14 10000 2.91 203 10:52 18.02.2021
2426 Clouds 5 1013 14 10000 2.91 203 10:34 18.02.2021
2427 Clouds 5 1014 42 10000 3.12 203 09:51 18.02.2021
2428 Clouds 5 1014 45 10000 3.19 199 09:27 18.02.2021
2429 Clouds 5 1014 45 10000 3.19 199 08:48 18.02.2021
2430 Clouds 4 1015 48 10000 3.24 195 08:29 18.02.2021
2431 Clouds 4 1015 48 10000 3.24 195 07:37 18.02.2021
2432 Clouds 3 1017 57 10000 3.23 189 07:18 18.02.2021
2433 Clouds 1 1020 73 10000 2.6 175 05:29 18.02.2021
2434 Snow -4 1020 88 6161 2.02 156 23:57 17.02.2021
2435 Snow -4 1020 88 6161 2.02 156 23:38 17.02.2021
2436 Snow -3 1019 87 10000 1.89 141 22:56 17.02.2021
2437 Snow -3 1019 87 10000 1.89 141 22:38 17.02.2021
2438 Clouds -3 1019 88 5945 1.67 142 22:18 17.02.2021
2439 Clouds -3 1019 88 5945 1.67 142 21:41 17.02.2021
2440 Clouds -2 1018 86 10000 0.99 152 21:19 17.02.2021
2441 Clouds -2 1018 86 10000 0.99 152 20:40 17.02.2021
2442 Clouds -1 1018 82 10000 0.71 187 19:56 17.02.2021
2443 Clouds -1 1018 82 10000 0.71 187 19:36 17.02.2021
2444 Clouds 0 1018 73 10000 2.4 170 18:57 17.02.2021
2445 Clouds 0 1018 73 10000 2.4 170 18:34 17.02.2021
2446 Clouds 0 1018 67 10000 2.35 167 17:47 17.02.2021
2447 Clouds 0 1018 62 10000 1.96 158 17:22 17.02.2021
2448 Clouds 0 1018 62 10000 1.96 158 16:52 17.02.2021
2449 Clouds 0 1017 61 10000 1.12 140 16:29 17.02.2021
2450 Clouds 0 1017 61 10000 1.12 140 15:56 17.02.2021
2451 Clouds 0 1017 61 10000 1.12 140 15:37 17.02.2021
2452 Clouds 0 1016 59 10000 0.52 104 15:19 17.02.2021
2453 Clouds 0 1016 59 10000 0.52 104 14:41 17.02.2021
2454 Clouds 0 1014 58 10000 0.24 47 14:23 17.02.2021
2455 Clouds 0 1014 58 10000 0.24 47 13:42 17.02.2021
2456 Clouds 1 1013 54 10000 0.22 235 12:59 17.02.2021
2457 Clouds 4 1012 44 10000 1.51 233 12:26 17.02.2021
2458 Clouds 4 1012 44 10000 1.51 233 11:49 17.02.2021
2459 Clouds 4 1012 44 10000 1.51 233 11:30 17.02.2021
2460 Clouds 5 1011 42 10000 1.84 242 10:59 17.02.2021
2461 Clouds 5 1011 42 10000 1.84 242 10:40 17.02.2021
2462 Clouds 5 1011 40 10000 2.14 234 10:20 17.02.2021
2463 Clouds 5 1011 40 10000 2.14 234 09:41 17.02.2021
2464 Clouds 5 1012 40 10000 2.2 237 09:18 17.02.2021
2465 Clouds 5 1012 40 10000 2.2 237 08:42 17.02.2021
2466 Clouds 5 1013 41 10000 2.44 240 08:20 17.02.2021
2467 Clouds 4 1015 48 10000 1.07 243 07:24 17.02.2021
2468 Clouds 0 1018 74 10000 0.43 197 03:55 17.02.2021
2469 Clouds -2 1019 76 10000 0.41 165 02:33 17.02.2021
2470 Clouds -5 1019 80 10000 0.68 164 01:49 17.02.2021
2471 Clouds -6 1018 83 10000 0.5 170 00:32 17.02.2021
2472 Clouds -4 1017 82 10000 1.25 174 23:53 16.02.2021
2473 Clouds -4 1017 82 10000 1.25 174 23:34 16.02.2021
2474 Clouds -4 1016 82 10000 1.27 182 22:42 16.02.2021
2475 Clouds -4 1015 81 10000 1.54 186 22:23 16.02.2021
2476 Clouds -4 1015 81 10000 1.54 186 21:42 16.02.2021
2477 Clouds -3 1015 80 10000 1.67 195 21:22 16.02.2021
2478 Clouds -3 1015 80 10000 1.67 195 20:58 16.02.2021
2479 Clouds -3 1015 80 10000 1.67 195 20:39 16.02.2021
2480 Clouds -1 1015 76 10000 1.87 177 20:20 16.02.2021
2481 Clouds -1 1015 76 10000 1.87 177 19:40 16.02.2021
2482 Clouds -2 1014 76 10000 1.39 220 19:22 16.02.2021
2483 Clouds -2 1014 76 10000 1.39 220 18:40 16.02.2021
2484 Clouds -1 1014 75 10000 1.17 218 18:21 16.02.2021
2485 Clouds -1 1014 75 10000 1.17 218 17:49 16.02.2021
2486 Clouds -1 1013 75 10000 0.88 268 17:25 16.02.2021
2487 Clouds -1 1013 75 10000 0.88 268 16:51 16.02.2021
2488 Clouds -1 1013 75 10000 0.97 294 16:27 16.02.2021
2489 Clouds -1 1013 75 10000 0.97 294 15:47 16.02.2021
2490 Snow 2 1011 64 10000 0.59 288 15:26 16.02.2021
2491 Snow 2 1011 64 10000 0.59 288 14:50 16.02.2021
2492 Snow 2 1011 64 10000 0.59 288 14:32 16.02.2021
2493 Clouds 2 1010 63 10000 1.82 233 13:58 16.02.2021
2494 Clouds 2 1010 63 10000 1.82 233 13:34 16.02.2021
2495 Clouds 2 1008 64 10000 0.98 178 12:47 16.02.2021
2496 Clouds 4 1006 50 10000 1.57 235 12:25 16.02.2021
2497 Clouds 4 1006 50 10000 1.57 235 11:50 16.02.2021
2498 Clouds 5 1006 48 10000 2.07 210 11:24 16.02.2021
2499 Clouds 5 1006 48 10000 2.07 210 10:57 16.02.2021
2500 Clouds 5 1006 48 10000 2.07 210 10:38 16.02.2021
2501 Clouds 5 1006 51 10000 2.16 195 10:20 16.02.2021
2502 Clouds 5 1006 51 10000 2.16 195 09:47 16.02.2021
2503 Clouds 5 1006 48 10000 2.96 228 09:26 16.02.2021
2504 Clouds 5 1006 48 10000 2.96 228 08:45 16.02.2021
2505 Clouds 5 1006 48 10000 2.96 228 08:45 16.02.2021
2506 Clouds 5 1007 50 10000 2.58 206 08:22 16.02.2021
2507 Clouds 4 1009 58 10000 2.05 190 07:27 16.02.2021
2508 Clouds 2 1012 70 9038 1.98 170 06:21 16.02.2021
2509 Clouds -5 1015 89 9680 1.58 133 01:21 16.02.2021
2510 Clouds -5 1015 89 9841 1.15 122 23:46 15.02.2021
2511 Clouds -5 1014 89 10000 1.22 108 23:24 15.02.2021
2512 Clouds -5 1014 89 10000 1.22 108 22:44 15.02.2021
2513 Snow -3 1014 89 10000 1.24 80 22:23 15.02.2021
2514 Snow -3 1014 89 10000 1.24 80 21:42 15.02.2021
2515 Snow -2 1014 88 8944 0.81 39 21:22 15.02.2021
2516 Snow -2 1014 88 8944 0.81 39 20:49 15.02.2021
2517 Snow -3 1014 87 10000 0.8 18 20:29 15.02.2021
2518 Snow -3 1014 87 10000 0.8 18 19:48 15.02.2021
2519 Clouds -2 1014 85 10000 1.1 58 19:24 15.02.2021
2520 Clouds -2 1014 83 10000 0.67 66 18:47 15.02.2021
2521 Clouds -2 1014 81 10000 1.36 69 18:26 15.02.2021
2522 Clouds -2 1014 81 10000 1.36 69 17:44 15.02.2021
2523 Clouds -2 1014 80 10000 1.52 68 17:26 15.02.2021
2524 Clouds -2 1014 80 10000 1.52 68 16:57 15.02.2021
2525 Clouds -2 1014 78 10000 1.35 74 16:28 15.02.2021
2526 Clouds -2 1014 78 10000 1.35 74 15:57 15.02.2021
2527 Clouds -2 1014 78 10000 1.35 74 15:38 15.02.2021
2528 Clouds -1 1013 75 10000 1.61 60 15:18 15.02.2021
2529 Clouds -1 1013 75 10000 1.61 60 14:38 15.02.2021
2530 Clouds 0 1012 70 10000 1.76 39 14:19 15.02.2021
2531 Clouds 1 1012 71 10000 2.08 55 13:47 15.02.2021
2532 Clouds 2 1010 65 10000 1.16 46 13:19 15.02.2021
2533 Clouds 2 1010 65 10000 1.16 46 12:45 15.02.2021
2534 Clouds 5 1009 51 10000 0.65 344 12:21 15.02.2021
2535 Clouds 5 1009 51 10000 0.65 344 11:45 15.02.2021
2536 Clouds 5 1008 48 10000 0.66 308 11:22 15.02.2021
2537 Clouds 5 1008 48 10000 0.66 308 11:22 15.02.2021
2538 Clouds 5 1008 48 10000 0.66 308 10:49 15.02.2021
2539 Clouds 5 1008 48 10000 0.43 231 10:25 15.02.2021
2540 Clouds 5 1008 48 10000 0.43 231 09:55 15.02.2021
2541 Clouds 5 1008 48 10000 0.43 231 09:33 15.02.2021
2542 Clouds 5 1009 51 10000 0.32 211 08:50 15.02.2021
2543 Clouds 5 1010 52 10000 1.66 264 07:40 15.02.2021
2544 Clouds 4 1012 52 10000 1.63 220 06:59 15.02.2021
2545 Clouds 4 1012 52 10000 1.63 220 06:39 15.02.2021
2546 Clouds -1 1017 84 10000 1.02 157 02:32 15.02.2021
2547 Clouds -4 1016 87 10000 1.27 160 00:46 15.02.2021
2548 Clouds -3 1016 87 10000 1.54 160 23:41 14.02.2021
2549 Snow -2 1015 87 10000 1.45 156 23:22 14.02.2021
2550 Snow -2 1015 87 10000 1.45 156 22:38 14.02.2021
2551 Snow -2 1015 85 10000 0.87 137 22:19 14.02.2021
2552 Snow -2 1015 85 10000 0.87 137 21:48 14.02.2021
2553 Snow -2 1015 85 10000 0.5 184 21:29 14.02.2021
2554 Snow -2 1015 85 10000 0.5 184 20:44 14.02.2021
2555 Clouds -1 1015 84 10000 1.59 178 20:26 14.02.2021
2556 Clouds -1 1015 84 10000 1.59 178 19:47 14.02.2021
2557 Clouds -1 1014 85 10000 2.19 173 18:52 14.02.2021
2558 Clouds -1 1014 85 10000 2.19 173 18:34 14.02.2021
2559 Clouds -1 1014 84 10000 2.43 175 17:56 14.02.2021
2560 Clouds -1 1014 84 10000 2.43 175 17:35 14.02.2021
2561 Clouds -1 1014 82 10000 2.49 179 16:52 14.02.2021
2562 Clouds 1 1013 75 10000 2.83 182 16:27 14.02.2021
2563 Clouds 1 1013 75 10000 2.83 182 15:49 14.02.2021
2564 Clouds 1 1013 75 10000 2.83 182 15:30 14.02.2021
2565 Clouds 2 1012 68 10000 2.93 186 14:48 14.02.2021
2566 Clouds 4 1010 58 10000 3.12 180 14:27 14.02.2021
2567 Clouds 4 1010 58 10000 3.12 180 13:49 14.02.2021
2568 Clouds 5 1008 49 10000 3.06 196 13:27 14.02.2021
2569 Clouds 5 1008 49 10000 2.91 206 12:38 14.02.2021
2570 Clouds 7 1006 38 10000 3.47 205 12:19 14.02.2021
2571 Clouds 7 1006 38 10000 3.47 205 11:49 14.02.2021
2572 Clouds 8 1005 33 10000 2.83 222 11:21 14.02.2021
2573 Clouds 8 1005 33 10000 2.82 224 10:35 14.02.2021
2574 Clouds 9 1005 33 10000 3.14 229 09:55 14.02.2021
2575 Clouds 9 1005 33 10000 3.14 229 09:37 14.02.2021
2576 Clouds 8 1006 34 10000 3.3 238 09:19 14.02.2021
2577 Clouds 8 1006 34 10000 3.3 238 08:35 14.02.2021
2578 Clouds 8 1008 37 10000 2.4 222 07:54 14.02.2021
2579 Clouds 7 1010 42 10000 1.47 203 06:37 14.02.2021
2580 Clouds 4 1015 54 10000 1.36 183 04:52 14.02.2021
2581 Clouds 0 1018 65 10000 1.48 157 03:23 14.02.2021
2582 Clouds -4 1018 68 10000 1.44 150 01:33 14.02.2021
2583 Clouds -5 1017 67 10000 1.28 142 00:45 14.02.2021
2584 Clouds -4 1016 64 10000 1.32 135 23:58 13.02.2021
2585 Clouds -4 1016 64 10000 1.32 135 23:37 13.02.2021
2586 Clouds -4 1016 61 10000 1.28 126 23:19 13.02.2021
2587 Clouds -4 1016 61 10000 1.28 126 22:32 13.02.2021
2588 Clouds -3 1017 60 10000 0.91 122 21:53 13.02.2021
2589 Clouds -3 1017 60 10000 0.91 122 21:34 13.02.2021
2590 Clouds -3 1017 59 10000 1.02 126 20:46 13.02.2021
2591 Clouds -3 1017 58 10000 1.07 116 20:27 13.02.2021
2592 Clouds -3 1017 58 10000 1.07 116 19:48 13.02.2021
2593 Clouds -3 1017 58 10000 1.07 116 19:48 13.02.2021
2594 Clouds -1 1017 56 10000 1.46 118 19:24 13.02.2021
2595 Clouds -1 1017 56 10000 1.44 122 18:50 13.02.2021
2596 Clouds -1 1017 55 10000 1.41 139 18:28 13.02.2021
2597 Clouds -1 1017 55 10000 1.41 139 17:44 13.02.2021
2598 Clouds 0 1017 54 10000 1.47 138 17:25 13.02.2021
2599 Clouds 0 1017 54 10000 1.47 138 16:53 13.02.2021
2600 Clouds 0 1017 54 10000 1.47 138 16:35 13.02.2021
2601 Clouds 0 1017 53 10000 1.19 149 15:46 13.02.2021
2602 Clouds 0 1016 51 10000 0.94 134 15:26 13.02.2021
2603 Clouds 0 1016 51 10000 0.94 134 14:41 13.02.2021
2604 Clouds 0 1015 51 10000 0.78 108 13:54 13.02.2021
2605 Clear 1 1014 48 10000 1.18 76 13:29 13.02.2021
2606 Clear 1 1014 49 10000 1.05 76 12:57 13.02.2021
2607 Clear 6 1012 33 10000 0.68 69 12:21 13.02.2021
2608 Clear 6 1012 33 10000 0.68 69 11:58 13.02.2021
2609 Clear 6 1012 33 10000 0.68 69 11:39 13.02.2021
2610 Clear 7 1012 31 10000 0.08 272 11:18 13.02.2021
2611 Clear 7 1012 31 10000 0.08 272 10:43 13.02.2021
2612 Clear 7 1012 31 10000 0.08 272 10:43 13.02.2021
2613 Clear 7 1012 30 10000 0.58 303 10:22 13.02.2021
2614 Clear 7 1012 30 10000 0.58 303 09:46 13.02.2021
2615 Clear 7 1013 30 10000 0.61 324 09:28 13.02.2021
2616 Clear 7 1013 30 10000 0.61 324 08:47 13.02.2021
2617 Clear 6 1015 31 10000 0.45 7 08:18 13.02.2021
2618 Clouds 5 1017 33 10000 0.76 31 07:23 13.02.2021
2619 Clouds 4 1020 36 10000 1.06 41 06:24 13.02.2021
2620 Clouds 3 1021 41 10000 1.38 34 04:31 13.02.2021
2621 Clouds -1 1023 52 10000 2.11 21 02:41 13.02.2021
2622 Clouds -6 1022 57 10000 2.4 18 00:56 13.02.2021
2623 Clouds -5 1021 57 10000 2.65 18 00:18 13.02.2021
2624 Clouds -5 1021 57 10000 2.65 18 23:45 12.02.2021
2625 Clouds -4 1021 56 10000 2.83 16 23:18 12.02.2021
2626 Clouds -4 1021 56 10000 2.83 16 22:32 12.02.2021
2627 Clouds -3 1020 55 10000 2.9 13 21:59 12.02.2021
2628 Clouds -3 1020 55 10000 2.9 13 21:40 12.02.2021
2629 Clouds -3 1020 54 10000 2.79 12 21:21 12.02.2021
2630 Clouds -3 1020 54 10000 2.79 12 20:41 12.02.2021
2631 Clouds -3 1019 53 10000 2.56 14 20:23 12.02.2021
2632 Clouds -3 1019 53 10000 2.56 14 19:54 12.02.2021
2633 Clouds -2 1019 53 10000 2.35 13 19:29 12.02.2021
2634 Clouds -1 1018 55 10000 2.36 3 18:35 12.02.2021
2635 Clouds 0 1016 54 10000 2.16 355 17:56 12.02.2021
2636 Clouds 0 1016 54 10000 2.16 355 17:38 12.02.2021
2637 Clouds 0 1016 54 10000 1.6 334 16:53 12.02.2021
2638 Clouds 1 1015 52 10000 2.07 308 16:18 12.02.2021
2639 Clouds 1 1015 52 10000 2.07 308 15:43 12.02.2021
2640 Clouds 2 1013 48 10000 2.31 310 15:20 12.02.2021
2641 Clouds 2 1013 48 10000 2.31 310 14:36 12.02.2021
2642 Clouds 2 1011 48 10000 1.91 272 13:49 12.02.2021
2643 Clouds 4 1009 43 10000 2.7 243 13:29 12.02.2021
2644 Clouds 4 1009 43 10000 2.51 235 12:53 12.02.2021
2645 Clouds 4 1009 43 10000 2.51 235 12:35 12.02.2021
2646 Clouds 8 1006 32 10000 3.35 245 11:48 12.02.2021
2647 Clouds 10 1005 26 10000 5.14 257 11:22 12.02.2021
2648 Clouds 10 1005 26 10000 5.14 257 10:48 12.02.2021
2649 Clouds 10 1006 27 10000 4.97 266 10:19 12.02.2021
2650 Clouds 10 1006 27 10000 4.97 266 09:42 12.02.2021
2651 Clouds 10 1007 29 10000 3.01 257 09:23 12.02.2021
2652 Clouds 10 1007 29 10000 3.01 257 08:45 12.02.2021
2653 Clear 8 1008 33 10000 1.34 222 08:22 12.02.2021
2654 Clear 8 1008 33 10000 1.34 222 07:51 12.02.2021
2655 Clear 7 1010 39 10000 1.24 197 07:21 12.02.2021
2656 Clear 5 1011 49 10000 0.93 130 06:49 12.02.2021
2657 Clear 1 1015 65 10000 0.97 166 05:29 12.02.2021
2658 Clear -1 1018 71 10000 0.44 113 03:35 12.02.2021
2659 Clear -8 1019 78 10000 0.75 93 00:32 12.02.2021
2660 Clear -8 1018 78 10000 0.86 108 23:38 11.02.2021
2661 Clear -7 1018 77 10000 0.88 118 23:18 11.02.2021
2662 Clear -7 1018 77 10000 0.88 118 22:42 11.02.2021
2663 Clear -7 1018 77 10000 0.7 119 22:22 11.02.2021
2664 Clear -7 1018 77 10000 0.7 119 21:43 11.02.2021
2665 Clear -6 1019 77 10000 0.74 111 21:24 11.02.2021
2666 Clear -6 1019 77 10000 0.74 111 20:54 11.02.2021
2667 Clear -6 1019 77 10000 0.74 111 20:36 11.02.2021
2668 Clear -6 1019 76 10000 0.76 113 20:18 11.02.2021
2669 Clear -6 1019 76 10000 0.76 113 19:45 11.02.2021
2670 Clear -5 1019 77 10000 0.96 109 19:23 11.02.2021
2671 Clear -5 1019 77 10000 0.96 109 18:41 11.02.2021
2672 Clear -5 1019 76 10000 0.99 111 18:19 11.02.2021
2673 Clear -5 1019 76 10000 0.99 111 17:43 11.02.2021
2674 Clouds -4 1019 74 10000 1.14 125 17:20 11.02.2021
2675 Clouds -4 1019 74 10000 1.14 125 16:44 11.02.2021
2676 Clouds -4 1018 73 10000 1.06 123 16:25 11.02.2021
2677 Clouds -4 1018 73 10000 1.06 123 15:45 11.02.2021
2678 Clouds -3 1018 74 10000 1.12 107 15:26 11.02.2021
2679 Clouds -3 1018 74 10000 1.12 107 15:26 11.02.2021
2680 Clouds -3 1018 74 10000 1.12 107 14:53 11.02.2021
2681 Clouds -3 1018 75 10000 1.09 106 14:31 11.02.2021
2682 Clouds -2 1017 76 10000 1.64 110 13:42 11.02.2021
2683 Clouds -2 1015 72 10000 1.84 112 13:20 11.02.2021
2684 Clouds -2 1015 72 10000 1.84 112 12:56 11.02.2021
2685 Clouds -2 1015 72 10000 1.84 112 12:32 11.02.2021
2686 Clouds 3 1013 57 10000 1.7 73 11:47 11.02.2021
2687 Clouds 5 1013 46 10000 1.64 14 11:27 11.02.2021
2688 Clouds 5 1013 46 10000 1.64 14 10:45 11.02.2021
2689 Clouds 5 1013 46 10000 1.61 349 10:26 11.02.2021
2690 Clouds 5 1013 46 10000 1.61 349 09:56 11.02.2021
2691 Clouds 5 1013 50 10000 1.23 358 09:26 11.02.2021
2692 Clouds 5 1013 50 10000 1.23 358 08:55 11.02.2021
2693 Clouds 5 1013 50 10000 1.23 358 08:31 11.02.2021
2694 Clouds 4 1014 54 10000 1.48 345 07:43 11.02.2021
2695 Clouds 2 1016 65 10000 1.72 320 06:43 11.02.2021
2696 Clouds 2 1017 71 10000 1.83 315 05:54 11.02.2021
2697 Clouds -2 1019 88 10000 2.06 323 02:49 11.02.2021
2698 Snow -3 1018 89 10000 2.01 334 02:21 11.02.2021
2699 Clouds -5 1015 90 7748 0.67 346 00:23 11.02.2021
2700 Clouds -5 1015 90 7748 0.67 346 23:48 10.02.2021
2701 Clouds -4 1015 90 10000 0.37 170 23:19 10.02.2021
2702 Clouds -4 1015 90 10000 0.37 170 22:43 10.02.2021
2703 Snow -3 1014 91 10000 0.86 96 22:23 10.02.2021
2704 Snow -3 1014 91 10000 0.86 96 21:39 10.02.2021
2705 Snow -1 1014 92 3729 0.96 96 21:20 10.02.2021
2706 Snow -1 1014 92 3729 0.96 96 20:50 10.02.2021
2707 Snow -1 1014 92 540 1.09 30 20:28 10.02.2021
2708 Snow -1 1014 92 540 1.09 30 19:50 10.02.2021
2709 Snow -1 1013 91 2576 2.32 15 19:27 10.02.2021
2710 Snow -1 1013 91 1765 1.55 28 18:48 10.02.2021
2711 Snow 0 1013 86 4846 1.93 12 18:26 10.02.2021
2712 Snow 0 1013 86 4846 1.93 12 17:59 10.02.2021
2713 Snow 1 1013 73 9818 1.68 349 17:27 10.02.2021
2714 Snow 1 1013 73 9818 1.68 349 16:59 10.02.2021
2715 Snow 1 1013 73 9818 1.68 349 16:41 10.02.2021
2716 Snow 1 1013 73 9818 1.68 349 16:41 10.02.2021
2717 Rain 2 1012 67 10000 0.61 3 16:22 10.02.2021
2718 Snow 2 1012 66 6555 0.86 341 15:24 10.02.2021
2719 Snow 2 1012 66 6555 0.86 341 14:53 10.02.2021
2720 Snow 2 1012 66 6555 0.86 341 14:34 10.02.2021
2721 Rain 3 1010 59 10000 0.72 327 13:55 10.02.2021
2722 Rain 3 1011 56 10000 1.04 311 13:30 10.02.2021
2723 Rain 4 1009 49 10000 1.32 330 12:54 10.02.2021
2724 Clouds 4 1009 49 10000 1.32 330 12:31 10.02.2021
2725 Clouds 7 1007 38 10000 3.23 303 11:58 10.02.2021
2726 Clouds 7 1007 38 10000 3.23 303 11:39 10.02.2021
2727 Clouds 9 1005 30 10000 3.96 281 11:21 10.02.2021
2728 Clouds 10 1006 28 10000 4.17 283 10:24 10.02.2021
2729 Clouds 10 1006 28 10000 4.17 283 09:56 10.02.2021
2730 Clouds 10 1006 28 10000 4.17 283 09:33 10.02.2021
2731 Clouds 9 1007 29 10000 2.59 273 08:56 10.02.2021
2732 Clouds 8 1008 31 10000 2.31 253 08:35 10.02.2021
2733 Clouds 7 1011 36 10000 1.65 209 07:39 10.02.2021
2734 Clouds 6 1013 42 10000 1.23 201 06:22 10.02.2021
2735 Clear -6 1019 73 10000 1.08 155 01:37 10.02.2021
2736 Clouds -6 1017 70 10000 1.52 173 00:23 10.02.2021
2737 Clouds -6 1017 70 10000 1.52 173 00:23 10.02.2021
2738 Clouds -6 1017 70 10000 1.52 173 23:34 09.02.2021
2739 Clouds -5 1016 65 10000 1.63 180 22:53 09.02.2021
2740 Clouds -4 1016 60 10000 1.98 171 22:24 09.02.2021
2741 Clouds -4 1016 60 10000 1.98 171 21:52 09.02.2021
2742 Clouds -3 1017 57 10000 1.8 169 21:27 09.02.2021
2743 Clouds -3 1017 57 10000 1.8 169 20:46 09.02.2021
2744 Clouds -2 1017 53 10000 2.15 170 20:26 09.02.2021
2745 Clouds -2 1017 53 10000 2.15 170 19:55 09.02.2021
2746 Clouds -2 1016 55 10000 2.18 171 19:31 09.02.2021
2747 Clouds -1 1016 51 10000 2.28 165 18:58 09.02.2021
2748 Clouds -1 1016 51 10000 2.28 165 18:36 09.02.2021
2749 Clouds -1 1016 50 10000 2.01 168 17:57 09.02.2021
2750 Clouds -1 1016 50 10000 2.01 168 17:36 09.02.2021
2751 Clouds -2 1016 51 10000 1.33 190 17:18 09.02.2021
2752 Clouds -2 1016 51 10000 1.33 190 16:39 09.02.2021
2753 Clouds -2 1015 54 10000 0.92 213 16:18 09.02.2021
2754 Clouds -2 1015 54 10000 0.92 213 15:47 09.02.2021
2755 Clouds -1 1015 52 10000 1.28 233 15:24 09.02.2021
2756 Clouds -1 1015 52 10000 1.28 233 14:49 09.02.2021
2757 Clouds 0 1014 49 10000 1.37 219 14:26 09.02.2021
2758 Clouds 0 1014 49 10000 1.37 219 13:50 09.02.2021
2759 Clouds 0 1013 50 10000 0.76 177 13:21 09.02.2021
2760 Clouds 0 1013 50 10000 0.76 177 12:49 09.02.2021
2761 Clouds 0 1013 50 10000 0.76 177 12:31 09.02.2021
2762 Clouds 6 1011 34 10000 0.92 250 11:54 09.02.2021
2763 Clouds 6 1011 34 10000 0.92 250 11:36 09.02.2021
2764 Clouds 8 1011 28 10000 1.53 254 11:18 09.02.2021
2765 Clouds 8 1011 28 10000 1.53 254 10:41 09.02.2021
2766 Clouds 8 1012 28 10000 1.86 238 10:18 09.02.2021
2767 Clouds 8 1012 28 10000 1.86 238 09:42 09.02.2021
2768 Clear 8 1013 29 10000 1.96 240 09:23 09.02.2021
2769 Clear 8 1013 29 10000 1.96 240 08:37 09.02.2021
2770 Clear 7 1015 30 10000 1.8 232 08:18 09.02.2021
2771 Clear 4 1020 39 10000 1.3 205 06:18 09.02.2021
2772 Clear 1 1023 53 10000 0.28 166 03:51 09.02.2021
2773 Clear -1 1025 56 10000 0.47 103 02:31 09.02.2021
2774 Clouds -10 1025 72 10000 0.26 349 00:33 09.02.2021
2775 Clouds -9 1025 72 10000 0.32 15 23:57 08.02.2021
2776 Clouds -9 1024 72 10000 0.42 44 23:20 08.02.2021
2777 Clouds -9 1024 72 10000 0.42 44 22:43 08.02.2021
2778 Clouds -8 1025 71 10000 0.55 46 22:24 08.02.2021
2779 Clouds -8 1025 71 10000 0.55 46 21:54 08.02.2021
2780 Clouds -8 1025 71 10000 0.55 46 21:31 08.02.2021
2781 Clouds -7 1025 70 10000 0.35 49 20:59 08.02.2021
2782 Clouds -7 1025 70 10000 0.35 49 20:38 08.02.2021
2783 Clouds -7 1026 68 10000 0.27 30 20:19 08.02.2021
2784 Clouds -7 1026 70 10000 0.21 56 19:42 08.02.2021
2785 Clear -6 1026 70 10000 0.58 43 19:22 08.02.2021
2786 Clear -6 1026 70 10000 0.58 43 18:46 08.02.2021
2787 Clear -6 1026 68 10000 0.98 37 18:19 08.02.2021
2788 Clear -6 1026 68 10000 0.98 37 17:44 08.02.2021
2789 Clear -5 1026 68 10000 1.18 29 17:24 08.02.2021
2790 Clear -5 1026 68 10000 1.18 29 16:43 08.02.2021
2791 Clear -5 1026 66 10000 1.25 15 16:21 08.02.2021
2792 Clear -5 1026 66 10000 1.25 15 15:43 08.02.2021
2793 Clear -4 1025 66 10000 1.51 13 15:20 08.02.2021
2794 Clear -4 1025 66 10000 1.51 13 14:52 08.02.2021
2795 Clear -4 1025 66 10000 1.51 13 14:31 08.02.2021
2796 Clear -3 1024 65 10000 1.85 18 13:57 08.02.2021
2797 Clear -3 1024 65 10000 1.85 18 13:33 08.02.2021
2798 Clouds -2 1023 63 10000 2.09 15 12:55 08.02.2021
2799 Clouds -2 1023 63 10000 2.09 15 12:36 08.02.2021
2800 Clouds 3 1022 45 10000 3.1 0 11:48 08.02.2021
2801 Clouds 4 1021 40 10000 3.84 348 11:22 08.02.2021
2802 Clouds 4 1021 40 10000 3.84 348 10:45 08.02.2021
2803 Clouds 5 1021 37 10000 3.21 352 10:24 08.02.2021
2804 Clouds 5 1021 37 10000 3.21 352 09:53 08.02.2021
2805 Clouds 5 1021 37 10000 3.21 352 09:35 08.02.2021
2806 Clear 4 1022 35 10000 2.24 7 08:47 08.02.2021
2807 Clear 3 1024 36 10000 1.81 18 08:21 08.02.2021
2808 Clear 3 1024 36 10000 1.81 18 07:34 08.02.2021
2809 Clear 0 1029 46 10000 0.98 6 06:25 08.02.2021
2810 Clear -12 1035 60 10000 2 18 02:29 08.02.2021
2811 Clear -12 1035 60 10000 2 18 01:47 08.02.2021
2812 Clear -12 1033 62 10000 2.13 10 00:21 08.02.2021
2813 Clear -12 1033 62 10000 2.13 10 23:49 07.02.2021
2814 Clear -11 1032 60 10000 2.27 5 23:20 07.02.2021
2815 Clear -11 1032 60 10000 2.27 5 22:45 07.02.2021
2816 Clear -11 1032 59 10000 2.21 10 22:26 07.02.2021
2817 Clear -11 1032 59 10000 2.21 10 21:53 07.02.2021
2818 Clear -10 1031 58 10000 2.33 10 21:28 07.02.2021
2819 Clear -10 1031 58 10000 2.33 10 20:56 07.02.2021
2820 Clear -10 1031 58 10000 2.33 10 20:35 07.02.2021
2821 Clear -10 1031 57 10000 2.36 1 19:55 07.02.2021
2822 Clear -10 1031 57 10000 2.36 1 19:31 07.02.2021
2823 Clear -9 1030 56 10000 2.6 348 18:57 07.02.2021
2824 Clear -9 1030 56 10000 2.56 349 18:37 07.02.2021
2825 Clear -9 1030 56 10000 2.56 349 18:37 07.02.2021
2826 Clear -9 1029 56 10000 2.78 343 18:18 07.02.2021
2827 Clear -9 1029 56 10000 2.78 343 17:44 07.02.2021
2828 Clear -8 1028 54 10000 3.08 339 17:20 07.02.2021
2829 Clear -8 1028 54 10000 3.08 339 16:48 07.02.2021
2830 Clear -7 1027 54 10000 3.1 340 16:29 07.02.2021
2831 Clear -7 1027 54 10000 3.1 340 15:58 07.02.2021
2832 Clear -7 1027 54 10000 3.1 340 15:40 07.02.2021
2833 Clear -6 1025 52 10000 3.47 347 15:21 07.02.2021
2834 Clear -6 1025 52 10000 3.47 347 14:39 07.02.2021
2835 Clear -5 1024 51 10000 4.01 349 14:21 07.02.2021
2836 Clear -5 1024 51 10000 4.01 349 13:37 07.02.2021
2837 Clouds -4 1021 49 10000 4.61 350 13:19 07.02.2021
2838 Clouds -4 1022 48 10000 4.99 348 12:39 07.02.2021
2839 Clouds 0 1019 45 10000 7.43 350 12:20 07.02.2021
2840 Clouds 0 1019 45 10000 7.43 350 11:39 07.02.2021
2841 Clouds 1 1018 43 10000 8.69 349 11:18 07.02.2021
2842 Clouds 2 1017 43 10000 8.96 346 10:29 07.02.2021
2843 Clouds 2 1017 43 10000 8.96 346 09:55 07.02.2021
2844 Clouds 2 1017 43 10000 8.96 346 09:37 07.02.2021
2845 Clouds 2 1017 45 10000 8.41 342 09:18 07.02.2021
2846 Clouds 2 1017 52 10000 6.33 335 07:56 07.02.2021
2847 Snow 0 1020 68 10000 3.38 325 06:25 07.02.2021
2848 Clouds -1 1021 75 10000 2.07 316 04:36 07.02.2021
2849 Clouds -5 1021 82 10000 0.25 6 02:31 07.02.2021
2850 Clouds -8 1020 83 10000 0.29 149 00:38 07.02.2021
2851 Clouds -8 1018 82 10000 0.43 181 23:51 06.02.2021
2852 Clouds -8 1018 83 10000 0.94 161 22:59 06.02.2021
2853 Clouds -7 1017 81 10000 1.84 151 22:21 06.02.2021
2854 Clouds -7 1017 81 10000 1.84 151 21:37 06.02.2021
2855 Clouds -6 1017 79 10000 2.11 145 21:19 06.02.2021
2856 Clouds -6 1017 79 10000 2.11 145 20:44 06.02.2021
2857 Clouds -6 1017 77 10000 1.69 152 20:22 06.02.2021
2858 Clouds -6 1017 77 10000 1.69 152 19:46 06.02.2021
2859 Clouds -7 1016 77 10000 1.49 158 19:25 06.02.2021
2860 Clouds -5 1016 73 10000 1.51 151 18:45 06.02.2021
2861 Clouds -6 1016 75 10000 1.49 145 18:26 06.02.2021
2862 Clouds -6 1016 75 10000 1.49 145 17:41 06.02.2021
2863 Clouds -6 1015 75 10000 1.6 140 17:21 06.02.2021
2864 Clouds -6 1015 75 10000 1.6 140 16:55 06.02.2021
2865 Clouds -6 1015 75 10000 1.6 140 16:30 06.02.2021
2866 Clouds -5 1014 76 10000 1.33 133 15:53 06.02.2021
2867 Clouds -5 1014 76 10000 1.33 133 15:34 06.02.2021
2868 Clouds -4 1013 73 10000 0.72 146 14:59 06.02.2021
2869 Clouds -4 1013 73 10000 0.72 146 14:39 06.02.2021
2870 Clouds -3 1012 70 10000 1.31 176 14:21 06.02.2021
2871 Clouds -3 1012 70 10000 1.31 176 13:45 06.02.2021
2872 Clouds -2 1010 71 10000 1.31 180 12:47 06.02.2021
2873 Clouds 1 1008 62 10000 2.62 177 12:20 06.02.2021
2874 Clouds 1 1008 62 10000 2.62 177 11:40 06.02.2021
2875 Clouds 2 1007 56 10000 3.52 181 11:20 06.02.2021
2876 Clouds 2 1007 56 10000 3.52 181 10:53 06.02.2021
2877 Clouds 3 1007 50 10000 4.24 196 10:27 06.02.2021
2878 Clouds 3 1007 50 10000 4.24 196 09:38 06.02.2021
2879 Clouds 3 1008 45 10000 3.79 203 09:19 06.02.2021
2880 Clouds 3 1008 45 10000 3.79 203 08:59 06.02.2021
2881 Clouds 2 1010 46 10000 3.76 199 08:29 06.02.2021
2882 Clouds 2 1012 50 10000 3.74 195 07:20 06.02.2021
2883 Clouds 1 1013 54 10000 3.02 192 05:42 06.02.2021
2884 Clear -5 1017 66 10000 2.2 173 02:52 06.02.2021
2885 Clear -9 1018 73 10000 2.02 168 01:30 06.02.2021
2886 Clouds -9 1017 75 10000 2.06 162 00:45 06.02.2021
2887 Clouds -8 1016 76 10000 2.18 163 00:18 06.02.2021
2888 Clouds -8 1016 76 10000 2.18 163 23:41 05.02.2021
2889 Clouds -8 1015 76 10000 2.51 166 23:23 05.02.2021
2890 Clouds -8 1015 76 10000 2.51 166 22:43 05.02.2021
2891 Clear -7 1015 77 10000 2.54 169 22:18 05.02.2021
2892 Clear -7 1015 77 10000 2.54 169 21:40 05.02.2021
2893 Clear -7 1016 77 10000 2.48 168 20:59 05.02.2021
2894 Clear -7 1016 77 10000 2.48 168 20:38 05.02.2021
2895 Clear -6 1016 76 10000 2.48 168 19:48 05.02.2021
2896 Clear -5 1015 73 10000 2.5 169 19:19 05.02.2021
2897 Clear -5 1015 73 10000 2.5 169 18:45 05.02.2021
2898 Clear -5 1015 71 10000 2.69 171 18:19 05.02.2021
2899 Clear -5 1015 71 10000 2.69 171 17:43 05.02.2021
2900 Clear -4 1014 67 10000 2.68 174 17:21 05.02.2021
2901 Clear -4 1014 67 10000 2.68 174 16:46 05.02.2021
2902 Clear -4 1014 63 10000 2.78 178 16:23 05.02.2021
2903 Clear -4 1014 63 10000 2.78 178 15:53 05.02.2021
2904 Clear -3 1013 60 10000 3.14 187 15:26 05.02.2021
2905 Clear -3 1013 60 10000 3.14 187 14:40 05.02.2021
2906 Clear -2 1012 55 10000 4.03 202 14:22 05.02.2021
2907 Clear -2 1012 55 10000 4.03 202 13:58 05.02.2021
2908 Clear -2 1012 55 10000 4.03 202 13:35 05.02.2021
2909 Clouds -1 1009 50 10000 4.12 204 12:47 05.02.2021
2910 Clouds 4 1007 34 10000 5.35 222 12:27 05.02.2021
2911 Clouds 4 1007 34 10000 5.35 222 11:40 05.02.2021
2912 Clouds 6 1007 29 10000 5.89 226 11:21 05.02.2021
2913 Clouds 6 1007 29 10000 5.89 226 10:54 05.02.2021
2914 Clouds 6 1007 29 10000 5.17 216 10:27 05.02.2021
2915 Clouds 6 1007 29 10000 5.17 216 09:47 05.02.2021
2916 Clouds 6 1008 31 10000 4.24 213 09:27 05.02.2021
2917 Clouds 6 1008 31 10000 4.24 213 08:53 05.02.2021
2918 Clear 5 1010 37 10000 3.06 208 08:22 05.02.2021
2919 Clear 5 1010 37 10000 3.02 213 07:36 05.02.2021
2920 Clear 4 1012 45 10000 2.82 196 06:52 05.02.2021
2921 Clear 3 1014 53 10000 2.76 199 05:37 05.02.2021
2922 Clear -3 1020 76 10000 1.9 171 03:18 05.02.2021
2923 Clear -8 1020 82 10000 1.76 167 02:24 05.02.2021
2924 Clear -8 1019 81 10000 1.83 170 00:40 05.02.2021
2925 Clear -7 1018 79 10000 1.89 172 00:20 05.02.2021
2926 Clear -7 1018 79 10000 1.89 172 23:57 04.02.2021
2927 Clear -7 1018 79 10000 1.89 172 23:39 04.02.2021
2928 Clear -7 1018 78 10000 2.08 169 23:20 04.02.2021
2929 Clear -7 1018 78 10000 2.08 169 23:20 04.02.2021
2930 Clear -7 1018 78 10000 2.08 169 22:51 04.02.2021
2931 Clear -7 1018 78 10000 2.08 169 22:51 04.02.2021
2932 Clear -6 1018 76 10000 2.01 174 22:26 04.02.2021
2933 Clear -6 1018 76 10000 2.01 174 21:42 04.02.2021
2934 Clear -6 1018 74 10000 2.08 173 21:20 04.02.2021
2935 Clear -6 1018 74 10000 2.08 173 20:49 04.02.2021
2936 Clear -6 1018 74 10000 2.08 173 20:30 04.02.2021
2937 Clear -6 1018 74 10000 2.08 173 20:30 04.02.2021
2938 Clear -6 1018 74 10000 2.08 173 20:30 04.02.2021
2939 Clear -6 1018 74 10000 2.08 173 20:30 04.02.2021
2940 Clear -5 1018 71 10000 2.06 178 19:43 04.02.2021
2941 Clear -4 1018 70 10000 2.09 184 18:57 04.02.2021
2942 Clouds -4 1017 67 10000 2.42 189 18:26 04.02.2021
2943 Clouds -4 1017 67 10000 2.42 189 17:53 04.02.2021
2944 Clouds -4 1017 67 10000 2.42 189 17:53 04.02.2021
2945 Clouds -3 1017 62 10000 2.35 184 17:28 04.02.2021
2946 Clouds -3 1017 62 10000 2.35 184 16:57 04.02.2021
2947 Clouds -3 1017 62 10000 2.35 184 16:38 04.02.2021
2948 Clouds -2 1017 54 10000 2.46 183 16:18 04.02.2021
2949 Clouds -2 1017 54 10000 2.46 183 15:40 04.02.2021
2950 Clouds -3 1016 50 10000 2.03 206 15:20 04.02.2021
2951 Clouds -3 1016 50 10000 2.03 206 15:20 04.02.2021
2952 Clouds -3 1016 50 10000 2.03 206 14:48 04.02.2021
2953 Clear -1 1014 46 10000 2.51 213 14:21 04.02.2021
2954 Clear -1 1014 46 10000 2.51 213 13:48 04.02.2021
2955 Clear 0 1011 49 10000 2.87 230 13:28 04.02.2021
2956 Clear 0 1011 49 10000 2.87 230 12:54 04.02.2021
2957 Clear 5 1009 30 10000 2.66 253 11:57 04.02.2021
2958 Clear 5 1009 30 10000 2.66 253 11:37 04.02.2021
2959 Clear 7 1008 25 10000 4.9 257 11:18 04.02.2021
2960 Clear 7 1008 25 10000 4.9 257 10:36 04.02.2021
2961 Clear 8 1008 25 10000 5.67 242 09:46 04.02.2021
2962 Clear 7 1009 28 10000 5.18 232 09:23 04.02.2021
2963 Clear 7 1009 28 10000 5.18 232 08:58 04.02.2021
2964 Clear 6 1011 34 10000 3.84 211 08:27 04.02.2021
2965 Clear 6 1011 34 10000 3.84 211 07:58 04.02.2021
2966 Clear 6 1011 34 10000 3.84 211 07:35 04.02.2021
2967 Clear 5 1014 43 10000 2.51 207 06:53 04.02.2021
2968 Clear 5 1014 43 10000 2.51 207 06:34 04.02.2021
2969 Clear -3 1021 78 10000 1.65 183 02:43 04.02.2021
2970 Clear -8 1021 84 10000 1.91 178 02:24 04.02.2021
2971 Clear -7 1020 83 10000 2.02 174 00:31 04.02.2021
2972 Clear -7 1019 83 10000 2.07 168 23:39 03.02.2021
2973 Clear -6 1018 82 10000 2.32 174 22:41 03.02.2021
2974 Clear -6 1017 81 10000 2.26 171 22:21 03.02.2021
2975 Clear -6 1017 81 10000 2.26 171 21:55 03.02.2021
2976 Clear -5 1017 80 10000 2.24 174 21:25 03.02.2021
2977 Clear -5 1017 80 10000 2.24 174 20:58 03.02.2021
2978 Clear -5 1017 80 10000 2.24 174 20:37 03.02.2021
2979 Clear -4 1017 78 10000 2.47 178 19:57 03.02.2021
2980 Clear -4 1017 78 10000 2.47 178 19:36 03.02.2021
2981 Clear -4 1017 76 10000 2.4 183 19:18 03.02.2021
2982 Clear -4 1017 78 10000 2.74 177 18:39 03.02.2021
2983 Clear -3 1017 74 10000 2.55 177 18:19 03.02.2021
2984 Clear -3 1017 74 10000 2.55 177 17:48 03.02.2021
2985 Clear -2 1016 70 10000 2.85 188 17:29 03.02.2021
2986 Clear -2 1016 70 10000 2.85 188 16:51 03.02.2021
2987 Clear -1 1014 67 10000 2.94 186 16:26 03.02.2021
2988 Clear -1 1014 67 10000 2.94 186 15:41 03.02.2021
2989 Clear -1 1013 61 10000 2.88 187 15:23 03.02.2021
2990 Clear -1 1013 61 10000 2.88 187 14:53 03.02.2021
2991 Clear 0 1011 54 10000 3.17 193 14:25 03.02.2021
2992 Clear 0 1011 54 10000 3.17 193 13:53 03.02.2021
2993 Clear 1 1009 53 10000 2.57 205 13:21 03.02.2021
2994 Clear 1 1009 53 10000 2.57 205 12:47 03.02.2021
2995 Clear 6 1006 35 10000 2.81 207 12:24 03.02.2021
2996 Clear 6 1006 35 10000 2.81 207 11:47 03.02.2021
2997 Clear 8 1005 30 10000 3.23 222 11:28 03.02.2021
2998 Clear 8 1005 30 10000 3.23 222 10:53 03.02.2021
2999 Clear 8 1005 32 10000 3.86 215 10:21 03.02.2021
3000 Clear 8 1005 32 10000 3.86 215 09:47 03.02.2021
3001 Clear 8 1006 35 10000 3.39 216 09:27 03.02.2021
3002 Clear 8 1006 35 10000 3.39 216 08:52 03.02.2021
3003 Clear 7 1008 39 10000 3.37 203 08:24 03.02.2021
3004 Clear 7 1008 39 10000 3.37 203 07:39 03.02.2021
3005 Clear 6 1011 45 10000 2.77 195 06:41 03.02.2021
3006 Clear 2 1015 61 10000 1.95 186 04:54 03.02.2021
3007 Clear 0 1017 70 10000 1.79 177 04:29 03.02.2021
3008 Clear -3 1018 71 10000 1.96 169 03:18 03.02.2021
3009 Clear -8 1018 76 10000 2.03 165 02:26 03.02.2021
3010 Clear -8 1018 72 10000 2.08 161 00:36 03.02.2021
3011 Clear -7 1017 68 10000 2.12 162 23:53 02.02.2021
3012 Clear -7 1017 63 10000 1.99 158 23:29 02.02.2021
3013 Clear -7 1017 63 10000 1.99 158 22:59 02.02.2021
3014 Clear -7 1017 58 10000 1.79 151 22:22 02.02.2021
3015 Clear -7 1017 58 10000 1.79 151 21:57 02.02.2021
3016 Clear -7 1017 58 10000 1.79 151 21:31 02.02.2021
3017 Clear -7 1017 58 10000 1.39 145 20:59 02.02.2021
3018 Clear -7 1017 58 10000 1.39 145 20:59 02.02.2021
3019 Clear -7 1017 58 10000 1.39 145 20:41 02.02.2021
3020 Clear -6 1016 58 10000 1.18 158 20:19 02.02.2021
3021 Clear -6 1016 58 10000 1.18 158 19:47 02.02.2021
3022 Clear -6 1016 56 10000 1.17 150 19:29 02.02.2021
3023 Clear -6 1016 56 10000 1.17 150 18:44 02.02.2021
3024 Clear -5 1017 55 10000 1.51 157 18:25 02.02.2021
3025 Clear -5 1017 55 10000 1.51 157 17:50 02.02.2021
3026 Clear -5 1017 56 10000 1.32 165 17:23 02.02.2021
3027 Clear -5 1017 56 10000 1.32 165 16:57 02.02.2021
3028 Clear -5 1017 56 10000 1.32 165 16:37 02.02.2021
3029 Clear -4 1016 53 10000 1.17 175 15:59 02.02.2021
3030 Clear -4 1016 53 10000 1.17 175 15:40 02.02.2021
3031 Clear -4 1015 57 10000 1.15 171 15:21 02.02.2021
3032 Clear -4 1015 57 10000 1.15 171 14:40 02.02.2021
3033 Clear -4 1014 60 10000 0.77 180 14:18 02.02.2021
3034 Clear -4 1014 60 10000 0.77 180 13:44 02.02.2021
3035 Clear -3 1013 58 10000 0.41 230 13:26 02.02.2021
3036 Clear -3 1013 58 10000 0.41 230 12:57 02.02.2021
3037 Clear 4 1011 31 10000 1.36 289 12:27 02.02.2021
3038 Clear 4 1011 31 10000 1.36 289 11:41 02.02.2021
3039 Clear 7 1011 21 10000 3.65 278 11:20 02.02.2021
3040 Clear 7 1011 21 10000 3.65 278 10:51 02.02.2021
3041 Clear 7 1011 22 10000 3.39 275 10:26 02.02.2021
3042 Clear 7 1011 22 10000 3.39 275 09:46 02.02.2021
3043 Clear 7 1012 24 10000 2.75 281 09:25 02.02.2021
3044 Clear 7 1012 24 10000 2.75 281 08:48 02.02.2021
3045 Clear 6 1014 27 10000 2.17 286 08:21 02.02.2021
3046 Clear 5 1016 30 10000 1.55 267 07:28 02.02.2021
3047 Clear 5 1016 31 10000 1.49 278 06:41 02.02.2021
3048 Clear 4 1018 36 10000 1.12 272 05:51 02.02.2021
3049 Clear 2 1020 43 10000 0.94 250 04:36 02.02.2021
3050 Clear -10 1021 68 10000 0.39 244 02:25 02.02.2021
3051 Clear -11 1020 68 10000 0.25 288 01:28 02.02.2021
3052 Clear -11 1020 67 10000 0.25 308 00:31 02.02.2021
3053 Clear -10 1018 67 10000 0.56 34 23:18 01.02.2021
3054 Clear -10 1018 67 10000 0.56 34 22:40 01.02.2021
3055 Clear -9 1018 65 10000 0.84 27 22:21 01.02.2021
3056 Clear -9 1018 65 10000 0.84 27 21:48 01.02.2021
3057 Clear -8 1018 63 10000 0.83 26 21:26 01.02.2021
3058 Clear -8 1018 63 10000 0.83 26 20:47 01.02.2021
3059 Clear -7 1018 60 10000 1.23 4 20:25 01.02.2021
3060 Clear -7 1018 60 10000 1.23 4 19:55 01.02.2021
3061 Clear -7 1018 60 10000 1.23 4 19:37 01.02.2021
3062 Clear -6 1018 60 10000 1.95 345 19:18 01.02.2021
3063 Clear -7 1018 61 10000 1.6 350 18:41 01.02.2021
3064 Clear -6 1017 62 10000 1.82 336 18:22 01.02.2021
3065 Clear -6 1017 62 10000 1.82 336 17:45 01.02.2021
3066 Clear -5 1017 58 10000 1.72 311 17:22 01.02.2021
3067 Clear -5 1017 58 10000 1.72 311 16:42 01.02.2021
3068 Clear -5 1017 58 10000 1.72 311 16:42 01.02.2021
3069 Clear -4 1015 59 10000 0.92 312 16:22 01.02.2021
3070 Clear -4 1015 59 10000 0.92 312 15:41 01.02.2021
3071 Clouds -4 1014 57 10000 0.56 282 15:19 01.02.2021
3072 Clouds -4 1014 57 10000 0.56 282 14:51 01.02.2021
3073 Clear -3 1011 57 10000 1.42 227 14:23 01.02.2021
3074 Clear -3 1011 57 10000 1.42 227 13:45 01.02.2021
3075 Clear -3 1009 59 10000 0.6 219 13:26 01.02.2021
3076 Clear -3 1009 59 10000 0.6 219 12:44 01.02.2021
3077 Clear 4 1007 36 10000 0.96 251 12:25 01.02.2021
3078 Clear 4 1007 36 10000 0.96 251 11:43 01.02.2021
3079 Clear 6 1006 29 10000 1.64 251 11:21 01.02.2021
3080 Clear 6 1006 29 10000 1.64 251 10:50 01.02.2021
3081 Clear 6 1006 31 10000 1.36 224 10:22 01.02.2021
3082 Clear 6 1006 31 10000 1.36 224 09:54 01.02.2021
3083 Clear 6 1006 31 10000 1.36 224 09:54 01.02.2021
3084 Clear 6 1006 31 10000 1.36 224 09:35 01.02.2021
3085 Clear 6 1007 33 10000 1.32 222 08:56 01.02.2021
3086 Clear 5 1009 35 10000 0.62 250 08:26 01.02.2021
3087 Clear 4 1011 42 10000 1.02 227 06:59 01.02.2021
3088 Clear 0 1015 60 10000 1.21 183 04:33 01.02.2021
3089 Clear -4 1018 63 10000 1 151 02:40 01.02.2021
3090 Clear -11 1017 65 10000 0.98 140 00:18 01.02.2021
3091 Clear -11 1016 64 10000 0.58 140 22:57 31.01.2021
3092 Clear -11 1016 64 10000 0.58 140 22:38 31.01.2021
3093 Clear -11 1016 63 10000 0.22 90 22:19 31.01.2021
3094 Clear -11 1016 63 10000 0.22 90 21:46 31.01.2021
3095 Clear -10 1017 62 10000 0.37 31 21:19 31.01.2021
3096 Clear -10 1017 62 10000 0.37 31 20:43 31.01.2021
3097 Clear -10 1017 64 10000 0.7 27 20:20 31.01.2021
3098 Clear -10 1017 64 10000 0.7 27 19:39 31.01.2021
3099 Clouds -9 1017 60 10000 1.02 38 19:21 31.01.2021
3100 Clouds -9 1017 60 10000 0.58 39 18:55 31.01.2021
3101 Clouds -9 1017 60 10000 0.58 39 18:37 31.01.2021
3102 Clouds -8 1017 58 10000 0.86 29 18:18 31.01.2021
3103 Clouds -8 1017 58 10000 0.86 29 17:39 31.01.2021
3104 Clouds -7 1016 54 10000 1.1 20 17:21 31.01.2021
3105 Clouds -7 1016 54 10000 1.1 20 16:42 31.01.2021
3106 Clouds -7 1016 53 10000 1.58 0 16:20 31.01.2021
3107 Clouds -7 1016 53 10000 1.58 0 15:49 31.01.2021
3108 Clouds -6 1014 52 10000 1.85 345 15:25 31.01.2021
3109 Clouds -6 1014 52 10000 1.85 345 14:39 31.01.2021
3110 Clouds -5 1013 52 10000 1.12 308 14:18 31.01.2021
3111 Clouds -5 1013 52 10000 1.12 308 13:46 31.01.2021
3112 Clouds -4 1010 46 10000 1.24 235 13:19 31.01.2021
3113 Clouds -5 1011 53 10000 0.17 239 12:47 31.01.2021
3114 Clouds 1 1009 38 10000 1.05 247 12:21 31.01.2021
3115 Clouds 1 1009 38 10000 1.05 247 11:40 31.01.2021
3116 Clouds 3 1008 29 10000 3.35 274 11:21 31.01.2021
3117 Clouds 3 1008 29 10000 3.35 274 10:48 31.01.2021
3118 Clouds 3 1008 30 10000 2.2 258 10:29 31.01.2021
3119 Clouds 3 1008 30 10000 2.2 258 09:47 31.01.2021
3120 Clouds 3 1009 32 10000 1.19 229 08:55 31.01.2021
3121 Clouds 3 1009 32 10000 1.19 229 08:31 31.01.2021
3122 Clear 0 1014 43 10000 1.02 195 06:54 31.01.2021
3123 Clear -1 1016 47 10000 0.63 194 05:30 31.01.2021
3124 Clear -14 1022 66 10000 0.62 34 00:40 31.01.2021
3125 Clear -14 1022 66 10000 0.42 359 00:21 31.01.2021
3126 Clear -13 1022 66 10000 0.74 335 23:28 30.01.2021
3127 Clear -13 1022 66 10000 0.74 335 22:49 30.01.2021
3128 Clear -12 1021 66 10000 1.27 306 22:28 30.01.2021
3129 Clear -12 1021 66 10000 1.27 306 21:39 30.01.2021
3130 Clear -11 1021 64 10000 1.97 296 21:20 30.01.2021
3131 Clear -11 1021 64 10000 1.97 296 20:44 30.01.2021
3132 Clear -10 1020 66 10000 2.12 302 20:25 30.01.2021
3133 Clear -10 1020 66 10000 2.12 302 19:43 30.01.2021
3134 Clouds -9 1019 64 10000 2.36 294 19:24 30.01.2021
3135 Clouds -9 1019 64 10000 2.18 304 18:41 30.01.2021
3136 Clouds -8 1018 66 10000 2.5 282 18:21 30.01.2021
3137 Clouds -8 1018 66 10000 2.5 282 17:54 30.01.2021
3138 Clouds -7 1017 67 10000 1.88 280 17:19 30.01.2021
3139 Clouds -7 1017 67 10000 1.88 280 16:44 30.01.2021
3140 Clouds -7 1016 71 10000 1.52 248 16:24 30.01.2021
3141 Clouds -7 1016 71 10000 1.52 248 15:54 30.01.2021
3142 Clouds -7 1016 71 10000 1.52 248 15:36 30.01.2021
3143 Clouds -7 1014 76 10000 1.25 207 15:18 30.01.2021
3144 Clouds -7 1014 76 10000 1.25 207 14:41 30.01.2021
3145 Clouds -6 1013 77 10000 1.08 263 14:19 30.01.2021
3146 Clouds -5 1011 74 10000 1.63 304 13:29 30.01.2021
3147 Clouds -4 1011 71 10000 1.2 274 12:48 30.01.2021
3148 Clouds -2 1009 63 10000 2.27 283 12:28 30.01.2021
3149 Clouds -2 1009 63 10000 2.27 283 11:55 30.01.2021
3150 Clouds -1 1008 61 10000 2.36 264 11:26 30.01.2021
3151 Clouds -1 1008 61 10000 2.36 264 10:47 30.01.2021
3152 Clouds 0 1008 61 10000 3.11 271 09:48 30.01.2021
3153 Clouds 0 1008 60 10000 2.82 269 09:26 30.01.2021
3154 Clouds 0 1008 60 10000 2.82 269 08:47 30.01.2021
3155 Clouds -1 1010 61 10000 2.61 265 07:48 30.01.2021
3156 Clouds -1 1011 60 10000 2.5 238 06:49 30.01.2021
3157 Clouds -3 1015 66 10000 1.59 197 04:59 30.01.2021
3158 Clouds -4 1016 65 10000 1.84 191 03:35 30.01.2021
3159 Clouds -10 1018 70 10000 2.09 167 02:24 30.01.2021
3160 Clouds -10 1016 70 10000 2.2 169 01:29 30.01.2021
3161 Clouds -10 1017 68 10000 2.08 168 00:39 30.01.2021
3162 Clouds -9 1016 67 10000 2.36 168 00:20 30.01.2021
3163 Clouds -9 1016 67 10000 2.36 168 23:45 29.01.2021
3164 Clouds -9 1015 67 10000 2.46 172 23:21 29.01.2021
3165 Clouds -9 1015 67 10000 2.46 172 22:44 29.01.2021
3166 Clouds -8 1014 67 10000 2.56 171 22:19 29.01.2021
3167 Clouds -7 1014 68 10000 2.62 171 21:28 29.01.2021
3168 Clouds -7 1014 68 10000 2.62 171 20:45 29.01.2021
3169 Clouds -7 1014 69 10000 2.72 170 20:26 29.01.2021
3170 Clouds -7 1014 69 10000 2.72 170 19:57 29.01.2021
3171 Clouds -7 1014 69 10000 2.72 170 19:38 29.01.2021
3172 Clouds -6 1014 76 10000 2.95 166 19:18 29.01.2021
3173 Clouds -5 1014 75 10000 2.67 167 18:21 29.01.2021
3174 Clouds -5 1014 75 10000 2.67 167 17:39 29.01.2021
3175 Clouds -4 1013 72 10000 3.03 164 17:20 29.01.2021
3176 Clouds -4 1013 72 10000 3.03 164 16:45 29.01.2021
3177 Clouds -4 1011 68 10000 3.03 169 16:23 29.01.2021
3178 Clouds -4 1011 68 10000 3.03 169 15:48 29.01.2021
3179 Clouds -4 1010 65 10000 3.22 179 15:27 29.01.2021
3180 Clouds -4 1010 65 10000 3.22 179 14:32 29.01.2021
3181 Clouds -3 1008 59 10000 4.19 201 13:59 29.01.2021
3182 Clouds -3 1008 59 10000 4.19 201 13:39 29.01.2021
3183 Clear -1 1006 54 10000 6.32 211 13:19 29.01.2021
3184 Clear 2 1003 40 10000 9.65 219 12:25 29.01.2021
3185 Clear 2 1003 40 10000 9.65 219 11:49 29.01.2021
3186 Clear 5 1002 31 10000 10.49 226 11:20 29.01.2021
3187 Clear 5 1002 31 10000 10.49 226 10:51 29.01.2021
3188 Clear 5 1002 31 10000 10.49 226 10:31 29.01.2021
3189 Clear 6 1002 26 10000 11.19 231 09:49 29.01.2021
3190 Clear 7 1002 26 10000 7.51 216 08:59 29.01.2021
3191 Clear 7 1002 26 10000 7.51 216 08:38 29.01.2021
3192 Clear 5 1004 33 10000 4.67 202 08:19 29.01.2021
3193 Clear 5 1004 33 10000 4.67 202 07:41 29.01.2021
3194 Clear 4 1007 40 10000 4.06 194 07:20 29.01.2021
3195 Clear 1 1011 58 10000 3.39 188 05:23 29.01.2021
3196 Clear -1 1013 69 10000 2.73 185 03:50 29.01.2021
3197 Clear -8 1015 82 10000 2.45 171 00:44 29.01.2021
3198 Clear -7 1014 82 10000 2.51 170 00:22 29.01.2021
3199 Clear -7 1014 82 10000 2.51 170 23:44 28.01.2021
3200 Clear -6 1014 82 10000 2.62 175 23:25 28.01.2021
3201 Clear -6 1014 82 10000 2.62 175 22:49 28.01.2021
3202 Clear -6 1014 82 10000 2.78 173 22:27 28.01.2021
3203 Clear -6 1014 82 10000 2.78 173 21:58 28.01.2021
3204 Clear -6 1014 82 10000 2.78 173 21:38 28.01.2021
3205 Clear -5 1014 81 10000 3.07 178 21:20 28.01.2021
3206 Clear -5 1014 81 10000 3.07 178 20:39 28.01.2021
3207 Clear -4 1014 80 10000 3.08 175 20:18 28.01.2021
3208 Clear -4 1014 80 10000 3.08 175 19:46 28.01.2021
3209 Clear -3 1014 75 10000 3.22 176 19:23 28.01.2021
3210 Clear -3 1014 75 10000 3.22 176 18:45 28.01.2021
3211 Clear -3 1014 71 10000 3.36 178 18:27 28.01.2021
3212 Clear -3 1014 71 10000 3.36 178 17:47 28.01.2021
3213 Clear -2 1014 67 10000 3.18 182 17:28 28.01.2021
3214 Clear -2 1014 67 10000 3.18 182 16:45 28.01.2021
3215 Clear -1 1013 63 10000 2.83 188 16:25 28.01.2021
3216 Clear -1 1013 63 10000 2.83 188 15:51 28.01.2021
3217 Clear 0 1012 60 10000 2.84 188 15:23 28.01.2021
3218 Clear 0 1012 60 10000 2.84 188 14:43 28.01.2021
3219 Clear 0 1011 60 10000 2.73 197 14:23 28.01.2021
3220 Clear 0 1011 60 10000 2.73 197 13:49 28.01.2021
3221 Clear 1 1009 60 10000 2.3 216 13:21 28.01.2021
3222 Clear 1 1009 59 10000 2.49 217 12:46 28.01.2021
3223 Clear 6 1006 40 10000 2.28 206 12:21 28.01.2021
3224 Clear 6 1006 40 10000 2.28 206 11:44 28.01.2021
3225 Clear 9 1004 31 10000 3.91 194 11:21 28.01.2021
3226 Clear 9 1004 31 10000 3.91 194 10:56 28.01.2021
3227 Clear 9 1004 31 10000 3.91 194 10:38 28.01.2021
3228 Clear 9 1005 31 10000 4.48 205 10:20 28.01.2021
3229 Clear 9 1005 31 10000 4.48 205 09:34 28.01.2021
3230 Clear 9 1005 32 10000 3.71 215 08:58 28.01.2021
3231 Clear 9 1005 32 10000 3.71 215 08:39 28.01.2021
3232 Clear 7 1007 38 10000 3.04 203 07:48 28.01.2021
3233 Clear 6 1010 45 10000 2.34 195 06:51 28.01.2021
3234 Clear 6 1010 45 10000 2.34 195 06:32 28.01.2021
3235 Clear 2 1015 62 10000 1.69 197 04:30 28.01.2021
3236 Clear -8 1019 81 10000 1.65 181 02:26 28.01.2021
3237 Clear -7 1016 78 10000 1.89 177 00:27 28.01.2021
3238 Clear -7 1016 77 10000 2.12 177 23:25 27.01.2021
3239 Clear -7 1016 77 10000 2.12 177 22:44 27.01.2021
3240 Clear -6 1016 75 10000 2.18 173 22:25 27.01.2021
3241 Clear -6 1016 75 10000 2.18 173 21:57 27.01.2021
3242 Clear -6 1016 75 10000 2.18 173 21:39 27.01.2021
3243 Clear -5 1016 74 10000 2.09 178 21:21 27.01.2021
3244 Clear -5 1016 74 10000 2.09 178 20:40 27.01.2021
3245 Clear -5 1015 71 10000 2.23 183 19:58 27.01.2021
3246 Clear -5 1015 71 10000 2.23 183 19:39 27.01.2021
3247 Clear -4 1015 70 10000 2.31 177 19:20 27.01.2021
3248 Clear -4 1015 70 10000 2.31 177 19:20 27.01.2021
3249 Clear -4 1015 70 10000 2.31 177 18:42 27.01.2021
3250 Clear -4 1015 68 10000 2.1 177 18:23 27.01.2021
3251 Clear -4 1015 68 10000 2.1 177 17:46 27.01.2021
3252 Clear -3 1014 63 10000 2.3 188 17:21 27.01.2021
3253 Clear -3 1014 63 10000 2.3 188 16:48 27.01.2021
3254 Clear -2 1014 53 10000 2.38 193 16:28 27.01.2021
3255 Clear -2 1014 53 10000 2.38 193 15:51 27.01.2021
3256 Clear -2 1014 53 10000 2.38 193 15:32 27.01.2021
3257 Clear -2 1012 50 10000 2.26 208 14:45 27.01.2021
3258 Clear -1 1011 49 10000 2.2 240 14:22 27.01.2021
3259 Clear -1 1011 49 10000 2.2 240 13:45 27.01.2021
3260 Clear -1 1009 54 10000 2.4 249 13:19 27.01.2021
3261 Clear -1 1009 54 10000 2.4 249 12:40 27.01.2021
3262 Clear 5 1006 30 10000 3.13 258 12:21 27.01.2021
3263 Clear 5 1006 30 10000 3.13 258 11:44 27.01.2021
3264 Clear 8 1005 21 10000 6.84 250 11:22 27.01.2021
3265 Clear 8 1005 21 10000 6.84 250 11:22 27.01.2021
3266 Clear 8 1005 21 10000 6.84 250 10:40 27.01.2021
3267 Clear 9 1005 20 10000 6.81 249 10:21 27.01.2021
3268 Clear 9 1005 20 10000 6.81 249 09:47 27.01.2021
3269 Clear 9 1006 21 10000 6.1 247 08:59 27.01.2021
3270 Clear 9 1006 21 10000 6.1 247 08:31 27.01.2021
3271 Clear 8 1008 23 10000 4.4 252 07:43 27.01.2021
3272 Clear 6 1010 25 10000 3.04 223 07:19 27.01.2021
3273 Clear 5 1012 28 10000 1.79 210 06:19 27.01.2021
3274 Clear 5 1012 28 10000 1.79 210 05:43 27.01.2021
3275 Clear 1 1016 38 10000 0.72 307 03:34 27.01.2021
3276 Clear -10 1017 61 10000 0.9 289 02:23 27.01.2021
3277 Clear -10 1017 61 10000 0.9 289 01:49 27.01.2021
3278 Clear -9 1016 59 10000 1.61 288 00:34 27.01.2021
3279 Clear -8 1015 59 10000 1.99 263 23:49 26.01.2021
3280 Clear -7 1015 58 10000 2.35 267 23:28 26.01.2021
3281 Clear -7 1015 58 10000 2.35 267 22:50 26.01.2021
3282 Clear -7 1015 59 10000 1.88 252 22:23 26.01.2021
3283 Clear -7 1015 59 10000 1.88 252 21:54 26.01.2021
3284 Clear -7 1015 59 10000 1.88 252 21:34 26.01.2021
3285 Clear -6 1014 57 10000 2.13 230 20:58 26.01.2021
3286 Clear -6 1014 57 10000 2.13 230 20:40 26.01.2021
3287 Clear -5 1014 55 10000 2.57 227 20:21 26.01.2021
3288 Clear -5 1014 55 10000 2.57 227 19:45 26.01.2021
3289 Clear -4 1013 53 10000 2.59 212 19:22 26.01.2021
3290 Clear -4 1014 49 10000 2.84 217 18:48 26.01.2021
3291 Clear -4 1013 50 10000 2.75 218 18:28 26.01.2021
3292 Clear -4 1013 50 10000 2.75 218 17:55 26.01.2021
3293 Clear -4 1013 50 10000 2.75 218 17:37 26.01.2021
3294 Clear -3 1012 46 10000 2.54 216 16:56 26.01.2021
3295 Clear -3 1012 46 10000 2.54 216 16:37 26.01.2021
3296 Clear -3 1011 43 10000 2.63 236 16:19 26.01.2021
3297 Clear -3 1011 43 10000 2.63 236 15:46 26.01.2021
3298 Clear -2 1009 40 10000 3.42 250 15:24 26.01.2021
3299 Clear -2 1009 40 10000 3.42 250 14:46 26.01.2021
3300 Clear 0 1008 41 10000 3.45 254 14:28 26.01.2021
3301 Clear 0 1008 41 10000 3.45 254 13:37 26.01.2021
3302 Clear 0 1006 44 10000 3.27 262 13:18 26.01.2021
3303 Clear 0 1006 44 10000 3.27 262 12:42 26.01.2021
3304 Clear 6 1002 27 10000 6.15 273 12:22 26.01.2021
3305 Clear 6 1002 27 10000 6.15 273 11:51 26.01.2021
3306 Clear 6 1002 27 10000 6.15 273 11:30 26.01.2021
3307 Clear 8 1000 21 10000 14.89 261 10:44 26.01.2021
3308 Clear 10 999 20 10000 14.3 259 10:25 26.01.2021
3309 Clear 10 999 20 10000 14.3 259 09:40 26.01.2021
3310 Clear 10 1000 20 10000 13.5 260 09:22 26.01.2021
3311 Clear 10 1000 20 10000 13.5 260 08:50 26.01.2021
3312 Clear 10 1002 24 10000 8.52 251 08:20 26.01.2021
3313 Clear 8 1004 33 10000 4.73 238 07:27 26.01.2021
3314 Clear 4 1007 50 10000 2.58 199 05:58 26.01.2021
3315 Clear 4 1007 50 10000 2.58 199 05:39 26.01.2021
3316 Clear 0 1012 71 10000 1.55 193 03:51 26.01.2021
3317 Clear -8 1014 79 10000 1.65 182 01:46 26.01.2021
3318 Clear -7 1013 78 10000 1.57 181 00:49 26.01.2021
3319 Clear -7 1013 78 10000 1.66 167 23:36 25.01.2021
3320 Clear -6 1012 77 10000 1.79 173 22:56 25.01.2021
3321 Clear -6 1012 77 10000 1.79 173 22:35 25.01.2021
3322 Clear -6 1012 76 10000 1.97 182 21:49 25.01.2021
3323 Clear -5 1012 74 10000 1.75 191 21:23 25.01.2021
3324 Clear -5 1012 74 10000 1.75 191 20:50 25.01.2021
3325 Clear -5 1012 74 10000 1.75 191 20:32 25.01.2021
3326 Clear -3 1012 71 10000 2.57 194 19:51 25.01.2021
3327 Clear -3 1012 71 10000 2.57 194 19:31 25.01.2021
3328 Clear -3 1011 67 10000 2.76 189 18:48 25.01.2021
3329 Clear -2 1011 64 10000 2.75 193 18:28 25.01.2021
3330 Clear -2 1011 64 10000 2.75 193 17:58 25.01.2021
3331 Clear -2 1011 64 10000 2.75 193 17:39 25.01.2021
3332 Clear -2 1011 58 10000 3.11 187 17:20 25.01.2021
3333 Clear -2 1011 58 10000 3.11 187 16:41 25.01.2021
3334 Clear -1 1010 48 10000 3.19 197 16:21 25.01.2021
3335 Clear -1 1010 48 10000 3.19 197 15:48 25.01.2021
3336 Clear -1 1009 47 10000 2.68 235 15:29 25.01.2021
3337 Clear -1 1009 47 10000 2.68 235 14:46 25.01.2021
3338 Clear 0 1008 41 10000 3.45 256 14:19 25.01.2021
3339 Clear 0 1008 41 10000 3.45 256 13:52 25.01.2021
3340 Clear 3 1006 32 10000 6.13 253 13:28 25.01.2021
3341 Clear 3 1005 34 10000 5.79 254 12:46 25.01.2021
3342 Clear 7 1002 27 10000 7.59 253 12:20 25.01.2021
3343 Clear 7 1002 27 10000 7.59 253 11:47 25.01.2021
3344 Clear 10 1000 23 10000 11.44 261 11:19 25.01.2021
3345 Clear 10 1000 23 10000 11.44 261 10:41 25.01.2021
3346 Clear 11 1001 23 10000 9.95 259 10:19 25.01.2021
3347 Clear 11 1001 23 10000 9.95 259 09:45 25.01.2021
3348 Clear 11 1001 25 10000 7.03 238 09:27 25.01.2021
3349 Clear 9 1003 28 10000 5.12 226 08:29 25.01.2021
3350 Clear 9 1003 28 10000 5.12 226 07:32 25.01.2021
3351 Clear 7 1005 36 10000 3 215 06:55 25.01.2021
3352 Clear 1 1012 63 10000 1.37 190 04:18 25.01.2021
3353 Clear -8 1013 76 10000 1.35 167 01:33 25.01.2021
3354 Clear -7 1012 74 10000 2.13 164 23:51 24.01.2021
3355 Clear -6 1012 71 10000 1.55 165 23:19 24.01.2021
3356 Clear -6 1012 71 10000 1.55 165 22:43 24.01.2021
3357 Clear -6 1011 69 10000 1.31 146 22:21 24.01.2021
3358 Clear -6 1011 69 10000 1.31 146 21:49 24.01.2021
3359 Clear -6 1011 68 10000 1.05 152 21:24 24.01.2021
3360 Clear -6 1011 68 10000 1.05 152 21:24 24.01.2021
3361 Clear -6 1011 68 10000 1.05 152 21:24 24.01.2021
3362 Clear -6 1011 68 10000 1.05 152 20:46 24.01.2021
3363 Clear -5 1011 66 10000 0.64 162 20:22 24.01.2021
3364 Clear -5 1011 66 10000 0.64 162 19:53 24.01.2021
3365 Clear -4 1011 66 10000 0.76 208 19:28 24.01.2021
3366 Clear -4 1012 64 10000 0.71 221 18:59 24.01.2021
3367 Clear -4 1012 64 10000 0.71 221 18:40 24.01.2021
3368 Clear -4 1012 60 10000 1.14 242 18:21 24.01.2021
3369 Clear -4 1012 60 10000 1.14 242 17:51 24.01.2021
3370 Clear -4 1012 60 10000 1.14 242 17:30 24.01.2021
3371 Clear -3 1011 58 10000 1.82 256 16:59 24.01.2021
3372 Clear -3 1011 58 10000 1.82 256 16:39 24.01.2021
3373 Clear -2 1010 54 10000 1.84 235 16:19 24.01.2021
3374 Clear -2 1010 54 10000 1.84 235 15:44 24.01.2021
3375 Clear -2 1009 53 10000 2.29 248 15:19 24.01.2021
3376 Clear -2 1009 53 10000 2.29 248 14:43 24.01.2021
3377 Clear 0 1007 43 10000 3.48 268 13:52 24.01.2021
3378 Clear 0 1007 43 10000 3.48 268 13:34 24.01.2021
3379 Clear 2 1005 33 10000 4.38 260 12:51 24.01.2021
3380 Clear 8 1000 24 10000 6.57 267 12:22 24.01.2021
3381 Clear 8 1000 24 10000 6.57 267 11:54 24.01.2021
3382 Clear 11 998 19 10000 12.26 257 11:25 24.01.2021
3383 Clear 11 998 19 10000 12.26 257 10:54 24.01.2021
3384 Clear 11 998 19 10000 12.26 257 10:30 24.01.2021
3385 Clear 11 998 19 10000 12.26 257 10:30 24.01.2021
3386 Clear 11 997 20 10000 14.15 257 09:46 24.01.2021
3387 Clear 12 997 20 10000 16.38 260 09:19 24.01.2021
3388 Clear 12 997 20 10000 16.38 260 08:31 24.01.2021
3389 Clear 5 1006 43 10000 1.79 200 03:48 24.01.2021
3390 Clear -5 1008 71 10000 0.78 183 02:19 24.01.2021
3391 Clear -4 1006 71 10000 1.65 174 00:39 24.01.2021
3392 Clear -3 1006 70 10000 1.58 170 00:19 24.01.2021
3393 Clear -3 1006 70 10000 1.58 170 23:33 23.01.2021
3394 Clear -3 1005 71 10000 1.5 180 22:58 23.01.2021
3395 Clear -3 1005 71 10000 1.5 180 22:40 23.01.2021
3396 Clear -2 1005 69 10000 1.88 189 21:59 23.01.2021
3397 Clear -2 1006 69 10000 1.67 189 21:23 23.01.2021
3398 Clear -2 1006 69 10000 1.67 189 20:53 23.01.2021
3399 Clear -2 1006 69 10000 1.67 189 20:33 23.01.2021
3400 Clear -2 1006 71 10000 1.23 199 19:56 23.01.2021
3401 Clear -2 1006 71 10000 1.23 199 19:38 23.01.2021
3402 Clear -1 1007 68 10000 1.39 208 19:20 23.01.2021
3403 Clear -2 1007 69 10000 0.9 218 18:42 23.01.2021
3404 Clear 0 1007 66 10000 1.85 204 18:20 23.01.2021
3405 Clear 1 1007 61 10000 2.8 189 17:29 23.01.2021
3406 Clear 1 1007 61 10000 2.8 189 16:53 23.01.2021
3407 Clear 1 1007 61 10000 2.8 189 16:32 23.01.2021
3408 Clear 2 1007 54 10000 3.13 217 15:53 23.01.2021
3409 Clear 2 1005 49 10000 2.94 219 15:28 23.01.2021
3410 Clear 2 1005 49 10000 2.94 219 14:45 23.01.2021
3411 Clear 3 1004 45 10000 3.7 247 14:24 23.01.2021
3412 Clear 3 1004 45 10000 3.7 247 13:43 23.01.2021
3413 Clouds 6 1002 35 10000 4.84 262 13:24 23.01.2021
3414 Clouds 6 1002 35 10000 4.96 270 12:44 23.01.2021
3415 Clouds 10 999 29 10000 7.38 249 12:24 23.01.2021
3416 Clouds 10 999 29 10000 7.38 249 11:40 23.01.2021
3417 Clouds 13 997 22 10000 9.92 262 10:59 23.01.2021
3418 Clouds 14 997 21 10000 11.85 259 10:26 23.01.2021
3419 Clouds 14 997 21 10000 11.85 259 09:53 23.01.2021
3420 Clouds 14 997 20 10000 10.9 260 09:28 23.01.2021
3421 Clouds 14 997 20 10000 10.9 260 08:43 23.01.2021
3422 Clouds 14 999 20 10000 9.91 267 07:48 23.01.2021
3423 Clear 13 1002 22 10000 5.55 262 06:55 23.01.2021
3424 Clear 2 1011 47 10000 0.85 259 03:24 23.01.2021
3425 Clear -6 1010 64 10000 1.13 243 00:33 23.01.2021
3426 Clear -5 1010 63 10000 0.66 242 23:36 22.01.2021
3427 Clear -5 1010 63 10000 1.2 245 22:45 22.01.2021
3428 Clear -3 1010 63 10000 1.83 216 22:21 22.01.2021
3429 Clear -3 1010 63 10000 1.83 216 21:42 22.01.2021
3430 Clear -3 1011 60 10000 2.24 252 21:23 22.01.2021
3431 Clear -3 1011 60 10000 2.24 252 20:46 22.01.2021
3432 Clear -2 1011 59 10000 2.58 252 20:26 22.01.2021
3433 Clear -2 1011 59 10000 2.58 252 19:48 22.01.2021
3434 Clear -3 1011 62 10000 1.67 250 19:19 22.01.2021
3435 Clear -3 1011 62 10000 1.67 250 18:47 22.01.2021
3436 Clear -3 1011 61 10000 1.63 228 18:26 22.01.2021
3437 Clear -3 1011 61 10000 1.63 228 17:50 22.01.2021
3438 Clear -3 1011 61 10000 1.63 228 17:32 22.01.2021
3439 Clear -3 1010 64 10000 0.77 207 16:54 22.01.2021
3440 Clear -3 1010 64 10000 0.77 207 16:30 22.01.2021
3441 Clear -2 1010 63 10000 0.96 258 15:48 22.01.2021
3442 Clear -1 1010 63 10000 1.59 261 15:25 22.01.2021
3443 Clear -1 1010 63 10000 1.59 261 14:37 22.01.2021
3444 Clouds 0 1009 61 10000 1.89 254 14:18 22.01.2021
3445 Clear -2 1010 61 10000 1.05 177 13:36 22.01.2021
3446 Clouds 1 1008 47 10000 2.08 217 12:59 22.01.2021
3447 Clouds -1 1009 58 10000 1.25 152 12:40 22.01.2021
3448 Clouds 3 1007 41 10000 1.16 125 12:18 22.01.2021
3449 Clouds 3 1007 41 10000 1.16 125 11:38 22.01.2021
3450 Clouds 9 1004 28 10000 0.59 217 10:48 22.01.2021
3451 Clouds 9 1004 26 10000 1.92 240 10:24 22.01.2021
3452 Clouds 9 1004 26 10000 1.92 240 09:44 22.01.2021
3453 Clear 8 1006 28 10000 2.41 205 08:57 22.01.2021
3454 Clear 8 1006 28 10000 2.41 205 08:32 22.01.2021
3455 Clear 6 1008 32 10000 1.61 192 07:48 22.01.2021
3456 Clear -1 1018 54 10000 1.26 183 05:26 22.01.2021
3457 Clear -13 1023 71 10000 0.46 165 01:54 22.01.2021
3458 Clear -13 1023 71 10000 0.13 166 00:30 22.01.2021
3459 Clear -13 1022 71 10000 0.2 5 23:49 21.01.2021
3460 Clear -12 1023 71 10000 0.19 53 23:21 21.01.2021
3461 Clear -12 1023 71 10000 0.19 53 22:48 21.01.2021
3462 Clear -12 1023 70 10000 0.14 14 21:59 21.01.2021
3463 Clear -12 1023 70 10000 0.14 14 21:40 21.01.2021
3464 Clear -11 1023 70 10000 0.34 30 21:19 21.01.2021
3465 Clear -11 1023 70 10000 0.34 30 20:46 21.01.2021
3466 Clear -11 1023 70 10000 0.39 49 20:21 21.01.2021
3467 Clear -11 1023 70 10000 0.39 49 19:51 21.01.2021
3468 Clear -11 1024 70 10000 0.65 24 19:27 21.01.2021
3469 Clear -11 1024 70 10000 0.65 24 18:54 21.01.2021
3470 Clear -11 1024 70 10000 0.65 24 18:36 21.01.2021
3471 Clear -10 1024 67 10000 1.2 37 18:18 21.01.2021
3472 Clear -10 1024 67 10000 1.2 37 17:41 21.01.2021
3473 Clear -9 1024 63 10000 1.42 35 17:18 21.01.2021
3474 Clear -9 1024 63 10000 1.42 35 16:41 21.01.2021
3475 Clear -8 1024 61 10000 1.64 22 16:23 21.01.2021
3476 Clear -8 1024 61 10000 1.64 22 15:55 21.01.2021
3477 Clear -7 1023 59 10000 1.94 10 15:28 21.01.2021
3478 Clear -7 1023 59 10000 1.94 10 14:50 21.01.2021
3479 Clear -7 1023 59 10000 1.94 10 14:31 21.01.2021
3480 Clear -6 1022 56 10000 2.48 348 13:47 21.01.2021
3481 Clouds -5 1020 59 10000 2.77 342 13:26 21.01.2021
3482 Clouds -5 1020 59 10000 2.77 342 12:46 21.01.2021
3483 Clouds -1 1017 50 10000 4.65 327 12:26 21.01.2021
3484 Clouds -1 1017 50 10000 4.65 327 11:59 21.01.2021
3485 Clouds -1 1017 50 10000 4.65 327 11:41 21.01.2021
3486 Clouds 1 1015 42 10000 7.28 321 10:57 21.01.2021
3487 Clouds 1 1015 42 10000 7.28 321 10:39 21.01.2021
3488 Clouds 2 1013 39 10000 8.31 318 10:20 21.01.2021
3489 Clouds 2 1013 39 10000 8.31 318 09:39 21.01.2021
3490 Clear 2 1012 37 10000 8.75 312 09:18 21.01.2021
3491 Clear 2 1012 37 10000 8.75 312 08:35 21.01.2021
3492 Clear 3 1013 33 10000 8.33 305 07:48 21.01.2021
3493 Clouds 3 1014 28 10000 8.73 296 07:26 21.01.2021
3494 Clouds 3 1013 30 10000 8.37 294 06:31 21.01.2021
3495 Clouds 1 1014 57 10000 2.72 271 04:56 21.01.2021
3496 Clouds -9 1013 77 10000 0.57 264 02:19 21.01.2021
3497 Clouds -8 1012 79 10000 0.36 231 00:42 21.01.2021
3498 Clouds -9 1011 77 10000 0.75 199 23:50 20.01.2021
3499 Clouds -7 1010 72 10000 0.68 174 23:27 20.01.2021
3500 Clouds -7 1010 72 10000 0.68 174 22:53 20.01.2021
3501 Clouds -7 1010 72 10000 0.68 174 22:30 20.01.2021
3502 Clouds -7 1010 68 10000 0.67 161 21:55 20.01.2021
3503 Clouds -6 1009 62 10000 0.21 12 21:23 20.01.2021
3504 Clouds -6 1009 62 10000 0.21 12 20:52 20.01.2021
3505 Clouds -6 1009 62 10000 0.21 12 20:52 20.01.2021
3506 Clouds -5 1009 57 10000 0.79 29 20:24 20.01.2021
3507 Clouds -5 1009 57 10000 0.79 29 19:50 20.01.2021
3508 Clouds -5 1009 57 10000 0.79 29 19:31 20.01.2021
3509 Clouds -5 1009 58 10000 1.68 9 18:52 20.01.2021
3510 Clouds -6 1009 58 10000 1.61 15 18:33 20.01.2021
3511 Clouds -5 1009 57 10000 1.63 10 17:56 20.01.2021
3512 Clouds -5 1009 57 10000 1.63 10 17:36 20.01.2021
3513 Clouds -4 1008 55 10000 2.37 3 16:52 20.01.2021
3514 Clouds -4 1008 55 10000 2.37 3 16:30 20.01.2021
3515 Clouds -4 1008 55 10000 2.37 3 16:30 20.01.2021
3516 Clouds -3 1008 57 10000 1.97 0 15:47 20.01.2021
3517 Clouds -2 1006 61 10000 0.88 347 15:19 20.01.2021
3518 Clouds -2 1006 61 10000 0.88 347 14:44 20.01.2021
3519 Clouds -3 1004 67 10000 0.64 116 14:21 20.01.2021
3520 Clouds -3 1004 67 10000 0.64 116 13:41 20.01.2021
3521 Clouds -2 1002 63 10000 0.37 222 13:21 20.01.2021
3522 Clouds -1 1003 68 10000 0.24 80 12:35 20.01.2021
3523 Clouds 2 1001 53 10000 0.94 124 11:54 20.01.2021
3524 Clouds 2 1001 53 10000 0.94 124 11:35 20.01.2021
3525 Clouds 6 999 41 10000 1.5 163 10:55 20.01.2021
3526 Clouds 6 999 40 10000 1.68 213 10:28 20.01.2021
3527 Clouds 6 999 40 10000 1.68 213 09:50 20.01.2021
3528 Clouds 6 1000 40 10000 2.03 213 09:24 20.01.2021
3529 Clouds 6 1000 40 10000 2.03 213 08:49 20.01.2021
3530 Clouds 5 1002 43 10000 1.97 208 08:27 20.01.2021
3531 Clouds 5 1002 43 10000 1.97 208 07:56 20.01.2021
3532 Clear 5 1004 50 10000 1.34 203 07:25 20.01.2021
3533 Clear 5 1004 50 10000 1.34 203 07:25 20.01.2021
3534 Clear 3 1007 60 10000 0.96 187 05:51 20.01.2021
3535 Clear -4 1011 80 10000 0.87 133 03:28 20.01.2021
3536 Clear -9 1009 84 10000 1.09 140 01:19 20.01.2021
3537 Clear -9 1009 84 10000 0.99 138 00:45 20.01.2021
3538 Clear -8 1009 84 10000 1.12 140 23:48 19.01.2021
3539 Clear -8 1008 82 10000 1.47 155 23:26 19.01.2021
3540 Clear -8 1008 82 10000 1.47 155 22:57 19.01.2021
3541 Clear -8 1008 82 10000 1.47 155 22:36 19.01.2021
3542 Clear -7 1008 80 10000 1.45 141 22:18 19.01.2021
3543 Clear -7 1008 80 10000 1.45 141 21:42 19.01.2021
3544 Clear -7 1008 78 10000 1.33 133 21:23 19.01.2021
3545 Clear -7 1008 78 10000 1.33 133 20:43 19.01.2021
3546 Clear -6 1008 75 10000 1.29 116 20:23 19.01.2021
3547 Clear -6 1008 75 10000 1.29 116 19:53 19.01.2021
3548 Clear -5 1008 72 10000 1.06 105 19:28 19.01.2021
3549 Clear -5 1008 72 10000 1.06 105 18:47 19.01.2021
3550 Clear -4 1008 67 10000 0.72 78 18:26 19.01.2021
3551 Clear -4 1008 67 10000 0.72 78 17:46 19.01.2021
3552 Clear -4 1007 68 10000 0.62 86 17:27 19.01.2021
3553 Clear -4 1007 68 10000 0.62 86 16:50 19.01.2021
3554 Clear -3 1007 66 10000 0.8 44 16:29 19.01.2021
3555 Clear -3 1007 66 10000 0.8 44 15:59 19.01.2021
3556 Clear -3 1007 66 10000 0.8 44 15:40 19.01.2021
3557 Clear -2 1006 62 10000 1.99 13 15:19 19.01.2021
3558 Clear -2 1006 62 10000 1.99 13 14:41 19.01.2021
3559 Clear -1 1004 61 10000 1.98 343 14:22 19.01.2021
3560 Clear -1 1004 61 10000 1.98 343 13:41 19.01.2021
3561 Clouds 0 1001 62 10000 1.47 279 13:21 19.01.2021
3562 Clouds 0 1001 62 10000 1.47 279 12:48 19.01.2021
3563 Clouds 4 1000 44 10000 1.71 269 12:29 19.01.2021
3564 Clouds 4 1000 44 10000 1.71 269 11:43 19.01.2021
3565 Clouds 8 999 31 10000 4.97 258 11:24 19.01.2021
3566 Clouds 8 999 31 10000 4.97 258 10:51 19.01.2021
3567 Clouds 8 999 31 10000 4.97 258 10:31 19.01.2021
3568 Clouds 8 999 32 10000 4.98 269 09:53 19.01.2021
3569 Clouds 8 999 32 10000 4.98 269 09:30 19.01.2021
3570 Clouds 8 999 37 10000 4.27 256 08:56 19.01.2021
3571 Clouds 7 1001 43 10000 2.87 209 08:24 19.01.2021
3572 Clouds 7 1001 43 10000 2.87 209 07:47 19.01.2021
3573 Clear 5 1003 50 10000 2.47 193 06:53 19.01.2021
3574 Clear -3 1010 81 10000 1.23 173 02:32 19.01.2021
3575 Clouds -7 1009 85 10000 1.84 159 01:27 19.01.2021
3576 Clouds -6 1010 85 10000 1.64 166 23:58 18.01.2021
3577 Clouds -6 1010 85 10000 1.64 166 23:34 18.01.2021
3578 Clouds -6 1009 84 10000 2.07 156 22:51 18.01.2021
3579 Clouds -4 1009 83 10000 1.83 166 22:26 18.01.2021
3580 Clouds -4 1009 83 10000 1.83 166 21:58 18.01.2021
3581 Clouds -4 1009 83 10000 1.83 166 21:39 18.01.2021
3582 Clouds -3 1009 82 10000 2.08 171 21:20 18.01.2021
3583 Clouds -3 1009 82 10000 2.08 171 20:43 18.01.2021
3584 Clouds -3 1009 81 10000 2.32 173 20:24 18.01.2021
3585 Clouds -3 1009 81 10000 2.32 173 19:51 18.01.2021
3586 Clouds -3 1009 81 10000 2.32 173 19:32 18.01.2021
3587 Clouds -3 1009 78 10000 2.28 176 18:47 18.01.2021
3588 Clouds -2 1009 73 10000 2.96 182 18:23 18.01.2021
3589 Clouds -2 1009 73 10000 2.96 182 17:45 18.01.2021
3590 Clouds -1 1009 66 10000 3.2 175 17:22 18.01.2021
3591 Clouds -1 1009 66 10000 3.2 175 16:46 18.01.2021
3592 Clouds 0 1009 56 10000 3.12 183 16:22 18.01.2021
3593 Clouds 0 1009 56 10000 3.12 183 15:48 18.01.2021
3594 Clouds 0 1008 56 10000 2.96 215 15:25 18.01.2021
3595 Clouds 0 1008 56 10000 2.96 215 14:44 18.01.2021
3596 Clouds 0 1007 55 10000 2.22 231 14:26 18.01.2021
3597 Clouds 0 1007 55 10000 2.22 231 13:47 18.01.2021
3598 Clouds 0 1006 55 10000 2.11 255 13:28 18.01.2021
3599 Clouds 0 1006 55 10000 2.11 255 12:55 18.01.2021
3600 Clouds 5 1004 37 10000 4.37 261 12:21 18.01.2021
3601 Clouds 5 1004 37 10000 4.37 261 11:57 18.01.2021
3602 Clouds 5 1004 37 10000 4.37 261 11:39 18.01.2021
3603 Clouds 9 1004 28 10000 5.37 258 11:20 18.01.2021
3604 Clouds 9 1004 28 10000 5.37 258 10:44 18.01.2021
3605 Clouds 9 1004 28 10000 3.42 237 09:50 18.01.2021
3606 Clouds 9 1004 28 10000 3.42 237 09:32 18.01.2021
3607 Clouds 9 1005 30 10000 2 226 08:54 18.01.2021
3608 Clouds 8 1007 31 10000 1.32 198 08:18 18.01.2021
3609 Clouds 8 1007 31 10000 1.32 198 07:36 18.01.2021
3610 Clear 5 1013 37 10000 0.44 230 05:45 18.01.2021
3611 Clear 3 1015 42 10000 0.62 160 04:39 18.01.2021
3612 Clear 1 1017 50 10000 0.5 119 04:18 18.01.2021
3613 Clear 1 1017 50 10000 0.5 119 03:42 18.01.2021
3614 Clear -2 1018 54 10000 0.62 100 03:20 18.01.2021
3615 Clear -2 1018 54 10000 0.62 100 02:40 18.01.2021
3616 Clear -9 1018 69 10000 0.28 89 01:39 18.01.2021
3617 Clear -9 1018 68 10000 0.16 70 00:35 18.01.2021
3618 Clear -9 1017 69 10000 0.34 71 23:49 17.01.2021
3619 Clear -9 1018 69 10000 0.45 77 23:22 17.01.2021
3620 Clear -9 1018 69 10000 0.45 77 22:46 17.01.2021
3621 Clear -8 1018 69 10000 0.47 29 22:22 17.01.2021
3622 Clear -8 1018 69 10000 0.47 29 21:42 17.01.2021
3623 Clear -8 1019 69 10000 0.4 48 21:24 17.01.2021
3624 Clear -8 1019 69 10000 0.4 48 20:49 17.01.2021
3625 Clear -8 1019 69 10000 0.4 48 20:30 17.01.2021
3626 Clear -7 1019 69 10000 0.52 67 19:44 17.01.2021
3627 Clear -7 1020 68 10000 0.83 35 19:26 17.01.2021
3628 Clear -7 1019 68 10000 0.75 47 18:51 17.01.2021
3629 Clear -6 1019 65 10000 1.27 35 18:28 17.01.2021
3630 Clear -6 1019 65 10000 1.27 35 17:49 17.01.2021
3631 Clear -5 1020 61 10000 1.54 31 17:28 17.01.2021
3632 Clear -5 1020 61 10000 1.54 31 16:45 17.01.2021
3633 Clear -4 1020 59 10000 1.9 31 16:24 17.01.2021
3634 Clear -4 1020 59 10000 1.9 31 15:44 17.01.2021
3635 Clear -4 1019 60 10000 1.65 21 15:26 17.01.2021
3636 Clear -4 1019 60 10000 1.65 21 14:53 17.01.2021
3637 Clear -3 1019 61 10000 0.87 44 14:27 17.01.2021
3638 Clear -3 1019 61 10000 0.87 44 13:58 17.01.2021
3639 Clear -3 1019 61 10000 0.87 44 13:40 17.01.2021
3640 Clear -3 1018 59 10000 1.16 135 13:21 17.01.2021
3641 Clear -2 1017 58 10000 1.18 121 12:41 17.01.2021
3642 Clear 2 1015 42 10000 1.69 153 12:22 17.01.2021
3643 Clear 6 1015 31 10000 1.52 159 11:25 17.01.2021
3644 Clear 6 1015 31 10000 1.52 159 10:51 17.01.2021
3645 Clear 6 1015 30 10000 0.36 168 10:24 17.01.2021
3646 Clear 6 1015 30 10000 0.36 168 09:48 17.01.2021
3647 Clear 6 1015 32 10000 1.15 347 08:48 17.01.2021
3648 Clear 5 1017 34 10000 1.32 352 08:26 17.01.2021
3649 Clear 0 1023 53 10000 2.14 13 04:29 17.01.2021
3650 Clear -3 1024 60 10000 2.21 14 02:50 17.01.2021
3651 Clear -7 1022 75 10000 2.07 13 00:56 17.01.2021
3652 Clear -7 1020 76 10000 2.2 13 00:21 17.01.2021
3653 Clear -7 1020 76 10000 2.2 13 23:52 16.01.2021
3654 Clear -6 1020 78 10000 2.11 10 23:21 16.01.2021
3655 Clear -6 1020 78 10000 2.11 10 22:52 16.01.2021
3656 Clear -6 1019 79 10000 1.73 9 22:19 16.01.2021
3657 Clear -6 1019 79 10000 1.73 9 21:45 16.01.2021
3658 Clear -5 1019 81 10000 1.42 7 21:22 16.01.2021
3659 Clear -5 1019 81 10000 1.42 7 20:47 16.01.2021
3660 Clear -5 1018 82 10000 1.52 12 20:23 16.01.2021
3661 Clear -5 1018 82 10000 1.52 12 19:49 16.01.2021
3662 Clear -4 1017 82 10000 1.56 17 19:29 16.01.2021
3663 Clear -4 1017 83 10000 1.53 25 18:46 16.01.2021
3664 Clear -4 1017 84 10000 1.81 23 18:27 16.01.2021
3665 Clear -4 1017 84 10000 1.81 23 17:50 16.01.2021
3666 Clear -4 1017 84 10000 1.81 23 17:30 16.01.2021
3667 Clear -3 1017 84 10000 2.29 16 16:51 16.01.2021
3668 Clear -3 1017 84 10000 2.29 16 16:33 16.01.2021
3669 Clear -3 1016 84 10000 2.6 21 15:55 16.01.2021
3670 Clear -3 1016 84 10000 2.6 21 15:36 16.01.2021
3671 Clear -2 1015 83 10000 2.92 22 14:31 16.01.2021
3672 Clear -1 1014 80 10000 3.31 17 13:52 16.01.2021
3673 Clear -1 1014 80 10000 3.31 17 13:52 16.01.2021
3674 Clear -1 1014 80 10000 3.31 17 13:30 16.01.2021
3675 Clouds 1 1012 66 10000 4.12 12 12:47 16.01.2021
3676 Clouds 5 1008 44 10000 5.13 352 12:23 16.01.2021
3677 Clouds 5 1008 44 10000 5.13 352 11:55 16.01.2021
3678 Clear 9 1006 31 10000 8.1 328 11:26 16.01.2021
3679 Clear 9 1006 31 10000 8.1 328 10:51 16.01.2021
3680 Clear 9 1006 31 10000 8.1 328 10:33 16.01.2021
3681 Clear 10 1005 26 10000 8.47 315 09:54 16.01.2021
3682 Clouds 11 1005 23 10000 8.65 303 09:19 16.01.2021
3683 Clouds 11 1005 22 10000 7.93 297 08:18 16.01.2021
3684 Clouds 10 1007 28 10000 3.84 311 06:49 16.01.2021
3685 Clouds 6 1009 45 10000 1.75 14 04:53 16.01.2021
3686 Clouds 2 1012 67 10000 1.9 26 02:59 16.01.2021
3687 Clouds 2 1012 67 10000 1.9 26 02:37 16.01.2021
3688 Clouds -4 1009 77 10000 1.96 12 00:45 16.01.2021
3689 Clouds -3 1008 75 10000 1.86 6 00:21 16.01.2021
3690 Clouds -3 1008 75 10000 1.86 6 23:36 15.01.2021
3691 Clouds -2 1008 74 10000 1.8 4 22:38 15.01.2021
3692 Clouds -1 1008 73 10000 2.18 356 22:18 15.01.2021
3693 Clouds -1 1008 73 10000 2.18 356 21:42 15.01.2021
3694 Clouds 0 1008 72 10000 1.79 351 20:48 15.01.2021
3695 Clouds 1 1007 71 10000 1.69 328 20:23 15.01.2021
3696 Clouds 1 1007 71 10000 1.69 328 19:48 15.01.2021
3697 Clouds 2 1006 65 10000 1.41 300 19:28 15.01.2021
3698 Clouds 1 1006 68 10000 1.53 331 18:47 15.01.2021
3699 Clouds 2 1006 61 10000 1.13 286 18:20 15.01.2021
3700 Clouds 2 1006 61 10000 1.13 286 17:59 15.01.2021
3701 Clouds 2 1006 61 10000 1.13 286 17:40 15.01.2021
3702 Clouds 4 1007 55 10000 1.37 313 17:21 15.01.2021
3703 Clouds 4 1007 55 10000 1.37 313 17:21 15.01.2021
3704 Clouds 4 1007 55 10000 1.37 313 16:44 15.01.2021
3705 Clouds 5 1006 50 10000 2.75 298 16:23 15.01.2021
3706 Clouds 5 1006 50 10000 2.75 298 15:41 15.01.2021
3707 Clouds 7 1005 42 10000 3.28 278 15:21 15.01.2021
3708 Clouds 7 1005 42 10000 3.28 278 14:44 15.01.2021
3709 Clouds 7 1004 41 10000 3.48 267 14:25 15.01.2021
3710 Clouds 7 1004 41 10000 3.48 267 13:42 15.01.2021
3711 Clouds 6 1003 46 10000 2.52 246 13:22 15.01.2021
3712 Clouds 7 1003 42 10000 3.16 242 12:51 15.01.2021
3713 Clouds 7 1003 42 10000 3.16 242 12:31 15.01.2021
3714 Clouds 10 1001 33 10000 3.79 255 11:46 15.01.2021
3715 Clouds 14 999 25 10000 5.81 255 11:27 15.01.2021
3716 Clouds 14 999 25 10000 5.81 255 10:54 15.01.2021
3717 Clouds 14 999 25 10000 5.81 255 10:34 15.01.2021
3718 Clouds 15 999 23 10000 6.29 268 09:54 15.01.2021
3719 Clouds 15 999 23 10000 6.29 268 09:34 15.01.2021
3720 Clouds 15 999 22 10000 5.27 270 08:42 15.01.2021
3721 Clouds 14 1001 22 10000 2.78 274 08:19 15.01.2021
3722 Clouds 14 1001 22 10000 2.78 274 07:41 15.01.2021
3723 Clear 12 1004 24 10000 1.16 249 07:19 15.01.2021
3724 Clear 8 1010 31 10000 0.41 41 04:35 15.01.2021
3725 Clear -6 1014 67 10000 1.06 19 01:48 15.01.2021
3726 Clear -5 1012 66 10000 1.28 21 23:55 14.01.2021
3727 Clear -5 1013 64 10000 1.59 27 23:23 14.01.2021
3728 Clear -5 1013 64 10000 1.59 27 22:44 14.01.2021
3729 Clear -4 1013 64 10000 1.52 26 22:25 14.01.2021
3730 Clear -4 1013 64 10000 1.52 26 21:48 14.01.2021
3731 Clear -4 1013 67 10000 1.35 26 21:21 14.01.2021
3732 Clear -4 1013 67 10000 1.35 26 20:51 14.01.2021
3733 Clear -3 1013 67 10000 1.41 18 20:26 14.01.2021
3734 Clear -3 1013 67 10000 1.41 18 19:48 14.01.2021
3735 Clear -3 1013 68 10000 1.22 10 19:29 14.01.2021
3736 Clear -3 1013 68 10000 1.22 10 18:55 14.01.2021
3737 Clear -2 1013 65 10000 1.45 360 18:31 14.01.2021
3738 Clear -1 1013 66 10000 1.1 348 17:53 14.01.2021
3739 Clear -1 1013 64 10000 1.19 345 17:27 14.01.2021
3740 Clear -1 1013 64 10000 1.19 345 16:46 14.01.2021
3741 Clear 0 1012 63 10000 1.91 314 16:26 14.01.2021
3742 Clear 0 1012 63 10000 1.91 314 15:46 14.01.2021
3743 Clear 1 1011 57 10000 1.29 311 15:23 14.01.2021
3744 Clear 1 1011 57 10000 1.29 311 14:39 14.01.2021
3745 Clear 2 1010 51 10000 0.81 354 14:20 14.01.2021
3746 Clear 2 1010 51 10000 0.81 354 13:54 14.01.2021
3747 Clear 2 1008 52 10000 1.08 22 13:22 14.01.2021
3748 Clear 2 1008 52 10000 1.08 22 12:54 14.01.2021
3749 Clear 6 1005 37 10000 1.05 356 12:21 14.01.2021
3750 Clear 6 1005 37 10000 1.05 356 11:53 14.01.2021
3751 Clear 12 1003 22 10000 1.52 318 11:21 14.01.2021
3752 Clear 12 1003 22 10000 1.52 318 10:57 14.01.2021
3753 Clear 12 1003 22 10000 1.52 318 10:38 14.01.2021
3754 Clear 12 1003 21 10000 1.1 319 10:18 14.01.2021
3755 Clear 12 1003 21 10000 1.1 319 09:41 14.01.2021
3756 Clear 11 1003 22 10000 0.13 4 09:19 14.01.2021
3757 Clear 10 1005 24 10000 0.6 326 08:28 14.01.2021
3758 Clear 10 1005 24 10000 0.6 326 07:51 14.01.2021
3759 Clear 8 1007 26 10000 0.13 27 07:28 14.01.2021
3760 Clear 5 1011 32 10000 0.46 14 06:24 14.01.2021
3761 Clear 1 1016 40 10000 0.36 34 04:24 14.01.2021
3762 Clear -7 1016 59 10000 1.55 37 23:57 13.01.2021
3763 Clear -7 1017 59 10000 1.63 38 23:24 13.01.2021
3764 Clear -7 1017 59 10000 1.63 38 22:48 13.01.2021
3765 Clear -6 1017 56 10000 1.91 31 22:20 13.01.2021
3766 Clear -6 1017 56 10000 1.91 31 21:43 13.01.2021
3767 Clear -6 1017 55 10000 2.02 29 21:19 13.01.2021
3768 Clear -6 1017 55 10000 2.02 29 20:48 13.01.2021
3769 Clear -5 1017 56 10000 2.34 31 20:22 13.01.2021
3770 Clear -5 1017 56 10000 2.34 31 19:47 13.01.2021
3771 Clear -4 1017 57 10000 2.49 22 19:23 13.01.2021
3772 Clear -4 1017 61 10000 2.46 21 18:45 13.01.2021
3773 Clear -4 1016 62 10000 2.84 20 18:23 13.01.2021
3774 Clear -4 1016 62 10000 2.84 20 17:41 13.01.2021
3775 Clear -3 1016 63 10000 3.18 20 17:18 13.01.2021
3776 Clear -3 1016 63 10000 3.18 20 16:41 13.01.2021
3777 Clear -2 1015 64 10000 3.38 18 16:21 13.01.2021
3778 Clear -2 1015 64 10000 3.38 18 15:40 13.01.2021
3779 Clear -1 1013 63 10000 3.45 12 15:20 13.01.2021
3780 Clear 0 1011 62 10000 3.35 14 14:28 13.01.2021
3781 Clear 0 1011 62 10000 3.35 14 13:46 13.01.2021
3782 Clear 1 1009 54 10000 3.29 19 13:21 13.01.2021
3783 Clear 2 1009 53 10000 3.66 13 12:45 13.01.2021
3784 Clear 5 1006 42 10000 3.03 19 12:24 13.01.2021
3785 Clear 5 1006 42 10000 3.03 19 11:50 13.01.2021
3786 Clear 5 1006 42 10000 3.03 19 11:32 13.01.2021
3787 Clear 9 1004 30 10000 3.36 25 10:48 13.01.2021
3788 Clear 10 1003 28 10000 3.04 24 10:27 13.01.2021
3789 Clear 10 1003 28 10000 3.04 24 09:40 13.01.2021
3790 Clear 9 1003 28 10000 2.16 11 08:58 13.01.2021
3791 Clear 9 1003 28 10000 2.16 11 08:38 13.01.2021
3792 Clear 9 1005 29 10000 1.79 17 08:20 13.01.2021
3793 Clear 8 1007 30 10000 2.01 22 07:28 13.01.2021
3794 Clear 6 1010 34 10000 2.19 36 05:52 13.01.2021
3795 Clear 2 1013 44 10000 1.78 29 04:18 13.01.2021
3796 Clear 2 1013 44 10000 1.78 29 03:43 13.01.2021
3797 Clear -1 1014 54 10000 1.63 34 03:21 13.01.2021
3798 Clear -7 1013 67 10000 1.54 25 00:48 13.01.2021
3799 Clear -7 1012 69 10000 1.44 18 23:43 12.01.2021
3800 Clear -6 1012 69 10000 1 26 22:58 12.01.2021
3801 Clear -6 1012 69 10000 1 26 22:39 12.01.2021
3802 Clear -6 1012 69 10000 1.14 25 22:19 12.01.2021
3803 Clear -6 1012 69 10000 1.14 25 21:43 12.01.2021
3804 Clear -5 1012 69 10000 1.46 14 21:24 12.01.2021
3805 Clear -5 1012 69 10000 1.46 14 20:47 12.01.2021
3806 Clear -4 1012 66 10000 1.62 22 20:27 12.01.2021
3807 Clear -4 1012 66 10000 1.62 22 19:44 12.01.2021
3808 Clear -3 1011 63 10000 1.86 21 18:59 12.01.2021
3809 Clear -3 1011 66 10000 2.03 17 18:41 12.01.2021
3810 Clear -2 1010 66 10000 2.33 13 18:21 12.01.2021
3811 Clear -2 1010 66 10000 2.33 13 17:34 12.01.2021
3812 Clear -1 1010 63 10000 2.4 16 16:56 12.01.2021
3813 Clear -1 1010 63 10000 2.4 16 16:38 12.01.2021
3814 Clear -1 1009 62 10000 2.81 14 16:18 12.01.2021
3815 Clear -1 1009 62 10000 2.81 14 16:18 12.01.2021
3816 Clear 1 1008 54 10000 3.72 11 15:29 12.01.2021
3817 Clear 1 1008 54 10000 3.72 11 14:58 12.01.2021
3818 Clear 1 1008 54 10000 3.72 11 14:39 12.01.2021
3819 Clear 3 1006 45 10000 3.88 350 14:19 12.01.2021
3820 Clear 3 1006 45 10000 3.88 350 13:46 12.01.2021
3821 Clear 2 1003 60 10000 1.85 20 12:40 12.01.2021
3822 Clear 5 1001 48 10000 0.12 280 12:21 12.01.2021
3823 Clear 5 1001 48 10000 0.12 280 11:40 12.01.2021
3824 Clear 12 998 26 10000 2.59 252 10:50 12.01.2021
3825 Clear 13 998 25 10000 2.89 243 10:20 12.01.2021
3826 Clear 13 998 25 10000 2.89 243 09:55 12.01.2021
3827 Clear 12 999 28 10000 2.17 242 09:26 12.01.2021
3828 Clear 12 999 28 10000 2.17 242 08:42 12.01.2021
3829 Clear 11 1000 33 10000 1.9 204 08:23 12.01.2021
3830 Clear 11 1000 33 10000 1.9 204 07:35 12.01.2021
3831 Clear 6 1006 51 10000 1.84 188 06:26 12.01.2021
3832 Clear 6 1006 51 10000 1.84 188 05:30 12.01.2021
3833 Clear -1 1012 79 10000 1.32 181 03:26 12.01.2021
3834 Clear -6 1011 83 10000 1.32 166 02:19 12.01.2021
3835 Clear -6 1010 82 10000 1.53 164 01:28 12.01.2021
3836 Clear -6 1009 82 10000 1.4 163 23:54 11.01.2021
3837 Clear -5 1009 80 10000 1.66 156 23:23 11.01.2021
3838 Clear -5 1009 80 10000 1.66 156 22:59 11.01.2021
3839 Clear -5 1009 80 10000 1.66 156 22:40 11.01.2021
3840 Clear -5 1009 80 10000 1.41 131 22:19 11.01.2021
3841 Clear -5 1009 80 10000 1.41 131 21:38 11.01.2021
3842 Clear -4 1010 78 10000 0.82 126 21:20 11.01.2021
3843 Clear -4 1010 78 10000 0.82 126 20:41 11.01.2021
3844 Clear -3 1009 75 10000 1.04 132 20:23 11.01.2021
3845 Clear -3 1009 75 10000 1.04 132 19:55 11.01.2021
3846 Clear -4 1009 75 10000 0.36 93 19:25 11.01.2021
3847 Clear -4 1009 75 10000 0.36 93 18:45 11.01.2021
3848 Clear -4 1009 75 10000 0.36 93 18:45 11.01.2021
3849 Clear -3 1009 75 10000 0.37 31 18:26 11.01.2021
3850 Clear -3 1009 75 10000 0.37 31 17:54 11.01.2021
3851 Clear -3 1009 75 10000 0.37 31 17:36 11.01.2021
3852 Clear -2 1009 74 10000 0.87 349 17:18 11.01.2021
3853 Clear -2 1009 74 10000 0.87 349 16:38 11.01.2021
3854 Clear -1 1008 68 10000 1.11 337 16:19 11.01.2021
3855 Clear -1 1008 68 10000 1.11 337 15:47 11.01.2021
3856 Clear 0 1007 66 10000 1.23 323 15:26 11.01.2021
3857 Clear 0 1007 66 10000 1.23 323 14:39 11.01.2021
3858 Clear 2 1006 56 10000 1.69 292 13:50 11.01.2021
3859 Clear 2 1004 59 10000 1.16 251 13:26 11.01.2021
3860 Clear 2 1004 59 10000 1.16 251 12:51 11.01.2021
3861 Clear 2 1004 56 10000 1.47 204 12:32 11.01.2021
3862 Clear 6 1002 45 10000 1.29 193 11:56 11.01.2021
3863 Clear 6 1002 45 10000 1.29 193 11:34 11.01.2021
3864 Clear 13 1000 21 10000 1.2 244 10:51 11.01.2021
3865 Clear 14 1000 19 10000 1.42 235 10:25 11.01.2021
3866 Clear 14 1000 19 10000 1.42 235 09:43 11.01.2021
3867 Clear 13 1000 19 10000 1.28 246 09:21 11.01.2021
3868 Clear 13 1000 19 10000 1.28 246 08:45 11.01.2021
3869 Clear 12 1001 21 10000 0.93 199 08:18 11.01.2021
3870 Clear 11 1004 24 10000 0.43 177 07:28 11.01.2021
3871 Clear 11 1004 24 10000 0.43 177 06:58 11.01.2021
3872 Clear 8 1007 28 10000 0.38 31 06:23 11.01.2021
3873 Clear -6 1010 67 10000 1.56 36 01:46 11.01.2021
3874 Clear -6 1009 67 10000 1.47 23 00:38 11.01.2021
3875 Clear -5 1008 66 10000 1.34 21 23:36 10.01.2021
3876 Clear -5 1009 67 10000 0.99 6 22:49 10.01.2021
3877 Clear -5 1009 67 10000 1.36 5 22:27 10.01.2021
3878 Clear -5 1009 67 10000 1.36 5 21:46 10.01.2021
3879 Clear -4 1008 66 10000 1.4 356 21:21 10.01.2021
3880 Clear -4 1008 66 10000 1.4 356 20:57 10.01.2021
3881 Clear -4 1008 66 10000 1.4 356 20:33 10.01.2021
3882 Clear -3 1008 66 10000 0.79 353 19:58 10.01.2021
3883 Clear -3 1008 66 10000 0.79 353 19:36 10.01.2021
3884 Clear -2 1008 65 10000 1.35 327 19:18 10.01.2021
3885 Clear -3 1008 63 10000 1.19 322 18:41 10.01.2021
3886 Clear -1 1008 62 10000 1.93 277 18:19 10.01.2021
3887 Clear 0 1008 61 10000 2.06 263 17:22 10.01.2021
3888 Clear 0 1008 61 10000 2.06 263 16:37 10.01.2021
3889 Clear 1 1007 58 10000 2.2 275 16:18 10.01.2021
3890 Clear 3 1005 41 10000 3.02 261 15:25 10.01.2021
3891 Clear 3 1005 41 10000 3.02 261 14:52 10.01.2021
3892 Clear 3 1005 41 10000 3.02 261 14:33 10.01.2021
3893 Clear 4 1004 38 10000 3.74 243 13:55 10.01.2021
3894 Clear 4 1004 38 10000 3.74 243 13:37 10.01.2021
3895 Clear 4 1004 38 10000 3.74 243 13:37 10.01.2021
3896 Clear 5 1002 37 10000 3.26 239 13:19 10.01.2021
3897 Clear 5 1002 37 10000 3.26 239 12:50 10.01.2021
3898 Clear 4 1002 39 10000 2.84 254 12:32 10.01.2021
3899 Clear 8 999 36 10000 2.93 237 11:44 10.01.2021
3900 Clear 14 997 19 10000 4.5 254 11:19 10.01.2021
3901 Clear 14 997 19 10000 4.5 254 10:42 10.01.2021
3902 Clear 15 996 18 10000 4.79 262 10:21 10.01.2021
3903 Clear 15 997 19 10000 3.89 256 09:28 10.01.2021
3904 Clear 14 998 21 10000 2.85 255 08:22 10.01.2021
3905 Clear 14 998 21 10000 2.85 255 07:37 10.01.2021
3906 Clear 9 1003 33 10000 1.99 211 06:21 10.01.2021
3907 Clear 9 1003 33 10000 1.99 211 05:41 10.01.2021
3908 Clear 5 1008 44 10000 1.38 206 03:56 10.01.2021
3909 Clear -6 1009 72 10000 0.52 207 01:30 10.01.2021
3910 Clear -5 1008 70 10000 0.56 176 23:58 09.01.2021
3911 Clear -5 1008 70 10000 0.56 176 23:40 09.01.2021
3912 Clear -4 1008 68 10000 0.81 194 22:50 09.01.2021
3913 Clear -4 1008 67 10000 1.05 197 22:19 09.01.2021
3914 Clear -4 1008 67 10000 1.05 197 21:58 09.01.2021
3915 Clear -4 1008 67 10000 1.05 197 21:39 09.01.2021
3916 Clear -4 1008 69 10000 0.56 201 21:20 09.01.2021
3917 Clear -4 1008 69 10000 0.56 201 20:46 09.01.2021
3918 Clear -3 1008 67 10000 0.48 216 20:27 09.01.2021
3919 Clear -3 1008 67 10000 0.48 216 19:39 09.01.2021
3920 Clouds -3 1008 67 10000 0.64 221 19:19 09.01.2021
3921 Clouds -2 1008 68 10000 0.88 218 18:36 09.01.2021
3922 Clouds -1 1008 65 10000 1.41 214 17:51 09.01.2021
3923 Clouds -1 1008 65 10000 1.41 214 17:32 09.01.2021
3924 Clouds 0 1008 62 10000 1.83 223 16:55 09.01.2021
3925 Clouds 1 1008 57 10000 2.17 244 16:22 09.01.2021
3926 Clouds 1 1008 57 10000 2.17 244 15:41 09.01.2021
3927 Clouds 2 1006 54 10000 2.51 248 14:56 09.01.2021
3928 Clouds 2 1006 54 10000 2.51 248 14:36 09.01.2021
3929 Clouds 3 1005 47 10000 2.87 241 14:18 09.01.2021
3930 Clouds 3 1005 47 10000 2.87 241 13:43 09.01.2021
3931 Clear 3 1003 49 10000 2.65 225 13:24 09.01.2021
3932 Clear 6 1001 46 10000 2.13 215 12:28 09.01.2021
3933 Clear 6 1001 46 10000 2.13 215 11:58 09.01.2021
3934 Clear 6 1001 46 10000 2.13 215 11:37 09.01.2021
3935 Clear 6 1001 46 10000 2.13 215 11:37 09.01.2021
3936 Clear 12 1000 27 10000 2.8 229 10:57 09.01.2021
3937 Clear 12 1000 27 10000 2.8 229 10:38 09.01.2021
3938 Clear 12 1000 27 10000 2.3 230 10:19 09.01.2021
3939 Clear 12 1000 27 10000 2.3 230 09:43 09.01.2021
3940 Clear 12 1000 30 10000 1.57 218 09:19 09.01.2021
3941 Clear 11 1002 33 10000 1.14 211 07:48 09.01.2021
3942 Clouds 9 1004 39 10000 1.22 221 06:42 09.01.2021
3943 Clouds 7 1007 45 10000 1.6 210 06:23 09.01.2021
3944 Clouds 3 1011 59 10000 1.4 205 03:49 09.01.2021
3945 Clouds 0 1013 71 10000 1.29 194 02:40 09.01.2021
3946 Clouds -6 1012 81 10000 1.15 183 02:22 09.01.2021
3947 Clouds -5 1012 80 10000 1.49 183 01:24 09.01.2021
3948 Clouds -5 1012 80 10000 1.55 186 00:33 09.01.2021
3949 Clouds -4 1012 79 10000 2.01 185 23:45 08.01.2021
3950 Clouds -4 1012 77 10000 2.07 183 22:43 08.01.2021
3951 Clouds -3 1012 76 10000 1.92 185 21:52 08.01.2021
3952 Clouds -3 1012 75 10000 1.97 186 21:19 08.01.2021
3953 Clouds -3 1012 75 10000 1.97 186 20:37 08.01.2021
3954 Clouds -2 1012 73 10000 1.99 188 19:58 08.01.2021
3955 Clouds -1 1011 71 10000 1.91 195 19:25 08.01.2021
3956 Clouds -1 1011 71 10000 1.91 195 18:54 08.01.2021
3957 Clouds -1 1011 70 10000 2.11 193 18:54 08.01.2021
3958 Clouds -1 1011 70 10000 2.11 193 18:32 08.01.2021
3959 Clear -1 1011 70 10000 1.83 197 17:54 08.01.2021
3960 Clear 0 1011 68 10000 1.75 207 17:25 08.01.2021
3961 Clear 0 1011 68 10000 1.75 207 16:48 08.01.2021
3962 Clear 0 1011 63 10000 1.79 212 15:49 08.01.2021
3963 Clear 0 1010 67 10000 1.54 221 15:29 08.01.2021
3964 Clear 0 1010 67 10000 1.54 221 14:40 08.01.2021
3965 Clear 1 1009 65 10000 1.63 215 13:55 08.01.2021
3966 Clouds 1 1007 65 10000 1.28 221 13:22 08.01.2021
3967 Clouds 1 1007 68 10000 1.26 208 12:52 08.01.2021
3968 Clouds 4 1005 50 10000 1.34 221 12:22 08.01.2021
3969 Clouds 4 1005 50 10000 1.34 221 11:50 08.01.2021
3970 Clouds 4 1005 50 10000 1.34 221 11:30 08.01.2021
3971 Clouds 11 1003 27 10000 2.12 218 10:56 08.01.2021
3972 Clouds 11 1003 27 10000 2.12 218 10:38 08.01.2021
3973 Clear 12 1003 25 10000 2.31 222 09:53 08.01.2021
3974 Clear 12 1003 25 10000 2.31 222 09:34 08.01.2021
3975 Clouds 11 1003 26 10000 2.22 211 08:41 08.01.2021
3976 Clear 10 1007 30 10000 1.66 210 07:29 08.01.2021
3977 Clear 9 1007 30 10000 1.58 215 06:40 08.01.2021
3978 Clear -7 1012 70 10000 0.34 234 00:32 08.01.2021
3979 Clear -6 1012 70 10000 0.25 244 23:41 07.01.2021
3980 Clear -6 1012 70 10000 0.34 293 22:51 07.01.2021
3981 Clear -6 1012 70 10000 0.34 293 22:33 07.01.2021
3982 Clear -5 1013 71 10000 0.2 316 21:49 07.01.2021
3983 Clear -5 1012 71 10000 0.23 277 21:29 07.01.2021
3984 Clear -5 1012 71 10000 0.23 277 20:48 07.01.2021
3985 Clear -4 1012 71 10000 0.36 277 20:29 07.01.2021
3986 Clear -4 1012 71 10000 0.36 277 19:47 07.01.2021
3987 Clear -4 1012 71 10000 0.36 277 19:47 07.01.2021
3988 Clear -3 1012 70 10000 0.82 279 19:24 07.01.2021
3989 Clear -3 1012 70 10000 0.82 279 18:46 07.01.2021
3990 Clear -3 1013 72 10000 0.96 263 18:20 07.01.2021
3991 Clear -3 1013 72 10000 0.96 263 17:34 07.01.2021
3992 Clear -2 1013 71 10000 1.35 257 16:56 07.01.2021
3993 Clear -2 1013 71 10000 1.35 257 16:32 07.01.2021
3994 Clear -1 1012 67 10000 1.56 243 15:52 07.01.2021
3995 Clear -1 1012 67 10000 1.56 243 15:30 07.01.2021
3996 Clear 0 1011 66 10000 1.89 246 14:32 07.01.2021
3997 Clear 1 1011 62 10000 1.67 238 13:58 07.01.2021
3998 Clear 1 1011 62 10000 1.67 238 13:30 07.01.2021
3999 Clear 1 1009 64 10000 1.59 212 12:55 07.01.2021
4000 Clear 3 1007 50 10000 1.2 215 12:23 07.01.2021
4001 Clear 3 1007 50 10000 1.2 215 11:41 07.01.2021
4002 Clear 10 1005 31 10000 1.81 246 11:23 07.01.2021
4003 Clear 10 1005 31 10000 1.81 246 10:37 07.01.2021
4004 Clear 10 1005 31 10000 1.92 236 10:18 07.01.2021
4005 Clear 10 1005 31 10000 1.92 236 09:41 07.01.2021
4006 Clear 10 1005 33 10000 1.93 229 08:51 07.01.2021
4007 Clear 9 1006 36 10000 1.98 218 08:23 07.01.2021
4008 Clear 9 1006 36 10000 1.98 218 07:43 07.01.2021
4009 Clear 8 1009 42 10000 1.94 211 06:50 07.01.2021
4010 Clear -5 1016 87 10000 1.51 179 02:19 07.01.2021
4011 Clear -4 1014 86 10000 1.78 178 00:25 07.01.2021
4012 Clear -4 1014 86 10000 1.78 178 23:31 06.01.2021
4013 Clear -4 1013 86 10000 1.92 174 22:36 06.01.2021
4014 Clear -3 1013 85 10000 2.03 178 21:42 06.01.2021
4015 Clear -2 1013 85 10000 2.27 185 21:22 06.01.2021
4016 Clear -2 1013 85 10000 2.27 185 20:50 06.01.2021
4017 Clear -2 1012 84 10000 2.37 186 20:22 06.01.2021
4018 Clear -2 1012 84 10000 2.37 186 19:48 06.01.2021
4019 Clear -1 1012 82 10000 2.52 187 19:29 06.01.2021
4020 Clear -1 1012 82 10000 2.52 187 18:50 06.01.2021
4021 Clear -1 1012 82 10000 2.52 187 18:32 06.01.2021
4022 Clear 0 1012 82 10000 2.51 186 17:47 06.01.2021
4023 Clear 1 1012 78 10000 2.49 187 17:28 06.01.2021
4024 Clear 1 1012 78 10000 2.49 187 16:59 06.01.2021
4025 Clear 1 1012 78 10000 2.49 187 16:36 06.01.2021
4026 Clear 1 1011 74 10000 2.42 191 16:18 06.01.2021
4027 Clear 1 1011 74 10000 2.42 191 15:43 06.01.2021
4028 Clear 2 1010 73 10000 2.29 197 15:23 06.01.2021
4029 Clear 2 1010 73 10000 2.29 197 14:32 06.01.2021
4030 Clear 2 1009 72 10000 2.19 200 13:55 06.01.2021
4031 Clouds 3 1007 67 10000 1.78 205 13:27 06.01.2021
4032 Clouds 3 1007 67 10000 1.78 205 12:58 06.01.2021
4033 Clouds 3 1007 69 10000 2.15 221 12:32 06.01.2021
4034 Clouds 6 1004 56 10000 1.73 220 11:46 06.01.2021
4035 Clouds 10 1003 42 10000 2.8 212 11:23 06.01.2021
4036 Clouds 10 1003 42 10000 2.8 212 10:43 06.01.2021
4037 Clouds 10 1003 40 10000 3.31 209 09:52 06.01.2021
4038 Clouds 10 1003 40 10000 3.31 209 09:32 06.01.2021
4039 Clouds 10 1003 41 10000 3.24 208 08:52 06.01.2021
4040 Clouds 10 1005 43 10000 2.86 204 08:19 06.01.2021
4041 Clouds 10 1005 43 10000 2.86 204 07:52 06.01.2021
4042 Clouds 8 1008 50 10000 2.04 209 06:44 06.01.2021
4043 Clouds 7 1011 56 10000 1.71 201 05:30 06.01.2021
4044 Clouds 3 1015 73 10000 1.06 185 04:18 06.01.2021
4045 Clouds 1 1016 83 10000 0.97 175 02:43 06.01.2021
4046 Clouds -2 1016 91 10000 0.97 174 02:21 06.01.2021
4047 Clouds -2 1015 91 10000 0.85 164 23:57 05.01.2021
4048 Clouds -2 1015 91 10000 0.92 173 22:57 05.01.2021
4049 Clouds -2 1015 91 10000 0.92 173 22:39 05.01.2021
4050 Clouds -1 1016 91 10000 1.13 182 22:19 05.01.2021
4051 Clouds -1 1016 91 10000 1.13 182 21:34 05.01.2021
4052 Clouds -1 1016 91 10000 1.14 186 20:31 05.01.2021
4053 Clouds -1 1016 91 10000 0.75 150 19:59 05.01.2021
4054 Clouds -1 1016 91 10000 0.75 150 19:40 05.01.2021
4055 Clouds 0 1017 91 10000 0.46 145 19:20 05.01.2021
4056 Clouds -1 1016 91 10000 0.52 207 18:42 05.01.2021
4057 Clouds -1 1017 91 10000 0.28 129 18:19 05.01.2021
4058 Clouds -1 1017 91 10000 0.28 129 17:42 05.01.2021
4059 Clouds -1 1017 91 10000 0.53 76 17:21 05.01.2021
4060 Clouds -1 1017 91 10000 0.53 76 16:45 05.01.2021
4061 Clouds 2 1017 82 10000 1.13 60 16:21 05.01.2021
4062 Clouds 2 1017 82 10000 1.13 60 15:49 05.01.2021
4063 Clouds 2 1017 78 10000 1.35 29 14:49 05.01.2021
4064 Clouds 2 1016 80 10000 1.65 1 14:20 05.01.2021
4065 Clouds 2 1016 80 10000 1.65 1 13:44 05.01.2021
4066 Clouds 3 1015 76 10000 2 5 13:21 05.01.2021
4067 Clouds 4 1014 68 10000 1.61 19 12:47 05.01.2021
4068 Clouds 5 1012 63 10000 1.74 10 12:21 05.01.2021
4069 Clouds 5 1012 63 10000 1.74 10 11:38 05.01.2021
4070 Clouds 5 1012 63 10000 1.74 10 11:31 05.01.2021
4071 Clouds 8 1011 48 10000 2.02 11 10:45 05.01.2021
4072 Clouds 9 1011 46 10000 0.75 308 10:25 05.01.2021
4073 Clouds 9 1011 46 10000 0.75 308 09:47 05.01.2021
4074 Clouds 9 1011 46 10000 1.45 249 09:26 05.01.2021
4075 Clouds 9 1012 46 10000 1.9 241 08:23 05.01.2021
4076 Clouds 7 1014 52 10000 0.5 290 06:39 05.01.2021
4077 Clouds 3 1020 73 10000 2.01 355 03:48 05.01.2021
4078 Clouds -2 1019 84 10000 1.51 329 00:45 05.01.2021
4079 Clouds -3 1018 85 10000 0.61 291 23:44 04.01.2021
4080 Clouds -3 1018 84 10000 0.72 270 23:24 04.01.2021
4081 Clouds -3 1018 84 10000 0.72 270 22:49 04.01.2021
4082 Clouds -2 1018 84 10000 0.63 225 22:22 04.01.2021
4083 Clouds -2 1018 84 10000 0.63 225 21:45 04.01.2021
4084 Clouds -2 1018 84 10000 0.84 242 21:25 04.01.2021
4085 Clouds -2 1018 84 10000 0.84 242 20:43 04.01.2021
4086 Clouds -1 1018 84 10000 0.96 254 20:22 04.01.2021
4087 Clouds -1 1018 84 10000 0.96 254 19:48 04.01.2021
4088 Clouds 0 1018 82 10000 1.32 263 19:24 04.01.2021
4089 Clouds 0 1018 82 10000 1.32 263 18:48 04.01.2021
4090 Clouds 0 1018 79 10000 1.5 230 18:23 04.01.2021
4091 Clouds 0 1018 79 10000 1.5 230 17:41 04.01.2021
4092 Clouds 0 1017 79 10000 1.25 234 17:22 04.01.2021
4093 Clouds 0 1017 79 10000 1.25 234 16:46 04.01.2021
4094 Clouds 1 1017 75 10000 1.09 225 16:26 04.01.2021
4095 Clouds 1 1017 75 10000 1.09 225 15:49 04.01.2021
4096 Clouds 1 1016 70 10000 1.45 241 15:27 04.01.2021
4097 Clouds 1 1016 70 10000 1.45 241 15:27 04.01.2021
4098 Clouds 1 1016 70 10000 1.45 241 14:34 04.01.2021
4099 Clouds 2 1015 63 10000 1.75 229 13:46 04.01.2021
4100 Clouds 3 1013 58 10000 1.79 246 13:23 04.01.2021
4101 Clouds 3 1013 58 10000 1.79 246 12:38 04.01.2021
4102 Clouds 6 1010 46 10000 2.04 265 11:58 04.01.2021
4103 Clouds 12 1008 30 10000 4.89 254 11:22 04.01.2021
4104 Clouds 12 1008 30 10000 4.89 254 10:48 04.01.2021
4105 Clouds 13 1008 28 10000 6.84 249 10:27 04.01.2021
4106 Clouds 13 1008 28 10000 6.84 249 09:51 04.01.2021
4107 Clouds 13 1008 27 10000 7.26 247 09:19 04.01.2021
4108 Clouds 13 1008 27 10000 7.26 247 08:45 04.01.2021
4109 Clouds 13 1010 27 10000 5.57 246 07:55 04.01.2021
4110 Clouds 13 1010 27 10000 5.57 246 07:31 04.01.2021
4111 Clear 9 1014 34 10000 1.84 223 05:32 04.01.2021
4112 Clear 2 1019 54 10000 0.65 191 02:45 04.01.2021
4113 Clouds -5 1017 72 10000 0.22 194 00:40 04.01.2021
4114 Clouds -5 1016 72 10000 0.43 205 23:49 03.01.2021
4115 Clouds -5 1016 72 10000 0.46 222 23:21 03.01.2021
4116 Clouds -5 1016 72 10000 0.46 222 22:52 03.01.2021
4117 Clouds -5 1016 72 10000 0.46 222 22:30 03.01.2021
4118 Clouds -4 1016 72 10000 0.62 217 21:48 03.01.2021
4119 Clouds -4 1016 71 10000 0.76 221 21:26 03.01.2021
4120 Clouds -4 1016 71 10000 0.76 221 20:45 03.01.2021
4121 Clouds -3 1016 70 10000 1.05 222 20:26 03.01.2021
4122 Clouds -3 1016 70 10000 1.05 222 19:55 03.01.2021
4123 Clouds -3 1016 70 10000 1.05 222 19:34 03.01.2021
4124 Clouds -3 1016 69 10000 1.12 221 18:56 03.01.2021
4125 Clear -3 1015 69 10000 0.89 209 18:38 03.01.2021
4126 Clear -3 1015 69 10000 0.9 222 18:18 03.01.2021
4127 Clear -3 1015 69 10000 0.9 222 17:41 03.01.2021
4128 Clouds -2 1016 69 10000 0.94 236 17:22 03.01.2021
4129 Clouds -2 1016 69 10000 0.94 236 16:42 03.01.2021
4130 Clouds -1 1015 67 10000 1.35 250 16:19 03.01.2021
4131 Clouds -1 1015 67 10000 1.35 250 15:46 03.01.2021
4132 Clouds 0 1015 58 10000 1.79 261 15:26 03.01.2021
4133 Clouds 0 1015 58 10000 1.79 261 14:50 03.01.2021
4134 Clouds 1 1014 51 10000 2.38 264 14:27 03.01.2021
4135 Clouds 1 1014 51 10000 2.38 264 13:40 03.01.2021
4136 Clouds 3 1013 46 10000 2.9 268 13:21 03.01.2021
4137 Clear 6 1009 38 10000 4.67 268 12:24 03.01.2021
4138 Clear 6 1009 38 10000 4.67 268 11:42 03.01.2021
4139 Clear 11 1007 26 10000 8.99 266 11:24 03.01.2021
4140 Clear 11 1007 26 10000 8.99 266 10:34 03.01.2021
4141 Clear 12 1007 24 10000 10.09 265 09:55 03.01.2021
4142 Clear 12 1007 24 10000 10.09 265 09:33 03.01.2021
4143 Clear 12 1007 24 10000 8.91 260 08:57 03.01.2021
4144 Clear 11 1010 25 10000 4.85 247 07:26 03.01.2021
4145 Clear 8 1012 30 10000 2.48 222 05:53 03.01.2021
4146 Clear -7 1017 70 10000 0.42 253 02:27 03.01.2021
4147 Clear -7 1017 70 10000 0.42 253 02:27 03.01.2021
4148 Clouds -6 1016 67 10000 1.17 233 00:59 03.01.2021
4149 Clouds -5 1015 68 10000 1.38 213 23:54 02.01.2021
4150 Clouds -5 1015 68 10000 1.23 217 23:26 02.01.2021
4151 Clouds -5 1015 68 10000 1.23 217 22:50 02.01.2021
4152 Clouds -5 1015 68 10000 1.23 217 22:31 02.01.2021
4153 Clouds -4 1015 67 10000 1.12 211 21:49 02.01.2021
4154 Clouds -4 1014 66 10000 1.43 208 21:30 02.01.2021
4155 Clouds -4 1014 66 10000 1.43 208 20:49 02.01.2021
4156 Clouds -3 1015 64 10000 1.7 216 20:27 02.01.2021
4157 Clouds -3 1015 64 10000 1.7 216 19:49 02.01.2021
4158 Clear -2 1015 62 10000 2.07 220 19:20 02.01.2021
4159 Clouds -2 1014 63 10000 1.95 212 18:53 02.01.2021
4160 Clear -2 1015 62 10000 2.07 220 18:33 02.01.2021
4161 Clouds -2 1014 59 10000 2.21 212 17:56 02.01.2021
4162 Clouds -2 1014 59 10000 2.21 212 17:37 02.01.2021
4163 Clouds -1 1015 57 10000 2.37 221 16:48 02.01.2021
4164 Clouds 0 1014 58 10000 2.56 225 16:22 02.01.2021
4165 Clouds 0 1014 58 10000 2.56 225 15:50 02.01.2021
4166 Clouds 0 1013 57 10000 2.51 250 15:28 02.01.2021
4167 Clouds 0 1013 57 10000 2.51 250 14:47 02.01.2021
4168 Clear 1 1012 51 10000 2.72 265 14:26 02.01.2021
4169 Clear 1 1012 51 10000 2.72 265 13:44 02.01.2021
4170 Clear 1 1012 51 10000 2.72 265 13:44 02.01.2021
4171 Clouds 3 1011 43 10000 3.55 260 12:59 02.01.2021
4172 Clouds 3 1011 43 10000 3.55 260 12:40 02.01.2021
4173 Clouds 6 1007 35 10000 4.26 257 12:19 02.01.2021
4174 Clouds 6 1007 35 10000 4.26 257 11:38 02.01.2021
4175 Clouds 10 1005 25 10000 8.69 259 11:20 02.01.2021
4176 Clouds 10 1005 25 10000 8.69 259 10:41 02.01.2021
4177 Clouds 11 1004 23 10000 10.32 264 10:23 02.01.2021
4178 Clouds 11 1004 23 10000 10.32 264 09:43 02.01.2021
4179 Clouds 12 1005 23 10000 10.31 261 09:20 02.01.2021
4180 Clouds 12 1005 23 10000 10.31 261 08:48 02.01.2021
4181 Clouds 11 1006 24 10000 9.12 259 08:19 02.01.2021
4182 Clear 11 1008 26 10000 6.47 261 07:25 02.01.2021
4183 Clear 11 1008 26 10000 6.47 261 06:58 02.01.2021
4184 Clear 8 1011 34 10000 3.11 237 05:57 02.01.2021
4185 Clear 0 1017 63 10000 1.83 187 02:52 02.01.2021
4186 Clear -6 1015 71 10000 1.6 192 00:43 02.01.2021
4187 Clear -6 1014 69 10000 1.69 185 00:23 02.01.2021
4188 Clear -6 1014 69 10000 1.69 185 23:39 01.01.2021
4189 Clear -5 1014 68 10000 1.74 189 23:19 01.01.2021
4190 Clear -5 1014 68 10000 1.74 189 22:46 01.01.2021
4191 Clear -4 1014 66 10000 2.09 190 22:21 01.01.2021
4192 Clear -4 1014 66 10000 2.09 190 21:43 01.01.2021
4193 Clear -4 1014 65 10000 1.9 189 21:20 01.01.2021
4194 Clear -4 1014 65 10000 1.9 189 20:50 01.01.2021
4195 Clear -4 1014 66 10000 1.74 195 20:19 01.01.2021
4196 Clear -4 1014 66 10000 1.74 195 19:42 01.01.2021
4197 Clear -3 1015 63 10000 1.65 201 19:22 01.01.2021
4198 Clear -3 1014 63 10000 1.83 198 18:49 01.01.2021
4199 Clear -3 1014 63 10000 1.83 198 18:31 01.01.2021
4200 Clear -2 1014 61 10000 2.01 201 17:59 01.01.2021
4201 Clear -2 1014 61 10000 2.01 201 17:40 01.01.2021
4202 Clear -2 1014 60 10000 2.28 208 17:18 01.01.2021
4203 Clear -2 1014 60 10000 2.28 208 16:36 01.01.2021
4204 Clear -1 1014 57 10000 2.26 212 15:45 01.01.2021
4205 Clear 0 1013 56 10000 2.25 224 14:52 01.01.2021
4206 Clear 0 1013 56 10000 2.25 224 14:33 01.01.2021
4207 Clear 0 1013 56 10000 2.3 241 13:45 01.01.2021
4208 Clouds 2 1012 45 10000 2.88 258 13:24 01.01.2021
4209 Clouds 2 1012 45 10000 2.88 258 12:39 01.01.2021
4210 Clouds 6 1009 32 10000 5.92 256 12:18 01.01.2021
4211 Clouds 6 1009 32 10000 5.92 256 11:39 01.01.2021
4212 Clouds 10 1006 24 10000 10.8 260 11:18 01.01.2021
4213 Clouds 10 1006 24 10000 10.8 260 10:35 01.01.2021
4214 Clouds 11 1006 22 10000 11.67 264 09:47 01.01.2021
4215 Clouds 12 1006 22 10000 9.95 262 09:20 01.01.2021
4216 Clouds 10 1008 24 10000 5.25 252 08:29 01.01.2021
4217 Clouds 4 1016 37 10000 1.04 189 04:53 01.01.2021
4218 Clear -1 1019 52 10000 0.66 154 02:56 01.01.2021
4219 Clear -8 1019 65 10000 0.67 217 01:37 01.01.2021
4220 Clear -7 1018 64 10000 0.79 229 00:28 01.01.2021
4221 Clear -7 1018 64 10000 0.79 229 23:37 31.12.2020
4222 Clear -7 1018 65 10000 0.99 244 23:19 31.12.2020
4223 Clear -7 1018 65 10000 0.99 244 22:40 31.12.2020
4224 Clear -7 1018 63 10000 1.26 283 22:20 31.12.2020
4225 Clear -7 1018 63 10000 1.26 283 21:47 31.12.2020
4226 Clear -6 1018 63 10000 1.24 261 21:25 31.12.2020
4227 Clear -6 1018 63 10000 1.24 261 20:54 31.12.2020
4228 Clear -5 1018 61 10000 1.69 233 20:21 31.12.2020
4229 Clear -5 1018 61 10000 1.69 233 19:48 31.12.2020
4230 Clear -5 1018 61 10000 1.69 233 19:30 31.12.2020
4231 Clear -4 1018 62 10000 1.71 243 18:50 31.12.2020
4232 Clear -3 1018 58 10000 2.49 262 18:24 31.12.2020
4233 Clear -3 1018 58 10000 2.49 262 17:45 31.12.2020
4234 Clear -2 1018 50 10000 3.02 253 17:24 31.12.2020
4235 Clear -2 1018 50 10000 3.02 253 16:44 31.12.2020
4236 Clear 0 1018 45 10000 4.15 241 16:26 31.12.2020
4237 Clear 0 1018 45 10000 4.15 241 15:57 31.12.2020
4238 Clear 0 1018 45 10000 4.15 241 15:38 31.12.2020
4239 Clear 0 1016 44 10000 4.08 255 15:18 31.12.2020
4240 Clear 0 1016 44 10000 4.08 255 14:40 31.12.2020
4241 Clear 0 1015 42 10000 4.29 255 14:21 31.12.2020
4242 Clear 0 1015 42 10000 4.29 255 13:42 31.12.2020
4243 Clear 1 1013 39 10000 4.11 256 13:24 31.12.2020
4244 Clear 1 1013 39 10000 4.11 256 13:24 31.12.2020
4245 Clear 1 1013 39 10000 4.11 256 12:55 31.12.2020
4246 Clear 0 1013 52 10000 2.91 242 12:37 31.12.2020
4247 Clear 3 1010 41 10000 4.82 248 11:58 31.12.2020
4248 Clear 3 1010 41 10000 4.82 248 11:40 31.12.2020
4249 Clear 8 1008 25 10000 9.2 253 11:21 31.12.2020
4250 Clear 8 1008 25 10000 9.2 253 10:40 31.12.2020
4251 Clear 9 1007 23 10000 9.62 250 10:22 31.12.2020
4252 Clear 9 1007 23 10000 9.62 250 09:47 31.12.2020
4253 Clear 9 1008 25 10000 6.49 246 09:22 31.12.2020
4254 Clear 9 1008 25 10000 6.49 246 08:46 31.12.2020
4255 Clear 8 1009 30 10000 4.95 227 08:27 31.12.2020
4256 Clear 8 1009 30 10000 4.95 227 07:52 31.12.2020
4257 Clear 6 1011 38 10000 3.24 230 06:50 31.12.2020
4258 Clear 4 1014 50 10000 2.2 212 05:30 31.12.2020
4259 Clear -3 1019 72 10000 1.45 191 03:24 31.12.2020
4260 Clear -8 1019 78 10000 1.45 190 02:26 31.12.2020
4261 Clear -8 1019 78 10000 1.45 190 01:53 31.12.2020
4262 Clear -8 1019 78 10000 1.45 190 01:33 31.12.2020
4263 Clear -8 1019 77 10000 1.69 184 00:55 31.12.2020
4264 Clear -7 1018 77 10000 1.71 195 00:24 31.12.2020
4265 Clear -6 1017 76 10000 1.86 197 23:21 30.12.2020
4266 Clear -6 1017 76 10000 1.86 197 22:56 30.12.2020
4267 Clear -6 1017 76 10000 1.86 197 22:34 30.12.2020
4268 Clear -6 1017 76 10000 2.19 191 21:50 30.12.2020
4269 Clear -5 1016 75 10000 1.96 184 21:25 30.12.2020
4270 Clear -5 1016 75 10000 1.96 184 20:53 30.12.2020
4271 Clear -5 1015 73 10000 1.89 193 20:27 30.12.2020
4272 Clear -5 1015 73 10000 1.89 193 19:58 30.12.2020
4273 Clear -5 1015 73 10000 1.89 193 19:58 30.12.2020
4274 Clear -5 1015 73 10000 1.89 193 19:58 30.12.2020
4275 Clear -5 1015 73 10000 1.89 193 19:36 30.12.2020
4276 Clear -4 1015 70 10000 2.09 195 19:18 30.12.2020
4277 Clear -4 1014 72 10000 2.12 182 18:38 30.12.2020
4278 Clear -4 1014 69 10000 2.48 181 18:19 30.12.2020
4279 Clear -4 1014 69 10000 2.48 181 17:42 30.12.2020
4280 Clear -3 1014 64 10000 2.88 182 17:22 30.12.2020
4281 Clear -3 1014 64 10000 2.88 182 16:43 30.12.2020
4282 Clear -2 1013 61 10000 3.24 181 15:51 30.12.2020
4283 Clear -2 1013 61 10000 3.24 181 15:51 30.12.2020
4284 Clear -2 1013 61 10000 3.24 181 15:30 30.12.2020
4285 Clear -1 1012 57 10000 3.32 173 14:52 30.12.2020
4286 Clear 0 1010 55 10000 3.26 175 14:29 30.12.2020
4287 Clear 0 1010 55 10000 3.26 175 13:59 30.12.2020
4288 Clear 0 1009 57 10000 3.03 189 12:56 30.12.2020
4289 Clear 3 1007 52 10000 2.87 190 12:26 30.12.2020
4290 Clear 3 1007 52 10000 2.87 190 11:39 30.12.2020
4291 Clear 9 1004 31 10000 3.16 204 11:21 30.12.2020
4292 Clear 9 1004 31 10000 3.16 204 10:56 30.12.2020
4293 Clear 9 1004 31 10000 3.16 204 10:37 30.12.2020
4294 Clear 9 1004 31 10000 3.66 188 10:18 30.12.2020
4295 Clear 9 1004 31 10000 3.66 188 09:41 30.12.2020
4296 Clear 9 1004 33 10000 3.76 196 08:35 30.12.2020
4297 Clear 8 1006 36 10000 3.93 206 07:46 30.12.2020
4298 Clear 7 1008 40 10000 3.52 199 07:21 30.12.2020
4299 Clear 7 1008 39 10000 3.24 198 06:38 30.12.2020
4300 Clear 5 1011 46 10000 2.62 193 05:47 30.12.2020
4301 Clear 3 1013 54 10000 2.38 195 05:27 30.12.2020
4302 Clear -2 1016 70 10000 1.94 189 03:29 30.12.2020
4303 Clear -2 1016 70 10000 1.94 189 02:47 30.12.2020
4304 Clear -7 1016 76 10000 1.89 180 02:28 30.12.2020
4305 Clear -7 1016 76 10000 1.89 180 01:42 30.12.2020
4306 Clear -7 1015 75 10000 2.25 175 01:23 30.12.2020
4307 Clear -7 1015 75 10000 2.05 177 00:37 30.12.2020
4308 Clear -6 1014 73 10000 2.24 175 23:59 29.12.2020
4309 Clear -6 1014 73 10000 2.24 175 23:40 29.12.2020
4310 Clear -6 1014 71 10000 1.99 176 23:22 29.12.2020
4311 Clear -6 1014 71 10000 1.99 176 22:44 29.12.2020
4312 Clear -6 1014 68 10000 1.91 181 22:23 29.12.2020
4313 Clear -6 1014 68 10000 1.91 181 21:52 29.12.2020
4314 Clear -6 1014 68 10000 1.91 181 21:34 29.12.2020
4315 Clear -5 1014 66 10000 1.98 173 20:55 29.12.2020
4316 Clear -5 1014 66 10000 1.98 173 20:36 29.12.2020
4317 Clear -5 1013 64 10000 1.86 184 20:18 29.12.2020
4318 Clear -5 1013 64 10000 1.86 184 19:38 29.12.2020
4319 Clear -4 1013 63 10000 1.95 187 19:20 29.12.2020
4320 Clear -4 1013 63 10000 1.95 187 18:46 29.12.2020
4321 Clear -3 1013 62 10000 2.12 189 18:27 29.12.2020
4322 Clear -3 1013 62 10000 2.12 189 17:44 29.12.2020
4323 Clear -3 1013 61 10000 2.06 195 17:20 29.12.2020
4324 Clear -3 1013 61 10000 2.06 195 16:39 29.12.2020
4325 Clear -2 1013 61 10000 1.91 189 16:18 29.12.2020
4326 Clear -2 1013 61 10000 1.91 189 15:37 29.12.2020
4327 Clear -2 1011 58 10000 1.36 209 14:59 29.12.2020
4328 Clear -2 1011 58 10000 1.36 209 14:36 29.12.2020
4329 Clear -1 1010 55 10000 1.58 240 14:18 29.12.2020
4330 Clear -1 1010 55 10000 1.58 240 13:45 29.12.2020
4331 Clear -1 1009 57 10000 2.02 245 13:21 29.12.2020
4332 Clear -1 1009 55 10000 2.01 244 12:38 29.12.2020
4333 Clear 1 1006 56 10000 2.23 264 12:19 29.12.2020
4334 Clear 1 1006 56 10000 2.23 264 11:53 29.12.2020
4335 Clear 1 1006 56 10000 2.23 264 11:31 29.12.2020
4336 Clear 9 1004 23 10000 5.22 270 10:30 29.12.2020
4337 Clear 10 1004 21 10000 6.51 253 09:49 29.12.2020
4338 Clear 10 1004 22 10000 4.5 229 09:22 29.12.2020
4339 Clear 10 1004 22 10000 4.5 229 08:53 29.12.2020
4340 Clear 10 1004 22 10000 4.5 229 08:32 29.12.2020
4341 Clear 8 1007 31 10000 3.06 227 07:26 29.12.2020
4342 Clear 7 1007 36 10000 2.09 213 06:45 29.12.2020
4343 Clear 3 1012 54 10000 1.52 210 05:27 29.12.2020
4344 Clear -7 1013 76 10000 1.28 190 00:55 29.12.2020
4345 Clear -7 1012 77 10000 1.76 192 00:22 29.12.2020
4346 Clear -7 1012 77 10000 1.76 192 23:36 28.12.2020
4347 Clear -5 1011 76 10000 2.16 183 22:28 28.12.2020
4348 Clear -5 1011 76 10000 2.16 183 21:46 28.12.2020
4349 Clear -5 1011 74 10000 2.32 175 21:28 28.12.2020
4350 Clear -5 1011 74 10000 2.32 175 20:44 28.12.2020
4351 Clear -4 1010 70 10000 2.35 184 20:24 28.12.2020
4352 Clear -4 1010 70 10000 2.35 184 19:50 28.12.2020
4353 Clear -4 1010 66 10000 2.45 180 19:26 28.12.2020
4354 Clear -4 1010 66 10000 2.45 180 18:59 28.12.2020
4355 Clear -4 1010 72 10000 2.85 178 18:32 28.12.2020
4356 Clear -3 1010 70 10000 2.72 180 17:51 28.12.2020
4357 Clear -3 1010 70 10000 2.72 180 17:33 28.12.2020
4358 Clear -2 1009 67 10000 2.78 185 16:59 28.12.2020
4359 Clear -2 1009 67 10000 2.78 185 16:31 28.12.2020
4360 Clear -1 1008 63 10000 3.34 182 15:54 28.12.2020
4361 Clear -1 1008 63 10000 3.34 182 15:33 28.12.2020
4362 Clear -1 1007 58 10000 3 181 14:31 28.12.2020
4363 Clear 0 1006 51 10000 3.48 205 13:48 28.12.2020
4364 Clear 2 1004 45 10000 3.99 229 13:21 28.12.2020
4365 Clear 5 1001 33 10000 5.99 245 12:29 28.12.2020
4366 Clear 5 1001 33 10000 5.99 245 11:56 28.12.2020
4367 Clear 5 1001 33 10000 5.99 245 11:37 28.12.2020
4368 Clear 10 998 23 10000 11.62 255 11:18 28.12.2020
4369 Clear 12 997 20 10000 13.01 253 10:29 28.12.2020
4370 Clear 12 997 20 10000 13.01 253 09:59 28.12.2020
4371 Clear 12 997 20 10000 13.01 253 09:38 28.12.2020
4372 Clear 12 997 20 10000 12.1 246 09:18 28.12.2020
4373 Clear 11 1000 24 10000 7.59 232 06:54 28.12.2020
4374 Clear 7 1005 39 10000 3.66 211 05:25 28.12.2020
4375 Clear 4 1007 47 10000 2.51 198 03:53 28.12.2020
4376 Clear -5 1009 69 10000 1.84 195 01:56 28.12.2020
4377 Clouds -5 1007 68 10000 1.51 206 00:19 28.12.2020
4378 Clouds -5 1007 68 10000 1.51 206 23:35 27.12.2020
4379 Clouds -4 1008 68 10000 1.7 211 22:40 27.12.2020
4380 Clouds -4 1008 67 10000 1.41 217 21:55 27.12.2020
4381 Clouds -3 1008 64 10000 1.82 229 21:24 27.12.2020
4382 Clouds -3 1008 64 10000 1.82 229 20:37 27.12.2020
4383 Clear -2 1008 63 10000 1.83 233 19:24 27.12.2020
4384 Clear -2 1008 63 10000 1.83 233 18:52 27.12.2020
4385 Clear -2 1008 62 10000 2.08 217 18:24 27.12.2020
4386 Clear -2 1008 62 10000 2.08 217 17:59 27.12.2020
4387 Clear -2 1008 62 10000 2.08 217 17:39 27.12.2020
4388 Clear -1 1008 61 10000 2.53 207 17:18 27.12.2020
4389 Clear 0 1008 65 10000 2.19 221 16:26 27.12.2020
4390 Clear 0 1008 65 10000 2.19 221 15:37 27.12.2020
4391 Clouds 0 1007 58 10000 2.54 235 14:57 27.12.2020
4392 Clouds 0 1007 58 10000 2.54 235 14:38 27.12.2020
4393 Clouds 1 1006 56 10000 2.49 242 13:43 27.12.2020
4394 Clouds 3 1005 44 10000 3.92 251 13:19 27.12.2020
4395 Clouds 3 1004 44 10000 3.68 252 12:41 27.12.2020
4396 Clouds 6 1002 37 10000 6.49 247 11:46 27.12.2020
4397 Clouds 11 1000 27 10000 8.12 251 11:28 27.12.2020
4398 Clouds 11 1000 27 10000 8.12 251 10:51 27.12.2020
4399 Clouds 12 999 23 10000 11.65 258 10:23 27.12.2020
4400 Clouds 12 999 23 10000 11.65 258 09:41 27.12.2020
4401 Clouds 12 1000 23 10000 7.12 256 08:29 27.12.2020
4402 Clouds 12 1000 23 10000 7.12 256 08:29 27.12.2020
4403 Clouds 12 1000 23 10000 7.12 256 07:58 27.12.2020
4404 Clouds 11 1003 25 10000 4.59 265 07:25 27.12.2020
4405 Clouds 7 1006 29 10000 1.7 248 05:39 27.12.2020
4406 Clouds -2 1013 48 10000 0.7 127 03:26 27.12.2020
4407 Clouds -2 1013 48 10000 0.7 127 02:40 27.12.2020
4408 Clear -9 1012 64 10000 0.72 181 01:21 27.12.2020
4409 Clear -8 1012 62 10000 0.25 158 23:45 26.12.2020
4410 Clear -8 1012 60 10000 1.14 152 23:26 26.12.2020
4411 Clear -8 1012 60 10000 1.14 152 22:47 26.12.2020
4412 Clear -7 1012 59 10000 0.59 326 22:20 26.12.2020
4413 Clear -7 1012 59 10000 0.59 326 21:55 26.12.2020
4414 Clear -7 1012 59 10000 0.59 326 21:31 26.12.2020
4415 Clear -7 1012 59 10000 0.59 326 21:31 26.12.2020
4416 Clear -7 1012 63 10000 0.39 183 20:48 26.12.2020
4417 Clear -7 1012 57 10000 0.63 186 20:27 26.12.2020
4418 Clear -7 1012 57 10000 0.63 186 19:57 26.12.2020
4419 Clear -6 1013 61 10000 0.57 194 19:24 26.12.2020
4420 Clear -7 1013 61 10000 0.34 163 18:38 26.12.2020
4421 Clear -7 1013 62 10000 0.43 263 18:18 26.12.2020
4422 Clear -7 1013 62 10000 0.43 263 17:40 26.12.2020
4423 Clear -6 1013 59 10000 0.82 187 17:19 26.12.2020
4424 Clear -6 1013 59 10000 0.82 187 16:32 26.12.2020
4425 Clear -5 1012 59 10000 0.25 298 15:26 26.12.2020
4426 Clear -5 1012 59 10000 0.25 298 14:46 26.12.2020
4427 Clear -5 1011 54 10000 0.69 75 14:28 26.12.2020
4428 Clear -5 1011 54 10000 0.69 75 13:43 26.12.2020
4429 Clear -4 1010 51 10000 0.69 79 13:25 26.12.2020
4430 Clear -4 1010 50 10000 0.72 97 12:44 26.12.2020
4431 Clear -2 1008 55 10000 1.74 138 12:22 26.12.2020
4432 Clear -2 1008 55 10000 1.74 138 11:51 26.12.2020
4433 Clear 5 1007 28 10000 0.99 160 11:22 26.12.2020
4434 Clear 5 1007 28 10000 0.99 160 10:54 26.12.2020
4435 Clear 5 1008 27 10000 1.22 235 10:27 26.12.2020
4436 Clear 5 1008 27 10000 1.22 235 09:51 26.12.2020
4437 Clear 5 1010 28 10000 1.49 213 09:28 26.12.2020
4438 Clear 5 1010 28 10000 1.49 213 08:35 26.12.2020
4439 Clear 4 1011 30 10000 1.79 206 07:53 26.12.2020
4440 Clear 3 1014 33 10000 1.8 209 06:31 26.12.2020
4441 Clear -4 1022 52 10000 0.46 281 03:19 26.12.2020
4442 Clear -11 1021 66 10000 0.79 314 01:44 26.12.2020
4443 Clear -11 1020 66 10000 0.81 288 00:27 26.12.2020
4444 Clear -11 1020 66 10000 0.81 288 23:41 25.12.2020
4445 Clear -10 1020 66 10000 0.99 288 23:23 25.12.2020
4446 Clear -10 1020 66 10000 0.99 288 22:45 25.12.2020
4447 Clear -10 1020 66 10000 1.12 305 22:23 25.12.2020
4448 Clear -10 1020 66 10000 1.12 305 21:35 25.12.2020
4449 Clear -9 1020 64 10000 0.84 304 20:57 25.12.2020
4450 Clear -9 1020 64 10000 0.84 304 20:37 25.12.2020
4451 Clear -8 1019 62 10000 0.92 316 19:50 25.12.2020
4452 Clear -8 1019 62 10000 0.92 316 19:30 25.12.2020
4453 Clear -8 1019 57 10000 1.42 329 18:39 25.12.2020
4454 Clear -7 1019 54 10000 2.16 340 17:54 25.12.2020
4455 Clear -7 1019 54 10000 2.16 340 17:34 25.12.2020
4456 Clear -7 1019 51 10000 2.23 345 16:38 25.12.2020
4457 Clear -6 1018 48 10000 2.36 336 16:19 25.12.2020
4458 Clear -6 1018 48 10000 2.36 336 15:39 25.12.2020
4459 Clear -5 1016 48 10000 2.39 324 15:21 25.12.2020
4460 Clear -5 1016 48 10000 2.39 324 14:31 25.12.2020
4461 Clear -4 1014 43 10000 2.83 302 13:46 25.12.2020
4462 Clouds -2 1012 42 10000 4.16 278 13:26 25.12.2020
4463 Clouds -3 1013 43 10000 3.3 282 12:47 25.12.2020
4464 Clouds 0 1010 43 10000 4.03 271 12:27 25.12.2020
4465 Clouds 0 1010 43 10000 4.03 271 11:46 25.12.2020
4466 Clouds 4 1008 33 10000 8.63 274 11:22 25.12.2020
4467 Clouds 4 1008 33 10000 8.63 274 10:35 25.12.2020
4468 Clouds 5 1008 31 10000 10.43 271 09:49 25.12.2020
4469 Clouds 6 1008 30 10000 9.12 264 08:52 25.12.2020
4470 Clouds 6 1008 30 10000 9.12 264 08:32 25.12.2020
4471 Clear 5 1010 41 10000 5.03 238 06:51 25.12.2020
4472 Clear 3 1012 50 10000 3.29 223 05:31 25.12.2020
4473 Clear -7 1016 81 10000 1.78 185 02:21 25.12.2020
4474 Clear -6 1014 81 10000 1.95 190 00:20 25.12.2020
4475 Clear -6 1014 81 10000 1.95 190 23:30 24.12.2020
4476 Clear -6 1014 80 10000 2.07 190 22:54 24.12.2020
4477 Clear -5 1014 80 10000 1.92 188 22:24 24.12.2020
4478 Clear -5 1014 80 10000 1.92 188 21:45 24.12.2020
4479 Clear -5 1013 79 10000 1.89 189 20:58 24.12.2020
4480 Clear -4 1012 77 10000 1.93 191 19:41 24.12.2020
4481 Clouds -2 1013 68 10000 1.77 201 18:21 24.12.2020
4482 Clouds -2 1013 68 10000 1.77 201 17:38 24.12.2020
4483 Clouds -1 1013 67 10000 1.56 229 17:20 24.12.2020
4484 Clouds -1 1013 67 10000 1.56 229 17:20 24.12.2020
4485 Clouds -1 1013 67 10000 1.56 229 17:20 24.12.2020
4486 Clouds 1 1012 64 10000 2.03 236 16:25 24.12.2020
4487 Clouds 1 1012 64 10000 2.03 236 15:45 24.12.2020
4488 Clouds 1 1011 64 10000 2.83 235 15:23 24.12.2020
4489 Clouds 1 1011 64 10000 2.83 235 14:56 24.12.2020
4490 Clouds 2 1010 58 10000 2.17 232 14:25 24.12.2020
4491 Clouds 2 1010 58 10000 2.17 232 13:49 24.12.2020
4492 Clouds 2 1010 58 10000 2.17 232 13:30 24.12.2020
4493 Clouds 3 1008 55 10000 2.41 239 12:58 24.12.2020
4494 Clouds 2 1008 57 10000 2.4 232 12:38 24.12.2020
4495 Clouds 3 1006 52 10000 2.71 242 12:18 24.12.2020
4496 Clouds 3 1006 52 10000 2.71 242 11:38 24.12.2020
4497 Clouds 7 1005 38 10000 5.6 237 11:19 24.12.2020
4498 Clouds 7 1005 38 10000 5.6 237 10:43 24.12.2020
4499 Clouds 9 1005 35 10000 7.99 230 09:58 24.12.2020
4500 Clouds 9 1005 35 10000 7.99 230 09:40 24.12.2020
4501 Clouds 9 1006 32 10000 7.38 220 08:48 24.12.2020
4502 Clouds 9 1007 32 10000 6.4 226 07:51 24.12.2020
4503 Clouds 9 1007 32 10000 6.4 226 07:51 24.12.2020
4504 Clouds 9 1007 32 10000 6.4 226 07:30 24.12.2020
4505 Clear 7 1011 41 10000 4.6 216 06:23 24.12.2020
4506 Clear 1 1017 63 10000 1.5 173 03:29 24.12.2020
4507 Clear -6 1016 74 10000 1.21 191 01:48 24.12.2020
4508 Clear -5 1015 72 10000 1.13 191 01:19 24.12.2020
4509 Clear -5 1014 71 10000 1.04 196 00:23 24.12.2020
4510 Clear -5 1014 71 10000 1.04 196 23:59 23.12.2020
4511 Clear -5 1014 71 10000 1.04 196 23:39 23.12.2020
4512 Clear -5 1014 72 10000 0.8 220 23:20 23.12.2020
4513 Clear -5 1014 72 10000 0.8 220 22:43 23.12.2020
4514 Clear -5 1013 71 10000 0.59 249 22:23 23.12.2020
4515 Clear -5 1013 71 10000 0.59 249 21:43 23.12.2020
4516 Clear -5 1013 72 10000 1.3 271 21:21 23.12.2020
4517 Clear -5 1013 72 10000 1.3 271 20:45 23.12.2020
4518 Clear -4 1013 72 10000 1.17 250 20:25 23.12.2020
4519 Clear -4 1013 72 10000 1.17 250 19:45 23.12.2020
4520 Clear -3 1013 71 10000 1.42 222 19:23 23.12.2020
4521 Clear -3 1012 70 10000 1.78 239 18:56 23.12.2020
4522 Clear -3 1012 70 10000 1.78 239 18:36 23.12.2020
4523 Clear -2 1013 69 10000 1.7 235 17:57 23.12.2020
4524 Clear -2 1013 69 10000 1.7 235 17:36 23.12.2020
4525 Clear -1 1013 64 10000 2.09 229 17:18 23.12.2020
4526 Clear -1 1013 64 10000 2.09 229 16:39 23.12.2020
4527 Clear 0 1012 63 10000 2.34 234 16:21 23.12.2020
4528 Clear 0 1012 63 10000 2.34 234 15:46 23.12.2020
4529 Clear 1 1012 58 10000 3.05 247 15:26 23.12.2020
4530 Clear 1 1012 58 10000 3.05 247 14:58 23.12.2020
4531 Clear 1 1012 58 10000 3.05 247 14:37 23.12.2020
4532 Clear 2 1011 55 10000 3.26 252 14:18 23.12.2020
4533 Clear 2 1011 55 10000 3.26 252 13:42 23.12.2020
4534 Clouds 2 1009 54 10000 2.22 258 13:19 23.12.2020
4535 Clouds 2 1009 54 10000 2.22 258 12:46 23.12.2020
4536 Clouds 5 1007 43 10000 4.87 264 12:21 23.12.2020
4537 Clouds 5 1007 43 10000 4.87 264 11:46 23.12.2020
4538 Clouds 10 1005 28 10000 8.69 268 10:59 23.12.2020
4539 Clouds 10 1005 28 10000 8.69 268 10:41 23.12.2020
4540 Clouds 11 1004 25 10000 10.46 267 10:22 23.12.2020
4541 Clouds 12 1005 24 10000 10.58 263 09:28 23.12.2020
4542 Clouds 12 1005 24 10000 10.58 263 08:44 23.12.2020
4543 Clouds 11 1006 24 10000 6.88 260 08:19 23.12.2020
4544 Clear 10 1008 27 10000 3.73 256 07:27 23.12.2020
4545 Clear 10 1008 27 10000 3.73 256 06:39 23.12.2020
4546 Clear 6 1013 35 10000 0.63 246 05:26 23.12.2020
4547 Clear 6 1013 35 10000 0.63 246 04:56 23.12.2020
4548 Clear -7 1015 69 10000 0.79 323 00:34 23.12.2020
4549 Clear -6 1014 70 10000 0.91 325 23:49 22.12.2020
4550 Clear -6 1014 70 10000 0.91 325 23:30 22.12.2020
4551 Clear -5 1014 69 10000 1.15 338 22:44 22.12.2020
4552 Clear -5 1014 69 10000 1.58 318 22:25 22.12.2020
4553 Clear -5 1014 69 10000 1.58 318 21:59 22.12.2020
4554 Clear -5 1014 69 10000 1.58 318 21:38 22.12.2020
4555 Clear -4 1014 68 10000 1.43 308 21:19 22.12.2020
4556 Clear -4 1014 68 10000 1.43 308 20:48 22.12.2020
4557 Clear -4 1014 68 10000 1.36 291 20:21 22.12.2020
4558 Clear -4 1014 68 10000 1.36 291 19:44 22.12.2020
4559 Clouds -2 1013 65 10000 1.8 280 19:22 22.12.2020
4560 Clouds -2 1013 64 10000 1.95 271 18:55 22.12.2020
4561 Clouds -2 1013 64 10000 1.95 271 18:30 22.12.2020
4562 Clouds -2 1013 63 10000 1.67 275 17:59 22.12.2020
4563 Clouds -2 1013 63 10000 1.67 275 17:36 22.12.2020
4564 Clouds -1 1013 59 10000 2 265 17:18 22.12.2020
4565 Clouds -1 1013 59 10000 2 265 16:42 22.12.2020
4566 Clouds 0 1013 56 10000 2.78 274 16:19 22.12.2020
4567 Clouds 0 1013 56 10000 2.78 274 15:43 22.12.2020
4568 Clouds 1 1012 52 10000 2.69 261 15:24 22.12.2020
4569 Clouds 1 1012 52 10000 2.69 261 14:45 22.12.2020
4570 Clouds 2 1010 47 10000 3.7 252 14:27 22.12.2020
4571 Clouds 2 1010 47 10000 3.7 252 13:53 22.12.2020
4572 Clouds 4 1009 43 10000 4.7 254 13:20 22.12.2020
4573 Clouds 4 1008 42 10000 5.07 249 12:59 22.12.2020
4574 Clouds 4 1008 42 10000 5.07 249 12:40 22.12.2020
4575 Clouds 5 1006 39 10000 5.04 243 12:19 22.12.2020
4576 Clouds 5 1006 39 10000 5.04 243 11:43 22.12.2020
4577 Clouds 10 1004 29 10000 6.16 255 11:23 22.12.2020
4578 Clouds 10 1004 29 10000 6.16 255 10:56 22.12.2020
4579 Clouds 11 1004 25 10000 8.78 258 10:28 22.12.2020
4580 Clouds 11 1004 25 10000 8.78 258 09:59 22.12.2020
4581 Clouds 11 1004 25 10000 8.78 258 09:31 22.12.2020
4582 Clouds 12 1004 24 10000 8.89 265 08:59 22.12.2020
4583 Clouds 12 1004 24 10000 8.89 265 08:40 22.12.2020
4584 Clouds 12 1005 24 10000 10 274 08:19 22.12.2020
4585 Clouds 12 1005 24 10000 10 274 07:46 22.12.2020
4586 Clouds 12 1007 24 10000 8.96 273 06:36 22.12.2020
4587 Clouds 10 1009 28 10000 4.78 269 05:34 22.12.2020
4588 Clouds 2 1014 51 10000 0.9 187 02:35 22.12.2020
4589 Clouds -4 1012 69 10000 0.78 256 00:43 22.12.2020
4590 Clouds -5 1012 70 10000 0.94 234 23:51 21.12.2020
4591 Clouds -4 1012 70 10000 0.27 294 23:23 21.12.2020
4592 Clouds -4 1012 70 10000 0.27 294 22:37 21.12.2020
4593 Clouds -3 1013 68 10000 0.69 182 22:19 21.12.2020
4594 Clouds -3 1013 68 10000 0.69 182 21:48 21.12.2020
4595 Clouds -3 1013 68 10000 0.69 182 21:30 21.12.2020
4596 Clouds -3 1014 69 10000 0.78 203 20:46 21.12.2020
4597 Clouds -3 1013 69 10000 0.48 247 20:25 21.12.2020
4598 Clouds -3 1013 69 10000 0.48 247 19:55 21.12.2020
4599 Clouds -3 1013 69 10000 0.48 247 19:37 21.12.2020
4600 Clouds -2 1013 67 10000 1.02 258 19:18 21.12.2020
4601 Clouds -2 1013 67 10000 1.02 258 18:49 21.12.2020
4602 Clouds -2 1013 65 10000 0.18 194 18:31 21.12.2020
4603 Clouds -1 1013 60 10000 1.67 243 17:43 21.12.2020
4604 Clouds 0 1013 60 10000 1.54 252 17:24 21.12.2020
4605 Clouds 0 1013 60 10000 1.54 252 16:46 21.12.2020
4606 Clouds 1 1013 55 10000 2.34 266 16:25 21.12.2020
4607 Clouds 1 1013 55 10000 2.34 266 15:45 21.12.2020
4608 Clouds 1 1013 57 10000 2.19 258 15:26 21.12.2020
4609 Clouds 1 1013 57 10000 2.19 258 14:56 21.12.2020
4610 Clouds 1 1013 57 10000 2.19 258 14:56 21.12.2020
4611 Clouds 1 1012 58 10000 1.87 254 14:20 21.12.2020
4612 Clouds 1 1012 58 10000 1.87 254 13:42 21.12.2020
4613 Clouds 2 1011 48 10000 2.16 235 13:22 21.12.2020
4614 Clouds 2 1011 48 10000 2.42 240 12:43 21.12.2020
4615 Clouds 4 1009 41 10000 3.4 229 12:24 21.12.2020
4616 Clouds 4 1009 41 10000 3.4 229 11:43 21.12.2020
4617 Clouds 10 1007 26 10000 5.43 252 11:23 21.12.2020
4618 Clouds 10 1007 26 10000 5.43 252 10:58 21.12.2020
4619 Clouds 10 1007 26 10000 5.43 252 10:40 21.12.2020
4620 Clouds 12 1007 22 10000 6.53 269 10:18 21.12.2020
4621 Clouds 12 1007 22 10000 6.53 269 09:42 21.12.2020
4622 Clouds 12 1008 22 10000 6.38 270 09:24 21.12.2020
4623 Clouds 12 1008 22 10000 6.38 270 08:47 21.12.2020
4624 Clouds 12 1009 23 10000 6.08 270 07:37 21.12.2020
4625 Clear 8 1013 27 10000 1.74 240 06:21 21.12.2020
4626 Clear 6 1016 30 10000 1.1 215 04:31 21.12.2020
4627 Clear -7 1018 64 10000 0.84 266 01:22 21.12.2020
4628 Clear -7 1018 64 10000 1.03 254 00:31 21.12.2020
4629 Clear -6 1018 62 10000 1.25 261 23:34 20.12.2020
4630 Clear -6 1017 63 10000 1.39 266 22:58 20.12.2020
4631 Clear -6 1017 63 10000 1.39 266 22:39 20.12.2020
4632 Clear -6 1017 66 10000 1.07 268 22:21 20.12.2020
4633 Clear -6 1017 66 10000 1.07 268 21:39 20.12.2020
4634 Clear -6 1017 66 10000 0.78 271 21:20 20.12.2020
4635 Clear -6 1017 66 10000 0.78 271 20:48 20.12.2020
4636 Clear -5 1018 67 10000 0.68 298 20:23 20.12.2020
4637 Clear -5 1018 67 10000 0.68 298 19:46 20.12.2020
4638 Clear -5 1018 67 10000 0.94 306 19:26 20.12.2020
4639 Clear -5 1018 67 10000 0.94 306 18:57 20.12.2020
4640 Clear -5 1017 67 10000 0.9 318 18:38 20.12.2020
4641 Clear -4 1018 67 10000 0.98 319 18:19 20.12.2020
4642 Clear -4 1018 67 10000 0.98 319 17:43 20.12.2020
4643 Clear -4 1017 67 10000 1.1 320 17:22 20.12.2020
4644 Clear -4 1017 67 10000 1.1 320 16:44 20.12.2020
4645 Clear -3 1017 68 10000 0.98 329 16:25 20.12.2020
4646 Clear -3 1017 68 10000 0.98 329 15:45 20.12.2020
4647 Clear -2 1017 65 10000 1.16 315 15:24 20.12.2020
4648 Clear -2 1017 65 10000 1.16 315 14:49 20.12.2020
4649 Clear -2 1017 65 10000 1.16 315 14:30 20.12.2020
4650 Clear -2 1017 65 10000 1.16 315 14:30 20.12.2020
4651 Clear -2 1016 63 10000 1.23 295 13:46 20.12.2020
4652 Clear -2 1016 63 10000 1.11 290 13:24 20.12.2020
4653 Clear -2 1016 63 10000 1.11 290 12:54 20.12.2020
4654 Clear -1 1015 63 10000 1.11 266 12:36 20.12.2020
4655 Clear 0 1013 66 10000 1.69 260 12:18 20.12.2020
4656 Clear 0 1013 66 10000 1.69 260 11:42 20.12.2020
4657 Clear 9 1010 26 10000 4.99 277 10:55 20.12.2020
4658 Clear 9 1010 26 10000 4.99 277 10:37 20.12.2020
4659 Clear 10 1010 22 10000 7.79 280 10:19 20.12.2020
4660 Clear 10 1010 22 10000 7.79 280 09:42 20.12.2020
4661 Clear 10 1011 22 10000 7.17 275 09:24 20.12.2020
4662 Clear 10 1011 22 10000 7.17 275 08:50 20.12.2020
4663 Clear 10 1011 22 10000 7.17 275 08:32 20.12.2020
4664 Clear 9 1015 25 10000 5.01 284 07:23 20.12.2020
4665 Clear 7 1016 27 10000 3.38 279 05:44 20.12.2020
4666 Clear -7 1020 57 10000 2.04 247 01:33 20.12.2020
4667 Clear -7 1020 57 10000 2.04 247 01:33 20.12.2020
4668 Clear -7 1019 56 10000 2.11 247 00:32 20.12.2020
4669 Clear -8 1018 60 10000 1.5 280 23:19 19.12.2020
4670 Clear -8 1018 60 10000 1.5 280 22:56 19.12.2020
4671 Clear -8 1018 60 10000 1.5 280 22:37 19.12.2020
4672 Clear -7 1018 62 10000 1.56 286 22:18 19.12.2020
4673 Clear -7 1018 62 10000 1.56 286 21:41 19.12.2020
4674 Clear -7 1017 61 10000 1.42 281 21:23 19.12.2020
4675 Clear -7 1017 61 10000 1.42 281 20:42 19.12.2020
4676 Clear -7 1017 61 10000 1.01 268 20:19 19.12.2020
4677 Clear -7 1017 61 10000 1.01 268 19:50 19.12.2020
4678 Clear -7 1017 61 10000 1.01 268 19:31 19.12.2020
4679 Clear -6 1016 62 10000 0.92 308 18:41 19.12.2020
4680 Clear -6 1016 62 10000 0.67 338 18:20 19.12.2020
4681 Clear -6 1016 62 10000 0.67 338 17:46 19.12.2020
4682 Clear -5 1016 61 10000 0.97 341 17:24 19.12.2020
4683 Clear -5 1016 61 10000 0.97 341 16:45 19.12.2020
4684 Clear -5 1016 61 10000 1.65 340 16:26 19.12.2020
4685 Clear -5 1016 61 10000 1.65 340 15:59 19.12.2020
4686 Clear -5 1016 61 10000 1.65 340 15:40 19.12.2020
4687 Clear -4 1014 60 10000 1.58 320 14:43 19.12.2020
4688 Clear -3 1013 59 10000 1.51 289 14:22 19.12.2020
4689 Clear -3 1013 59 10000 1.51 289 13:42 19.12.2020
4690 Clear -2 1012 47 10000 2.26 255 13:20 19.12.2020
4691 Clear -2 1011 48 10000 2.2 250 12:46 19.12.2020
4692 Clear 0 1009 44 10000 3.26 233 12:28 19.12.2020
4693 Clear 0 1009 44 10000 3.26 233 11:58 19.12.2020
4694 Clear 0 1009 44 10000 3.26 233 11:40 19.12.2020
4695 Clear 6 1007 25 10000 5.84 247 10:47 19.12.2020
4696 Clear 7 1007 23 10000 6.86 267 10:27 19.12.2020
4697 Clear 7 1007 23 10000 6.86 267 09:59 19.12.2020
4698 Clear 7 1007 23 10000 6.86 267 09:39 19.12.2020
4699 Clear 7 1007 24 10000 5.9 278 08:52 19.12.2020
4700 Clear 6 1009 27 10000 2.82 264 07:56 19.12.2020
4701 Clear 4 1011 31 10000 1.21 235 07:19 19.12.2020
4702 Clear 5 1012 30 10000 1.14 259 06:39 19.12.2020
4703 Clear 2 1017 39 10000 1.14 333 05:20 19.12.2020
4704 Clear -3 1019 48 10000 1.49 3 03:29 19.12.2020
4705 Clear -9 1017 65 10000 1.39 300 00:41 19.12.2020
4706 Clear -9 1016 67 10000 1.22 263 00:20 19.12.2020
4707 Clear -9 1016 67 10000 1.22 263 23:49 18.12.2020
4708 Clear -8 1016 69 10000 1.07 274 23:25 18.12.2020
4709 Clear -8 1016 69 10000 1.07 274 22:57 18.12.2020
4710 Clear -8 1016 69 10000 1.07 274 22:38 18.12.2020
4711 Clear -7 1016 70 10000 1.27 261 22:19 18.12.2020
4712 Clear -7 1016 70 10000 1.27 261 21:41 18.12.2020
4713 Clear -6 1015 68 10000 1.72 230 21:22 18.12.2020
4714 Clear -6 1014 68 10000 1.43 212 20:25 18.12.2020
4715 Clear -6 1014 68 10000 1.43 212 19:49 18.12.2020
4716 Clear -5 1014 66 10000 1.38 223 19:23 18.12.2020
4717 Clear -6 1013 64 10000 1.56 222 18:46 18.12.2020
4718 Clear -5 1013 61 10000 1.69 220 18:28 18.12.2020
4719 Clear -5 1013 61 10000 1.69 220 17:52 18.12.2020
4720 Clear -4 1012 57 10000 1.67 221 17:20 18.12.2020
4721 Clear -4 1012 57 10000 1.67 221 16:45 18.12.2020
4722 Clear -4 1012 57 10000 1.26 217 16:21 18.12.2020
4723 Clear -4 1012 57 10000 1.26 217 15:54 18.12.2020
4724 Clear -4 1012 57 10000 1.26 217 15:34 18.12.2020
4725 Clear -3 1010 51 10000 1.6 233 14:57 18.12.2020
4726 Clear -2 1008 45 10000 2.78 221 14:26 18.12.2020
4727 Clear -2 1008 45 10000 2.78 221 13:59 18.12.2020
4728 Clear -2 1008 45 10000 2.78 221 13:40 18.12.2020
4729 Clouds 0 1007 43 10000 4.99 237 13:21 18.12.2020
4730 Clouds 0 1007 41 10000 4.48 233 12:42 18.12.2020
4731 Clouds 5 1003 29 10000 9.62 250 11:29 18.12.2020
4732 Clouds 5 1003 29 10000 9.62 250 10:58 18.12.2020
4733 Clouds 5 1003 29 10000 9.62 250 10:37 18.12.2020
4734 Clouds 7 1002 26 10000 11.66 259 10:19 18.12.2020
4735 Clouds 7 1002 26 10000 11.66 259 09:38 18.12.2020
4736 Clear 7 1003 25 10000 12.26 254 09:19 18.12.2020
4737 Clear 7 1003 25 10000 12.26 254 08:50 18.12.2020
4738 Clear 7 1004 26 10000 8.09 249 08:21 18.12.2020
4739 Clear 5 1006 33 10000 4.5 241 07:20 18.12.2020
4740 Clear 5 1006 36 10000 4.37 240 06:59 18.12.2020
4741 Clear 3 1009 49 10000 2.53 219 05:45 18.12.2020
4742 Clear 1 1011 62 10000 1.41 210 05:26 18.12.2020
4743 Clear 1 1011 62 10000 1.41 210 04:42 18.12.2020
4744 Clear -9 1014 78 10000 1.61 162 01:47 18.12.2020
4745 Clear -9 1014 78 10000 1.61 162 01:47 18.12.2020
4746 Clear -9 1014 78 10000 1.61 162 01:47 18.12.2020
4747 Clear -9 1013 80 10000 1.73 176 00:38 18.12.2020
4748 Clear -8 1013 80 10000 1.59 176 23:54 17.12.2020
4749 Clear -7 1012 79 10000 1.98 186 23:25 17.12.2020
4750 Clear -7 1012 79 10000 1.98 186 23:25 17.12.2020
4751 Clear -7 1012 79 10000 1.98 186 22:49 17.12.2020
4752 Clear -7 1012 78 10000 2.13 187 22:28 17.12.2020
4753 Clear -7 1012 78 10000 2.13 187 21:47 17.12.2020
4754 Clear -7 1012 78 10000 2.13 187 21:47 17.12.2020
4755 Clear -6 1012 76 10000 2.49 179 21:25 17.12.2020
4756 Clear -6 1012 76 10000 2.49 179 20:55 17.12.2020
4757 Clear -6 1012 76 10000 2.49 179 20:37 17.12.2020
4758 Clear -5 1012 74 10000 2.3 185 20:18 17.12.2020
4759 Clear -5 1012 74 10000 2.3 185 19:44 17.12.2020
4760 Clear -5 1012 72 10000 2.12 186 19:22 17.12.2020
4761 Clear -5 1012 68 10000 2.29 179 18:41 17.12.2020
4762 Clear -5 1012 68 10000 1.79 193 18:22 17.12.2020
4763 Clear -5 1012 68 10000 1.79 193 18:22 17.12.2020
4764 Clear -5 1012 68 10000 1.79 193 17:51 17.12.2020
4765 Clear -5 1012 68 10000 1.79 193 17:32 17.12.2020
4766 Clear -5 1012 68 10000 1.79 193 17:32 17.12.2020
4767 Clear -4 1012 65 10000 1.73 191 16:44 17.12.2020
4768 Clear -3 1011 59 10000 2.04 201 16:24 17.12.2020
4769 Clear -3 1011 59 10000 2.04 201 15:52 17.12.2020
4770 Clear -3 1011 59 10000 2.04 201 15:30 17.12.2020
4771 Clear -3 1010 53 10000 2.1 208 14:54 17.12.2020
4772 Clear -3 1010 53 10000 2.1 208 14:30 17.12.2020
4773 Clear -2 1008 52 10000 2.56 231 13:51 17.12.2020
4774 Clear -2 1007 51 10000 2.5 241 13:28 17.12.2020
4775 Clear -1 1007 51 10000 2.5 239 12:47 17.12.2020
4776 Clear 0 1004 53 10000 2.95 251 12:25 17.12.2020
4777 Clear 0 1004 53 10000 2.95 251 11:45 17.12.2020
4778 Clear 6 1003 28 10000 8.28 255 11:25 17.12.2020
4779 Clear 6 1003 28 10000 8.28 255 10:55 17.12.2020
4780 Clear 7 1003 27 10000 9.07 256 10:19 17.12.2020
4781 Clear 7 1004 31 10000 7.5 241 09:28 17.12.2020
4782 Clear 6 1005 36 10000 5.7 227 07:54 17.12.2020
4783 Clear 6 1005 36 10000 5.7 227 07:35 17.12.2020
4784 Clear 5 1008 45 10000 4.79 215 06:54 17.12.2020
4785 Clear 5 1008 46 10000 4.59 216 06:32 17.12.2020
4786 Clear 3 1010 57 10000 2.94 206 05:59 17.12.2020
4787 Clear -8 1015 83 10000 1.9 183 00:40 17.12.2020
4788 Clear -7 1014 82 10000 2.1 185 23:54 16.12.2020
4789 Clear -7 1014 82 10000 2.15 177 23:21 16.12.2020
4790 Clear -7 1014 82 10000 2.15 177 22:56 16.12.2020
4791 Clear -7 1014 82 10000 2.15 177 22:35 16.12.2020
4792 Clear -6 1013 80 10000 2.4 180 21:52 16.12.2020
4793 Clear -6 1013 80 10000 2.4 180 21:34 16.12.2020
4794 Clear -5 1014 78 10000 2.6 179 20:56 16.12.2020
4795 Clear -5 1014 78 10000 2.6 179 20:37 16.12.2020
4796 Clear -5 1014 75 10000 2.48 178 20:18 16.12.2020
4797 Clear -4 1014 72 10000 2.58 189 19:20 16.12.2020
4798 Clear -4 1014 73 10000 2.69 184 18:56 16.12.2020
4799 Clear -4 1014 70 10000 2.74 188 18:29 16.12.2020
4800 Clear -4 1014 70 10000 2.74 188 17:51 16.12.2020
4801 Clear -3 1014 65 10000 3.03 178 17:29 16.12.2020
4802 Clear -3 1014 65 10000 3.03 178 16:40 16.12.2020
4803 Clear -2 1013 62 10000 2.98 186 16:22 16.12.2020
4804 Clear -2 1013 62 10000 2.98 186 15:51 16.12.2020
4805 Clear -1 1012 56 10000 2.73 187 15:28 16.12.2020
4806 Clear -1 1012 56 10000 2.73 187 14:48 16.12.2020
4807 Clear -1 1011 54 10000 2.33 206 14:28 16.12.2020
4808 Clear -1 1011 54 10000 2.33 206 13:50 16.12.2020
4809 Clear -1 1011 54 10000 2.33 206 13:31 16.12.2020
4810 Clear 0 1009 55 10000 2.84 219 12:56 16.12.2020
4811 Clear 0 1009 57 10000 2.95 216 12:36 16.12.2020
4812 Clear 1 1007 55 10000 2.86 218 11:41 16.12.2020
4813 Clear 7 1005 32 10000 4.05 224 11:22 16.12.2020
4814 Clear 7 1005 32 10000 4.05 224 10:49 16.12.2020
4815 Clear 8 1005 32 10000 4.33 220 10:26 16.12.2020
4816 Clear 8 1005 32 10000 4.33 220 09:48 16.12.2020
4817 Clear 8 1005 34 10000 4.17 208 08:45 16.12.2020
4818 Clear 7 1006 37 10000 4.12 204 07:59 16.12.2020
4819 Clear 7 1006 37 10000 4.12 204 07:39 16.12.2020
4820 Clear 6 1009 43 10000 3.46 203 06:57 16.12.2020
4821 Clear -2 1018 74 10000 2.38 185 03:28 16.12.2020
4822 Clear -6 1017 79 10000 2.42 180 01:27 16.12.2020
4823 Clear -6 1016 78 10000 2.4 179 23:46 15.12.2020
4824 Clear -5 1016 75 10000 2.43 182 22:49 15.12.2020
4825 Clear -5 1016 73 10000 2.48 181 22:25 15.12.2020
4826 Clear -5 1016 73 10000 2.48 181 21:58 15.12.2020
4827 Clear -5 1016 73 10000 2.48 181 21:40 15.12.2020
4828 Clear -4 1016 71 10000 2.65 178 21:21 15.12.2020
4829 Clear -4 1016 71 10000 2.65 178 20:44 15.12.2020
4830 Clear -3 1015 69 10000 2.74 176 20:26 15.12.2020
4831 Clear -3 1015 69 10000 2.74 176 19:52 15.12.2020
4832 Clear -3 1015 68 10000 2.53 179 19:26 15.12.2020
4833 Clear -3 1015 67 10000 2.49 176 18:39 15.12.2020
4834 Clear -2 1015 64 10000 2.36 181 18:21 15.12.2020
4835 Clear -2 1015 64 10000 2.36 181 17:44 15.12.2020
4836 Clear -2 1015 63 10000 2.42 179 17:25 15.12.2020
4837 Clear -2 1015 63 10000 2.42 179 16:43 15.12.2020
4838 Clear -1 1014 62 10000 2.37 185 16:25 15.12.2020
4839 Clear -1 1014 62 10000 2.37 185 15:38 15.12.2020
4840 Clear -1 1014 63 10000 2.31 191 15:18 15.12.2020
4841 Clear -1 1014 63 10000 2.31 191 14:42 15.12.2020
4842 Clear -1 1013 64 10000 2.22 189 14:20 15.12.2020
4843 Clear -1 1013 64 10000 2.22 189 13:49 15.12.2020
4844 Clear 0 1012 64 10000 1.94 200 13:25 15.12.2020
4845 Clear 0 1012 64 10000 1.94 200 12:46 15.12.2020
4846 Clear 1 1009 65 10000 1.74 209 12:19 15.12.2020
4847 Clear 1 1009 65 10000 1.74 209 11:52 15.12.2020
4848 Clear 8 1007 34 10000 2.4 215 11:24 15.12.2020
4849 Clear 8 1007 34 10000 2.4 215 10:52 15.12.2020
4850 Clear 9 1006 32 10000 3.18 224 10:21 15.12.2020
4851 Clear 9 1006 32 10000 3.18 224 09:45 15.12.2020
4852 Clear 8 1007 36 10000 2.76 211 09:27 15.12.2020
4853 Clear 8 1007 36 10000 2.76 211 08:47 15.12.2020
4854 Clear 8 1008 40 10000 2.81 203 08:24 15.12.2020
4855 Clear 8 1008 40 10000 2.81 203 07:49 15.12.2020
4856 Clear 6 1010 46 10000 2.39 198 07:23 15.12.2020
4857 Clear 5 1013 54 10000 2.16 197 06:26 15.12.2020
4858 Clear -6 1017 83 10000 1.57 182 00:54 15.12.2020
4859 Clear -6 1017 83 10000 1.48 183 00:34 15.12.2020
4860 Clear -5 1016 81 10000 1.76 173 23:23 14.12.2020
4861 Clear -5 1016 81 10000 1.76 173 22:47 14.12.2020
4862 Clear -5 1016 80 10000 2.03 173 22:27 14.12.2020
4863 Clear -5 1016 80 10000 2.03 173 21:44 14.12.2020
4864 Clear -4 1016 78 10000 2.1 176 21:20 14.12.2020
4865 Clear -4 1016 78 10000 2.1 176 20:49 14.12.2020
4866 Clear -3 1016 76 10000 2.29 183 20:29 14.12.2020
4867 Clear -3 1016 76 10000 2.29 183 19:50 14.12.2020
4868 Clear -2 1015 74 10000 2.3 184 19:28 14.12.2020
4869 Clear -2 1015 74 10000 2.3 184 18:44 14.12.2020
4870 Clear -2 1015 70 10000 2.22 188 18:24 14.12.2020
4871 Clear -2 1015 70 10000 2.22 188 17:46 14.12.2020
4872 Clear -1 1014 68 10000 2.15 192 17:23 14.12.2020
4873 Clear -1 1014 68 10000 2.15 192 16:50 14.12.2020
4874 Clear 0 1013 65 10000 2.25 193 16:28 14.12.2020
4875 Clear 0 1013 65 10000 2.25 193 15:33 14.12.2020
4876 Clear 0 1012 64 10000 1.67 203 14:58 14.12.2020
4877 Clear 0 1012 64 10000 1.67 203 14:40 14.12.2020
4878 Clear 0 1010 63 10000 1.79 224 14:21 14.12.2020
4879 Clear 0 1010 63 10000 1.79 224 13:41 14.12.2020
4880 Clear 0 1009 64 10000 1.46 215 13:18 14.12.2020
4881 Clear -1 1008 70 10000 1.06 242 12:50 14.12.2020
4882 Clear 0 1006 66 10000 0.96 250 12:24 14.12.2020
4883 Clear 0 1006 66 10000 0.96 250 11:32 14.12.2020
4884 Clear 8 1004 34 10000 2.62 238 10:37 14.12.2020
4885 Clear 9 1003 32 10000 3.67 221 10:19 14.12.2020
4886 Clear 9 1004 33 10000 3.99 215 09:29 14.12.2020
4887 Clear 9 1004 33 10000 3.99 215 08:46 14.12.2020
4888 Clear 9 1005 35 10000 3.59 219 08:28 14.12.2020
4889 Clear 6 1007 46 10000 2.27 202 07:28 14.12.2020
4890 Clear 6 1007 46 10000 2.27 202 06:46 14.12.2020
4891 Clear 3 1012 61 10000 1.86 193 04:52 14.12.2020
4892 Clear -6 1015 81 10000 1.5 183 02:26 14.12.2020
4893 Clear -6 1014 81 10000 1.58 189 00:55 14.12.2020
4894 Clear -6 1014 81 10000 1.58 189 00:33 14.12.2020
4895 Clear -6 1013 80 10000 1.64 193 23:48 13.12.2020
4896 Clear -5 1012 79 10000 1.71 190 23:27 13.12.2020
4897 Clear -5 1012 79 10000 1.71 190 22:46 13.12.2020
4898 Clear -4 1012 77 10000 1.91 189 22:20 13.12.2020
4899 Clear -4 1012 77 10000 1.91 189 21:42 13.12.2020
4900 Clear -4 1012 76 10000 1.85 185 21:24 13.12.2020
4901 Clear -4 1012 76 10000 1.85 185 20:35 13.12.2020
4902 Clear -3 1012 75 10000 1.8 194 19:53 13.12.2020
4903 Clear -3 1012 75 10000 1.8 194 19:33 13.12.2020
4904 Clear -3 1011 71 10000 2.03 189 18:59 13.12.2020
4905 Clear -3 1011 71 10000 2.03 189 18:41 13.12.2020
4906 Clear -2 1010 68 10000 2.12 190 18:20 13.12.2020
4907 Clear -2 1010 68 10000 2.12 190 17:46 13.12.2020
4908 Clear -1 1010 66 10000 2.42 196 17:21 13.12.2020
4909 Clear -1 1010 66 10000 2.42 196 16:55 13.12.2020
4910 Clear -1 1010 66 10000 2.42 196 16:36 13.12.2020
4911 Clear 0 1010 62 10000 2.81 189 15:58 13.12.2020
4912 Clear 0 1010 62 10000 2.81 189 15:38 13.12.2020
4913 Clear 0 1009 57 10000 2.71 198 15:20 13.12.2020
4914 Clear 0 1009 57 10000 2.71 198 14:43 13.12.2020
4915 Clear 0 1008 56 10000 2.09 231 14:20 13.12.2020
4916 Clear 0 1008 56 10000 2.09 231 13:42 13.12.2020
4917 Clear 2 1006 50 10000 2.77 262 13:22 13.12.2020
4918 Clear 2 1006 50 10000 2.77 262 13:22 13.12.2020
4919 Clear 1 1005 52 10000 2.52 262 12:42 13.12.2020
4920 Clear 4 1003 44 10000 3.99 273 12:22 13.12.2020
4921 Clear 4 1003 44 10000 3.99 273 11:40 13.12.2020
4922 Clear 10 1000 28 10000 8.01 265 10:55 13.12.2020
4923 Clear 10 1000 28 10000 8.01 265 10:37 13.12.2020
4924 Clear 11 1000 25 10000 7.86 261 09:54 13.12.2020
4925 Clear 11 1000 28 10000 6.1 242 08:58 13.12.2020
4926 Clear 11 1000 28 10000 6.1 242 08:34 13.12.2020
4927 Clear 10 1001 32 10000 4.44 217 07:47 13.12.2020
4928 Clear 3 1011 65 10000 1.51 193 04:29 13.12.2020
4929 Clear 1 1012 77 10000 1.64 185 02:41 13.12.2020
4930 Clear -4 1012 85 10000 1.91 179 01:57 13.12.2020
4931 Clear -4 1011 84 10000 1.87 188 00:49 13.12.2020
4932 Clear -3 1010 84 10000 1.92 191 23:55 12.12.2020
4933 Clear -3 1010 84 10000 1.92 191 23:31 12.12.2020
4934 Clear -3 1010 83 10000 2.12 184 22:52 12.12.2020
4935 Clear -2 1011 83 10000 2.02 186 21:59 12.12.2020
4936 Clear -2 1011 83 10000 2.02 186 21:34 12.12.2020
4937 Clear -2 1010 82 10000 1.98 181 20:55 12.12.2020
4938 Clear -1 1010 81 10000 1.92 184 20:29 12.12.2020
4939 Clear -1 1010 81 10000 1.92 184 19:58 12.12.2020
4940 Clear -1 1010 81 10000 1.92 184 19:39 12.12.2020
4941 Clouds 0 1010 78 10000 1.91 197 19:21 12.12.2020
4942 Clear -1 1010 75 10000 1.93 192 18:44 12.12.2020
4943 Clear 0 1010 71 10000 2.07 196 18:26 12.12.2020
4944 Clear 0 1010 71 10000 2.07 196 17:47 12.12.2020
4945 Clear 1 1010 61 10000 2.64 191 16:56 12.12.2020
4946 Clear 2 1009 56 10000 2.22 224 16:21 12.12.2020
4947 Clear 2 1009 56 10000 2.22 224 15:45 12.12.2020
4948 Clear 2 1009 51 10000 2.73 224 15:27 12.12.2020
4949 Clear 2 1009 51 10000 2.73 224 14:48 12.12.2020
4950 Clear 2 1008 52 10000 2.2 247 13:56 12.12.2020
4951 Clear 2 1008 52 10000 2.2 247 13:37 12.12.2020
4952 Clouds 3 1006 45 10000 2.8 269 12:58 12.12.2020
4953 Clear 7 1004 35 10000 4.42 250 11:48 12.12.2020
4954 Clear 12 1002 26 10000 7.15 260 10:54 12.12.2020
4955 Clear 14 1002 24 10000 8.78 261 09:49 12.12.2020
4956 Clear 14 1002 25 10000 7.21 255 08:57 12.12.2020
4957 Clouds 3 1013 42 10000 1.38 186 02:57 12.12.2020
4958 Clouds -3 1012 69 10000 0.24 242 23:55 11.12.2020
4959 Clouds -3 1012 69 10000 0.42 351 22:39 11.12.2020
4960 Clouds -2 1012 67 10000 0.35 321 20:50 11.12.2020
4961 Clear -1 1012 68 10000 1.27 357 18:27 11.12.2020
4962 Clear 0 1012 59 10000 1.69 266 16:27 11.12.2020
4963 Clear 2 1011 47 10000 2.28 239 14:18 11.12.2020
4964 Clear 3 1010 43 10000 2.71 236 13:25 11.12.2020
4965 Clear 5 1007 38 10000 3.02 241 12:19 11.12.2020
4966 Clear 5 1007 38 10000 3.02 241 11:51 11.12.2020
4967 Clear 11 1005 24 10000 3.96 242 10:55 11.12.2020
4968 Clear 13 1004 20 10000 5.4 253 09:41 11.12.2020
4969 Clear 9 1010 31 10000 1.35 216 05:59 11.12.2020
4970 Clear 7 1013 38 10000 1.17 205 05:18 11.12.2020
4971 Clear 3 1015 53 10000 0.59 183 02:38 11.12.2020
4972 Clear -5 1015 73 10000 0.77 190 00:34 11.12.2020
4973 Clear -4 1014 72 10000 0.61 201 22:56 10.12.2020
4974 Clear -4 1014 72 10000 0.86 210 21:37 10.12.2020
4975 Clear -3 1014 72 10000 1.04 223 20:47 10.12.2020
4976 Clear -2 1014 70 10000 1.15 207 19:49 10.12.2020
4977 Clear -1 1014 68 10000 1.4 217 19:21 10.12.2020
4978 Clear -2 1014 68 10000 1.12 212 18:44 10.12.2020
4979 Clear -1 1014 66 10000 1.22 247 16:49 10.12.2020
4980 Clear 0 1013 64 10000 1.43 259 15:51 10.12.2020
4981 Clear 1 1012 55 10000 1.73 271 14:58 10.12.2020
4982 Clear 1 1012 55 10000 1.73 271 14:38 10.12.2020
4983 Clear 1 1012 55 10000 1.73 271 14:38 10.12.2020
4984 Clear 3 1009 44 10000 2.58 270 13:25 10.12.2020
4985 Clear 5 1007 42 10000 3.01 261 11:48 10.12.2020
4986 Clear 13 1004 23 10000 6.83 257 09:33 10.12.2020
4987 Clear 12 1005 24 10000 3.97 244 08:19 10.12.2020
4988 Clear 11 1006 28 10000 2.33 218 06:57 10.12.2020
4989 Clear 8 1011 34 10000 0.98 202 04:45 10.12.2020
4990 Clear -4 1014 67 10000 0.38 149 02:27 10.12.2020
4991 Clear -5 1013 70 10000 0.51 150 01:18 10.12.2020
4992 Clear -5 1013 68 10000 0.44 233 23:35 09.12.2020
4993 Clear -3 1013 68 10000 0.96 291 20:37 09.12.2020
4994 Clear -2 1014 67 10000 0.94 281 19:38 09.12.2020
4995 Clear -1 1014 62 10000 1.45 262 18:21 09.12.2020
4996 Clear 0 1014 61 10000 1.51 277 16:54 09.12.2020
4997 Clear 1 1014 59 10000 1.92 257 16:25 09.12.2020
4998 Clear 1 1014 59 10000 1.92 257 15:41 09.12.2020
4999 Clear 1 1013 52 10000 2.04 258 14:49 09.12.2020
5000 Clear 2 1012 49 10000 2.16 264 14:25 09.12.2020
5001 Clear 2 1011 47 10000 2.29 255 13:19 09.12.2020
5002 Clear 2 1011 47 10000 2.29 255 13:19 09.12.2020
5003 Clear 2 1011 47 10000 2.25 254 12:47 09.12.2020
5004 Clear 5 1009 43 10000 3.26 235 12:21 09.12.2020
5005 Clear 5 1009 43 10000 3.26 235 11:32 09.12.2020
5006 Clear 13 1006 21 10000 5.29 274 09:50 09.12.2020
5007 Clear 13 1007 20 10000 4.44 270 08:27 09.12.2020
5008 Clear 10 1012 27 10000 1.74 254 06:29 09.12.2020
5009 Clear 8 1014 31 10000 1.25 226 04:49 09.12.2020
5010 Clear 3 1018 46 10000 0.62 238 02:30 09.12.2020
5011 Clear -4 1016 70 10000 0.93 276 23:49 08.12.2020
5012 Clear -4 1016 69 10000 1.02 265 23:28 08.12.2020
5013 Clear -3 1017 69 10000 1.45 255 21:36 08.12.2020
5014 Clear -2 1016 69 10000 1.42 252 19:46 08.12.2020
5015 Clouds -2 1016 69 10000 1.43 240 19:25 08.12.2020
5016 Clouds -2 1016 69 10000 1.46 249 18:31 08.12.2020
5017 Clouds -1 1016 70 10000 1.17 279 16:28 08.12.2020
5018 Clouds 0 1016 64 10000 1.1 278 14:35 08.12.2020
5019 Clouds 1 1015 57 10000 1.32 256 13:44 08.12.2020
5020 Clouds 2 1014 52 10000 1.56 243 12:37 08.12.2020
5021 Clouds 3 1013 47 10000 1.86 243 11:52 08.12.2020
5022 Clouds 10 1011 32 10000 3 279 10:52 08.12.2020
5023 Clouds 10 1011 32 10000 3 279 10:31 08.12.2020
5024 Clouds 11 1011 27 10000 6.76 280 09:35 08.12.2020
5025 Clouds 11 1012 26 10000 6.76 279 07:35 08.12.2020
5026 Clear 7 1018 38 10000 1.84 220 04:42 08.12.2020
5027 Clear -5 1021 65 10000 1.02 193 01:48 08.12.2020
5028 Clear -5 1020 68 10000 1.06 195 00:44 08.12.2020
5029 Clear -5 1020 67 10000 1.07 203 22:56 07.12.2020
5030 Clear -4 1020 66 10000 1 189 22:20 07.12.2020
5031 Clear -4 1020 65 10000 1.11 191 20:57 07.12.2020
5032 Clouds -2 1020 62 10000 1.14 200 18:58 07.12.2020
5033 Clouds -2 1019 57 10000 1.32 190 17:38 07.12.2020
5034 Clouds -1 1020 56 10000 1.26 225 17:18 07.12.2020
5035 Clouds -2 1019 57 10000 1.09 223 16:28 07.12.2020
5036 Clouds 0 1019 54 10000 1.49 235 15:24 07.12.2020
5037 Clouds 0 1018 54 10000 2.24 218 14:28 07.12.2020
5038 Clouds 0 1018 54 10000 2.24 218 13:35 07.12.2020
5039 Clouds 2 1015 47 10000 2.53 204 11:58 07.12.2020
5040 Clouds 2 1015 47 10000 2.53 204 11:58 07.12.2020
5041 Clouds 2 1015 47 10000 2.53 204 11:38 07.12.2020
5042 Clouds 8 1014 31 10000 3.26 246 10:32 07.12.2020
5043 Clear 8 1015 26 10000 4.5 288 08:57 07.12.2020
5044 Clear 8 1016 26 10000 5 303 07:30 07.12.2020
5045 Clear 5 1022 37 10000 5.15 294 05:27 07.12.2020
5046 Clear 4 1023 47 10000 3.53 273 03:45 07.12.2020
5047 Clouds -5 1021 77 10000 2.01 250 00:49 07.12.2020
5048 Clouds -4 1019 76 10000 2.12 265 22:52 06.12.2020
5049 Clouds -3 1018 74 10000 2.04 257 21:44 06.12.2020
5050 Clouds -3 1018 74 10000 2.04 257 21:44 06.12.2020
5051 Clouds -3 1018 73 10000 1.78 270 20:43 06.12.2020
5052 Clouds -1 1017 68 10000 2.86 292 20:22 06.12.2020
5053 Clouds 0 1016 65 10000 3.3 301 19:26 06.12.2020
5054 Clouds 1 1016 57 10000 3.49 289 17:31 06.12.2020
5055 Clouds 2 1015 50 10000 2.7 289 16:34 06.12.2020
5056 Clouds 1 1012 51 10000 1.92 253 14:49 06.12.2020
5057 Clouds 2 1009 47 10000 1.87 197 13:21 06.12.2020
5058 Clouds 2 1008 48 10000 1.49 234 12:33 06.12.2020
5059 Clouds 2 1006 50 10000 2.73 272 11:53 06.12.2020
5060 Clouds 9 1004 30 10000 5.45 267 11:25 06.12.2020
5061 Clouds 9 1004 30 10000 5.45 267 10:35 06.12.2020
5062 Clouds 10 1004 27 10000 3.62 246 09:23 06.12.2020
5063 Clear 7 1009 35 10000 1.54 201 07:29 06.12.2020
5064 Clear 3 1014 54 10000 1.46 188 04:51 06.12.2020
5065 Clear -8 1018 77 10000 1.37 183 00:46 06.12.2020
5066 Clear -7 1017 77 10000 1.17 186 00:26 06.12.2020
5067 Clear -7 1017 77 10000 1.17 186 23:56 05.12.2020
5068 Clear -6 1017 73 10000 1.84 187 22:25 05.12.2020
5069 Clear -6 1017 73 10000 1.84 187 21:55 05.12.2020
5070 Clear -6 1017 73 10000 1.84 187 21:30 05.12.2020
5071 Clear -5 1017 68 10000 1.38 195 19:54 05.12.2020
5072 Clouds -4 1017 64 10000 1.46 214 18:46 05.12.2020
5073 Clouds -4 1016 66 10000 1.61 232 17:55 05.12.2020
5074 Clouds -4 1016 66 10000 1.18 263 16:45 05.12.2020
5075 Clouds -3 1015 67 10000 1.55 280 16:26 05.12.2020
5076 Clouds -2 1014 64 10000 1.88 268 14:52 05.12.2020
5077 Clouds 0 1010 58 10000 2.3 241 13:25 05.12.2020
5078 Clouds 1 1009 57 10000 2.38 235 11:50 05.12.2020
5079 Clouds 5 1007 40 10000 5.39 254 10:35 05.12.2020
5080 Clouds 6 1007 42 10000 4.7 249 08:54 05.12.2020
5081 Clouds 5 1008 47 10000 4.28 234 07:48 05.12.2020
5082 Clear 3 1012 60 10000 2.71 198 05:34 05.12.2020
5083 Clear -8 1015 82 10000 1.28 154 00:40 05.12.2020
5084 Clear -7 1015 82 10000 1.14 138 23:36 04.12.2020
5085 Clear -7 1014 80 10000 0.96 115 21:35 04.12.2020
5086 Clouds -5 1014 69 10000 1.3 126 19:22 04.12.2020
5087 Clouds -5 1014 69 10000 1.3 126 18:39 04.12.2020
5088 Clouds -4 1015 63 10000 0.83 128 17:47 04.12.2020
5089 Clouds -3 1015 59 10000 1.44 103 16:37 04.12.2020
5090 Clouds -2 1014 54 10000 0.37 231 15:25 04.12.2020
5091 Clouds -2 1012 54 10000 1.05 195 13:37 04.12.2020
5092 Clouds -1 1011 51 10000 1.45 155 13:18 04.12.2020
5093 Clouds 0 1010 47 10000 1.6 122 12:26 04.12.2020
5094 Clouds 6 1009 31 10000 0.94 141 10:37 04.12.2020
5095 Clouds 7 1009 29 10000 1.41 275 09:25 04.12.2020
5096 Clouds 5 1013 38 10000 0.63 274 06:40 04.12.2020
5097 Clouds 2 1017 59 10000 0.26 109 04:53 04.12.2020
5098 Clouds -6 1020 83 10000 0.53 63 01:54 04.12.2020
5099 Clouds -7 1017 83 10000 0.35 34 22:51 03.12.2020
5100 Clouds -6 1017 83 10000 0.62 93 21:38 03.12.2020
5101 Clouds -6 1017 83 10000 0.97 38 20:47 03.12.2020
5102 Clouds -5 1017 80 10000 1.32 45 19:25 03.12.2020
5103 Clouds -4 1017 81 10000 1.63 40 18:48 03.12.2020
5104 Clouds -3 1017 77 10000 2.15 30 17:21 03.12.2020
5105 Clouds -3 1017 77 10000 2.15 30 16:45 03.12.2020
5106 Clouds -2 1017 72 10000 2.3 22 15:33 03.12.2020
5107 Clouds -1 1016 69 10000 1.92 31 14:49 03.12.2020
5108 Clouds -1 1015 65 10000 1.58 64 14:19 03.12.2020
5109 Clouds 0 1014 66 10000 2.26 22 12:54 03.12.2020
5110 Clouds 2 1012 57 10000 1.71 17 12:24 03.12.2020
5111 Clouds 6 1011 42 10000 2.39 336 10:55 03.12.2020
5112 Clouds 6 1011 41 10000 1.43 276 08:49 03.12.2020
5113 Clouds 2 1019 63 10000 0.49 137 04:24 03.12.2020
5114 Clouds -4 1020 79 10000 0.51 41 02:20 03.12.2020
5115 Clouds -5 1019 80 10000 0.73 42 00:42 03.12.2020
5116 Clouds -4 1018 76 10000 0.94 45 22:47 02.12.2020
5117 Clouds -2 1018 72 10000 1.06 47 21:58 02.12.2020
5118 Clouds -2 1017 70 10000 1.29 38 20:52 02.12.2020
5119 Clouds -2 1017 70 10000 1.29 38 20:34 02.12.2020
5120 Clouds -2 1017 68 10000 1.43 24 19:58 02.12.2020
5121 Clouds -1 1017 65 10000 1.83 19 17:54 02.12.2020
5122 Clouds -1 1017 65 10000 1.83 19 17:35 02.12.2020
5123 Clouds -1 1016 62 10000 1.91 26 16:59 02.12.2020
5124 Clouds 1 1015 53 10000 2.37 17 14:49 02.12.2020
5125 Clouds 3 1010 49 10000 1.55 318 11:34 02.12.2020
5126 Clouds 10 1008 28 10000 5.09 293 10:28 02.12.2020
5127 Clouds 10 1009 28 10000 5.23 290 08:36 02.12.2020
5128 Clear 4 1017 54 10000 1.17 209 03:57 02.12.2020
5129 Clouds -2 1018 75 10000 0.73 203 22:21 01.12.2020
5130 Clouds -2 1018 73 10000 1.12 191 20:49 01.12.2020
5131 Clouds 0 1018 69 10000 1.53 195 19:35 01.12.2020
5132 Clouds 1 1018 54 10000 1.48 206 17:49 01.12.2020
5133 Clouds 1 1018 55 10000 1.55 223 16:35 01.12.2020
5134 Clouds 3 1016 45 10000 2.33 255 13:38 01.12.2020
5135 Clouds 4 1013 39 10000 2.44 243 12:25 01.12.2020
5136 Clouds 11 1011 26 10000 4.4 267 11:26 01.12.2020
5137 Clouds 11 1011 26 10000 4.4 267 10:38 01.12.2020
5138 Clear 11 1012 27 10000 2.61 240 08:21 01.12.2020
5139 Clear 10 1015 33 10000 2.24 223 06:48 01.12.2020
5140 Clear -4 1023 79 10000 0.68 151 01:53 01.12.2020
5141 Clear -5 1022 79 10000 0.72 149 00:56 01.12.2020
5142 Clear -4 1022 77 10000 0.36 164 23:21 30.11.2020
5143 Clear -4 1022 77 10000 0.36 164 22:44 30.11.2020
5144 Clear -3 1022 77 10000 0.22 108 22:25 30.11.2020
5145 Clear -3 1022 77 10000 0.17 324 20:48 30.11.2020
5146 Clear -2 1022 76 10000 0.39 276 19:42 30.11.2020
5147 Clouds -1 1023 73 10000 1.11 274 18:24 30.11.2020
5148 Clouds -1 1023 73 10000 1.11 274 17:48 30.11.2020
5149 Clouds 0 1023 72 10000 1.38 288 16:55 30.11.2020
5150 Clouds 1 1022 67 10000 2.18 304 15:59 30.11.2020
5151 Clear 2 1021 64 10000 1.85 311 14:47 30.11.2020
5152 Clouds 2 1019 60 10000 1.75 303 13:53 30.11.2020
5153 Clouds 6 1015 44 10000 3.18 264 12:26 30.11.2020
5154 Clouds 6 1015 44 10000 3.18 264 11:58 30.11.2020
5155 Clouds 12 1011 27 10000 6.47 273 10:28 30.11.2020
5156 Clouds 12 1011 27 10000 6.47 273 09:50 30.11.2020
5157 Clear 10 1013 34 10000 2.83 211 07:18 30.11.2020
5158 Clouds -5 1020 71 10000 1.17 174 00:54 30.11.2020
5159 Clouds -3 1019 57 10000 1.54 172 21:53 29.11.2020
5160 Clouds -3 1019 57 10000 1.54 172 21:53 29.11.2020
5161 Clouds -3 1019 57 10000 1.54 172 21:31 29.11.2020
5162 Clouds -2 1020 55 10000 1.64 168 20:38 29.11.2020
5163 Clouds -1 1021 54 10000 1.75 162 17:48 29.11.2020
5164 Clouds -1 1021 54 10000 1.29 180 16:27 29.11.2020
5165 Clouds 3 1019 45 10000 1.62 175 13:24 29.11.2020
5166 Clouds 3 1019 45 10000 1.62 175 13:24 29.11.2020
5167 Clouds 3 1018 44 10000 1.03 185 11:42 29.11.2020
5168 Clouds 8 1016 30 10000 1.88 192 10:53 29.11.2020
5169 Clear 9 1017 26 10000 1.98 200 08:39 29.11.2020
5170 Clear 7 1020 30 10000 1.21 203 06:33 29.11.2020
5171 Clear -8 1027 68 10000 0.56 175 23:54 28.11.2020
5172 Clear -7 1027 67 10000 0.51 174 22:56 28.11.2020
5173 Clear -6 1028 63 10000 0.85 172 20:50 28.11.2020
5174 Clear -6 1028 63 10000 0.85 172 20:50 28.11.2020
5175 Clear -6 1028 60 10000 1.14 176 19:51 28.11.2020
5176 Clear -5 1029 59 10000 1.41 181 19:24 28.11.2020
5177 Clear -5 1029 59 10000 1.41 181 18:51 28.11.2020
5178 Clear -4 1029 57 10000 1.59 179 17:48 28.11.2020
5179 Clear -4 1029 56 10000 1.66 178 16:45 28.11.2020
5180 Clear -3 1028 54 10000 1.51 193 14:57 28.11.2020
5181 Clear -2 1027 52 10000 0.83 172 13:27 28.11.2020
5182 Clear 5 1025 36 10000 1.28 315 10:57 28.11.2020
5183 Clear 5 1028 42 10000 1.06 321 07:55 28.11.2020
5184 Clouds 0 1035 71 10000 1.46 13 03:33 28.11.2020
5185 Clouds -5 1037 82 10000 1.97 6 01:51 28.11.2020
5186 Clouds -5 1033 83 10000 2.5 16 23:18 27.11.2020
5187 Clouds -4 1032 84 10000 2.7 14 21:51 27.11.2020
5188 Clouds -3 1031 84 10000 2.82 19 20:37 27.11.2020
5189 Clouds -2 1030 84 10000 2.97 21 19:30 27.11.2020
5190 Clouds -2 1028 84 10000 3.44 10 18:51 27.11.2020
5191 Clouds 0 1024 89 10000 0.12 284 15:21 27.11.2020
5192 Clouds 1 1023 88 10000 0.12 191 14:18 27.11.2020
5193 Clouds 1 1022 83 10000 0.92 147 12:48 27.11.2020
5194 Rain 2 1021 78 10000 0.8 153 11:57 27.11.2020
5195 Clouds 3 1019 71 10000 0.69 181 10:51 27.11.2020
5196 Clouds 4 1019 64 7348 1.99 208 10:27 27.11.2020
5197 Rain 6 1019 51 10000 3.21 197 07:30 27.11.2020
5198 Clouds 0 1021 65 10000 2.26 182 22:47 26.11.2020
5199 Clouds 0 1021 64 10000 2.27 176 22:22 26.11.2020
5200 Clouds 0 1021 64 10000 2.27 176 21:39 26.11.2020
5201 Clouds 1 1021 58 10000 2.48 176 19:48 26.11.2020
5202 Clouds 2 1021 56 10000 2.38 181 18:34 26.11.2020
5203 Clouds 2 1022 53 10000 2.1 179 16:38 26.11.2020
5204 Clouds 3 1019 47 10000 2.74 186 13:44 26.11.2020
5205 Clouds 4 1018 41 10000 3.42 210 12:52 26.11.2020
5206 Clouds 5 1016 39 10000 3.12 235 12:29 26.11.2020
5207 Clouds 10 1013 29 10000 3.94 234 10:39 26.11.2020
5208 Clouds 12 1013 26 10000 4.96 229 10:18 26.11.2020
5209 Clouds 12 1013 26 10000 4.96 229 09:34 26.11.2020
5210 Clouds 12 1013 27 10000 4.35 220 08:44 26.11.2020
5211 Clouds 11 1013 30 10000 3.41 221 07:49 26.11.2020
5212 Clouds -1 1022 73 10000 1.31 172 02:18 26.11.2020
5213 Clouds -2 1020 70 10000 1.53 184 21:54 25.11.2020
5214 Clouds -1 1020 69 10000 1.21 185 20:32 25.11.2020
5215 Clouds -1 1020 68 10000 1.41 229 18:59 25.11.2020
5216 Clouds 0 1020 63 10000 1.72 207 17:28 25.11.2020
5217 Clouds 1 1019 57 10000 2.14 193 15:43 25.11.2020
5218 Clear 1 1018 53 10000 2.29 209 14:58 25.11.2020
5219 Clear 2 1016 51 10000 2.31 219 13:46 25.11.2020
5220 Clouds 3 1015 50 10000 2.63 250 12:47 25.11.2020
5221 Clouds 11 1010 28 10000 6.88 266 11:23 25.11.2020
5222 Clouds 12 1009 25 10000 7.5 254 09:21 25.11.2020
5223 Clouds 12 1009 25 10000 7.5 254 08:50 25.11.2020
5224 Clouds 11 1010 28 10000 6.09 241 07:41 25.11.2020
5225 Clear 3 1019 64 10000 1.73 195 03:49 25.11.2020
5226 Clear -4 1021 83 10000 2.07 187 01:49 25.11.2020
5227 Clouds -4 1019 83 10000 2.04 184 00:20 25.11.2020
5228 Clouds -4 1019 83 10000 2.04 184 23:35 24.11.2020
5229 Clear -4 1019 82 10000 1.91 178 22:39 24.11.2020
5230 Clouds -4 1018 81 10000 1.81 173 21:44 24.11.2020
5231 Clouds -3 1018 80 10000 1.65 175 21:26 24.11.2020
5232 Clear -3 1018 77 10000 2.02 169 19:48 24.11.2020
5233 Clear -1 1018 68 10000 2.59 178 17:41 24.11.2020
5234 Clear -1 1018 63 10000 2.66 173 17:22 24.11.2020
5235 Clear -1 1018 63 10000 2.66 173 16:38 24.11.2020
5236 Clear 0 1017 59 10000 2.64 177 15:56 24.11.2020
5237 Clear 0 1017 58 10000 2.1 206 15:20 24.11.2020
5238 Clear 0 1017 58 10000 2.1 206 14:45 24.11.2020
5239 Clear 0 1015 58 10000 2.01 205 13:56 24.11.2020
5240 Clouds 1 1014 56 10000 2.31 206 12:40 24.11.2020
5241 Clouds 3 1012 49 10000 2.91 247 12:20 24.11.2020
5242 Clouds 3 1012 49 10000 2.91 247 11:33 24.11.2020
5243 Clouds 9 1009 29 10000 9.15 265 10:25 24.11.2020
5244 Clouds 9 1009 29 10000 9.15 265 09:40 24.11.2020
5245 Clouds 10 1009 29 10000 7.13 250 08:59 24.11.2020
5246 Clear 7 1011 44 10000 3.72 203 06:42 24.11.2020
5247 Clouds -5 1018 85 10000 1.71 174 01:24 24.11.2020
5248 Clouds -4 1017 84 10000 1.97 184 22:25 23.11.2020
5249 Clouds -4 1017 84 10000 1.97 184 22:25 23.11.2020
5250 Clouds -4 1017 84 10000 1.97 184 21:32 23.11.2020
5251 Clouds -3 1017 83 10000 1.92 167 20:36 23.11.2020
5252 Clouds -2 1017 80 10000 2.3 175 20:18 23.11.2020
5253 Clouds -1 1017 73 10000 2.64 172 17:58 23.11.2020
5254 Clouds 0 1017 69 10000 2.84 173 17:19 23.11.2020
5255 Clouds 1 1016 62 10000 2.66 169 15:44 23.11.2020
5256 Clouds 1 1015 58 10000 2.26 174 14:46 23.11.2020
5257 Clouds 1 1012 54 10000 1.56 214 12:42 23.11.2020
5258 Clouds 2 1010 53 10000 1.57 231 12:21 23.11.2020
5259 Clouds 2 1010 53 10000 1.57 231 11:43 23.11.2020
5260 Clouds 8 1009 33 10000 3.02 240 10:47 23.11.2020
5261 Clouds 9 1008 31 10000 3.98 238 09:31 23.11.2020
5262 Clouds 9 1009 32 10000 3.18 235 08:39 23.11.2020
5263 Clouds 6 1012 38 10000 2.36 193 06:57 23.11.2020
5264 Clouds -8 1018 63 10000 0.91 151 00:25 23.11.2020
5265 Clouds -8 1019 61 10000 0.91 141 23:18 22.11.2020
5266 Clouds -7 1019 61 10000 1.07 127 21:40 22.11.2020
5267 Clear -7 1019 60 10000 0.95 120 20:53 22.11.2020
5268 Clear -7 1020 60 10000 0.98 113 19:53 22.11.2020
5269 Clear -6 1020 58 10000 0.65 116 18:40 22.11.2020
5270 Clear -5 1020 51 10000 0.62 188 16:51 22.11.2020
5271 Clouds -5 1020 52 10000 0.54 143 15:44 22.11.2020
5272 Clear -3 1018 52 10000 1.71 10 14:29 22.11.2020
5273 Clouds -2 1016 53 10000 2.16 310 12:49 22.11.2020
5274 Clouds 0 1014 43 10000 4.05 289 11:57 22.11.2020
5275 Clouds 4 1012 31 10000 5.84 252 11:20 22.11.2020
5276 Clouds 4 1012 31 10000 5.84 252 10:44 22.11.2020
5277 Clouds 4 1011 34 10000 7.05 243 09:32 22.11.2020
5278 Clear -5 1016 80 10000 2.61 179 01:48 22.11.2020
5279 Clouds -4 1013 83 10000 2.77 165 23:39 21.11.2020
5280 Clouds -3 1012 81 10000 2.95 168 22:18 21.11.2020
5281 Clouds -3 1012 81 10000 2.95 168 21:30 21.11.2020
5282 Clouds -3 1012 80 10000 2.94 173 20:35 21.11.2020
5283 Clouds -3 1012 80 10000 2.95 176 19:54 21.11.2020
5284 Clouds -3 1012 80 10000 2.95 176 19:33 21.11.2020
5285 Clouds -2 1011 78 10000 3.37 171 18:27 21.11.2020
5286 Clouds -2 1011 77 10000 3.24 171 17:26 21.11.2020
5287 Clouds -2 1011 77 10000 3.24 171 16:39 21.11.2020
5288 Clear 0 1009 71 10000 3.7 176 15:22 21.11.2020
5289 Clear 0 1009 71 10000 3.7 176 14:43 21.11.2020
5290 Clouds 1 1006 63 10000 4.3 177 14:21 21.11.2020
5291 Clouds 2 1005 56 10000 4 188 12:36 21.11.2020
5292 Clouds 4 1003 48 10000 3.42 200 12:18 21.11.2020
5293 Clouds 8 1001 35 10000 4.47 199 10:51 21.11.2020
5294 Clouds 8 1001 36 10000 3.88 199 10:26 21.11.2020
5295 Clouds 8 1002 39 10000 3.68 201 08:51 21.11.2020
5296 Clear 6 1006 48 10000 3.78 193 06:35 21.11.2020
5297 Clear 3 1011 63 10000 2.58 187 04:39 21.11.2020
5298 Clear -5 1013 88 10000 2.19 171 01:21 21.11.2020
5299 Clear -5 1012 87 10000 2.11 172 23:59 20.11.2020
5300 Clear -3 1012 86 10000 2.49 177 22:26 20.11.2020
5301 Clear -3 1012 86 10000 2.49 177 21:42 20.11.2020
5302 Clear -2 1011 85 10000 2.68 174 21:21 20.11.2020
5303 Clear -2 1011 84 10000 2.88 177 19:46 20.11.2020
5304 Clear -1 1010 82 10000 2.95 176 18:38 20.11.2020
5305 Clear 0 1010 80 10000 3.17 177 17:53 20.11.2020
5306 Clear 1 1010 74 10000 3.12 182 17:27 20.11.2020
5307 Clear 1 1010 74 10000 3.12 182 16:39 20.11.2020
5308 Clear 2 1010 67 10000 3 182 15:58 20.11.2020
5309 Clear 2 1009 61 10000 2.64 195 15:26 20.11.2020
5310 Clear 3 1007 57 10000 2.27 202 13:46 20.11.2020
5311 Clear 3 1006 56 10000 1.87 210 13:18 20.11.2020
5312 Clear 3 1006 59 10000 2.07 205 12:35 20.11.2020
5313 Clear 4 1004 52 10000 2.04 217 11:45 20.11.2020
5314 Clear 10 1002 35 10000 3.38 227 10:59 20.11.2020
5315 Clear 10 1003 35 10000 3.69 208 08:54 20.11.2020
5316 Clear 9 1004 38 10000 3.35 207 08:25 20.11.2020
5317 Clear 9 1004 38 10000 3.35 207 07:32 20.11.2020
5318 Clear 2 1013 70 10000 1.89 189 03:44 20.11.2020
5319 Clear -3 1012 86 10000 2.32 174 22:42 19.11.2020
5320 Clear -3 1012 85 10000 2.46 175 21:55 19.11.2020
5321 Clear -3 1012 85 10000 2.46 175 21:36 19.11.2020
5322 Clear -2 1012 84 10000 2.76 174 20:32 19.11.2020
5323 Clear -1 1012 82 10000 2.93 174 19:49 19.11.2020
5324 Clear 0 1011 80 10000 3.01 176 19:24 19.11.2020
5325 Clear 0 1011 74 10000 2.74 174 17:40 19.11.2020
5326 Clear 1 1010 67 10000 2.92 181 16:54 19.11.2020
5327 Clear 2 1010 61 10000 2.84 181 15:40 19.11.2020
5328 Clear 2 1009 56 10000 2.51 191 15:18 19.11.2020
5329 Clear 3 1007 54 10000 2.48 185 13:46 19.11.2020
5330 Clear 3 1006 53 10000 2.08 188 13:19 19.11.2020
5331 Clear 3 1006 53 10000 2.25 189 12:35 19.11.2020
5332 Clear 5 1004 47 10000 2.48 195 11:50 19.11.2020
5333 Clear 5 1004 47 10000 2.48 195 11:32 19.11.2020
5334 Clear 10 1002 32 10000 3.52 216 10:53 19.11.2020
5335 Clear 11 1002 30 10000 3.64 219 10:18 19.11.2020
5336 Clear 11 1002 30 10000 3.64 219 09:42 19.11.2020
5337 Clear 11 1003 32 10000 3.12 210 09:24 19.11.2020
5338 Clear 10 1004 35 10000 2.72 208 08:19 19.11.2020
5339 Clear 1 1016 73 10000 1.06 182 02:45 19.11.2020
5340 Clear -3 1016 82 10000 0.9 179 01:45 19.11.2020
5341 Clear -4 1015 84 10000 1.27 170 23:53 18.11.2020
5342 Clear -4 1015 84 10000 1.47 165 23:24 18.11.2020
5343 Clear -4 1015 84 10000 1.47 165 22:36 18.11.2020
5344 Clear -3 1015 83 10000 1.41 162 22:18 18.11.2020
5345 Clear -3 1015 83 10000 1.41 162 21:38 18.11.2020
5346 Clear -2 1016 81 10000 1.7 175 21:19 18.11.2020
5347 Clear -1 1016 79 10000 1.95 182 19:48 18.11.2020
5348 Clear -1 1015 78 10000 2.11 186 19:27 18.11.2020
5349 Clear -1 1015 78 10000 2.11 186 18:55 18.11.2020
5350 Clear -1 1015 78 10000 2.13 184 18:36 18.11.2020
5351 Clear 0 1015 77 10000 2.35 182 17:37 18.11.2020
5352 Clear 1 1014 66 10000 3.14 182 16:24 18.11.2020
5353 Clear 1 1014 66 10000 3.14 182 15:36 18.11.2020
5354 Clear 2 1013 61 10000 2.77 187 14:41 18.11.2020
5355 Clouds 3 1011 57 10000 2.55 209 13:43 18.11.2020
5356 Clear 3 1009 54 10000 2.02 218 13:20 18.11.2020
5357 Clear 4 1007 49 10000 1.56 246 12:29 18.11.2020
5358 Clear 4 1007 49 10000 1.56 246 11:34 18.11.2020
5359 Clear 9 1005 32 10000 4.38 253 10:31 18.11.2020
5360 Clear 10 1004 31 10000 4.55 238 09:52 18.11.2020
5361 Clear 8 1006 39 10000 3.6 207 07:44 18.11.2020
5362 Clear 7 1008 44 10000 3.18 200 06:33 18.11.2020
5363 Clear -4 1014 83 10000 1.98 171 00:25 18.11.2020
5364 Clear -4 1014 83 10000 1.98 171 23:34 17.11.2020
5365 Clear -4 1014 81 10000 2.19 173 22:49 17.11.2020
5366 Clear -3 1014 79 10000 2.35 174 22:28 17.11.2020
5367 Clear -3 1014 79 10000 2.35 174 21:50 17.11.2020
5368 Clear -3 1014 79 10000 2.35 174 21:30 17.11.2020
5369 Clear -2 1014 77 10000 2.5 178 20:47 17.11.2020
5370 Clear -2 1014 75 10000 2.54 182 20:24 17.11.2020
5371 Clear -2 1014 75 10000 2.54 182 19:54 17.11.2020
5372 Clear -2 1014 75 10000 2.54 182 19:54 17.11.2020
5373 Clear 0 1014 69 10000 2.64 177 18:24 17.11.2020
5374 Clear 0 1014 69 10000 2.64 177 18:24 17.11.2020
5375 Clear 0 1014 69 10000 2.64 177 17:33 17.11.2020
5376 Clear 0 1014 66 10000 2.44 178 16:53 17.11.2020
5377 Clear 0 1014 62 10000 1.78 197 16:18 17.11.2020
5378 Clear 0 1014 62 10000 1.78 197 15:40 17.11.2020
5379 Clear 1 1013 57 10000 1.18 235 15:22 17.11.2020
5380 Clear 1 1013 57 10000 1.18 235 14:54 17.11.2020
5381 Clear 1 1012 51 10000 1.74 253 14:21 17.11.2020
5382 Clear 1 1012 51 10000 1.74 253 13:34 17.11.2020
5383 Clouds 2 1010 49 10000 1.7 261 12:46 17.11.2020
5384 Clouds 3 1009 45 10000 1.53 239 12:22 17.11.2020
5385 Clouds 3 1009 45 10000 1.53 239 11:41 17.11.2020
5386 Clouds 8 1007 32 10000 3.37 235 10:45 17.11.2020
5387 Clouds 9 1007 33 10000 3.32 228 10:23 17.11.2020
5388 Clouds 9 1007 33 10000 3.32 228 09:48 17.11.2020
5389 Clouds 8 1007 37 10000 3.22 213 08:54 17.11.2020
5390 Clouds 7 1008 40 10000 3.42 211 08:21 17.11.2020
5391 Clouds 7 1008 40 10000 3.42 211 07:35 17.11.2020
5392 Clear 4 1016 55 10000 3.05 193 04:32 17.11.2020
5393 Clear 1 1018 68 10000 2.6 185 03:29 17.11.2020
5394 Clear -2 1018 76 10000 2.44 182 02:29 17.11.2020
5395 Clouds -3 1018 79 10000 2.27 181 00:57 17.11.2020
5396 Clear -3 1017 77 10000 2.34 178 00:19 17.11.2020
5397 Clear -3 1017 77 10000 2.34 178 23:41 16.11.2020
5398 Clear -3 1016 77 10000 2.51 177 23:19 16.11.2020
5399 Clear -2 1016 77 10000 2.68 176 22:26 16.11.2020
5400 Clear -2 1016 77 10000 2.68 176 21:59 16.11.2020
5401 Clear -2 1016 77 10000 2.68 176 21:40 16.11.2020
5402 Clear -1 1016 77 10000 2.72 174 21:20 16.11.2020
5403 Clear -1 1016 77 10000 2.77 176 20:26 16.11.2020
5404 Clear -1 1016 77 10000 2.77 176 19:55 16.11.2020
5405 Clear -1 1016 77 10000 2.77 176 19:30 16.11.2020
5406 Clear 0 1017 77 10000 2.82 175 18:52 16.11.2020
5407 Clear 0 1017 74 10000 3.03 170 18:26 16.11.2020
5408 Clear 0 1017 74 10000 3.03 170 17:37 16.11.2020
5409 Clear 1 1017 70 10000 3.21 172 17:19 16.11.2020
5410 Clear 1 1017 70 10000 3.21 172 16:51 16.11.2020
5411 Clear 2 1017 66 10000 3.49 176 16:26 16.11.2020
5412 Clear 2 1017 66 10000 3.49 176 15:45 16.11.2020
5413 Clear 2 1017 66 10000 3.49 176 15:45 16.11.2020
5414 Clear 3 1016 61 10000 3.42 178 15:27 16.11.2020
5415 Clear 3 1016 61 10000 3.42 178 14:48 16.11.2020
5416 Clear 3 1015 55 10000 3.61 187 13:50 16.11.2020
5417 Clear 4 1013 48 10000 3.9 192 13:21 16.11.2020
5418 Clear 4 1014 48 10000 3.87 196 12:30 16.11.2020
5419 Clear 7 1011 38 10000 5.41 214 11:42 16.11.2020
5420 Clear 11 1009 27 10000 11.84 219 11:22 16.11.2020
5421 Clear 11 1009 27 10000 11.84 219 10:44 16.11.2020
5422 Clear 13 1008 22 10000 11.78 216 10:26 16.11.2020
5423 Clear 13 1008 22 10000 11.78 216 09:52 16.11.2020
5424 Clear 13 1008 22 10000 11.78 216 09:34 16.11.2020
5425 Clear 14 1008 21 10000 10.03 214 08:48 16.11.2020
5426 Clear 14 1010 24 10000 6.25 203 08:19 16.11.2020
5427 Clear 12 1012 29 10000 4.13 194 07:19 16.11.2020
5428 Clear 11 1012 30 10000 3.78 203 06:45 16.11.2020
5429 Clear 10 1014 34 10000 3.45 198 05:44 16.11.2020
5430 Clear 6 1019 49 10000 2.2 187 03:54 16.11.2020
5431 Clear 0 1022 77 10000 2.06 175 01:45 16.11.2020
5432 Clear -1 1022 82 10000 2.08 173 00:33 16.11.2020
5433 Clear 0 1021 80 10000 2.15 172 23:30 15.11.2020
5434 Clear 0 1021 80 10000 2.15 172 22:58 15.11.2020
5435 Clear 0 1021 76 10000 2.22 173 22:25 15.11.2020
5436 Clear 0 1021 76 10000 2.22 173 21:54 15.11.2020
5437 Clear 0 1021 76 10000 2.22 173 21:35 15.11.2020
5438 Clear 1 1021 71 10000 2.33 179 20:58 15.11.2020
5439 Clear 1 1021 71 10000 2.33 179 20:38 15.11.2020
5440 Clear 1 1021 71 10000 2.33 179 20:38 15.11.2020
5441 Clear 2 1021 66 10000 2.19 175 19:57 15.11.2020
5442 Clear 2 1021 66 10000 2.19 175 19:38 15.11.2020
5443 Clear 2 1022 61 10000 2.41 171 19:20 15.11.2020
5444 Clear 2 1022 64 10000 2.39 171 18:45 15.11.2020
5445 Clear 3 1022 58 10000 2.7 174 18:25 15.11.2020
5446 Clear 3 1022 58 10000 2.7 174 17:57 15.11.2020
5447 Clear 3 1022 58 10000 2.7 174 17:39 15.11.2020
5448 Clear 4 1022 53 10000 2.9 178 17:19 15.11.2020
5449 Clear 4 1022 53 10000 2.9 178 16:39 15.11.2020
5450 Clear 5 1021 50 10000 2.49 175 16:18 15.11.2020
5451 Clear 5 1021 50 10000 2.49 175 15:43 15.11.2020
5452 Clear 5 1020 48 10000 2.41 178 15:23 15.11.2020
5453 Clear 5 1020 48 10000 2.41 178 14:51 15.11.2020
5454 Clear 5 1019 49 10000 1.69 189 14:25 15.11.2020
5455 Clear 5 1019 49 10000 1.69 189 13:42 15.11.2020
5456 Clear 5 1017 50 10000 0.89 200 13:18 15.11.2020
5457 Clear 5 1017 49 10000 1.01 193 12:46 15.11.2020
5458 Clear 6 1016 46 10000 0.66 210 12:19 15.11.2020
5459 Clear 6 1016 46 10000 0.66 210 11:44 15.11.2020
5460 Clear 13 1014 28 10000 1.47 204 11:18 15.11.2020
5461 Clear 13 1014 28 10000 1.47 204 10:51 15.11.2020
5462 Clear 13 1014 28 10000 1.47 204 10:30 15.11.2020
5463 Clear 14 1014 27 10000 2.28 203 09:52 15.11.2020
5464 Clear 14 1014 27 10000 2.28 203 09:32 15.11.2020
5465 Clear 14 1014 27 10000 2.72 202 08:54 15.11.2020
5466 Clear 14 1014 27 10000 2.72 202 08:32 15.11.2020
5467 Clear 13 1016 29 10000 2.52 203 07:44 15.11.2020
5468 Clear 11 1020 36 10000 1.58 197 06:25 15.11.2020
5469 Clear 9 1023 40 10000 1.44 186 04:53 15.11.2020
5470 Clear 1 1026 71 10000 0.79 159 01:54 15.11.2020
5471 Clear -2 1025 80 10000 0.75 153 00:30 15.11.2020
5472 Clear -2 1024 78 10000 0.96 145 23:44 14.11.2020
5473 Clear -1 1023 74 10000 1.18 148 22:55 14.11.2020
5474 Clear -1 1023 74 10000 1.18 148 22:37 14.11.2020
5475 Clear -1 1023 70 10000 1.2 158 22:18 14.11.2020
5476 Clear -1 1023 70 10000 1.2 158 21:39 14.11.2020
5477 Clear 0 1023 68 10000 1.37 163 21:20 14.11.2020
5478 Clear 0 1023 68 10000 1.37 163 20:42 14.11.2020
5479 Clear 1 1023 64 10000 1.37 172 20:23 14.11.2020
5480 Clear 1 1023 64 10000 1.37 172 19:36 14.11.2020
5481 Clear 1 1023 59 10000 1.65 171 18:58 14.11.2020
5482 Clear 1 1023 60 10000 1.65 173 18:39 14.11.2020
5483 Clear 2 1023 55 10000 1.45 177 18:21 14.11.2020
5484 Clear 2 1023 55 10000 1.45 177 17:44 14.11.2020
5485 Clear 2 1022 53 10000 1.25 202 17:26 14.11.2020
5486 Clear 2 1022 53 10000 1.25 202 16:52 14.11.2020
5487 Clear 2 1022 53 10000 1.25 202 16:31 14.11.2020
5488 Clear 3 1022 50 10000 1.26 204 15:54 14.11.2020
5489 Clear 3 1022 50 10000 1.26 204 15:31 14.11.2020
5490 Clear 4 1021 48 10000 1.34 229 14:56 14.11.2020
5491 Clear 4 1020 47 10000 1.8 244 14:30 14.11.2020
5492 Clear 4 1020 47 10000 1.8 244 13:52 14.11.2020
5493 Clear 4 1020 47 10000 1.8 244 13:30 14.11.2020
5494 Clear 5 1018 47 10000 1.37 231 12:52 14.11.2020
5495 Clear 5 1018 47 10000 1.37 231 12:33 14.11.2020
5496 Clear 7 1016 41 10000 1.55 195 11:56 14.11.2020
5497 Clear 7 1016 41 10000 1.55 195 11:38 14.11.2020
5498 Clear 13 1014 27 10000 2.31 210 10:59 14.11.2020
5499 Clear 13 1014 27 10000 2.31 210 10:38 14.11.2020
5500 Clear 13 1014 27 10000 2.78 220 10:20 14.11.2020
5501 Clear 13 1014 27 10000 2.78 220 09:45 14.11.2020
5502 Clear 13 1014 28 10000 2.92 216 09:26 14.11.2020
5503 Clear 13 1014 28 10000 2.92 216 08:41 14.11.2020
5504 Clear 12 1015 30 10000 2.8 207 08:22 14.11.2020
5505 Clear 12 1015 30 10000 2.8 207 07:42 14.11.2020
5506 Clear 11 1017 34 10000 2.37 204 06:58 14.11.2020
5507 Clear 10 1019 38 10000 1.98 202 06:21 14.11.2020
5508 Clear 9 1021 42 10000 1.73 191 05:18 14.11.2020
5509 Clear 5 1024 53 10000 1.23 179 03:21 14.11.2020
5510 Clear -1 1022 73 10000 1.46 163 00:28 14.11.2020
5511 Clear -1 1022 73 10000 1.46 163 23:38 13.11.2020
5512 Clear -1 1022 70 10000 1.47 167 23:19 13.11.2020
5513 Clear -1 1022 70 10000 1.47 167 22:41 13.11.2020
5514 Clear 0 1022 66 10000 1.43 167 22:22 13.11.2020
5515 Clear 0 1022 66 10000 1.43 167 21:50 13.11.2020
5516 Clear 1 1022 61 10000 1.56 168 21:27 13.11.2020
5517 Clear 1 1022 61 10000 1.56 168 20:54 13.11.2020
5518 Clear 1 1022 61 10000 1.56 168 20:32 13.11.2020
5519 Clear 1 1022 58 10000 1.42 172 19:58 13.11.2020
5520 Clear 1 1022 58 10000 1.42 172 19:40 13.11.2020
5521 Clear 1 1022 55 10000 1.26 185 19:22 13.11.2020
5522 Clear 1 1022 55 10000 1.26 185 18:44 13.11.2020
5523 Clear 2 1022 54 10000 1.23 193 17:47 13.11.2020
5524 Clear 3 1022 51 10000 1.21 210 17:24 13.11.2020
5525 Clear 3 1022 51 10000 1.21 210 16:59 13.11.2020
5526 Clear 3 1022 51 10000 1.21 210 16:40 13.11.2020
5527 Clear 3 1022 51 10000 1.07 212 16:20 13.11.2020
5528 Clear 3 1022 51 10000 1.07 212 15:41 13.11.2020
5529 Clear 3 1021 50 10000 0.8 234 15:21 13.11.2020
5530 Clear 3 1021 50 10000 0.8 234 14:38 13.11.2020
5531 Clear 4 1020 49 10000 0.69 258 14:18 13.11.2020
5532 Clear 4 1020 49 10000 0.69 258 13:32 13.11.2020
5533 Clear 4 1018 48 10000 0.43 319 12:59 13.11.2020
5534 Clear 4 1018 48 10000 0.43 319 12:41 13.11.2020
5535 Clear 5 1016 44 10000 0.22 313 12:23 13.11.2020
5536 Clear 5 1016 44 10000 0.22 313 11:47 13.11.2020
5537 Clear 12 1015 27 10000 1.27 213 11:23 13.11.2020
5538 Clear 12 1015 27 10000 1.27 213 10:52 13.11.2020
5539 Clear 12 1015 27 10000 1.27 213 10:33 13.11.2020
5540 Clear 12 1015 26 10000 2.06 219 09:53 13.11.2020
5541 Clear 12 1015 26 10000 2.06 219 09:32 13.11.2020
5542 Clear 13 1015 26 10000 2.13 222 08:54 13.11.2020
5543 Clear 13 1015 26 10000 2.13 222 08:30 13.11.2020
5544 Clear 12 1017 27 10000 1.9 215 07:51 13.11.2020
5545 Clear 11 1019 31 10000 1.62 210 07:29 13.11.2020
5546 Clear 11 1019 31 10000 1.62 210 06:57 13.11.2020
5547 Clear 11 1018 32 10000 1.6 214 06:37 13.11.2020
5548 Clear 10 1021 36 10000 1.33 208 05:42 13.11.2020
5549 Clear 7 1025 46 10000 0.95 189 04:24 13.11.2020
5550 Clear 1 1027 72 10000 0.89 165 01:43 13.11.2020
5551 Clear -2 1025 78 10000 0.82 166 00:37 13.11.2020
5552 Clear -2 1025 76 10000 1 171 23:59 12.11.2020
5553 Clear -2 1025 76 10000 1 171 23:36 12.11.2020
5554 Clear -1 1024 73 10000 1.24 176 23:18 12.11.2020
5555 Clear -1 1024 73 10000 1.24 176 23:18 12.11.2020
5556 Clear -1 1024 73 10000 1.24 176 22:40 12.11.2020
5557 Clear 0 1024 70 10000 1.46 177 21:59 12.11.2020
5558 Clear 0 1024 70 10000 1.46 177 21:41 12.11.2020
5559 Clear 0 1024 66 10000 1.46 177 21:22 12.11.2020
5560 Clear 0 1024 66 10000 1.46 177 20:42 12.11.2020
5561 Clear 1 1025 61 10000 1.39 187 20:24 12.11.2020
5562 Clear 1 1025 61 10000 1.39 187 19:58 12.11.2020
5563 Clear 1 1025 61 10000 1.39 187 19:40 12.11.2020
5564 Clear 2 1025 57 10000 1.43 194 19:21 12.11.2020
5565 Clear 2 1025 57 10000 1.43 194 18:48 12.11.2020
5566 Clear 2 1025 52 10000 1.36 209 18:20 12.11.2020
5567 Clear 2 1025 52 10000 1.36 209 17:43 12.11.2020
5568 Clear 3 1024 50 10000 1.29 213 17:25 12.11.2020
5569 Clear 3 1024 50 10000 1.29 213 16:46 12.11.2020
5570 Clear 3 1024 50 10000 1.29 213 16:46 12.11.2020
5571 Clear 3 1024 49 10000 1.14 214 16:24 12.11.2020
5572 Clear 3 1024 49 10000 1.14 214 15:54 12.11.2020
5573 Clear 3 1024 49 10000 1.14 214 15:31 12.11.2020
5574 Clear 3 1023 49 10000 0.76 210 14:57 12.11.2020
5575 Clear 3 1023 49 10000 0.76 210 14:38 12.11.2020
5576 Clear 3 1022 49 10000 0.42 214 14:20 12.11.2020
5577 Clear 3 1022 49 10000 0.42 214 13:45 12.11.2020
5578 Clear 4 1021 47 10000 0.21 134 13:21 12.11.2020
5579 Clear 4 1021 47 10000 0.21 134 12:49 12.11.2020
5580 Clear 6 1019 43 10000 0.58 148 12:26 12.11.2020
5581 Clear 6 1019 43 10000 0.58 148 11:59 12.11.2020
5582 Clear 6 1019 43 10000 0.58 148 11:40 12.11.2020
5583 Clear 12 1017 27 10000 1.45 199 10:58 12.11.2020
5584 Clear 12 1017 27 10000 1.45 199 10:38 12.11.2020
5585 Clear 13 1017 27 10000 2.16 217 10:20 12.11.2020
5586 Clear 13 1017 27 10000 2.16 217 09:40 12.11.2020
5587 Clear 13 1017 28 10000 2.69 215 09:18 12.11.2020
5588 Clear 13 1017 28 10000 2.69 215 08:41 12.11.2020
5589 Clear 12 1019 30 10000 2.44 209 08:21 12.11.2020
5590 Clear 12 1019 30 10000 2.44 209 07:59 12.11.2020
5591 Clear 12 1019 30 10000 2.44 209 07:39 12.11.2020
5592 Clear 11 1020 34 10000 2.09 207 06:55 12.11.2020
5593 Clear 10 1023 39 10000 1.92 206 06:27 12.11.2020
5594 Clear 8 1025 44 10000 1.74 198 04:38 12.11.2020
5595 Clear 5 1028 56 10000 1.33 183 03:20 12.11.2020
5596 Clear -2 1028 80 10000 1.58 165 00:54 12.11.2020
5597 Clear -1 1026 77 10000 1.65 164 23:47 11.11.2020
5598 Clear -1 1026 75 10000 1.76 165 23:25 11.11.2020
5599 Clear -1 1026 75 10000 1.76 165 22:57 11.11.2020
5600 Clear -1 1026 75 10000 1.76 165 22:38 11.11.2020
5601 Clear 0 1026 72 10000 1.79 163 22:18 11.11.2020
5602 Clear 0 1026 72 10000 1.79 163 21:41 11.11.2020
5603 Clear 0 1026 69 10000 1.77 162 21:23 11.11.2020
5604 Clear 0 1026 69 10000 1.77 162 20:55 11.11.2020
5605 Clear 0 1026 69 10000 1.77 162 20:37 11.11.2020
5606 Clear 1 1026 66 10000 1.73 163 20:18 11.11.2020
5607 Clear 1 1026 66 10000 1.73 163 19:46 11.11.2020
5608 Clear 2 1026 62 10000 1.96 165 19:28 11.11.2020
5609 Clear 1 1026 62 10000 1.8 164 18:47 11.11.2020
5610 Clear 2 1026 60 10000 1.85 167 18:27 11.11.2020
5611 Clear 2 1026 60 10000 1.85 167 17:41 11.11.2020
5612 Clear 3 1025 58 10000 1.68 180 17:22 11.11.2020
5613 Clear 3 1025 58 10000 1.68 180 16:47 11.11.2020
5614 Clear 3 1025 55 10000 1.76 184 16:28 11.11.2020
5615 Clear 3 1025 55 10000 1.76 184 15:48 11.11.2020
5616 Clear 4 1024 54 10000 1.66 194 15:26 11.11.2020
5617 Clear 4 1024 54 10000 1.66 194 14:52 11.11.2020
5618 Clear 4 1024 54 10000 1.66 194 14:33 11.11.2020
5619 Clear 3 1022 55 10000 0.85 193 13:56 11.11.2020
5620 Clear 3 1022 55 10000 0.85 193 13:33 11.11.2020
5621 Clear 4 1020 54 10000 0.47 215 12:42 11.11.2020
5622 Clear 6 1019 48 10000 0.68 213 12:20 11.11.2020
5623 Clear 6 1019 48 10000 0.68 213 11:49 11.11.2020
5624 Clear 11 1018 32 10000 1.79 213 11:29 11.11.2020
5625 Clear 11 1018 32 10000 1.79 213 10:42 11.11.2020
5626 Clear 12 1017 32 10000 2.33 213 10:22 11.11.2020
5627 Clear 12 1017 32 10000 2.33 213 09:46 11.11.2020
5628 Clear 12 1017 33 10000 2.39 208 09:28 11.11.2020
5629 Clear 12 1017 33 10000 2.39 208 08:46 11.11.2020
5630 Clear 11 1019 35 10000 2.17 204 08:27 11.11.2020
5631 Clear 11 1019 35 10000 2.17 204 07:51 11.11.2020
5632 Clear 11 1019 35 10000 2.17 204 07:30 11.11.2020
5633 Clear 9 1022 43 10000 1.69 197 06:27 11.11.2020
5634 Clear 8 1024 48 10000 1.31 189 04:30 11.11.2020
5635 Clear 1 1028 76 10000 1.48 160 01:32 11.11.2020
5636 Clear -2 1027 82 10000 1.54 167 00:34 11.11.2020
5637 Clear -1 1026 79 10000 1.74 166 23:55 10.11.2020
5638 Clear -1 1026 76 10000 1.76 165 23:24 10.11.2020
5639 Clear -1 1026 76 10000 1.76 165 22:57 10.11.2020
5640 Clear 0 1025 74 10000 1.77 159 22:28 10.11.2020
5641 Clear 0 1025 74 10000 1.77 159 21:56 10.11.2020
5642 Clear 0 1025 74 10000 1.77 159 21:38 10.11.2020
5643 Clear 0 1025 71 10000 1.84 161 21:18 10.11.2020
5644 Clear 0 1025 71 10000 1.84 161 20:42 10.11.2020
5645 Clear 1 1025 68 10000 1.97 165 20:23 10.11.2020
5646 Clear 1 1025 68 10000 1.97 165 19:53 10.11.2020
5647 Clear 1 1025 68 10000 1.97 165 19:35 10.11.2020
5648 Clear 2 1025 65 10000 2.02 171 18:59 10.11.2020
5649 Clear 2 1025 64 10000 2.08 172 18:41 10.11.2020
5650 Clear 2 1025 63 10000 2.03 177 18:20 10.11.2020
5651 Clear 2 1025 63 10000 2.03 177 17:44 10.11.2020
5652 Clear 3 1024 61 10000 1.93 182 17:26 10.11.2020
5653 Clear 3 1024 61 10000 1.93 182 16:57 10.11.2020
5654 Clear 3 1024 61 10000 1.93 182 16:38 10.11.2020
5655 Clear 3 1023 60 10000 1.75 188 16:19 10.11.2020
5656 Clear 3 1023 60 10000 1.75 188 15:45 10.11.2020
5657 Clear 3 1022 60 10000 1.18 189 15:23 10.11.2020
5658 Clear 3 1022 60 10000 1.18 189 14:42 10.11.2020
5659 Clear 3 1021 60 10000 0.51 168 14:22 10.11.2020
5660 Clear 3 1021 60 10000 0.51 168 13:57 10.11.2020
5661 Clear 3 1021 60 10000 0.51 168 13:36 10.11.2020
5662 Clear 4 1019 57 10000 0.22 213 13:18 10.11.2020
5663 Clear 4 1019 57 10000 0.22 213 12:44 10.11.2020
5664 Clear 4 1019 57 10000 0.22 213 12:44 10.11.2020
5665 Clear 6 1018 50 10000 0.84 233 12:24 10.11.2020
5666 Clear 6 1018 50 10000 0.84 233 11:39 10.11.2020
5667 Clear 11 1016 35 10000 2.06 219 11:20 10.11.2020
5668 Clear 11 1016 35 10000 2.06 219 10:45 10.11.2020
5669 Clear 11 1015 34 10000 2.72 217 10:27 10.11.2020
5670 Clear 11 1015 34 10000 2.72 217 09:55 10.11.2020
5671 Clear 11 1015 34 10000 2.72 217 09:37 10.11.2020
5672 Clear 11 1016 34 10000 2.9 210 09:19 10.11.2020
5673 Clear 11 1016 34 10000 2.9 210 08:45 10.11.2020
5674 Clear 11 1017 36 10000 2.65 204 08:24 10.11.2020
5675 Clear 11 1017 36 10000 2.65 204 07:42 10.11.2020
5676 Clear 10 1019 40 10000 2.27 200 07:20 10.11.2020
5677 Clear 10 1019 40 10000 2.31 201 06:39 10.11.2020
5678 Clear 9 1021 44 10000 1.93 197 05:34 10.11.2020
5679 Clear 8 1023 48 10000 1.58 188 04:36 10.11.2020
5680 Clear 0 1026 73 10000 1.34 160 01:42 10.11.2020
5681 Clear -2 1026 77 10000 1.43 160 00:59 10.11.2020
5682 Clear -2 1025 70 10000 1.44 153 23:51 09.11.2020
5683 Clear -2 1025 67 10000 1.35 146 23:23 09.11.2020
5684 Clear -2 1025 67 10000 1.35 146 22:44 09.11.2020
5685 Clear -2 1025 67 10000 1.35 146 22:44 09.11.2020
5686 Clear -2 1025 63 10000 1.19 139 22:23 09.11.2020
5687 Clear -2 1025 63 10000 1.19 139 21:45 09.11.2020
5688 Clear -1 1025 60 10000 1.12 136 21:27 09.11.2020
5689 Clear -1 1025 60 10000 1.12 136 20:45 09.11.2020
5690 Clear -1 1025 58 10000 0.86 128 20:22 09.11.2020
5691 Clear -1 1025 58 10000 0.86 128 19:57 09.11.2020
5692 Clear -1 1025 58 10000 0.86 128 19:39 09.11.2020
5693 Clear -1 1025 54 10000 0.45 140 19:19 09.11.2020
5694 Clear -1 1025 54 10000 0.45 140 18:41 09.11.2020
5695 Clear 0 1025 54 10000 0.41 176 18:20 09.11.2020
5696 Clear 0 1025 54 10000 0.41 176 17:44 09.11.2020
5697 Clear 0 1025 53 10000 0.48 158 17:26 09.11.2020
5698 Clear 0 1025 53 10000 0.48 158 16:44 09.11.2020
5699 Clear 1 1025 51 10000 0.56 110 16:26 09.11.2020
5700 Clear 1 1025 51 10000 0.56 110 15:48 09.11.2020
5701 Clear 2 1024 48 10000 0.9 77 15:29 09.11.2020
5702 Clear 2 1024 48 10000 0.9 77 14:56 09.11.2020
5703 Clear 2 1024 48 10000 0.9 77 14:37 09.11.2020
5704 Clear 2 1023 46 10000 1.15 60 14:19 09.11.2020
5705 Clear 2 1023 46 10000 1.15 60 14:19 09.11.2020
5706 Clear 2 1023 46 10000 1.15 60 13:42 09.11.2020
5707 Clear 3 1021 45 10000 1.29 38 13:19 09.11.2020
5708 Clear 3 1021 45 10000 1.29 38 12:45 09.11.2020
5709 Clear 5 1019 43 10000 1.18 10 12:21 09.11.2020
5710 Clear 5 1019 43 10000 1.18 10 11:43 09.11.2020
5711 Clear 10 1018 28 10000 0.45 308 11:24 09.11.2020
5712 Clear 10 1018 28 10000 0.45 308 11:24 09.11.2020
5713 Clear 10 1018 28 10000 0.45 308 10:59 09.11.2020
5714 Clear 10 1018 28 10000 0.45 308 10:40 09.11.2020
5715 Clear 10 1018 28 10000 0.75 249 10:22 09.11.2020
5716 Clear 10 1018 28 10000 0.75 249 09:31 09.11.2020
5717 Clear 10 1019 28 10000 0.84 245 08:57 09.11.2020
5718 Clear 10 1021 28 10000 0.65 259 08:28 09.11.2020
5719 Clear 10 1021 28 10000 0.65 259 07:57 09.11.2020
5720 Clear 9 1023 30 10000 0.34 270 07:24 09.11.2020
5721 Clear 9 1022 31 10000 0.46 259 06:55 09.11.2020
5722 Clear 8 1024 33 10000 0 212 05:38 09.11.2020
5723 Clear -1 1031 57 10000 1.26 39 02:22 09.11.2020
5724 Clear -1 1031 57 10000 1.26 39 01:41 09.11.2020
5725 Clear -5 1030 61 10000 1.33 44 00:56 09.11.2020
5726 Clear -4 1030 61 10000 1.52 42 23:48 08.11.2020
5727 Clear -3 1030 61 10000 1.68 36 23:28 08.11.2020
5728 Clear -3 1030 61 10000 1.68 36 22:43 08.11.2020
5729 Clear -3 1030 61 10000 1.74 36 22:22 08.11.2020
5730 Clear -3 1030 61 10000 1.74 36 21:49 08.11.2020
5731 Clear -2 1031 61 10000 1.84 34 21:24 08.11.2020
5732 Clear -2 1031 61 10000 1.84 34 20:57 08.11.2020
5733 Clear -2 1031 61 10000 1.84 34 20:38 08.11.2020
5734 Clear -2 1031 61 10000 1.97 31 20:20 08.11.2020
5735 Clear -2 1031 61 10000 1.97 31 19:46 08.11.2020
5736 Clear -1 1031 61 10000 2.03 26 19:24 08.11.2020
5737 Clear -1 1031 61 10000 2.03 26 18:59 08.11.2020
5738 Clear -1 1030 62 10000 2.08 25 18:40 08.11.2020
5739 Clear 0 1031 62 10000 2.19 21 18:21 08.11.2020
5740 Clear 0 1031 62 10000 2.19 21 17:56 08.11.2020
5741 Clear 0 1031 62 10000 2.19 21 17:36 08.11.2020
5742 Clear 1 1031 61 10000 2.35 14 17:18 08.11.2020
5743 Clear 1 1031 61 10000 2.35 14 16:38 08.11.2020
5744 Clear 1 1031 58 10000 2.44 13 16:20 08.11.2020
5745 Clear 1 1031 58 10000 2.44 13 15:46 08.11.2020
5746 Clear 2 1030 56 10000 2.61 13 15:28 08.11.2020
5747 Clear 2 1030 56 10000 2.61 13 14:44 08.11.2020
5748 Clear 3 1028 53 10000 2.72 15 14:24 08.11.2020
5749 Clear 3 1028 53 10000 2.72 15 14:24 08.11.2020
5750 Clear 3 1028 53 10000 2.72 15 13:57 08.11.2020
5751 Clear 3 1028 53 10000 2.72 15 13:39 08.11.2020
5752 Clouds 4 1027 50 10000 2.82 19 13:20 08.11.2020
5753 Clouds 4 1027 50 10000 2.98 15 12:41 08.11.2020
5754 Clouds 6 1025 44 10000 2.88 13 12:23 08.11.2020
5755 Clouds 6 1025 44 10000 2.88 13 11:56 08.11.2020
5756 Clouds 6 1025 44 10000 2.88 13 11:38 08.11.2020
5757 Clouds 9 1024 35 10000 3.15 4 11:19 08.11.2020
5758 Clouds 9 1024 35 10000 3.15 4 10:47 08.11.2020
5759 Clouds 10 1024 34 10000 2.7 357 10:18 08.11.2020
5760 Clouds 10 1024 34 10000 2.7 357 09:42 08.11.2020
5761 Clouds 10 1024 34 10000 2.43 357 09:24 08.11.2020
5762 Clouds 10 1024 34 10000 2.43 357 08:47 08.11.2020
5763 Clouds 9 1025 34 10000 2.43 4 08:27 08.11.2020
5764 Clouds 9 1025 34 10000 2.43 4 07:53 08.11.2020
5765 Clouds 9 1025 34 10000 2.43 4 07:33 08.11.2020
5766 Clear 9 1026 36 10000 2.57 8 06:50 08.11.2020
5767 Clear 8 1028 38 10000 2.65 10 05:55 08.11.2020
5768 Clear 7 1030 40 10000 2.64 10 05:26 08.11.2020
5769 Clear 6 1031 45 10000 2.64 10 03:39 08.11.2020
5770 Clouds 1 1032 66 10000 2.42 14 01:49 08.11.2020
5771 Clouds -1 1031 74 10000 2.34 14 01:18 08.11.2020
5772 Clouds -1 1030 75 10000 2.34 13 00:23 08.11.2020
5773 Clouds -1 1030 75 10000 2.34 13 23:43 07.11.2020
5774 Clouds 0 1029 75 10000 2.22 14 23:24 07.11.2020
5775 Clouds 0 1029 75 10000 2.22 14 22:41 07.11.2020
5776 Clouds 0 1028 72 10000 2.06 15 22:21 07.11.2020
5777 Clouds 0 1028 72 10000 2.06 15 21:45 07.11.2020
5778 Clouds 1 1028 69 10000 2.16 15 21:22 07.11.2020
5779 Clouds 1 1028 69 10000 2.16 15 20:50 07.11.2020
5780 Clouds 1 1028 69 10000 2.16 15 20:32 07.11.2020
5781 Clouds 2 1027 66 10000 2.32 13 19:52 07.11.2020
5782 Clear 2 1026 67 10000 1.95 10 19:29 07.11.2020
5783 Clear 2 1026 67 10000 1.95 10 18:58 07.11.2020
5784 Clear 2 1026 69 10000 1.34 11 18:38 07.11.2020
5785 Clear 2 1026 67 10000 1.04 28 18:20 07.11.2020
5786 Clear 2 1026 67 10000 1.04 28 17:43 07.11.2020
5787 Clear 3 1025 62 10000 0.18 68 17:23 07.11.2020
5788 Clear 3 1025 62 10000 0.18 68 16:42 07.11.2020
5789 Clear 4 1023 57 10000 1.25 196 16:23 07.11.2020
5790 Clear 4 1023 57 10000 1.25 196 15:45 07.11.2020
5791 Clear 5 1022 54 10000 1.72 199 15:23 07.11.2020
5792 Clear 5 1022 54 10000 1.72 199 14:55 07.11.2020
5793 Clear 5 1022 54 10000 1.72 199 14:37 07.11.2020
5794 Clear 5 1020 54 10000 1.18 217 14:18 07.11.2020
5795 Clear 5 1020 54 10000 1.18 217 13:39 07.11.2020
5796 Clear 5 1018 51 10000 0.89 243 13:21 07.11.2020
5797 Clear 5 1018 51 10000 1.2 241 12:33 07.11.2020
5798 Clear 7 1015 46 10000 1.03 238 11:45 07.11.2020
5799 Clear 12 1014 32 10000 1.66 213 11:25 07.11.2020
5800 Clear 12 1014 32 10000 1.66 213 10:56 07.11.2020
5801 Clear 12 1014 32 10000 1.66 213 10:38 07.11.2020
5802 Clear 12 1013 31 10000 1.96 212 10:20 07.11.2020
5803 Clear 12 1013 31 10000 1.96 212 09:47 07.11.2020
5804 Clear 12 1013 32 10000 2.24 210 09:21 07.11.2020
5805 Clear 12 1013 32 10000 2.24 210 08:43 07.11.2020
5806 Clear 12 1014 34 10000 2.49 203 08:22 07.11.2020
5807 Clear 12 1014 34 10000 2.49 203 07:37 07.11.2020
5808 Clear 11 1016 37 10000 2.16 200 06:48 07.11.2020
5809 Clear 9 1018 42 10000 2.03 198 05:40 07.11.2020
5810 Clear 4 1023 62 10000 1.37 171 03:25 07.11.2020
5811 Clear 4 1023 62 10000 1.37 171 02:38 07.11.2020
5812 Clear -2 1023 83 10000 1.45 164 01:27 07.11.2020
5813 Clear -3 1023 84 10000 1.15 157 00:34 07.11.2020
5814 Clear -2 1023 81 10000 1.43 162 23:32 06.11.2020
5815 Clear -1 1022 78 10000 1.64 160 22:57 06.11.2020
5816 Clear -1 1022 78 10000 1.64 160 22:38 06.11.2020
5817 Clear -1 1022 74 10000 1.56 153 22:18 06.11.2020
5818 Clear -1 1022 74 10000 1.56 153 21:41 06.11.2020
5819 Clear 0 1022 71 10000 1.61 163 21:20 06.11.2020
5820 Clear 0 1022 71 10000 1.61 163 20:45 06.11.2020
5821 Clear 0 1022 66 10000 1.72 163 20:20 06.11.2020
5822 Clear 0 1022 66 10000 1.72 163 19:45 06.11.2020
5823 Clear 1 1022 60 10000 1.7 169 19:27 06.11.2020
5824 Clear 1 1022 60 10000 1.7 169 18:56 06.11.2020
5825 Clear 1 1022 64 10000 1.8 175 18:38 06.11.2020
5826 Clear 1 1022 61 10000 1.68 184 18:19 06.11.2020
5827 Clear 1 1022 61 10000 1.68 184 17:46 06.11.2020
5828 Clear 2 1022 57 10000 1.75 176 17:24 06.11.2020
5829 Clear 2 1022 57 10000 1.75 176 16:43 06.11.2020
5830 Clear 3 1021 52 10000 2.01 182 16:22 06.11.2020
5831 Clear 3 1021 52 10000 2.01 182 15:47 06.11.2020
5832 Clear 3 1020 48 10000 1.48 199 15:26 06.11.2020
5833 Clear 3 1020 48 10000 1.48 199 14:50 06.11.2020
5834 Clear 3 1019 47 10000 1.36 256 14:23 06.11.2020
5835 Clear 3 1019 47 10000 1.36 256 13:42 06.11.2020
5836 Clouds 4 1017 43 10000 2.08 284 13:21 06.11.2020
5837 Clouds 4 1017 43 10000 1.66 277 12:43 06.11.2020
5838 Clouds 7 1015 36 10000 2.6 269 12:23 06.11.2020
5839 Clouds 7 1015 36 10000 2.6 269 11:40 06.11.2020
5840 Clouds 12 1014 25 10000 5.15 259 11:21 06.11.2020
5841 Clouds 12 1014 25 10000 5.15 259 10:38 06.11.2020
5842 Clouds 12 1013 24 10000 4.77 250 10:19 06.11.2020
5843 Clouds 12 1013 24 10000 4.77 250 09:46 06.11.2020
5844 Clouds 12 1014 28 10000 4.53 233 09:21 06.11.2020
5845 Clouds 12 1014 28 10000 4.53 233 08:49 06.11.2020
5846 Clouds 11 1015 32 10000 4.49 225 08:28 06.11.2020
5847 Clouds 11 1015 32 10000 4.49 225 07:47 06.11.2020
5848 Clear 10 1017 36 10000 3.04 217 07:29 06.11.2020
5849 Clear 10 1017 36 10000 3.04 217 06:51 06.11.2020
5850 Clear 8 1019 44 10000 2.14 196 05:42 06.11.2020
5851 Clear 3 1023 67 10000 1.54 167 03:18 06.11.2020
5852 Clear -2 1023 87 10000 1.42 162 00:46 06.11.2020
5853 Clear -2 1022 86 10000 1.3 160 00:19 06.11.2020
5854 Clear -2 1022 86 10000 1.3 160 23:30 05.11.2020
5855 Clear -2 1021 84 10000 1.36 154 22:57 05.11.2020
5856 Clear -2 1021 84 10000 1.36 154 22:37 05.11.2020
5857 Clear -1 1021 82 10000 1.28 152 22:18 05.11.2020
5858 Clear -1 1021 82 10000 1.28 152 21:42 05.11.2020
5859 Clear 0 1021 79 10000 1.67 166 21:21 05.11.2020
5860 Clear 0 1021 79 10000 1.67 166 20:48 05.11.2020
5861 Clear 0 1021 75 10000 2.16 170 20:28 05.11.2020
5862 Clear 0 1021 75 10000 2.16 170 19:59 05.11.2020
5863 Clear 0 1021 75 10000 2.16 170 19:40 05.11.2020
5864 Clear 1 1021 68 10000 2.43 173 19:22 05.11.2020
5865 Clear 1 1021 68 10000 2.09 174 18:45 05.11.2020
5866 Clear 1 1021 63 10000 2.01 174 18:26 05.11.2020
5867 Clear 1 1021 63 10000 2.01 174 17:52 05.11.2020
5868 Clear 1 1020 61 10000 1.3 179 17:29 05.11.2020
5869 Clear 1 1020 61 10000 1.3 179 16:59 05.11.2020
5870 Clear 1 1020 61 10000 1.3 179 16:40 05.11.2020
5871 Clear 2 1019 58 10000 0.73 226 16:19 05.11.2020
5872 Clear 2 1019 58 10000 0.73 226 15:44 05.11.2020
5873 Clear 2 1018 55 10000 0.77 275 15:22 05.11.2020
5874 Clear 2 1018 55 10000 0.77 275 14:46 05.11.2020
5875 Clear 3 1017 50 10000 0.75 294 14:26 05.11.2020
5876 Clear 3 1017 50 10000 0.75 294 13:45 05.11.2020
5877 Clouds 4 1015 48 10000 0.59 320 13:26 05.11.2020
5878 Clouds 4 1015 47 10000 1.16 295 12:53 05.11.2020
5879 Clouds 6 1013 44 10000 0.83 251 12:27 05.11.2020
5880 Clouds 6 1013 44 10000 0.83 251 11:55 05.11.2020
5881 Clouds 6 1013 44 10000 0.83 251 11:30 05.11.2020
5882 Clouds 10 1011 29 10000 2.25 221 10:58 05.11.2020
5883 Clouds 10 1011 29 10000 2.25 221 10:39 05.11.2020
5884 Clouds 11 1011 31 10000 2.86 215 10:21 05.11.2020
5885 Clouds 11 1011 31 10000 2.86 215 09:44 05.11.2020
5886 Clouds 10 1011 34 10000 3.37 213 09:21 05.11.2020
5887 Clouds 10 1011 34 10000 3.37 213 09:21 05.11.2020
5888 Clouds 10 1011 34 10000 3.37 213 08:44 05.11.2020
5889 Clouds 10 1012 35 10000 3.47 210 08:25 05.11.2020
5890 Clouds 10 1012 35 10000 3.47 210 07:40 05.11.2020
5891 Clear 9 1014 38 10000 3.44 209 07:20 05.11.2020
5892 Clear 9 1014 38 10000 3.36 209 06:34 05.11.2020
5893 Clear 9 1014 38 10000 3.36 209 06:34 05.11.2020
5894 Clear 7 1018 50 10000 2.92 198 05:23 05.11.2020
5895 Clouds -1 1020 87 10000 2.2 174 01:24 05.11.2020
5896 Clouds -1 1020 86 10000 2.07 174 00:32 05.11.2020
5897 Clouds -1 1019 86 10000 2.28 172 23:44 04.11.2020
5898 Clouds 0 1018 85 10000 2.38 170 23:26 04.11.2020
5899 Clouds 0 1018 85 10000 2.38 170 22:52 04.11.2020
5900 Clouds 0 1018 83 10000 2.51 170 22:24 04.11.2020
5901 Clouds 0 1018 83 10000 2.51 170 22:24 04.11.2020
5902 Clouds 0 1018 83 10000 2.51 170 21:57 04.11.2020
5903 Clouds 0 1018 83 10000 2.51 170 21:37 04.11.2020
5904 Clouds 1 1017 78 10000 2.63 170 21:18 04.11.2020
5905 Clouds 1 1017 78 10000 2.63 170 20:42 04.11.2020
5906 Clouds 2 1018 74 10000 2.58 172 20:24 04.11.2020
5907 Clouds 2 1018 74 10000 2.58 172 19:48 04.11.2020
5908 Clouds 2 1017 72 10000 2.54 170 19:29 04.11.2020
5909 Clouds 2 1017 72 10000 2.54 170 18:45 04.11.2020
5910 Clouds 3 1017 69 10000 2.55 171 18:27 04.11.2020
5911 Clouds 3 1017 69 10000 2.55 171 17:59 04.11.2020
5912 Clouds 3 1017 69 10000 2.55 171 17:40 04.11.2020
5913 Clouds 3 1016 65 10000 2.7 177 17:20 04.11.2020
5914 Clouds 3 1016 65 10000 2.7 177 16:38 04.11.2020
5915 Clouds 4 1015 60 10000 2.65 186 16:20 04.11.2020
5916 Clouds 4 1015 60 10000 2.65 186 15:47 04.11.2020
5917 Clouds 5 1014 55 10000 2.77 192 15:25 04.11.2020
5918 Clouds 5 1014 55 10000 2.77 192 14:57 04.11.2020
5919 Clouds 5 1014 55 10000 2.77 192 14:39 04.11.2020
5920 Clouds 6 1013 50 10000 2.88 197 14:18 04.11.2020
5921 Clouds 6 1013 50 10000 2.88 197 13:41 04.11.2020
5922 Clouds 7 1011 47 10000 2.19 202 13:19 04.11.2020
5923 Clouds 7 1011 47 10000 2.19 202 12:50 04.11.2020
5924 Clouds 8 1010 42 10000 0.65 192 12:26 04.11.2020
5925 Clouds 8 1010 42 10000 0.65 192 11:56 04.11.2020
5926 Clouds 8 1010 42 10000 0.65 192 11:56 04.11.2020
5927 Clouds 8 1010 42 10000 0.65 192 11:37 04.11.2020
5928 Clouds 8 1010 42 10000 0.65 192 11:37 04.11.2020
5929 Clouds 11 1008 34 10000 1.1 179 11:18 04.11.2020
5930 Clouds 11 1008 34 10000 1.1 179 10:43 04.11.2020
5931 Clouds 11 1007 33 10000 2.07 214 10:22 04.11.2020
5932 Clouds 11 1007 33 10000 2.07 214 09:50 04.11.2020
5933 Clouds 11 1008 33 10000 3.06 216 09:22 04.11.2020
5934 Clouds 11 1008 33 10000 3.06 216 08:45 04.11.2020
5935 Clouds 11 1009 34 10000 3.76 205 08:19 04.11.2020
5936 Clouds 11 1009 34 10000 3.76 205 07:48 04.11.2020
5937 Clear 11 1011 36 10000 3.75 202 07:27 04.11.2020
5938 Clear 10 1011 37 10000 3.76 202 06:42 04.11.2020
5939 Clear 9 1014 41 10000 3.61 195 06:18 04.11.2020
5940 Clouds 5 1019 61 10000 2.58 184 02:32 04.11.2020
5941 Clouds 3 1020 74 10000 2.55 175 01:42 04.11.2020
5942 Clouds 1 1020 85 10000 2.53 173 00:43 04.11.2020
5943 Clouds 1 1019 83 10000 2.51 172 23:40 03.11.2020
5944 Clouds 2 1019 81 10000 2.6 173 23:20 03.11.2020
5945 Clouds 2 1019 81 10000 2.6 173 22:41 03.11.2020
5946 Clouds 2 1018 78 10000 2.51 175 22:20 03.11.2020
5947 Clouds 2 1018 78 10000 2.51 175 21:56 03.11.2020
5948 Clouds 2 1018 78 10000 2.51 175 21:37 03.11.2020
5949 Clear 3 1018 74 10000 2.67 176 21:18 03.11.2020
5950 Clear 3 1018 74 10000 2.67 176 20:42 03.11.2020
5951 Clear 3 1018 71 10000 2.62 175 20:22 03.11.2020
5952 Clear 3 1018 71 10000 2.62 175 19:43 03.11.2020
5953 Clear 4 1018 67 10000 2.78 178 19:20 03.11.2020
5954 Clear 4 1018 68 10000 2.91 176 18:44 03.11.2020
5955 Clear 4 1018 64 10000 2.86 176 18:20 03.11.2020
5956 Clear 4 1018 64 10000 2.86 176 17:56 03.11.2020
5957 Clear 4 1018 64 10000 2.86 176 17:37 03.11.2020
5958 Clear 5 1017 59 10000 3.03 174 17:18 03.11.2020
5959 Clear 5 1017 59 10000 3.03 174 16:43 03.11.2020
5960 Clear 6 1017 55 10000 2.84 176 16:21 03.11.2020
5961 Clear 6 1017 55 10000 2.84 176 15:41 03.11.2020
5962 Clear 6 1016 51 10000 2.37 189 15:23 03.11.2020
5963 Clear 6 1016 51 10000 2.37 189 14:49 03.11.2020
5964 Clear 6 1016 51 10000 2.37 189 14:30 03.11.2020
5965 Clear 7 1014 46 10000 2.21 214 13:46 03.11.2020
5966 Clouds 8 1013 42 10000 2.62 231 13:23 03.11.2020
5967 Clouds 8 1013 42 10000 2.62 231 12:56 03.11.2020
5968 Clouds 8 1013 42 10000 2.62 231 12:36 03.11.2020
5969 Clouds 11 1011 35 10000 3.1 236 12:18 03.11.2020
5970 Clouds 11 1011 35 10000 3.1 236 11:41 03.11.2020
5971 Clouds 14 1009 27 10000 4.68 240 11:20 03.11.2020
5972 Clouds 14 1009 27 10000 4.68 240 10:39 03.11.2020
5973 Clouds 15 1009 27 10000 3.23 227 10:20 03.11.2020
5974 Clouds 15 1009 27 10000 3.23 227 09:51 03.11.2020
5975 Clouds 15 1009 27 10000 3.23 227 09:32 03.11.2020
5976 Clouds 14 1010 30 10000 2.56 211 08:55 03.11.2020
5977 Clouds 14 1010 30 10000 2.56 211 08:34 03.11.2020
5978 Clouds 13 1011 33 10000 3.18 204 07:49 03.11.2020
5979 Clear 13 1013 35 10000 3.68 201 07:22 03.11.2020
5980 Clear 13 1013 35 10000 3.76 203 06:45 03.11.2020
5981 Clear 10 1018 45 10000 2.54 191 05:19 03.11.2020
5982 Clear 4 1021 69 10000 1.84 170 02:20 03.11.2020
5983 Clear 1 1021 84 10000 1.75 170 00:41 03.11.2020
5984 Clear 2 1021 81 10000 1.85 170 23:51 02.11.2020
5985 Clear 2 1021 81 10000 1.85 170 23:33 02.11.2020
5986 Clear 2 1020 78 10000 2.05 173 22:54 02.11.2020
5987 Clear 2 1020 78 10000 2.05 173 22:35 02.11.2020
5988 Clear 3 1020 75 10000 2.15 172 21:59 02.11.2020
5989 Clear 3 1020 75 10000 2.15 172 21:37 02.11.2020
5990 Clear 4 1020 71 10000 2.35 175 21:19 02.11.2020
5991 Clear 4 1020 71 10000 2.35 175 21:19 02.11.2020
5992 Clear 4 1020 71 10000 2.35 175 20:39 02.11.2020
5993 Clear 4 1019 67 10000 2.54 177 20:20 02.11.2020
5994 Clear 4 1019 67 10000 2.54 177 19:46 02.11.2020
5995 Clear 5 1019 64 10000 2.6 178 19:27 02.11.2020
5996 Clear 5 1019 64 10000 2.58 177 18:56 02.11.2020
5997 Clear 5 1019 64 10000 2.58 177 18:38 02.11.2020
5998 Clear 6 1020 59 10000 2.72 176 18:19 02.11.2020
5999 Clear 6 1020 59 10000 2.72 176 17:42 02.11.2020
6000 Clear 6 1019 55 10000 2.69 179 17:24 02.11.2020
6001 Clear 6 1019 55 10000 2.69 179 16:51 02.11.2020
6002 Clear 6 1019 55 10000 2.69 179 16:32 02.11.2020
6003 Clear 7 1018 51 10000 2.65 188 15:57 02.11.2020
6004 Clear 7 1018 51 10000 2.65 188 15:39 02.11.2020
6005 Clear 8 1017 47 10000 2.4 194 15:19 02.11.2020
6006 Clear 8 1017 47 10000 2.4 194 14:48 02.11.2020
6007 Clear 9 1016 43 10000 1.8 207 14:19 02.11.2020
6008 Clear 9 1016 43 10000 1.8 207 13:48 02.11.2020
6009 Clear 9 1014 43 10000 1.08 237 13:22 02.11.2020
6010 Clear 9 1014 43 10000 1.08 237 12:52 02.11.2020
6011 Clear 11 1011 39 10000 0.96 212 12:28 02.11.2020
6012 Clear 11 1011 39 10000 0.96 212 11:46 02.11.2020
6013 Clear 15 1010 28 10000 1.18 192 11:22 02.11.2020
6014 Clear 15 1010 28 10000 1.18 192 10:59 02.11.2020
6015 Clear 15 1010 28 10000 1.18 192 10:39 02.11.2020
6016 Clear 15 1010 28 10000 1.55 210 10:18 02.11.2020
6017 Clear 15 1010 28 10000 1.55 210 09:42 02.11.2020
6018 Clear 15 1010 29 10000 2.52 212 09:21 02.11.2020
6019 Clear 15 1010 29 10000 2.52 212 08:39 02.11.2020
6020 Clear 15 1011 31 10000 3.24 203 08:19 02.11.2020
6021 Clear 15 1011 31 10000 3.24 203 07:43 02.11.2020
6022 Clear 14 1014 34 10000 3.16 201 06:48 02.11.2020
6023 Clear 12 1016 38 10000 2.58 197 06:22 02.11.2020
6024 Clear 5 1023 68 10000 1.76 171 01:35 02.11.2020
6025 Clear 2 1022 81 10000 1.87 169 00:42 02.11.2020
6026 Clear 2 1021 79 10000 1.94 173 00:23 02.11.2020
6027 Clear 2 1021 79 10000 1.94 173 23:40 01.11.2020
6028 Clear 3 1020 77 10000 1.84 178 23:21 01.11.2020
6029 Clear 3 1020 77 10000 1.84 178 22:45 01.11.2020
6030 Clear 3 1020 73 10000 2.13 179 22:23 01.11.2020
6031 Clear 3 1020 73 10000 2.13 179 21:46 01.11.2020
6032 Clear 4 1021 68 10000 2.38 179 21:27 01.11.2020
6033 Clear 4 1021 68 10000 2.38 179 21:27 01.11.2020
6034 Clear 4 1021 68 10000 2.38 179 20:59 01.11.2020
6035 Clear 4 1021 68 10000 2.38 179 20:40 01.11.2020
6036 Clear 5 1020 64 10000 2.58 180 20:20 01.11.2020
6037 Clear 5 1020 64 10000 2.58 180 19:41 01.11.2020
6038 Clear 5 1020 59 10000 2.63 180 19:22 01.11.2020
6039 Clear 5 1020 59 10000 2.62 181 18:41 01.11.2020
6040 Clear 6 1020 55 10000 2.46 182 18:19 01.11.2020
6041 Clear 6 1020 55 10000 2.46 182 18:19 01.11.2020
6042 Clear 6 1020 55 10000 2.46 182 17:57 01.11.2020
6043 Clear 6 1020 55 10000 2.46 182 17:37 01.11.2020
6044 Clear 7 1019 51 10000 2.2 190 17:19 01.11.2020
6045 Clear 7 1019 51 10000 2.2 190 16:40 01.11.2020
6046 Clear 7 1019 49 10000 1.98 198 16:19 01.11.2020
6047 Clear 7 1019 49 10000 1.98 198 15:41 01.11.2020
6048 Clear 7 1018 49 10000 1.5 201 15:21 01.11.2020
6049 Clear 7 1018 49 10000 1.5 201 14:57 01.11.2020
6050 Clear 7 1018 49 10000 1.5 201 14:57 01.11.2020
6051 Clear 7 1018 49 10000 1.5 201 14:39 01.11.2020
6052 Clear 7 1016 49 10000 0.65 216 14:18 01.11.2020
6053 Clear 7 1016 49 10000 0.65 216 13:47 01.11.2020
6054 Clear 8 1014 47 10000 0.27 248 13:28 01.11.2020
6055 Clear 8 1014 47 10000 0.48 242 12:43 01.11.2020
6056 Clear 11 1012 40 10000 0.94 245 12:23 01.11.2020
6057 Clear 11 1012 40 10000 0.94 245 11:51 01.11.2020
6058 Clear 15 1011 29 10000 1.77 223 11:19 01.11.2020
6059 Clear 15 1011 29 10000 1.77 223 10:43 01.11.2020
6060 Clear 15 1012 28 10000 2.24 215 10:24 01.11.2020
6061 Clear 15 1012 28 10000 2.24 215 09:57 01.11.2020
6062 Clear 15 1012 28 10000 2.24 215 09:38 01.11.2020
6063 Clear 15 1012 28 10000 2.54 213 08:47 01.11.2020
6064 Clear 15 1014 29 10000 2.49 210 08:23 01.11.2020
6065 Clear 15 1014 29 10000 2.49 210 07:40 01.11.2020
6066 Clear 11 1020 42 10000 1.56 194 04:31 01.11.2020
6067 Clear 4 1025 65 10000 1.42 171 01:51 01.11.2020
6068 Clear 1 1024 83 10000 1.38 174 00:43 01.11.2020
6069 Clear 1 1022 76 10000 1.49 176 23:26 31.10.2020
6070 Clear 1 1022 76 10000 1.49 176 22:58 31.10.2020
6071 Clear 1 1022 76 10000 1.49 176 22:39 31.10.2020
6072 Clear 2 1022 72 10000 1.66 179 22:20 31.10.2020
6073 Clear 2 1022 72 10000 1.66 179 21:44 31.10.2020
6074 Clear 3 1023 67 10000 1.89 175 21:19 31.10.2020
6075 Clear 3 1023 67 10000 1.89 175 20:38 31.10.2020
6076 Clear 3 1023 63 10000 1.87 181 20:18 31.10.2020
6077 Clear 3 1023 63 10000 1.87 181 19:41 31.10.2020
6078 Clear 4 1022 59 10000 2.06 183 19:22 31.10.2020
6079 Clear 4 1022 59 10000 2.06 183 18:47 31.10.2020
6080 Clear 5 1022 55 10000 2.41 180 18:24 31.10.2020
6081 Clear 5 1022 55 10000 2.41 180 17:40 31.10.2020
6082 Clear 5 1022 50 10000 2.47 181 17:22 31.10.2020
6083 Clear 5 1022 50 10000 2.47 181 16:46 31.10.2020
6084 Clear 6 1022 44 10000 2.48 182 16:27 31.10.2020
6085 Clear 6 1022 44 10000 2.48 182 15:45 31.10.2020
6086 Clear 7 1020 41 10000 2.19 194 15:25 31.10.2020
6087 Clear 7 1020 41 10000 2.19 194 14:52 31.10.2020
6088 Clear 7 1020 41 10000 2.19 194 14:31 31.10.2020
6089 Clear 7 1019 41 10000 1.74 207 13:51 31.10.2020
6090 Clear 7 1017 41 10000 1.26 242 13:28 31.10.2020
6091 Clear 7 1017 41 10000 1.26 242 12:45 31.10.2020
6092 Clear 9 1014 36 10000 0.9 241 12:19 31.10.2020
6093 Clear 9 1014 36 10000 0.9 241 11:39 31.10.2020
6094 Clear 14 1013 24 10000 1.57 221 11:21 31.10.2020
6095 Clear 14 1013 24 10000 1.57 221 10:37 31.10.2020
6096 Clear 15 1013 23 10000 2.29 217 09:48 31.10.2020
6097 Clear 15 1013 23 10000 2.29 217 09:30 31.10.2020
6098 Clear 15 1013 23 10000 3.12 217 08:57 31.10.2020
6099 Clear 14 1015 25 10000 3.26 206 08:22 31.10.2020
6100 Clear 13 1017 27 10000 3.03 196 07:29 31.10.2020
6101 Clear 13 1017 27 10000 3.03 196 06:56 31.10.2020
6102 Clear 13 1016 28 10000 3.07 199 06:36 31.10.2020
6103 Clear 8 1024 43 10000 1.89 180 03:47 31.10.2020
6104 Clear 6 1025 51 10000 1.81 177 02:39 31.10.2020
6105 Clear 0 1026 77 10000 1.87 168 00:52 31.10.2020
6106 Clouds 0 1025 74 10000 2 168 23:54 30.10.2020
6107 Clouds 0 1025 74 10000 2 168 23:30 30.10.2020
6108 Clouds 0 1025 74 10000 2 168 23:30 30.10.2020
6109 Clear 1 1024 70 10000 2.07 166 22:59 30.10.2020
6110 Clear 1 1024 70 10000 2.07 166 22:38 30.10.2020
6111 Clear 2 1024 65 10000 2.32 168 22:20 30.10.2020
6112 Clear 2 1024 65 10000 2.32 168 21:48 30.10.2020
6113 Clear 2 1024 61 10000 2.23 168 21:26 30.10.2020
6114 Clear 2 1024 61 10000 2.23 168 20:45 30.10.2020
6115 Clear 3 1024 57 10000 2.24 173 20:27 30.10.2020
6116 Clear 3 1024 57 10000 2.24 173 19:59 30.10.2020
6117 Clear 3 1024 57 10000 2.24 173 19:39 30.10.2020
6118 Clear 4 1024 52 10000 2.38 174 19:18 30.10.2020
6119 Clear 4 1024 52 10000 2.38 174 18:41 30.10.2020
6120 Clear 4 1024 49 10000 2.46 172 18:22 30.10.2020
6121 Clear 4 1024 49 10000 2.46 172 17:46 30.10.2020
6122 Clear 5 1023 45 10000 2.65 172 17:21 30.10.2020
6123 Clear 5 1023 45 10000 2.65 172 16:50 30.10.2020
6124 Clear 6 1023 43 10000 2.69 177 16:25 30.10.2020
6125 Clear 6 1023 43 10000 2.69 177 15:45 30.10.2020
6126 Clear 7 1022 42 10000 2.21 181 15:27 30.10.2020
6127 Clear 7 1022 42 10000 2.21 181 14:58 30.10.2020
6128 Clear 7 1022 42 10000 2.21 181 14:40 30.10.2020
6129 Clear 7 1020 42 10000 1.8 194 14:21 30.10.2020
6130 Clear 7 1020 42 10000 1.8 194 13:42 30.10.2020
6131 Clear 7 1018 41 10000 1.39 229 13:20 30.10.2020
6132 Clear 7 1018 41 10000 1.41 226 12:47 30.10.2020
6133 Clear 10 1015 35 10000 1.4 237 12:22 30.10.2020
6134 Clear 10 1015 35 10000 1.4 237 11:56 30.10.2020
6135 Clear 15 1014 24 10000 2.02 218 11:21 30.10.2020
6136 Clear 15 1014 24 10000 2.02 218 10:50 30.10.2020
6137 Clear 15 1014 24 10000 2.49 211 10:25 30.10.2020
6138 Clear 15 1014 24 10000 2.49 211 09:48 30.10.2020
6139 Clear 15 1014 24 10000 2.83 204 09:25 30.10.2020
6140 Clear 15 1014 24 10000 2.82 209 08:59 30.10.2020
6141 Clear 15 1014 24 10000 2.82 209 08:31 30.10.2020
6142 Clear 14 1015 26 10000 2.71 203 07:53 30.10.2020
6143 Clear 14 1015 26 10000 2.71 203 07:35 30.10.2020
6144 Clear 13 1017 29 10000 2.33 201 06:50 30.10.2020
6145 Clear 12 1019 33 10000 2.03 194 05:45 30.10.2020
6146 Clear 6 1025 50 10000 1.48 178 02:53 30.10.2020
6147 Clear -1 1026 75 10000 1.86 165 01:20 30.10.2020
6148 Clear 0 1025 73 10000 1.78 165 23:59 29.10.2020
6149 Clear 0 1025 73 10000 1.78 165 23:41 29.10.2020
6150 Clear 1 1024 68 10000 1.99 164 23:21 29.10.2020
6151 Clear 1 1024 68 10000 1.99 164 22:44 29.10.2020
6152 Clear 1 1024 64 10000 2.09 168 22:25 29.10.2020
6153 Clear 1 1024 64 10000 2.09 168 21:43 29.10.2020
6154 Clear 2 1024 59 10000 2.11 171 21:22 29.10.2020
6155 Clear 2 1024 59 10000 2.11 171 20:43 29.10.2020
6156 Clear 3 1024 55 10000 2.29 171 20:23 29.10.2020
6157 Clear 3 1024 55 10000 2.29 171 19:56 29.10.2020
6158 Clear 3 1024 55 10000 2.29 171 19:37 29.10.2020
6159 Clear 4 1024 51 10000 2.39 172 19:18 29.10.2020
6160 Clear 4 1024 52 10000 2.42 172 18:41 29.10.2020
6161 Clear 4 1023 48 10000 2.37 172 18:21 29.10.2020
6162 Clear 4 1023 48 10000 2.37 172 17:42 29.10.2020
6163 Clear 5 1023 45 10000 2.39 173 17:22 29.10.2020
6164 Clear 5 1023 45 10000 2.39 173 16:52 29.10.2020
6165 Clear 6 1023 41 10000 2.4 177 16:23 29.10.2020
6166 Clear 6 1023 41 10000 2.4 177 15:58 29.10.2020
6167 Clear 6 1023 41 10000 2.4 177 15:40 29.10.2020
6168 Clear 6 1022 39 10000 2.14 184 15:21 29.10.2020
6169 Clear 6 1022 39 10000 2.14 184 14:47 29.10.2020
6170 Clear 6 1021 40 10000 1.33 195 14:24 29.10.2020
6171 Clear 6 1021 40 10000 1.33 195 13:59 29.10.2020
6172 Clear 6 1021 40 10000 1.33 195 13:40 29.10.2020
6173 Clear 7 1018 41 10000 0.78 220 13:21 29.10.2020
6174 Clear 7 1018 41 10000 0.78 220 12:40 29.10.2020
6175 Clear 9 1016 36 10000 1.16 238 12:19 29.10.2020
6176 Clear 9 1016 36 10000 1.16 238 11:47 29.10.2020
6177 Clear 14 1014 25 10000 1.81 213 11:24 29.10.2020
6178 Clear 14 1014 25 10000 1.81 213 10:38 29.10.2020
6179 Clear 14 1014 24 10000 2.58 206 10:20 29.10.2020
6180 Clear 14 1014 24 10000 2.58 206 09:53 29.10.2020
6181 Clear 14 1014 25 10000 3.2 201 09:28 29.10.2020
6182 Clear 14 1014 25 10000 3.2 201 08:58 29.10.2020
6183 Clear 14 1014 25 10000 3.2 201 08:38 29.10.2020
6184 Clear 14 1016 25 10000 3.53 199 07:58 29.10.2020
6185 Clear 14 1016 25 10000 3.53 199 07:39 29.10.2020
6186 Clear 13 1018 27 10000 3.13 196 06:57 29.10.2020
6187 Clear 12 1020 30 10000 2.6 190 06:21 29.10.2020
6188 Clear 10 1022 34 10000 2.3 186 04:46 29.10.2020
6189 Clear 0 1025 68 10000 2.05 163 01:25 29.10.2020
6190 Clear 0 1026 68 10000 2.08 164 00:31 29.10.2020
6191 Clear 0 1024 66 10000 1.84 165 23:49 28.10.2020
6192 Clear 1 1023 62 10000 1.93 162 23:22 28.10.2020
6193 Clear 1 1023 62 10000 1.93 162 22:45 28.10.2020
6194 Clear 2 1023 60 10000 1.88 159 22:27 28.10.2020
6195 Clear 2 1023 60 10000 1.88 159 22:27 28.10.2020
6196 Clear 2 1023 60 10000 1.88 159 21:59 28.10.2020
6197 Clear 2 1023 60 10000 1.88 159 21:40 28.10.2020
6198 Clear 2 1023 58 10000 1.72 157 21:20 28.10.2020
6199 Clear 2 1023 58 10000 1.72 157 20:42 28.10.2020
6200 Clear 3 1023 56 10000 1.73 161 20:22 28.10.2020
6201 Clear 3 1023 56 10000 1.73 161 19:51 28.10.2020
6202 Clear 4 1023 54 10000 1.84 161 19:29 28.10.2020
6203 Clear 4 1023 54 10000 1.84 161 18:49 28.10.2020
6204 Clear 4 1022 53 10000 1.94 164 18:22 28.10.2020
6205 Clear 4 1022 53 10000 1.94 164 17:57 28.10.2020
6206 Clear 4 1022 53 10000 1.94 164 17:39 28.10.2020
6207 Clear 5 1022 53 10000 1.27 167 17:18 28.10.2020
6208 Clear 5 1022 53 10000 1.27 167 16:44 28.10.2020
6209 Clear 5 1021 52 10000 0.59 185 16:22 28.10.2020
6210 Clear 5 1021 52 10000 0.59 185 15:38 28.10.2020
6211 Clear 6 1021 51 10000 0.27 152 15:19 28.10.2020
6212 Clear 6 1021 51 10000 0.27 152 14:43 28.10.2020
6213 Clear 6 1019 50 10000 0.27 41 14:24 28.10.2020
6214 Clear 7 1017 47 10000 0.41 321 12:49 28.10.2020
6215 Clear 10 1015 40 10000 0.36 227 12:27 28.10.2020
6216 Clear 10 1015 40 10000 0.36 227 11:58 28.10.2020
6217 Clear 10 1015 40 10000 0.36 227 11:39 28.10.2020
6218 Clear 13 1014 30 10000 1.45 203 11:19 28.10.2020
6219 Clear 13 1014 30 10000 1.45 203 10:48 28.10.2020
6220 Clear 14 1014 29 10000 1.93 209 10:29 28.10.2020
6221 Clear 14 1014 29 10000 1.93 209 09:45 28.10.2020
6222 Clear 14 1015 29 10000 2.2 211 09:24 28.10.2020
6223 Clear 14 1015 29 10000 2.2 211 08:51 28.10.2020
6224 Clear 14 1015 29 10000 2.2 211 08:31 28.10.2020
6225 Clear 13 1016 31 10000 2.17 209 07:54 28.10.2020
6226 Clear 13 1016 31 10000 2.17 209 07:31 28.10.2020
6227 Clear 12 1018 33 10000 2.1 207 06:56 28.10.2020
6228 Clear 12 1017 34 10000 2.05 207 06:37 28.10.2020
6229 Clear 11 1020 38 10000 1.89 202 05:44 28.10.2020
6230 Clear 10 1022 43 10000 1.63 189 04:50 28.10.2020
6231 Clear 8 1023 48 10000 1.35 179 03:53 28.10.2020
6232 Clear 4 1025 65 10000 1.51 164 01:56 28.10.2020
6233 Clear 0 1023 83 10000 1.6 164 00:33 28.10.2020
6234 Clear 1 1023 81 10000 1.64 165 23:50 27.10.2020
6235 Clear 1 1022 77 10000 1.65 169 23:22 27.10.2020
6236 Clear 1 1022 77 10000 1.65 169 22:45 27.10.2020
6237 Clear 2 1021 74 10000 1.63 174 22:22 27.10.2020
6238 Clear 2 1021 74 10000 1.63 174 21:57 27.10.2020
6239 Clear 2 1021 74 10000 1.63 174 21:38 27.10.2020
6240 Clear 2 1021 70 10000 1.91 176 21:20 27.10.2020
6241 Clear 2 1021 70 10000 1.91 176 20:50 27.10.2020
6242 Clear 3 1021 65 10000 2.12 176 20:25 27.10.2020
6243 Clear 3 1021 65 10000 2.12 176 19:59 27.10.2020
6244 Clear 3 1021 65 10000 2.12 176 19:38 27.10.2020
6245 Clear 4 1021 61 10000 2.22 181 19:20 27.10.2020
6246 Clear 4 1020 60 10000 2.09 182 18:54 27.10.2020
6247 Clear 4 1020 60 10000 2.09 182 18:36 27.10.2020
6248 Clear 4 1020 57 10000 1.94 185 18:18 27.10.2020
6249 Clear 4 1020 57 10000 1.94 185 17:40 27.10.2020
6250 Clear 5 1020 54 10000 1.89 187 17:20 27.10.2020
6251 Clear 5 1020 54 10000 1.89 187 16:46 27.10.2020
6252 Clear 5 1019 50 10000 1.68 193 16:24 27.10.2020
6253 Clear 5 1019 50 10000 1.68 193 15:43 27.10.2020
6254 Clear 6 1018 46 10000 1.41 199 15:25 27.10.2020
6255 Clear 6 1018 46 10000 1.41 199 14:52 27.10.2020
6256 Clear 6 1018 46 10000 1.41 199 14:33 27.10.2020
6257 Clear 6 1017 45 10000 0.72 205 13:59 27.10.2020
6258 Clear 6 1017 45 10000 0.72 205 13:32 27.10.2020
6259 Clouds 6 1015 46 10000 0.36 326 12:57 27.10.2020
6260 Clouds 6 1015 46 10000 0.36 326 12:37 27.10.2020
6261 Clouds 10 1013 39 10000 0.11 105 12:19 27.10.2020
6262 Clouds 10 1013 39 10000 0.11 105 11:42 27.10.2020
6263 Clouds 13 1011 28 10000 0.96 217 11:22 27.10.2020
6264 Clouds 13 1011 28 10000 0.96 217 10:46 27.10.2020
6265 Clouds 13 1011 29 10000 2.22 230 10:24 27.10.2020
6266 Clouds 13 1011 29 10000 2.22 230 09:45 27.10.2020
6267 Clouds 13 1011 30 10000 2.91 221 09:23 27.10.2020
6268 Clouds 13 1011 30 10000 2.91 221 08:38 27.10.2020
6269 Clouds 13 1013 33 10000 3.1 214 08:18 27.10.2020
6270 Clouds 13 1013 33 10000 3.1 214 07:44 27.10.2020
6271 Clear 12 1015 35 10000 3.26 209 07:25 27.10.2020
6272 Clear 11 1017 38 10000 3.04 206 06:22 27.10.2020
6273 Clear 11 1017 38 10000 3.04 206 06:22 27.10.2020
6274 Clear 11 1017 38 10000 3.04 206 05:52 27.10.2020
6275 Clear 11 1017 38 10000 3.04 206 05:34 27.10.2020
6276 Clear 10 1019 43 10000 2.68 200 04:44 27.10.2020
6277 Clear 6 1021 56 10000 1.8 187 02:30 27.10.2020
6278 Clear 1 1020 82 10000 2.05 172 00:57 27.10.2020
6279 Clear 2 1019 79 10000 2.16 174 23:44 26.10.2020
6280 Clear 2 1018 77 10000 2.35 173 23:22 26.10.2020
6281 Clear 2 1018 77 10000 2.35 173 22:47 26.10.2020
6282 Clear 3 1017 74 10000 2.42 174 22:26 26.10.2020
6283 Clear 3 1017 74 10000 2.42 174 21:49 26.10.2020
6284 Clear 4 1017 71 10000 2.54 177 21:21 26.10.2020
6285 Clear 4 1017 71 10000 2.54 177 20:58 26.10.2020
6286 Clear 4 1017 71 10000 2.54 177 20:39 26.10.2020
6287 Clear 4 1017 68 10000 2.71 177 20:19 26.10.2020
6288 Clear 4 1017 68 10000 2.71 177 19:47 26.10.2020
6289 Clouds 5 1016 65 10000 3 171 19:23 26.10.2020
6290 Clouds 5 1016 64 10000 2.93 171 18:44 26.10.2020
6291 Clouds 6 1016 62 10000 3.08 167 18:24 26.10.2020
6292 Clouds 6 1016 62 10000 3.08 167 17:59 26.10.2020
6293 Clouds 6 1016 62 10000 3.08 167 17:39 26.10.2020
6294 Clouds 7 1016 58 10000 3.4 167 17:21 26.10.2020
6295 Clouds 7 1016 58 10000 3.4 167 16:40 26.10.2020
6296 Clouds 8 1015 54 10000 3.47 167 16:21 26.10.2020
6297 Clouds 8 1015 54 10000 3.47 167 15:43 26.10.2020
6298 Clouds 9 1014 50 10000 2.86 163 15:24 26.10.2020
6299 Clouds 9 1014 50 10000 2.86 163 14:53 26.10.2020
6300 Clouds 9 1014 50 10000 2.86 163 14:34 26.10.2020
6301 Clouds 10 1013 46 10000 2.07 154 13:45 26.10.2020
6302 Clouds 12 1011 42 10000 1.08 162 13:25 26.10.2020
6303 Clouds 11 1011 43 10000 1.82 123 12:55 26.10.2020
6304 Clouds 11 1011 43 10000 1.82 123 12:32 26.10.2020
6305 Clouds 13 1009 39 10000 0.82 203 11:57 26.10.2020
6306 Clouds 13 1009 39 10000 0.82 203 11:39 26.10.2020
6307 Clouds 14 1008 35 10000 2.53 234 11:21 26.10.2020
6308 Clouds 14 1008 35 10000 2.53 234 10:49 26.10.2020
6309 Clouds 15 1007 33 10000 3.47 212 10:26 26.10.2020
6310 Clouds 15 1007 33 10000 3.47 212 09:56 26.10.2020
6311 Clouds 15 1007 33 10000 3.47 212 09:31 26.10.2020
6312 Clouds 15 1008 32 10000 3.96 200 08:55 26.10.2020
6313 Clouds 15 1009 33 10000 4.25 193 08:25 26.10.2020
6314 Clouds 15 1009 33 10000 4.25 193 07:48 26.10.2020
6315 Clouds 14 1011 34 10000 4.24 187 07:28 26.10.2020
6316 Clouds 13 1013 35 10000 3.93 189 05:46 26.10.2020
6317 Clouds 11 1017 43 10000 2.74 176 04:19 26.10.2020
6318 Clouds 9 1018 50 10000 2.37 170 03:21 26.10.2020
6319 Clouds 7 1019 60 10000 2.17 172 01:34 26.10.2020
6320 Clear 4 1019 73 10000 2.23 174 00:39 26.10.2020
6321 Clear 4 1018 72 10000 2.36 171 00:20 26.10.2020
6322 Clear 4 1018 72 10000 2.36 171 23:37 25.10.2020
6323 Clear 5 1018 70 10000 2.28 172 22:50 25.10.2020
6324 Clear 5 1018 70 10000 2.28 172 22:30 25.10.2020
6325 Clear 5 1017 68 10000 2.31 174 21:57 25.10.2020
6326 Clear 5 1017 68 10000 2.31 174 21:39 25.10.2020
6327 Clear 6 1017 66 10000 2.25 173 21:19 25.10.2020
6328 Clear 6 1017 66 10000 2.25 173 20:43 25.10.2020
6329 Clear 6 1017 63 10000 2.39 173 20:24 25.10.2020
6330 Clear 6 1017 63 10000 2.39 173 19:56 25.10.2020
6331 Clear 6 1017 63 10000 2.39 173 19:38 25.10.2020
6332 Clear 7 1017 60 10000 2.57 171 19:19 25.10.2020
6333 Clear 7 1017 61 10000 2.52 170 18:41 25.10.2020
6334 Clear 7 1017 58 10000 2.56 169 18:22 25.10.2020
6335 Clear 7 1017 58 10000 2.56 169 17:57 25.10.2020
6336 Clear 7 1017 58 10000 2.56 169 17:38 25.10.2020
6337 Clear 8 1017 55 10000 2.91 168 17:19 25.10.2020
6338 Clear 8 1017 55 10000 2.91 168 16:47 25.10.2020
6339 Clear 9 1016 50 10000 3.32 169 16:28 25.10.2020
6340 Clear 9 1016 50 10000 3.32 169 15:50 25.10.2020
6341 Clear 10 1015 45 10000 3.14 171 15:29 25.10.2020
6342 Clear 10 1015 45 10000 3.14 171 14:55 25.10.2020
6343 Clear 10 1015 45 10000 3.14 171 14:32 25.10.2020
6344 Clear 11 1013 40 10000 2.56 173 13:59 25.10.2020
6345 Clear 11 1013 40 10000 2.56 173 13:40 25.10.2020
6346 Clear 10 1012 39 10000 0.91 210 13:19 25.10.2020
6347 Clear 10 1012 39 10000 0.91 210 13:19 25.10.2020
6348 Clear 10 1012 39 10000 0.91 210 12:46 25.10.2020
6349 Clear 14 1010 33 10000 0.46 247 12:25 25.10.2020
6350 Clear 14 1010 33 10000 0.46 247 11:44 25.10.2020
6351 Clear 17 1009 25 10000 1.54 220 11:21 25.10.2020
6352 Clear 17 1009 25 10000 1.54 220 10:57 25.10.2020
6353 Clear 17 1009 25 10000 1.54 220 10:38 25.10.2020
6354 Clear 17 1008 25 10000 2.26 229 10:19 25.10.2020
6355 Clear 17 1008 25 10000 2.26 229 09:40 25.10.2020
6356 Clear 17 1008 26 10000 3 223 09:19 25.10.2020
6357 Clear 17 1008 26 10000 3 223 09:19 25.10.2020
6358 Clear 17 1008 26 10000 3 223 08:41 25.10.2020
6359 Clear 17 1008 26 10000 3 223 08:41 25.10.2020
6360 Clear 16 1010 27 10000 3.55 209 08:22 25.10.2020
6361 Clear 16 1010 27 10000 3.55 209 07:46 25.10.2020
6362 Clear 15 1011 29 10000 3.43 199 07:24 25.10.2020
6363 Clear 15 1011 29 10000 3.38 199 06:45 25.10.2020
6364 Clear 14 1014 32 10000 3.1 196 05:36 25.10.2020
6365 Clear 13 1016 37 10000 2.59 185 04:51 25.10.2020
6366 Clear 6 1020 62 10000 2.02 171 02:56 25.10.2020
6367 Clear 4 1020 74 10000 2.03 170 01:20 25.10.2020
6368 Clear 4 1020 74 10000 2.03 170 00:40 25.10.2020
6369 Clear 4 1019 71 10000 2.19 170 00:18 25.10.2020
6370 Clear 4 1019 71 10000 2.19 170 23:43 24.10.2020
6371 Clear 5 1018 68 10000 2.32 172 23:22 24.10.2020
6372 Clear 5 1018 68 10000 2.32 172 22:41 24.10.2020
6373 Clear 5 1018 65 10000 2.68 173 22:23 24.10.2020
6374 Clear 5 1018 65 10000 2.68 173 21:56 24.10.2020
6375 Clear 5 1018 65 10000 2.68 173 21:38 24.10.2020
6376 Clear 6 1017 62 10000 2.71 172 21:19 24.10.2020
6377 Clear 6 1017 62 10000 2.71 172 20:44 24.10.2020
6378 Clear 7 1017 59 10000 2.75 172 20:21 24.10.2020
6379 Clear 7 1017 59 10000 2.69 172 19:44 24.10.2020
6380 Clear 7 1017 56 10000 2.9 172 19:25 24.10.2020
6381 Clear 7 1017 56 10000 2.9 172 18:55 24.10.2020
6382 Clear 7 1017 56 10000 2.9 172 18:31 24.10.2020
6383 Clear 8 1016 52 10000 3.22 172 17:55 24.10.2020
6384 Clear 9 1015 47 10000 3.23 176 17:27 24.10.2020
6385 Clear 9 1015 47 10000 3.23 176 16:59 24.10.2020
6386 Clear 9 1015 47 10000 3.23 176 16:41 24.10.2020
6387 Clear 10 1013 43 10000 2.98 188 15:59 24.10.2020
6388 Clear 10 1013 43 10000 2.98 188 15:38 24.10.2020
6389 Clear 11 1011 41 10000 2.11 206 15:19 24.10.2020
6390 Clear 11 1011 41 10000 2.11 206 14:42 24.10.2020
6391 Clear 11 1010 41 10000 1.45 215 14:22 24.10.2020
6392 Clear 11 1010 41 10000 1.45 215 13:44 24.10.2020
6393 Clear 14 1008 35 10000 0.95 233 13:20 24.10.2020
6394 Clear 14 1008 35 10000 0.95 233 13:20 24.10.2020
6395 Clear 14 1007 34 10000 0.78 235 12:41 24.10.2020
6396 Clear 17 1006 28 10000 1.93 220 12:21 24.10.2020
6397 Clear 17 1006 28 10000 1.93 220 11:51 24.10.2020
6398 Clear 17 1005 28 10000 2.34 219 11:24 24.10.2020
6399 Clear 17 1005 28 10000 2.34 219 10:51 24.10.2020
6400 Clear 17 1005 28 10000 2.34 219 10:32 24.10.2020
6401 Clear 17 1006 29 10000 2.85 216 09:50 24.10.2020
6402 Clear 16 1007 30 10000 3.18 212 09:28 24.10.2020
6403 Clear 16 1007 30 10000 3.18 212 08:58 24.10.2020
6404 Clear 15 1009 32 10000 3.08 208 08:19 24.10.2020
6405 Clear 15 1009 32 10000 3.08 208 07:53 24.10.2020
6406 Clear 15 1009 32 10000 3.08 208 07:53 24.10.2020
6407 Clear 14 1011 36 10000 2.65 203 07:24 24.10.2020
6408 Clear 14 1011 36 10000 2.65 203 06:52 24.10.2020
6409 Clear 12 1014 40 10000 2.26 199 06:22 24.10.2020
6410 Clear 6 1019 62 10000 1.75 180 02:30 24.10.2020
6411 Clear 2 1018 77 10000 1.94 178 01:19 24.10.2020
6412 Clear 2 1018 77 10000 1.94 178 00:40 24.10.2020
6413 Clear 3 1017 74 10000 2.13 178 00:21 24.10.2020
6414 Clear 3 1017 74 10000 2.13 178 23:47 23.10.2020
6415 Clear 4 1017 71 10000 2.3 176 23:25 23.10.2020
6416 Clear 4 1017 71 10000 2.3 176 22:57 23.10.2020
6417 Clear 4 1017 71 10000 2.3 176 22:37 23.10.2020
6418 Clear 4 1017 68 10000 2.36 179 22:18 23.10.2020
6419 Clear 4 1017 68 10000 2.36 179 21:42 23.10.2020
6420 Clear 5 1016 64 10000 2.41 185 21:24 23.10.2020
6421 Clear 5 1016 64 10000 2.41 185 20:40 23.10.2020
6422 Clear 6 1016 61 10000 2.7 180 20:22 23.10.2020
6423 Clear 6 1016 61 10000 2.7 180 19:50 23.10.2020
6424 Clear 6 1016 59 10000 2.77 177 19:32 23.10.2020
6425 Clear 7 1016 55 10000 2.76 177 18:55 23.10.2020
6426 Clear 7 1016 55 10000 2.76 177 18:31 23.10.2020
6427 Clear 7 1015 52 10000 2.86 177 17:50 23.10.2020
6428 Clear 8 1014 49 10000 2.59 184 17:26 23.10.2020
6429 Clear 8 1014 49 10000 2.59 184 16:56 23.10.2020
6430 Clear 8 1014 49 10000 2.59 184 16:37 23.10.2020
6431 Clear 9 1013 46 10000 2.61 191 16:19 23.10.2020
6432 Clear 9 1013 46 10000 2.61 191 15:42 23.10.2020
6433 Clear 10 1011 43 10000 2.95 186 15:23 23.10.2020
6434 Clear 10 1011 43 10000 2.95 186 14:53 23.10.2020
6435 Clear 10 1011 43 10000 2.95 186 14:34 23.10.2020
6436 Clouds 11 1009 40 10000 2.66 183 13:56 23.10.2020
6437 Clouds 11 1009 40 10000 2.74 163 13:37 23.10.2020
6438 Clouds 14 1006 33 10000 2.57 157 13:19 23.10.2020
6439 Clouds 14 1006 33 10000 2.57 157 12:43 23.10.2020
6440 Clouds 16 1004 28 10000 2.77 183 12:24 23.10.2020
6441 Clouds 16 1004 28 10000 2.77 183 11:46 23.10.2020
6442 Clouds 16 1004 28 10000 2.6 202 11:21 23.10.2020
6443 Clouds 16 1004 28 10000 2.6 202 10:43 23.10.2020
6444 Clouds 15 1004 29 10000 3 206 10:25 23.10.2020
6445 Clouds 15 1004 29 10000 3 206 09:45 23.10.2020
6446 Clouds 15 1005 31 10000 3.44 205 09:26 23.10.2020
6447 Clouds 15 1005 31 10000 3.44 205 08:52 23.10.2020
6448 Clouds 15 1005 31 10000 3.44 205 08:32 23.10.2020
6449 Clear 14 1008 32 10000 3.09 205 07:38 23.10.2020
6450 Clear 12 1010 36 10000 2.57 200 07:19 23.10.2020
6451 Clear 10 1013 41 10000 1.8 199 06:20 23.10.2020
6452 Clear 10 1013 41 10000 1.8 199 05:34 23.10.2020
6453 Clear 4 1018 65 10000 1.34 167 02:32 23.10.2020
6454 Clear 1 1018 82 10000 1.38 171 01:30 23.10.2020
6455 Clear 2 1017 78 10000 1.74 172 00:47 23.10.2020
6456 Clear 2 1017 74 10000 2.08 173 23:48 22.10.2020
6457 Clear 3 1016 71 10000 2.38 172 23:26 22.10.2020
6458 Clear 3 1016 71 10000 2.38 172 22:49 22.10.2020
6459 Clear 4 1016 67 10000 2.62 173 22:27 22.10.2020
6460 Clear 4 1016 67 10000 2.62 173 21:59 22.10.2020
6461 Clear 4 1016 67 10000 2.62 173 21:41 22.10.2020
6462 Clear 4 1016 64 10000 2.59 175 21:21 22.10.2020
6463 Clear 4 1016 64 10000 2.59 175 20:45 22.10.2020
6464 Clear 5 1016 60 10000 2.86 175 20:26 22.10.2020
6465 Clear 5 1016 60 10000 2.86 175 19:59 22.10.2020
6466 Clear 5 1016 60 10000 2.86 175 19:40 22.10.2020
6467 Clear 6 1016 57 10000 2.97 176 19:18 22.10.2020
6468 Clear 6 1016 57 10000 2.97 176 18:42 22.10.2020
6469 Clear 7 1015 53 10000 3.39 175 18:20 22.10.2020
6470 Clear 7 1015 53 10000 3.39 175 17:45 22.10.2020
6471 Clear 8 1014 49 10000 3.56 179 17:22 22.10.2020
6472 Clear 8 1014 49 10000 3.56 179 16:54 22.10.2020
6473 Clear 8 1014 49 10000 3.56 179 16:36 22.10.2020
6474 Clear 9 1013 45 10000 3.97 189 16:18 22.10.2020
6475 Clear 9 1013 45 10000 3.97 189 15:40 22.10.2020
6476 Clear 10 1011 40 10000 3.78 192 15:22 22.10.2020
6477 Clear 10 1011 40 10000 3.78 192 14:45 22.10.2020
6478 Clear 11 1009 37 10000 2.97 192 14:24 22.10.2020
6479 Clear 11 1009 37 10000 2.97 192 13:48 22.10.2020
6480 Clear 13 1006 33 10000 1.73 190 13:24 22.10.2020
6481 Clear 13 1006 33 10000 1.73 190 12:47 22.10.2020
6482 Clear 16 1004 26 10000 2.19 187 12:23 22.10.2020
6483 Clear 16 1004 26 10000 2.19 187 11:50 22.10.2020
6484 Clear 16 1004 27 10000 1.73 190 11:20 22.10.2020
6485 Clear 16 1004 27 10000 1.73 190 10:49 22.10.2020
6486 Clouds 15 1005 29 10000 2.25 198 10:27 22.10.2020
6487 Clouds 15 1005 29 10000 2.25 198 09:47 22.10.2020
6488 Clouds 15 1007 31 10000 3.12 195 09:28 22.10.2020
6489 Clouds 15 1007 31 10000 3.12 195 08:49 22.10.2020
6490 Clouds 14 1009 34 10000 3.48 197 08:28 22.10.2020
6491 Clear 14 1009 34 10000 3.47 195 07:57 22.10.2020
6492 Clear 14 1009 34 10000 3.47 195 07:34 22.10.2020
6493 Clear 13 1011 37 10000 3.03 190 06:58 22.10.2020
6494 Clear 11 1014 42 10000 2.55 178 06:26 22.10.2020
6495 Clear 11 1014 42 10000 2.55 178 05:40 22.10.2020
6496 Clear 9 1016 48 10000 2.14 172 04:40 22.10.2020
6497 Clear 2 1018 78 10000 2.11 161 01:45 22.10.2020
6498 Clear 3 1016 72 10000 2.39 165 00:26 22.10.2020
6499 Clear 3 1016 72 10000 2.39 165 23:50 21.10.2020
6500 Clear 3 1016 72 10000 2.39 165 23:32 21.10.2020
6501 Clear 4 1016 68 10000 2.28 166 22:43 21.10.2020
6502 Clear 5 1016 64 10000 2.58 171 22:19 21.10.2020
6503 Clear 5 1016 64 10000 2.58 171 21:56 21.10.2020
6504 Clear 5 1016 64 10000 2.58 171 21:37 21.10.2020
6505 Clear 6 1016 60 10000 2.77 172 21:18 21.10.2020
6506 Clear 6 1016 60 10000 2.77 172 20:47 21.10.2020
6507 Clear 7 1016 56 10000 2.92 176 20:19 21.10.2020
6508 Clear 7 1016 56 10000 2.92 176 19:45 21.10.2020
6509 Clear 7 1016 51 10000 2.92 178 19:26 21.10.2020
6510 Clear 7 1016 51 10000 2.92 178 19:26 21.10.2020
6511 Clear 7 1016 51 10000 2.92 178 18:54 21.10.2020
6512 Clear 7 1016 51 10000 2.92 178 18:33 21.10.2020
6513 Clear 8 1016 47 10000 2.75 189 17:57 21.10.2020
6514 Clear 8 1016 47 10000 2.75 189 17:39 21.10.2020
6515 Clear 9 1015 45 10000 2.47 197 17:19 21.10.2020
6516 Clear 9 1015 45 10000 2.47 197 16:40 21.10.2020
6517 Clear 9 1014 44 10000 2.07 199 16:21 21.10.2020
6518 Clear 9 1014 44 10000 2.07 199 15:55 21.10.2020
6519 Clear 9 1014 44 10000 2.07 199 15:36 21.10.2020
6520 Clear 9 1012 45 10000 1.07 207 15:18 21.10.2020
6521 Clear 9 1012 45 10000 1.07 207 14:42 21.10.2020
6522 Clouds 10 1011 44 10000 0.18 247 14:22 21.10.2020
6523 Clouds 10 1010 44 10000 0.18 263 13:42 21.10.2020
6524 Clouds 13 1008 36 10000 0.4 188 13:23 21.10.2020
6525 Clouds 13 1008 36 10000 0.4 188 12:43 21.10.2020
6526 Clouds 15 1007 30 10000 1.17 212 12:23 21.10.2020
6527 Clouds 15 1007 30 10000 1.17 212 11:56 21.10.2020
6528 Clouds 15 1007 30 10000 1.17 212 11:37 21.10.2020
6529 Clouds 15 1007 30 10000 1.95 220 11:18 21.10.2020
6530 Clouds 15 1007 30 10000 1.95 220 10:40 21.10.2020
6531 Clouds 15 1008 31 10000 2.59 211 10:21 21.10.2020
6532 Clouds 15 1008 31 10000 2.59 211 09:49 21.10.2020
6533 Clouds 15 1010 32 10000 2.86 205 09:28 21.10.2020
6534 Clouds 15 1010 32 10000 2.86 205 08:42 21.10.2020
6535 Clear 14 1012 34 10000 2.79 201 08:24 21.10.2020
6536 Clouds 14 1013 36 10000 2.58 199 07:56 21.10.2020
6537 Clouds 12 1015 39 10000 2.41 194 07:24 21.10.2020
6538 Clouds 12 1015 39 10000 2.41 194 06:47 21.10.2020
6539 Clouds 11 1017 44 10000 1.98 185 06:25 21.10.2020
6540 Clouds 8 1020 54 10000 1.73 166 03:48 21.10.2020
6541 Clear 3 1020 74 10000 1.33 150 00:49 21.10.2020
6542 Clear 4 1019 72 10000 1.32 147 23:37 20.10.2020
6543 Clear 4 1018 69 10000 1.24 141 22:47 20.10.2020
6544 Clear 5 1018 67 10000 0.91 126 22:25 20.10.2020
6545 Clear 5 1018 67 10000 0.91 126 21:48 20.10.2020
6546 Clear 5 1018 64 10000 0.94 116 21:20 20.10.2020
6547 Clear 5 1018 64 10000 0.94 116 20:44 20.10.2020
6548 Clouds 6 1018 61 10000 0.99 117 20:24 20.10.2020
6549 Clouds 6 1018 62 10000 1.19 99 19:57 20.10.2020
6550 Clouds 6 1018 62 10000 1.19 99 19:38 20.10.2020
6551 Clouds 7 1018 59 10000 1.11 91 19:20 20.10.2020
6552 Clouds 7 1018 59 10000 1.11 91 18:44 20.10.2020
6553 Clouds 8 1017 57 10000 0.99 102 18:25 20.10.2020
6554 Clouds 8 1017 57 10000 0.99 102 17:41 20.10.2020
6555 Clouds 8 1017 54 10000 1.06 97 17:23 20.10.2020
6556 Clouds 8 1017 54 10000 1.06 97 16:43 20.10.2020
6557 Clouds 8 1017 54 10000 1.06 97 16:43 20.10.2020
6558 Clouds 10 1015 49 10000 1.19 27 16:24 20.10.2020
6559 Clouds 10 1015 49 10000 1.19 27 15:49 20.10.2020
6560 Clouds 10 1015 49 10000 1.19 27 15:30 20.10.2020
6561 Clouds 10 1013 47 10000 1.88 330 14:55 20.10.2020
6562 Clouds 10 1013 47 10000 1.88 330 14:37 20.10.2020
6563 Clouds 11 1011 43 10000 1.71 316 14:19 20.10.2020
6564 Clouds 11 1011 43 10000 1.71 316 13:42 20.10.2020
6565 Clouds 14 1009 35 10000 1.48 236 13:21 20.10.2020
6566 Clouds 14 1009 35 10000 1.48 236 12:54 20.10.2020
6567 Clouds 14 1009 35 10000 1.48 236 12:31 20.10.2020
6568 Clouds 16 1008 31 10000 2.41 214 11:49 20.10.2020
6569 Clouds 16 1008 31 10000 2.41 214 11:30 20.10.2020
6570 Clouds 16 1008 30 10000 2.45 208 10:58 20.10.2020
6571 Clouds 16 1009 31 10000 2.54 195 10:28 20.10.2020
6572 Clouds 16 1009 31 10000 2.54 195 09:50 20.10.2020
6573 Clouds 15 1010 32 10000 2.11 195 09:20 20.10.2020
6574 Clouds 15 1010 32 10000 2.11 195 08:57 20.10.2020
6575 Clouds 15 1010 32 10000 2.11 195 08:30 20.10.2020
6576 Clouds 14 1011 35 10000 2.05 190 07:50 20.10.2020
6577 Clouds 13 1013 39 10000 1.45 187 07:25 20.10.2020
6578 Clouds 11 1015 44 10000 0.93 169 06:25 20.10.2020
6579 Clouds 9 1017 50 10000 0.43 81 05:21 20.10.2020
6580 Clouds 6 1017 64 10000 0.99 21 02:33 20.10.2020
6581 Clouds 4 1017 73 10000 0.95 46 01:59 20.10.2020
6582 Clouds 4 1017 71 10000 1.01 55 00:57 20.10.2020
6583 Clouds 4 1017 71 10000 1.01 55 00:39 20.10.2020
6584 Clouds 5 1016 69 10000 0.73 69 00:18 20.10.2020
6585 Clouds 5 1016 69 10000 0.73 69 00:18 20.10.2020
6586 Clouds 5 1016 69 10000 0.73 69 23:39 19.10.2020
6587 Clouds 6 1015 64 10000 0.7 132 23:18 19.10.2020
6588 Clouds 6 1015 64 10000 0.7 132 22:42 19.10.2020
6589 Clouds 7 1015 58 10000 2.15 154 22:20 19.10.2020
6590 Clouds 7 1015 58 10000 2.15 154 21:41 19.10.2020
6591 Clouds 7 1015 56 10000 2.54 161 21:19 19.10.2020
6592 Clouds 7 1015 56 10000 2.54 161 20:45 19.10.2020
6593 Clouds 8 1014 52 10000 2.47 180 20:26 19.10.2020
6594 Clouds 8 1014 54 10000 2.65 172 19:47 19.10.2020
6595 Clouds 9 1014 49 10000 3.36 178 19:22 19.10.2020
6596 Clouds 9 1014 49 10000 3.36 178 19:22 19.10.2020
6597 Clouds 9 1014 49 10000 3.36 178 18:51 19.10.2020
6598 Clouds 9 1014 49 10000 3.36 178 18:32 19.10.2020
6599 Clouds 10 1014 47 10000 3.42 178 17:56 19.10.2020
6600 Clouds 10 1014 47 10000 3.42 178 17:38 19.10.2020
6601 Clear 10 1013 45 10000 3.29 183 17:19 19.10.2020
6602 Clear 10 1013 45 10000 3.29 183 16:42 19.10.2020
6603 Clear 11 1012 41 10000 3.12 199 16:20 19.10.2020
6604 Clear 11 1012 41 10000 3.12 199 15:40 19.10.2020
6605 Clear 12 1010 37 10000 3.13 202 15:21 19.10.2020
6606 Clear 12 1010 37 10000 3.13 202 14:47 19.10.2020
6607 Clear 13 1008 34 10000 2.35 192 14:24 19.10.2020
6608 Clear 13 1008 34 10000 2.35 192 13:48 19.10.2020
6609 Clouds 13 1008 36 10000 2.7 201 13:30 19.10.2020
6610 Clouds 16 1005 30 10000 2.67 195 12:46 19.10.2020
6611 Clouds 18 1004 26 10000 3.05 209 12:28 19.10.2020
6612 Clouds 18 1004 26 10000 3.05 209 11:51 19.10.2020
6613 Clouds 18 1004 26 10000 2.62 215 11:25 19.10.2020
6614 Clouds 18 1004 26 10000 2.62 215 10:55 19.10.2020
6615 Clouds 18 1004 26 10000 2.62 215 10:36 19.10.2020
6616 Clouds 18 1004 26 10000 2.62 215 10:36 19.10.2020
6617 Clouds 18 1005 27 10000 3.04 213 10:18 19.10.2020
6618 Clouds 18 1005 27 10000 3.04 213 09:42 19.10.2020
6619 Clouds 17 1007 29 10000 3.09 209 09:18 19.10.2020
6620 Clouds 17 1007 29 10000 3.09 209 08:47 19.10.2020
6621 Clear 16 1009 32 10000 3.13 202 08:21 19.10.2020
6622 Clear 14 1011 35 10000 2.99 199 07:22 19.10.2020
6623 Clear 14 1011 35 10000 2.99 199 06:51 19.10.2020
6624 Clear 13 1013 39 10000 2.53 193 06:18 19.10.2020
6625 Clear 9 1017 50 10000 2.07 177 03:47 19.10.2020
6626 Clear 4 1017 70 10000 2.08 170 01:59 19.10.2020
6627 Clear 5 1016 67 10000 2.38 169 00:44 19.10.2020
6628 Clear 6 1015 65 10000 2.51 172 00:19 19.10.2020
6629 Clear 6 1015 65 10000 2.51 172 23:43 18.10.2020
6630 Clear 6 1015 62 10000 2.77 171 23:21 18.10.2020
6631 Clear 6 1015 62 10000 2.77 171 22:46 18.10.2020
6632 Clear 7 1015 59 10000 2.86 174 22:21 18.10.2020
6633 Clear 7 1015 59 10000 2.86 174 21:50 18.10.2020
6634 Clear 7 1015 59 10000 2.86 174 21:30 18.10.2020
6635 Clear 8 1015 56 10000 3.07 173 20:58 18.10.2020
6636 Clear 8 1015 56 10000 3.07 173 20:39 18.10.2020
6637 Clear 9 1015 52 10000 3.07 177 20:19 18.10.2020
6638 Clear 9 1015 52 10000 3.07 177 19:42 18.10.2020
6639 Clear 9 1014 49 10000 3.28 178 19:20 18.10.2020
6640 Clear 9 1014 49 10000 3.28 178 18:48 18.10.2020
6641 Clear 10 1014 44 10000 3.42 176 18:25 18.10.2020
6642 Clear 10 1014 44 10000 3.42 176 17:43 18.10.2020
6643 Clear 12 1013 40 10000 3.28 176 17:24 18.10.2020
6644 Clear 12 1013 40 10000 3.28 176 16:45 18.10.2020
6645 Clouds 12 1012 37 10000 2.64 190 16:26 18.10.2020
6646 Clouds 12 1012 37 10000 2.64 190 15:57 18.10.2020
6647 Clouds 12 1012 37 10000 2.64 190 15:39 18.10.2020